<?xml version="1.0" encoding="UTF-8" standalone="no" ?>
<gpx xmlns="http://www.topografix.com/GPX/1/1" xmlns:xsi="http://www.w3.org/2001/XMLSchema-instance" xsi:schemaLocation="http://www.topografix.com/GPX/1/1 http://www.topografix.com/GPX/1/1/gpx.xsd" version="1.1" creator="VisuGPX - https://www.visugpx.com">
  <metadata>
    <name>trail GR</name>
    <desc><![CDATA[Fait le 9 février 2014]]></desc>
  </metadata>
  <trk>
    <name><![CDATA[2014-02-09T08:01:42Z]]></name>
    <trkseg>
      <trkpt lat="45.83791" lon="4.8251">
        <ele>197</ele>
        <time>2014-02-09T08:01:42Z</time>
      </trkpt>
      <trkpt lat="45.83791" lon="4.82507">
        <ele>197</ele>
        <time>2014-02-09T08:01:43Z</time>
      </trkpt>
      <trkpt lat="45.83793" lon="4.82504">
        <ele>197</ele>
        <time>2014-02-09T08:01:45Z</time>
      </trkpt>
      <trkpt lat="45.83796" lon="4.82503">
        <ele>197</ele>
        <time>2014-02-09T08:01:47Z</time>
      </trkpt>
      <trkpt lat="45.83801" lon="4.82502">
        <ele>197</ele>
        <time>2014-02-09T08:01:50Z</time>
      </trkpt>
      <trkpt lat="45.83807" lon="4.82501">
        <ele>197</ele>
        <time>2014-02-09T08:01:53Z</time>
      </trkpt>
      <trkpt lat="45.83816" lon="4.825">
        <ele>197</ele>
        <time>2014-02-09T08:01:57Z</time>
      </trkpt>
      <trkpt lat="45.83825" lon="4.82496">
        <ele>197</ele>
        <time>2014-02-09T08:02:02Z</time>
      </trkpt>
      <trkpt lat="45.83826" lon="4.82494">
        <ele>197</ele>
        <time>2014-02-09T08:02:03Z</time>
      </trkpt>
      <trkpt lat="45.83829" lon="4.82478">
        <ele>198</ele>
        <time>2014-02-09T08:02:08Z</time>
      </trkpt>
      <trkpt lat="45.8383" lon="4.82469">
        <ele>198</ele>
        <time>2014-02-09T08:02:11Z</time>
      </trkpt>
      <trkpt lat="45.83831" lon="4.82466">
        <ele>198</ele>
        <time>2014-02-09T08:02:12Z</time>
      </trkpt>
      <trkpt lat="45.83831" lon="4.82463">
        <ele>198</ele>
        <time>2014-02-09T08:02:13Z</time>
      </trkpt>
      <trkpt lat="45.83833" lon="4.82441">
        <ele>203</ele>
        <time>2014-02-09T08:02:20Z</time>
      </trkpt>
      <trkpt lat="45.83837" lon="4.82415">
        <ele>200</ele>
        <time>2014-02-09T08:02:28Z</time>
      </trkpt>
      <trkpt lat="45.83839" lon="4.82396">
        <ele>204</ele>
        <time>2014-02-09T08:02:34Z</time>
      </trkpt>
      <trkpt lat="45.83839" lon="4.82388">
        <ele>205</ele>
        <time>2014-02-09T08:02:36Z</time>
      </trkpt>
      <trkpt lat="45.83839" lon="4.82377">
        <ele>206</ele>
        <time>2014-02-09T08:02:39Z</time>
      </trkpt>
      <trkpt lat="45.83842" lon="4.82363">
        <ele>206</ele>
        <time>2014-02-09T08:02:44Z</time>
      </trkpt>
      <trkpt lat="45.83845" lon="4.82357">
        <ele>207</ele>
        <time>2014-02-09T08:02:46Z</time>
      </trkpt>
      <trkpt lat="45.83849" lon="4.82341">
        <ele>206</ele>
        <time>2014-02-09T08:02:51Z</time>
      </trkpt>
      <trkpt lat="45.8385" lon="4.82337">
        <ele>206</ele>
        <time>2014-02-09T08:02:52Z</time>
      </trkpt>
      <trkpt lat="45.83852" lon="4.82323">
        <ele>209</ele>
        <time>2014-02-09T08:02:57Z</time>
      </trkpt>
      <trkpt lat="45.83853" lon="4.82314">
        <ele>210</ele>
        <time>2014-02-09T08:03:00Z</time>
      </trkpt>
      <trkpt lat="45.83854" lon="4.82311">
        <ele>210</ele>
        <time>2014-02-09T08:03:01Z</time>
      </trkpt>
      <trkpt lat="45.83854" lon="4.82309">
        <ele>210</ele>
        <time>2014-02-09T08:03:02Z</time>
      </trkpt>
      <trkpt lat="45.83855" lon="4.82296">
        <ele>211</ele>
        <time>2014-02-09T08:03:07Z</time>
      </trkpt>
      <trkpt lat="45.83856" lon="4.82293">
        <ele>211</ele>
        <time>2014-02-09T08:03:08Z</time>
      </trkpt>
      <trkpt lat="45.83858" lon="4.82286">
        <ele>211</ele>
        <time>2014-02-09T08:03:10Z</time>
      </trkpt>
      <trkpt lat="45.83858" lon="4.82283">
        <ele>212</ele>
        <time>2014-02-09T08:03:11Z</time>
      </trkpt>
      <trkpt lat="45.83858" lon="4.82278">
        <ele>212</ele>
        <time>2014-02-09T08:03:13Z</time>
      </trkpt>
      <trkpt lat="45.83858" lon="4.8226">
        <ele>212</ele>
        <time>2014-02-09T08:03:19Z</time>
      </trkpt>
      <trkpt lat="45.83856" lon="4.82247">
        <ele>214</ele>
        <time>2014-02-09T08:03:24Z</time>
      </trkpt>
      <trkpt lat="45.83857" lon="4.82233">
        <ele>215</ele>
        <time>2014-02-09T08:03:29Z</time>
      </trkpt>
      <trkpt lat="45.83857" lon="4.8223">
        <ele>215</ele>
        <time>2014-02-09T08:03:30Z</time>
      </trkpt>
      <trkpt lat="45.8386" lon="4.8221">
        <ele>216</ele>
        <time>2014-02-09T08:03:37Z</time>
      </trkpt>
      <trkpt lat="45.8386" lon="4.82207">
        <ele>216</ele>
        <time>2014-02-09T08:03:38Z</time>
      </trkpt>
      <trkpt lat="45.83862" lon="4.8219">
        <ele>216</ele>
        <time>2014-02-09T08:03:44Z</time>
      </trkpt>
      <trkpt lat="45.83864" lon="4.8218">
        <ele>217</ele>
        <time>2014-02-09T08:03:47Z</time>
      </trkpt>
      <trkpt lat="45.83864" lon="4.82169">
        <ele>217</ele>
        <time>2014-02-09T08:03:51Z</time>
      </trkpt>
      <trkpt lat="45.83865" lon="4.82153">
        <ele>220</ele>
        <time>2014-02-09T08:03:57Z</time>
      </trkpt>
      <trkpt lat="45.83866" lon="4.82134">
        <ele>221</ele>
        <time>2014-02-09T08:04:03Z</time>
      </trkpt>
      <trkpt lat="45.83868" lon="4.82128">
        <ele>221</ele>
        <time>2014-02-09T08:04:05Z</time>
      </trkpt>
      <trkpt lat="45.8387" lon="4.82116">
        <ele>221</ele>
        <time>2014-02-09T08:04:09Z</time>
      </trkpt>
      <trkpt lat="45.83869" lon="4.82102">
        <ele>221</ele>
        <time>2014-02-09T08:04:14Z</time>
      </trkpt>
      <trkpt lat="45.83869" lon="4.82091">
        <ele>222</ele>
        <time>2014-02-09T08:04:18Z</time>
      </trkpt>
      <trkpt lat="45.8387" lon="4.82089">
        <ele>222</ele>
        <time>2014-02-09T08:04:19Z</time>
      </trkpt>
      <trkpt lat="45.8387" lon="4.82081">
        <ele>225</ele>
        <time>2014-02-09T08:04:22Z</time>
      </trkpt>
      <trkpt lat="45.8387" lon="4.82075">
        <ele>225</ele>
        <time>2014-02-09T08:04:24Z</time>
      </trkpt>
      <trkpt lat="45.8387" lon="4.82066">
        <ele>225</ele>
        <time>2014-02-09T08:04:27Z</time>
      </trkpt>
      <trkpt lat="45.8387" lon="4.82054">
        <ele>226</ele>
        <time>2014-02-09T08:04:32Z</time>
      </trkpt>
      <trkpt lat="45.83871" lon="4.82048">
        <ele>226</ele>
        <time>2014-02-09T08:04:35Z</time>
      </trkpt>
      <trkpt lat="45.83871" lon="4.82043">
        <ele>226</ele>
        <time>2014-02-09T08:04:37Z</time>
      </trkpt>
      <trkpt lat="45.83873" lon="4.82031">
        <ele>227</ele>
        <time>2014-02-09T08:04:44Z</time>
      </trkpt>
      <trkpt lat="45.83874" lon="4.82025">
        <ele>227</ele>
        <time>2014-02-09T08:04:48Z</time>
      </trkpt>
      <trkpt lat="45.83875" lon="4.82022">
        <ele>227</ele>
        <time>2014-02-09T08:04:50Z</time>
      </trkpt>
      <trkpt lat="45.83875" lon="4.8202">
        <ele>227</ele>
        <time>2014-02-09T08:04:51Z</time>
      </trkpt>
      <trkpt lat="45.83874" lon="4.8201">
        <ele>227</ele>
        <time>2014-02-09T08:04:56Z</time>
      </trkpt>
      <trkpt lat="45.83874" lon="4.82008">
        <ele>227</ele>
        <time>2014-02-09T08:04:57Z</time>
      </trkpt>
      <trkpt lat="45.83871" lon="4.81996">
        <ele>231</ele>
        <time>2014-02-09T08:05:03Z</time>
      </trkpt>
      <trkpt lat="45.83868" lon="4.81982">
        <ele>231</ele>
        <time>2014-02-09T08:05:10Z</time>
      </trkpt>
      <trkpt lat="45.83866" lon="4.8197">
        <ele>232</ele>
        <time>2014-02-09T08:05:16Z</time>
      </trkpt>
      <trkpt lat="45.83864" lon="4.81956">
        <ele>232</ele>
        <time>2014-02-09T08:05:23Z</time>
      </trkpt>
      <trkpt lat="45.83864" lon="4.81945">
        <ele>233</ele>
        <time>2014-02-09T08:05:29Z</time>
      </trkpt>
      <trkpt lat="45.83865" lon="4.81943">
        <ele>233</ele>
        <time>2014-02-09T08:05:30Z</time>
      </trkpt>
      <trkpt lat="45.83867" lon="4.81935">
        <ele>233</ele>
        <time>2014-02-09T08:05:34Z</time>
      </trkpt>
      <trkpt lat="45.83867" lon="4.81933">
        <ele>233</ele>
        <time>2014-02-09T08:05:35Z</time>
      </trkpt>
      <trkpt lat="45.83867" lon="4.81925">
        <ele>234</ele>
        <time>2014-02-09T08:05:39Z</time>
      </trkpt>
      <trkpt lat="45.83867" lon="4.81921">
        <ele>234</ele>
        <time>2014-02-09T08:05:41Z</time>
      </trkpt>
      <trkpt lat="45.83868" lon="4.81918">
        <ele>234</ele>
        <time>2014-02-09T08:05:42Z</time>
      </trkpt>
      <trkpt lat="45.83868" lon="4.81912">
        <ele>238</ele>
        <time>2014-02-09T08:05:45Z</time>
      </trkpt>
      <trkpt lat="45.83867" lon="4.81911">
        <ele>238</ele>
        <time>2014-02-09T08:05:46Z</time>
      </trkpt>
      <trkpt lat="45.83865" lon="4.819">
        <ele>238</ele>
        <time>2014-02-09T08:05:51Z</time>
      </trkpt>
      <trkpt lat="45.83864" lon="4.81892">
        <ele>238</ele>
        <time>2014-02-09T08:05:55Z</time>
      </trkpt>
      <trkpt lat="45.83863" lon="4.81887">
        <ele>239</ele>
        <time>2014-02-09T08:05:57Z</time>
      </trkpt>
      <trkpt lat="45.83863" lon="4.81871">
        <ele>239</ele>
        <time>2014-02-09T08:06:04Z</time>
      </trkpt>
      <trkpt lat="45.83863" lon="4.81864">
        <ele>239</ele>
        <time>2014-02-09T08:06:07Z</time>
      </trkpt>
      <trkpt lat="45.83861" lon="4.81854">
        <ele>240</ele>
        <time>2014-02-09T08:06:12Z</time>
      </trkpt>
      <trkpt lat="45.83862" lon="4.81852">
        <ele>240</ele>
        <time>2014-02-09T08:06:13Z</time>
      </trkpt>
      <trkpt lat="45.83866" lon="4.81847">
        <ele>240</ele>
        <time>2014-02-09T08:06:17Z</time>
      </trkpt>
      <trkpt lat="45.8387" lon="4.81844">
        <ele>240</ele>
        <time>2014-02-09T08:06:20Z</time>
      </trkpt>
      <trkpt lat="45.83872" lon="4.81838">
        <ele>240</ele>
        <time>2014-02-09T08:06:23Z</time>
      </trkpt>
      <trkpt lat="45.83881" lon="4.81828">
        <ele>245</ele>
        <time>2014-02-09T08:06:32Z</time>
      </trkpt>
      <trkpt lat="45.83883" lon="4.81825">
        <ele>245</ele>
        <time>2014-02-09T08:06:34Z</time>
      </trkpt>
      <trkpt lat="45.83886" lon="4.81819">
        <ele>245</ele>
        <time>2014-02-09T08:06:39Z</time>
      </trkpt>
      <trkpt lat="45.83888" lon="4.81811">
        <ele>246</ele>
        <time>2014-02-09T08:06:43Z</time>
      </trkpt>
      <trkpt lat="45.83887" lon="4.81807">
        <ele>246</ele>
        <time>2014-02-09T08:06:46Z</time>
      </trkpt>
      <trkpt lat="45.83886" lon="4.818">
        <ele>246</ele>
        <time>2014-02-09T08:06:49Z</time>
      </trkpt>
      <trkpt lat="45.83885" lon="4.81798">
        <ele>246</ele>
        <time>2014-02-09T08:06:50Z</time>
      </trkpt>
      <trkpt lat="45.83885" lon="4.81795">
        <ele>246</ele>
        <time>2014-02-09T08:06:52Z</time>
      </trkpt>
      <trkpt lat="45.83883" lon="4.8178">
        <ele>247</ele>
        <time>2014-02-09T08:06:59Z</time>
      </trkpt>
      <trkpt lat="45.83883" lon="4.81773">
        <ele>247</ele>
        <time>2014-02-09T08:07:02Z</time>
      </trkpt>
      <trkpt lat="45.83883" lon="4.81769">
        <ele>247</ele>
        <time>2014-02-09T08:07:04Z</time>
      </trkpt>
      <trkpt lat="45.83882" lon="4.81759">
        <ele>247</ele>
        <time>2014-02-09T08:07:09Z</time>
      </trkpt>
      <trkpt lat="45.8388" lon="4.81751">
        <ele>247</ele>
        <time>2014-02-09T08:07:13Z</time>
      </trkpt>
      <trkpt lat="45.83879" lon="4.81747">
        <ele>254</ele>
        <time>2014-02-09T08:07:15Z</time>
      </trkpt>
      <trkpt lat="45.83877" lon="4.81741">
        <ele>254</ele>
        <time>2014-02-09T08:07:18Z</time>
      </trkpt>
      <trkpt lat="45.83873" lon="4.81731">
        <ele>255</ele>
        <time>2014-02-09T08:07:25Z</time>
      </trkpt>
      <trkpt lat="45.83872" lon="4.81725">
        <ele>255</ele>
        <time>2014-02-09T08:07:29Z</time>
      </trkpt>
      <trkpt lat="45.83873" lon="4.81723">
        <ele>255</ele>
        <time>2014-02-09T08:07:31Z</time>
      </trkpt>
      <trkpt lat="45.83873" lon="4.81722">
        <ele>255</ele>
        <time>2014-02-09T08:07:32Z</time>
      </trkpt>
      <trkpt lat="45.83873" lon="4.81721">
        <ele>255</ele>
        <time>2014-02-09T08:07:33Z</time>
      </trkpt>
      <trkpt lat="45.83872" lon="4.81714">
        <ele>256</ele>
        <time>2014-02-09T08:07:38Z</time>
      </trkpt>
      <trkpt lat="45.83873" lon="4.81705">
        <ele>257</ele>
        <time>2014-02-09T08:07:45Z</time>
      </trkpt>
      <trkpt lat="45.83874" lon="4.81698">
        <ele>257</ele>
        <time>2014-02-09T08:07:51Z</time>
      </trkpt>
      <trkpt lat="45.83873" lon="4.81696">
        <ele>257</ele>
        <time>2014-02-09T08:07:52Z</time>
      </trkpt>
      <trkpt lat="45.83873" lon="4.81692">
        <ele>258</ele>
        <time>2014-02-09T08:07:57Z</time>
      </trkpt>
      <trkpt lat="45.83874" lon="4.81684">
        <ele>258</ele>
        <time>2014-02-09T08:08:04Z</time>
      </trkpt>
      <trkpt lat="45.83873" lon="4.81677">
        <ele>258</ele>
        <time>2014-02-09T08:08:11Z</time>
      </trkpt>
      <trkpt lat="45.83873" lon="4.81673">
        <ele>259</ele>
        <time>2014-02-09T08:08:16Z</time>
      </trkpt>
      <trkpt lat="45.83872" lon="4.8167">
        <ele>259</ele>
        <time>2014-02-09T08:08:20Z</time>
      </trkpt>
      <trkpt lat="45.83872" lon="4.81669">
        <ele>259</ele>
        <time>2014-02-09T08:08:21Z</time>
      </trkpt>
      <trkpt lat="45.83871" lon="4.81664">
        <ele>269</ele>
        <time>2014-02-09T08:08:26Z</time>
      </trkpt>
      <trkpt lat="45.8387" lon="4.81659">
        <ele>269</ele>
        <time>2014-02-09T08:08:32Z</time>
      </trkpt>
      <trkpt lat="45.8387" lon="4.81656">
        <ele>269</ele>
        <time>2014-02-09T08:08:37Z</time>
      </trkpt>
      <trkpt lat="45.8387" lon="4.81649">
        <ele>270</ele>
        <time>2014-02-09T08:08:44Z</time>
      </trkpt>
      <trkpt lat="45.83871" lon="4.81645">
        <ele>270</ele>
        <time>2014-02-09T08:08:49Z</time>
      </trkpt>
      <trkpt lat="45.83871" lon="4.81643">
        <ele>270</ele>
        <time>2014-02-09T08:08:51Z</time>
      </trkpt>
      <trkpt lat="45.83871" lon="4.8164">
        <ele>271</ele>
        <time>2014-02-09T08:08:54Z</time>
      </trkpt>
      <trkpt lat="45.83872" lon="4.81635">
        <ele>271</ele>
        <time>2014-02-09T08:09:00Z</time>
      </trkpt>
      <trkpt lat="45.83872" lon="4.8163">
        <ele>272</ele>
        <time>2014-02-09T08:09:05Z</time>
      </trkpt>
      <trkpt lat="45.83872" lon="4.81625">
        <ele>272</ele>
        <time>2014-02-09T08:09:11Z</time>
      </trkpt>
      <trkpt lat="45.83873" lon="4.81619">
        <ele>273</ele>
        <time>2014-02-09T08:09:17Z</time>
      </trkpt>
      <trkpt lat="45.83873" lon="4.81617">
        <ele>273</ele>
        <time>2014-02-09T08:09:19Z</time>
      </trkpt>
      <trkpt lat="45.83873" lon="4.81613">
        <ele>274</ele>
        <time>2014-02-09T08:09:23Z</time>
      </trkpt>
      <trkpt lat="45.83874" lon="4.81607">
        <ele>274</ele>
        <time>2014-02-09T08:09:28Z</time>
      </trkpt>
      <trkpt lat="45.83875" lon="4.81604">
        <ele>274</ele>
        <time>2014-02-09T08:09:33Z</time>
      </trkpt>
      <trkpt lat="45.8388" lon="4.81603">
        <ele>275</ele>
        <time>2014-02-09T08:09:38Z</time>
      </trkpt>
      <trkpt lat="45.83883" lon="4.81599">
        <ele>275</ele>
        <time>2014-02-09T08:09:43Z</time>
      </trkpt>
      <trkpt lat="45.83884" lon="4.81599">
        <ele>275</ele>
        <time>2014-02-09T08:09:52Z</time>
      </trkpt>
      <trkpt lat="45.83886" lon="4.81599">
        <ele>275</ele>
        <time>2014-02-09T08:10:04Z</time>
      </trkpt>
      <trkpt lat="45.83885" lon="4.81599">
        <ele>275</ele>
        <time>2014-02-09T08:10:20Z</time>
      </trkpt>
      <trkpt lat="45.83884" lon="4.81598">
        <ele>275</ele>
        <time>2014-02-09T08:10:26Z</time>
      </trkpt>
      <trkpt lat="45.83884" lon="4.81597">
        <ele>275</ele>
        <time>2014-02-09T08:10:34Z</time>
      </trkpt>
      <trkpt lat="45.83888" lon="4.81594">
        <ele>276</ele>
        <time>2014-02-09T08:10:51Z</time>
      </trkpt>
      <trkpt lat="45.83886" lon="4.81591">
        <ele>276</ele>
        <time>2014-02-09T08:10:55Z</time>
      </trkpt>
      <trkpt lat="45.83887" lon="4.81587">
        <ele>276</ele>
        <time>2014-02-09T08:10:58Z</time>
      </trkpt>
      <trkpt lat="45.83889" lon="4.81587">
        <ele>276</ele>
        <time>2014-02-09T08:11:00Z</time>
      </trkpt>
      <trkpt lat="45.8389" lon="4.81588">
        <ele>276</ele>
        <time>2014-02-09T08:11:07Z</time>
      </trkpt>
      <trkpt lat="45.83891" lon="4.81588">
        <ele>276</ele>
        <time>2014-02-09T08:11:08Z</time>
      </trkpt>
      <trkpt lat="45.83897" lon="4.81587">
        <ele>277</ele>
        <time>2014-02-09T08:11:13Z</time>
      </trkpt>
      <trkpt lat="45.83901" lon="4.81589">
        <ele>277</ele>
        <time>2014-02-09T08:11:19Z</time>
      </trkpt>
      <trkpt lat="45.839" lon="4.8159">
        <ele>277</ele>
        <time>2014-02-09T08:11:23Z</time>
      </trkpt>
      <trkpt lat="45.83897" lon="4.81586">
        <ele>277</ele>
        <time>2014-02-09T08:11:28Z</time>
      </trkpt>
      <trkpt lat="45.83896" lon="4.81584">
        <ele>277</ele>
        <time>2014-02-09T08:11:29Z</time>
      </trkpt>
      <trkpt lat="45.83896" lon="4.8158">
        <ele>286</ele>
        <time>2014-02-09T08:11:32Z</time>
      </trkpt>
      <trkpt lat="45.83898" lon="4.81574">
        <ele>287</ele>
        <time>2014-02-09T08:11:37Z</time>
      </trkpt>
      <trkpt lat="45.83899" lon="4.81573">
        <ele>287</ele>
        <time>2014-02-09T08:11:38Z</time>
      </trkpt>
      <trkpt lat="45.83899" lon="4.81572">
        <ele>287</ele>
        <time>2014-02-09T08:11:39Z</time>
      </trkpt>
      <trkpt lat="45.83902" lon="4.81569">
        <ele>287</ele>
        <time>2014-02-09T08:11:43Z</time>
      </trkpt>
      <trkpt lat="45.83902" lon="4.81569">
        <ele>287</ele>
        <time>2014-02-09T08:11:44Z</time>
      </trkpt>
      <trkpt lat="45.83904" lon="4.81571">
        <ele>286</ele>
        <time>2014-02-09T08:11:48Z</time>
      </trkpt>
      <trkpt lat="45.83905" lon="4.81571">
        <ele>286</ele>
        <time>2014-02-09T08:11:49Z</time>
      </trkpt>
      <trkpt lat="45.83908" lon="4.8157">
        <ele>286</ele>
        <time>2014-02-09T08:11:52Z</time>
      </trkpt>
      <trkpt lat="45.8391" lon="4.81568">
        <ele>287</ele>
        <time>2014-02-09T08:11:58Z</time>
      </trkpt>
      <trkpt lat="45.83912" lon="4.81564">
        <ele>287</ele>
        <time>2014-02-09T08:12:07Z</time>
      </trkpt>
      <trkpt lat="45.83913" lon="4.81564">
        <ele>287</ele>
        <time>2014-02-09T08:12:09Z</time>
      </trkpt>
      <trkpt lat="45.83914" lon="4.81565">
        <ele>287</ele>
        <time>2014-02-09T08:12:10Z</time>
      </trkpt>
      <trkpt lat="45.83918" lon="4.81568">
        <ele>290</ele>
        <time>2014-02-09T08:12:15Z</time>
      </trkpt>
      <trkpt lat="45.83921" lon="4.8157">
        <ele>289</ele>
        <time>2014-02-09T08:12:18Z</time>
      </trkpt>
      <trkpt lat="45.83923" lon="4.81571">
        <ele>289</ele>
        <time>2014-02-09T08:12:20Z</time>
      </trkpt>
      <trkpt lat="45.83927" lon="4.81572">
        <ele>290</ele>
        <time>2014-02-09T08:12:23Z</time>
      </trkpt>
      <trkpt lat="45.83932" lon="4.81573">
        <ele>291</ele>
        <time>2014-02-09T08:12:26Z</time>
      </trkpt>
      <trkpt lat="45.83933" lon="4.81572">
        <ele>291</ele>
        <time>2014-02-09T08:12:27Z</time>
      </trkpt>
      <trkpt lat="45.83936" lon="4.81571">
        <ele>292</ele>
        <time>2014-02-09T08:12:29Z</time>
      </trkpt>
      <trkpt lat="45.83937" lon="4.81571">
        <ele>292</ele>
        <time>2014-02-09T08:12:30Z</time>
      </trkpt>
      <trkpt lat="45.8394" lon="4.81571">
        <ele>293</ele>
        <time>2014-02-09T08:12:32Z</time>
      </trkpt>
      <trkpt lat="45.83942" lon="4.81573">
        <ele>293</ele>
        <time>2014-02-09T08:12:34Z</time>
      </trkpt>
      <trkpt lat="45.8395" lon="4.81574">
        <ele>294</ele>
        <time>2014-02-09T08:12:39Z</time>
      </trkpt>
      <trkpt lat="45.83955" lon="4.81578">
        <ele>295</ele>
        <time>2014-02-09T08:12:43Z</time>
      </trkpt>
      <trkpt lat="45.83957" lon="4.81583">
        <ele>295</ele>
        <time>2014-02-09T08:12:46Z</time>
      </trkpt>
      <trkpt lat="45.83959" lon="4.81584">
        <ele>283</ele>
        <time>2014-02-09T08:12:48Z</time>
      </trkpt>
      <trkpt lat="45.83963" lon="4.81585">
        <ele>283</ele>
        <time>2014-02-09T08:12:51Z</time>
      </trkpt>
      <trkpt lat="45.83964" lon="4.81585">
        <ele>284</ele>
        <time>2014-02-09T08:12:53Z</time>
      </trkpt>
      <trkpt lat="45.83966" lon="4.81586">
        <ele>284</ele>
        <time>2014-02-09T08:12:55Z</time>
      </trkpt>
      <trkpt lat="45.83969" lon="4.81585">
        <ele>284</ele>
        <time>2014-02-09T08:12:58Z</time>
      </trkpt>
      <trkpt lat="45.8397" lon="4.81585">
        <ele>284</ele>
        <time>2014-02-09T08:12:59Z</time>
      </trkpt>
      <trkpt lat="45.83973" lon="4.81592">
        <ele>285</ele>
        <time>2014-02-09T08:13:04Z</time>
      </trkpt>
      <trkpt lat="45.83976" lon="4.81597">
        <ele>285</ele>
        <time>2014-02-09T08:13:12Z</time>
      </trkpt>
      <trkpt lat="45.83981" lon="4.81597">
        <ele>285</ele>
        <time>2014-02-09T08:13:16Z</time>
      </trkpt>
      <trkpt lat="45.83982" lon="4.81597">
        <ele>286</ele>
        <time>2014-02-09T08:13:17Z</time>
      </trkpt>
      <trkpt lat="45.83984" lon="4.81594">
        <ele>286</ele>
        <time>2014-02-09T08:13:24Z</time>
      </trkpt>
      <trkpt lat="45.83986" lon="4.81592">
        <ele>287</ele>
        <time>2014-02-09T08:13:29Z</time>
      </trkpt>
      <trkpt lat="45.83986" lon="4.81589">
        <ele>288</ele>
        <time>2014-02-09T08:13:32Z</time>
      </trkpt>
      <trkpt lat="45.83988" lon="4.81587">
        <ele>288</ele>
        <time>2014-02-09T08:13:34Z</time>
      </trkpt>
      <trkpt lat="45.83989" lon="4.81584">
        <ele>289</ele>
        <time>2014-02-09T08:13:39Z</time>
      </trkpt>
      <trkpt lat="45.8399" lon="4.81588">
        <ele>289</ele>
        <time>2014-02-09T08:13:57Z</time>
      </trkpt>
      <trkpt lat="45.83994" lon="4.81587">
        <ele>291</ele>
        <time>2014-02-09T08:14:03Z</time>
      </trkpt>
      <trkpt lat="45.83998" lon="4.81583">
        <ele>294</ele>
        <time>2014-02-09T08:14:12Z</time>
      </trkpt>
      <trkpt lat="45.83998" lon="4.81581">
        <ele>295</ele>
        <time>2014-02-09T08:14:13Z</time>
      </trkpt>
      <trkpt lat="45.83999" lon="4.81579">
        <ele>295</ele>
        <time>2014-02-09T08:14:15Z</time>
      </trkpt>
      <trkpt lat="45.84" lon="4.81576">
        <ele>295</ele>
        <time>2014-02-09T08:14:17Z</time>
      </trkpt>
      <trkpt lat="45.84002" lon="4.8157">
        <ele>305</ele>
        <time>2014-02-09T08:14:23Z</time>
      </trkpt>
      <trkpt lat="45.84001" lon="4.8157">
        <ele>305</ele>
        <time>2014-02-09T08:14:27Z</time>
      </trkpt>
      <trkpt lat="45.83999" lon="4.8157">
        <ele>296</ele>
        <time>2014-02-09T08:14:29Z</time>
      </trkpt>
      <trkpt lat="45.83997" lon="4.81566">
        <ele>297</ele>
        <time>2014-02-09T08:14:32Z</time>
      </trkpt>
      <trkpt lat="45.83996" lon="4.81565">
        <ele>297</ele>
        <time>2014-02-09T08:14:33Z</time>
      </trkpt>
      <trkpt lat="45.83995" lon="4.81561">
        <ele>298</ele>
        <time>2014-02-09T08:14:35Z</time>
      </trkpt>
      <trkpt lat="45.83994" lon="4.81558">
        <ele>298</ele>
        <time>2014-02-09T08:14:39Z</time>
      </trkpt>
      <trkpt lat="45.83994" lon="4.81555">
        <ele>298</ele>
        <time>2014-02-09T08:14:45Z</time>
      </trkpt>
      <trkpt lat="45.83994" lon="4.81554">
        <ele>299</ele>
        <time>2014-02-09T08:14:46Z</time>
      </trkpt>
      <trkpt lat="45.83993" lon="4.81551">
        <ele>299</ele>
        <time>2014-02-09T08:14:49Z</time>
      </trkpt>
      <trkpt lat="45.83992" lon="4.81549">
        <ele>299</ele>
        <time>2014-02-09T08:14:52Z</time>
      </trkpt>
      <trkpt lat="45.83994" lon="4.81547">
        <ele>300</ele>
        <time>2014-02-09T08:14:57Z</time>
      </trkpt>
      <trkpt lat="45.83994" lon="4.81549">
        <ele>299</ele>
        <time>2014-02-09T08:15:09Z</time>
      </trkpt>
      <trkpt lat="45.83993" lon="4.81549">
        <ele>299</ele>
        <time>2014-02-09T08:15:21Z</time>
      </trkpt>
      <trkpt lat="45.8399" lon="4.81547">
        <ele>300</ele>
        <time>2014-02-09T08:15:38Z</time>
      </trkpt>
      <trkpt lat="45.83992" lon="4.81548">
        <ele>300</ele>
        <time>2014-02-09T08:15:41Z</time>
      </trkpt>
      <trkpt lat="45.83994" lon="4.81547">
        <ele>300</ele>
        <time>2014-02-09T08:15:43Z</time>
      </trkpt>
      <trkpt lat="45.83995" lon="4.81544">
        <ele>300</ele>
        <time>2014-02-09T08:15:47Z</time>
      </trkpt>
      <trkpt lat="45.83995" lon="4.81542">
        <ele>301</ele>
        <time>2014-02-09T08:15:51Z</time>
      </trkpt>
      <trkpt lat="45.83995" lon="4.81541">
        <ele>301</ele>
        <time>2014-02-09T08:15:52Z</time>
      </trkpt>
      <trkpt lat="45.83996" lon="4.81539">
        <ele>301</ele>
        <time>2014-02-09T08:15:53Z</time>
      </trkpt>
      <trkpt lat="45.84" lon="4.81533">
        <ele>317</ele>
        <time>2014-02-09T08:15:57Z</time>
      </trkpt>
      <trkpt lat="45.84002" lon="4.81531">
        <ele>317</ele>
        <time>2014-02-09T08:15:59Z</time>
      </trkpt>
      <trkpt lat="45.84003" lon="4.81529">
        <ele>317</ele>
        <time>2014-02-09T08:16:01Z</time>
      </trkpt>
      <trkpt lat="45.84003" lon="4.81527">
        <ele>317</ele>
        <time>2014-02-09T08:16:02Z</time>
      </trkpt>
      <trkpt lat="45.84003" lon="4.81521">
        <ele>318</ele>
        <time>2014-02-09T08:16:07Z</time>
      </trkpt>
      <trkpt lat="45.84003" lon="4.8152">
        <ele>318</ele>
        <time>2014-02-09T08:16:08Z</time>
      </trkpt>
      <trkpt lat="45.84006" lon="4.81515">
        <ele>318</ele>
        <time>2014-02-09T08:16:17Z</time>
      </trkpt>
      <trkpt lat="45.84005" lon="4.81517">
        <ele>318</ele>
        <time>2014-02-09T08:16:23Z</time>
      </trkpt>
      <trkpt lat="45.84004" lon="4.8152">
        <ele>318</ele>
        <time>2014-02-09T08:16:26Z</time>
      </trkpt>
      <trkpt lat="45.84008" lon="4.81519">
        <ele>318</ele>
        <time>2014-02-09T08:16:33Z</time>
      </trkpt>
      <trkpt lat="45.84008" lon="4.81519">
        <ele>318</ele>
        <time>2014-02-09T08:16:38Z</time>
      </trkpt>
      <trkpt lat="45.8401" lon="4.81516">
        <ele>318</ele>
        <time>2014-02-09T08:17:18Z</time>
      </trkpt>
      <trkpt lat="45.84009" lon="4.81514">
        <ele>318</ele>
        <time>2014-02-09T08:17:21Z</time>
      </trkpt>
      <trkpt lat="45.84008" lon="4.81513">
        <ele>318</ele>
        <time>2014-02-09T08:17:29Z</time>
      </trkpt>
      <trkpt lat="45.84009" lon="4.8151">
        <ele>318</ele>
        <time>2014-02-09T08:17:38Z</time>
      </trkpt>
      <trkpt lat="45.84005" lon="4.81508">
        <ele>317</ele>
        <time>2014-02-09T08:17:56Z</time>
      </trkpt>
      <trkpt lat="45.84002" lon="4.81509">
        <ele>317</ele>
        <time>2014-02-09T08:18:05Z</time>
      </trkpt>
      <trkpt lat="45.84007" lon="4.81528">
        <ele>318</ele>
        <time>2014-02-09T08:18:10Z</time>
      </trkpt>
      <trkpt lat="45.8401" lon="4.81522">
        <ele>318</ele>
        <time>2014-02-09T08:18:13Z</time>
      </trkpt>
      <trkpt lat="45.84011" lon="4.8152">
        <ele>318</ele>
        <time>2014-02-09T08:18:18Z</time>
      </trkpt>
      <trkpt lat="45.84013" lon="4.81518">
        <ele>319</ele>
        <time>2014-02-09T08:18:21Z</time>
      </trkpt>
      <trkpt lat="45.84013" lon="4.81516">
        <ele>319</ele>
        <time>2014-02-09T08:18:22Z</time>
      </trkpt>
      <trkpt lat="45.84013" lon="4.81518">
        <ele>319</ele>
        <time>2014-02-09T08:18:26Z</time>
      </trkpt>
      <trkpt lat="45.84012" lon="4.81522">
        <ele>318</ele>
        <time>2014-02-09T08:18:27Z</time>
      </trkpt>
      <trkpt lat="45.84011" lon="4.81528">
        <ele>318</ele>
        <time>2014-02-09T08:18:29Z</time>
      </trkpt>
      <trkpt lat="45.84012" lon="4.81527">
        <ele>318</ele>
        <time>2014-02-09T08:18:31Z</time>
      </trkpt>
      <trkpt lat="45.8401" lon="4.81527">
        <ele>318</ele>
        <time>2014-02-09T08:18:33Z</time>
      </trkpt>
      <trkpt lat="45.84011" lon="4.81519">
        <ele>318</ele>
        <time>2014-02-09T08:18:39Z</time>
      </trkpt>
      <trkpt lat="45.84011" lon="4.81519">
        <ele>318</ele>
        <time>2014-02-09T08:18:40Z</time>
      </trkpt>
      <trkpt lat="45.84011" lon="4.81526">
        <ele>318</ele>
        <time>2014-02-09T08:18:45Z</time>
      </trkpt>
      <trkpt lat="45.84012" lon="4.81523">
        <ele>319</ele>
        <time>2014-02-09T08:18:51Z</time>
      </trkpt>
      <trkpt lat="45.84013" lon="4.81531">
        <ele>318</ele>
        <time>2014-02-09T08:18:53Z</time>
      </trkpt>
      <trkpt lat="45.84012" lon="4.81536">
        <ele>317</ele>
        <time>2014-02-09T08:18:54Z</time>
      </trkpt>
      <trkpt lat="45.84012" lon="4.81533">
        <ele>318</ele>
        <time>2014-02-09T08:18:57Z</time>
      </trkpt>
      <trkpt lat="45.84007" lon="4.8152">
        <ele>318</ele>
        <time>2014-02-09T08:19:08Z</time>
      </trkpt>
      <trkpt lat="45.84008" lon="4.81521">
        <ele>318</ele>
        <time>2014-02-09T08:19:09Z</time>
      </trkpt>
      <trkpt lat="45.84006" lon="4.81525">
        <ele>318</ele>
        <time>2014-02-09T08:19:16Z</time>
      </trkpt>
      <trkpt lat="45.84009" lon="4.8152">
        <ele>318</ele>
        <time>2014-02-09T08:19:19Z</time>
      </trkpt>
      <trkpt lat="45.84007" lon="4.81525">
        <ele>318</ele>
        <time>2014-02-09T08:19:22Z</time>
      </trkpt>
      <trkpt lat="45.84005" lon="4.81529">
        <ele>317</ele>
        <time>2014-02-09T08:19:30Z</time>
      </trkpt>
      <trkpt lat="45.84005" lon="4.81526">
        <ele>318</ele>
        <time>2014-02-09T08:20:05Z</time>
      </trkpt>
      <trkpt lat="45.84004" lon="4.81525">
        <ele>318</ele>
        <time>2014-02-09T08:20:09Z</time>
      </trkpt>
      <trkpt lat="45.84004" lon="4.81523">
        <ele>318</ele>
        <time>2014-02-09T08:20:13Z</time>
      </trkpt>
      <trkpt lat="45.84004" lon="4.81522">
        <ele>318</ele>
        <time>2014-02-09T08:20:14Z</time>
      </trkpt>
      <trkpt lat="45.84005" lon="4.81526">
        <ele>318</ele>
        <time>2014-02-09T08:20:17Z</time>
      </trkpt>
      <trkpt lat="45.84006" lon="4.81533">
        <ele>317</ele>
        <time>2014-02-09T08:20:20Z</time>
      </trkpt>
      <trkpt lat="45.84004" lon="4.81536">
        <ele>317</ele>
        <time>2014-02-09T08:20:25Z</time>
      </trkpt>
      <trkpt lat="45.84002" lon="4.81529">
        <ele>317</ele>
        <time>2014-02-09T08:20:32Z</time>
      </trkpt>
      <trkpt lat="45.84003" lon="4.81523">
        <ele>318</ele>
        <time>2014-02-09T08:20:35Z</time>
      </trkpt>
      <trkpt lat="45.84001" lon="4.81521">
        <ele>317</ele>
        <time>2014-02-09T08:20:39Z</time>
      </trkpt>
      <trkpt lat="45.84001" lon="4.81524">
        <ele>317</ele>
        <time>2014-02-09T08:20:40Z</time>
      </trkpt>
      <trkpt lat="45.84002" lon="4.81533">
        <ele>317</ele>
        <time>2014-02-09T08:20:41Z</time>
      </trkpt>
      <trkpt lat="45.84002" lon="4.81539">
        <ele>316</ele>
        <time>2014-02-09T08:20:43Z</time>
      </trkpt>
      <trkpt lat="45.84002" lon="4.81546">
        <ele>315</ele>
        <time>2014-02-09T08:20:46Z</time>
      </trkpt>
      <trkpt lat="45.84003" lon="4.81544">
        <ele>315</ele>
        <time>2014-02-09T08:20:48Z</time>
      </trkpt>
      <trkpt lat="45.84001" lon="4.81542">
        <ele>315</ele>
        <time>2014-02-09T08:20:51Z</time>
      </trkpt>
      <trkpt lat="45.84" lon="4.8154">
        <ele>301</ele>
        <time>2014-02-09T08:20:52Z</time>
      </trkpt>
      <trkpt lat="45.83998" lon="4.81535">
        <ele>302</ele>
        <time>2014-02-09T08:20:59Z</time>
      </trkpt>
      <trkpt lat="45.84009" lon="4.8153">
        <ele>318</ele>
        <time>2014-02-09T08:21:10Z</time>
      </trkpt>
      <trkpt lat="45.84009" lon="4.81529">
        <ele>318</ele>
        <time>2014-02-09T08:21:13Z</time>
      </trkpt>
      <trkpt lat="45.84008" lon="4.81527">
        <ele>318</ele>
        <time>2014-02-09T08:21:14Z</time>
      </trkpt>
      <trkpt lat="45.84008" lon="4.81516">
        <ele>318</ele>
        <time>2014-02-09T08:21:33Z</time>
      </trkpt>
      <trkpt lat="45.84009" lon="4.81516">
        <ele>318</ele>
        <time>2014-02-09T08:21:34Z</time>
      </trkpt>
      <trkpt lat="45.8401" lon="4.8152">
        <ele>318</ele>
        <time>2014-02-09T08:21:38Z</time>
      </trkpt>
      <trkpt lat="45.84011" lon="4.81522">
        <ele>318</ele>
        <time>2014-02-09T08:21:39Z</time>
      </trkpt>
      <trkpt lat="45.84011" lon="4.81522">
        <ele>318</ele>
        <time>2014-02-09T08:21:40Z</time>
      </trkpt>
      <trkpt lat="45.84012" lon="4.81522">
        <ele>318</ele>
        <time>2014-02-09T08:21:42Z</time>
      </trkpt>
      <trkpt lat="45.84015" lon="4.81517">
        <ele>319</ele>
        <time>2014-02-09T08:21:48Z</time>
      </trkpt>
      <trkpt lat="45.84015" lon="4.8152">
        <ele>319</ele>
        <time>2014-02-09T08:21:54Z</time>
      </trkpt>
      <trkpt lat="45.84017" lon="4.81521">
        <ele>319</ele>
        <time>2014-02-09T08:21:59Z</time>
      </trkpt>
      <trkpt lat="45.84019" lon="4.81521">
        <ele>320</ele>
        <time>2014-02-09T08:22:04Z</time>
      </trkpt>
      <trkpt lat="45.84022" lon="4.81522">
        <ele>320</ele>
        <time>2014-02-09T08:22:10Z</time>
      </trkpt>
      <trkpt lat="45.84026" lon="4.81523">
        <ele>321</ele>
        <time>2014-02-09T08:22:15Z</time>
      </trkpt>
      <trkpt lat="45.84028" lon="4.81525">
        <ele>321</ele>
        <time>2014-02-09T08:22:18Z</time>
      </trkpt>
      <trkpt lat="45.84028" lon="4.81526">
        <ele>321</ele>
        <time>2014-02-09T08:22:19Z</time>
      </trkpt>
      <trkpt lat="45.84028" lon="4.81528">
        <ele>321</ele>
        <time>2014-02-09T08:22:22Z</time>
      </trkpt>
      <trkpt lat="45.84027" lon="4.8153">
        <ele>320</ele>
        <time>2014-02-09T08:22:24Z</time>
      </trkpt>
      <trkpt lat="45.84025" lon="4.81531">
        <ele>320</ele>
        <time>2014-02-09T08:22:27Z</time>
      </trkpt>
      <trkpt lat="45.84027" lon="4.81531">
        <ele>320</ele>
        <time>2014-02-09T08:22:30Z</time>
      </trkpt>
      <trkpt lat="45.84029" lon="4.81531">
        <ele>321</ele>
        <time>2014-02-09T08:22:33Z</time>
      </trkpt>
      <trkpt lat="45.84032" lon="4.8153">
        <ele>321</ele>
        <time>2014-02-09T08:22:40Z</time>
      </trkpt>
      <trkpt lat="45.84035" lon="4.81528">
        <ele>322</ele>
        <time>2014-02-09T08:22:48Z</time>
      </trkpt>
      <trkpt lat="45.84034" lon="4.81526">
        <ele>322</ele>
        <time>2014-02-09T08:22:52Z</time>
      </trkpt>
      <trkpt lat="45.84033" lon="4.81523">
        <ele>322</ele>
        <time>2014-02-09T08:22:55Z</time>
      </trkpt>
      <trkpt lat="45.84032" lon="4.81519">
        <ele>322</ele>
        <time>2014-02-09T08:22:58Z</time>
      </trkpt>
      <trkpt lat="45.84032" lon="4.81518">
        <ele>322</ele>
        <time>2014-02-09T08:22:59Z</time>
      </trkpt>
      <trkpt lat="45.84031" lon="4.81514">
        <ele>322</ele>
        <time>2014-02-09T08:23:03Z</time>
      </trkpt>
      <trkpt lat="45.8403" lon="4.81511">
        <ele>322</ele>
        <time>2014-02-09T08:23:08Z</time>
      </trkpt>
      <trkpt lat="45.84032" lon="4.81509">
        <ele>323</ele>
        <time>2014-02-09T08:23:12Z</time>
      </trkpt>
      <trkpt lat="45.84033" lon="4.81507">
        <ele>323</ele>
        <time>2014-02-09T08:23:17Z</time>
      </trkpt>
      <trkpt lat="45.84035" lon="4.81507">
        <ele>323</ele>
        <time>2014-02-09T08:23:21Z</time>
      </trkpt>
      <trkpt lat="45.84034" lon="4.81505">
        <ele>323</ele>
        <time>2014-02-09T08:23:26Z</time>
      </trkpt>
      <trkpt lat="45.84033" lon="4.81503">
        <ele>323</ele>
        <time>2014-02-09T08:23:33Z</time>
      </trkpt>
      <trkpt lat="45.84035" lon="4.81499">
        <ele>340</ele>
        <time>2014-02-09T08:23:41Z</time>
      </trkpt>
      <trkpt lat="45.84035" lon="4.81499">
        <ele>341</ele>
        <time>2014-02-09T08:23:42Z</time>
      </trkpt>
      <trkpt lat="45.84038" lon="4.81497">
        <ele>342</ele>
        <time>2014-02-09T08:23:51Z</time>
      </trkpt>
      <trkpt lat="45.84041" lon="4.815">
        <ele>342</ele>
        <time>2014-02-09T08:23:57Z</time>
      </trkpt>
      <trkpt lat="45.84042" lon="4.815">
        <ele>326</ele>
        <time>2014-02-09T08:24:07Z</time>
      </trkpt>
      <trkpt lat="45.84044" lon="4.81499">
        <ele>344</ele>
        <time>2014-02-09T08:24:17Z</time>
      </trkpt>
      <trkpt lat="45.84051" lon="4.815">
        <ele>329</ele>
        <time>2014-02-09T08:24:35Z</time>
      </trkpt>
      <trkpt lat="45.84053" lon="4.81501">
        <ele>330</ele>
        <time>2014-02-09T08:24:37Z</time>
      </trkpt>
      <trkpt lat="45.84054" lon="4.81501">
        <ele>330</ele>
        <time>2014-02-09T08:24:39Z</time>
      </trkpt>
      <trkpt lat="45.84058" lon="4.815">
        <ele>347</ele>
        <time>2014-02-09T08:24:43Z</time>
      </trkpt>
      <trkpt lat="45.84061" lon="4.81499">
        <ele>347</ele>
        <time>2014-02-09T08:24:46Z</time>
      </trkpt>
      <trkpt lat="45.84064" lon="4.81495">
        <ele>348</ele>
        <time>2014-02-09T08:24:54Z</time>
      </trkpt>
      <trkpt lat="45.84065" lon="4.81492">
        <ele>348</ele>
        <time>2014-02-09T08:24:56Z</time>
      </trkpt>
      <trkpt lat="45.84067" lon="4.81487">
        <ele>349</ele>
        <time>2014-02-09T08:25:02Z</time>
      </trkpt>
      <trkpt lat="45.84067" lon="4.81486">
        <ele>349</ele>
        <time>2014-02-09T08:25:07Z</time>
      </trkpt>
      <trkpt lat="45.84069" lon="4.81485">
        <ele>349</ele>
        <time>2014-02-09T08:25:20Z</time>
      </trkpt>
      <trkpt lat="45.84068" lon="4.81495">
        <ele>348</ele>
        <time>2014-02-09T08:26:28Z</time>
      </trkpt>
      <trkpt lat="45.84065" lon="4.81492">
        <ele>348</ele>
        <time>2014-02-09T08:26:44Z</time>
      </trkpt>
      <trkpt lat="45.84065" lon="4.81491">
        <ele>348</ele>
        <time>2014-02-09T08:26:47Z</time>
      </trkpt>
      <trkpt lat="45.84068" lon="4.81488">
        <ele>349</ele>
        <time>2014-02-09T08:27:18Z</time>
      </trkpt>
      <trkpt lat="45.84068" lon="4.81492">
        <ele>348</ele>
        <time>2014-02-09T08:27:24Z</time>
      </trkpt>
      <trkpt lat="45.84068" lon="4.81496">
        <ele>348</ele>
        <time>2014-02-09T08:27:36Z</time>
      </trkpt>
      <trkpt lat="45.84069" lon="4.81496">
        <ele>348</ele>
        <time>2014-02-09T08:27:46Z</time>
      </trkpt>
      <trkpt lat="45.8407" lon="4.81495">
        <ele>348</ele>
        <time>2014-02-09T08:27:50Z</time>
      </trkpt>
      <trkpt lat="45.84072" lon="4.81493">
        <ele>349</ele>
        <time>2014-02-09T08:27:55Z</time>
      </trkpt>
      <trkpt lat="45.84073" lon="4.81491">
        <ele>349</ele>
        <time>2014-02-09T08:28:00Z</time>
      </trkpt>
      <trkpt lat="45.84074" lon="4.81487">
        <ele>349</ele>
        <time>2014-02-09T08:28:05Z</time>
      </trkpt>
      <trkpt lat="45.84075" lon="4.81482">
        <ele>350</ele>
        <time>2014-02-09T08:28:11Z</time>
      </trkpt>
      <trkpt lat="45.84074" lon="4.8148">
        <ele>350</ele>
        <time>2014-02-09T08:28:16Z</time>
      </trkpt>
      <trkpt lat="45.84072" lon="4.81477">
        <ele>350</ele>
        <time>2014-02-09T08:28:23Z</time>
      </trkpt>
      <trkpt lat="45.84071" lon="4.81476">
        <ele>350</ele>
        <time>2014-02-09T08:28:24Z</time>
      </trkpt>
      <trkpt lat="45.84067" lon="4.81471">
        <ele>351</ele>
        <time>2014-02-09T08:28:29Z</time>
      </trkpt>
      <trkpt lat="45.84065" lon="4.81467">
        <ele>351</ele>
        <time>2014-02-09T08:28:35Z</time>
      </trkpt>
      <trkpt lat="45.84062" lon="4.81461">
        <ele>352</ele>
        <time>2014-02-09T08:28:46Z</time>
      </trkpt>
      <trkpt lat="45.84061" lon="4.8146">
        <ele>352</ele>
        <time>2014-02-09T08:28:47Z</time>
      </trkpt>
      <trkpt lat="45.84061" lon="4.81458">
        <ele>353</ele>
        <time>2014-02-09T08:28:49Z</time>
      </trkpt>
      <trkpt lat="45.8406" lon="4.81457">
        <ele>353</ele>
        <time>2014-02-09T08:28:50Z</time>
      </trkpt>
      <trkpt lat="45.84058" lon="4.81455">
        <ele>353</ele>
        <time>2014-02-09T08:28:52Z</time>
      </trkpt>
      <trkpt lat="45.84054" lon="4.81449">
        <ele>354</ele>
        <time>2014-02-09T08:28:58Z</time>
      </trkpt>
      <trkpt lat="45.84052" lon="4.81447">
        <ele>354</ele>
        <time>2014-02-09T08:29:01Z</time>
      </trkpt>
      <trkpt lat="45.84051" lon="4.81444">
        <ele>354</ele>
        <time>2014-02-09T08:29:04Z</time>
      </trkpt>
      <trkpt lat="45.8405" lon="4.81441">
        <ele>354</ele>
        <time>2014-02-09T08:29:07Z</time>
      </trkpt>
      <trkpt lat="45.84051" lon="4.8144">
        <ele>355</ele>
        <time>2014-02-09T08:29:09Z</time>
      </trkpt>
      <trkpt lat="45.84053" lon="4.81439">
        <ele>356</ele>
        <time>2014-02-09T08:29:12Z</time>
      </trkpt>
      <trkpt lat="45.84054" lon="4.81439">
        <ele>356</ele>
        <time>2014-02-09T08:29:14Z</time>
      </trkpt>
      <trkpt lat="45.84056" lon="4.81438">
        <ele>357</ele>
        <time>2014-02-09T08:29:19Z</time>
      </trkpt>
      <trkpt lat="45.84059" lon="4.81441">
        <ele>357</ele>
        <time>2014-02-09T08:29:30Z</time>
      </trkpt>
      <trkpt lat="45.84061" lon="4.81435">
        <ele>359</ele>
        <time>2014-02-09T08:29:39Z</time>
      </trkpt>
      <trkpt lat="45.84062" lon="4.81431">
        <ele>360</ele>
        <time>2014-02-09T08:29:46Z</time>
      </trkpt>
      <trkpt lat="45.84061" lon="4.81427">
        <ele>361</ele>
        <time>2014-02-09T08:29:51Z</time>
      </trkpt>
      <trkpt lat="45.84062" lon="4.81424">
        <ele>362</ele>
        <time>2014-02-09T08:29:55Z</time>
      </trkpt>
      <trkpt lat="45.84062" lon="4.81422">
        <ele>362</ele>
        <time>2014-02-09T08:29:57Z</time>
      </trkpt>
      <trkpt lat="45.84064" lon="4.81419">
        <ele>364</ele>
        <time>2014-02-09T08:30:03Z</time>
      </trkpt>
      <trkpt lat="45.84065" lon="4.81418">
        <ele>365</ele>
        <time>2014-02-09T08:30:08Z</time>
      </trkpt>
      <trkpt lat="45.84066" lon="4.81414">
        <ele>382</ele>
        <time>2014-02-09T08:30:14Z</time>
      </trkpt>
      <trkpt lat="45.84064" lon="4.81409">
        <ele>382</ele>
        <time>2014-02-09T08:30:19Z</time>
      </trkpt>
      <trkpt lat="45.84065" lon="4.81403">
        <ele>383</ele>
        <time>2014-02-09T08:30:24Z</time>
      </trkpt>
      <trkpt lat="45.84064" lon="4.814">
        <ele>383</ele>
        <time>2014-02-09T08:30:28Z</time>
      </trkpt>
      <trkpt lat="45.84065" lon="4.81398">
        <ele>384</ele>
        <time>2014-02-09T08:30:30Z</time>
      </trkpt>
      <trkpt lat="45.84067" lon="4.81398">
        <ele>384</ele>
        <time>2014-02-09T08:30:36Z</time>
      </trkpt>
      <trkpt lat="45.84068" lon="4.81397">
        <ele>384</ele>
        <time>2014-02-09T08:31:06Z</time>
      </trkpt>
      <trkpt lat="45.84069" lon="4.81398">
        <ele>384</ele>
        <time>2014-02-09T08:31:17Z</time>
      </trkpt>
      <trkpt lat="45.84072" lon="4.81399">
        <ele>384</ele>
        <time>2014-02-09T08:31:23Z</time>
      </trkpt>
      <trkpt lat="45.84075" lon="4.81405">
        <ele>383</ele>
        <time>2014-02-09T08:31:28Z</time>
      </trkpt>
      <trkpt lat="45.84076" lon="4.81406">
        <ele>382</ele>
        <time>2014-02-09T08:31:29Z</time>
      </trkpt>
      <trkpt lat="45.84077" lon="4.81407">
        <ele>382</ele>
        <time>2014-02-09T08:31:30Z</time>
      </trkpt>
      <trkpt lat="45.84079" lon="4.81409">
        <ele>382</ele>
        <time>2014-02-09T08:31:33Z</time>
      </trkpt>
      <trkpt lat="45.84087" lon="4.81411">
        <ele>386</ele>
        <time>2014-02-09T08:31:39Z</time>
      </trkpt>
      <trkpt lat="45.84091" lon="4.81412">
        <ele>387</ele>
        <time>2014-02-09T08:31:42Z</time>
      </trkpt>
      <trkpt lat="45.84091" lon="4.81414">
        <ele>387</ele>
        <time>2014-02-09T08:31:43Z</time>
      </trkpt>
      <trkpt lat="45.84095" lon="4.81415">
        <ele>389</ele>
        <time>2014-02-09T08:31:45Z</time>
      </trkpt>
      <trkpt lat="45.84098" lon="4.81419">
        <ele>381</ele>
        <time>2014-02-09T08:31:48Z</time>
      </trkpt>
      <trkpt lat="45.84099" lon="4.8142">
        <ele>381</ele>
        <time>2014-02-09T08:31:49Z</time>
      </trkpt>
      <trkpt lat="45.84104" lon="4.81425">
        <ele>381</ele>
        <time>2014-02-09T08:31:53Z</time>
      </trkpt>
      <trkpt lat="45.84105" lon="4.81426">
        <ele>381</ele>
        <time>2014-02-09T08:31:54Z</time>
      </trkpt>
      <trkpt lat="45.84109" lon="4.81431">
        <ele>381</ele>
        <time>2014-02-09T08:31:58Z</time>
      </trkpt>
      <trkpt lat="45.84111" lon="4.81432">
        <ele>381</ele>
        <time>2014-02-09T08:31:59Z</time>
      </trkpt>
      <trkpt lat="45.84112" lon="4.81433">
        <ele>382</ele>
        <time>2014-02-09T08:32:00Z</time>
      </trkpt>
      <trkpt lat="45.84114" lon="4.81434">
        <ele>382</ele>
        <time>2014-02-09T08:32:01Z</time>
      </trkpt>
      <trkpt lat="45.8412" lon="4.81437">
        <ele>383</ele>
        <time>2014-02-09T08:32:05Z</time>
      </trkpt>
      <trkpt lat="45.84127" lon="4.81444">
        <ele>383</ele>
        <time>2014-02-09T08:32:10Z</time>
      </trkpt>
      <trkpt lat="45.84134" lon="4.8145">
        <ele>384</ele>
        <time>2014-02-09T08:32:15Z</time>
      </trkpt>
      <trkpt lat="45.84138" lon="4.81452">
        <ele>384</ele>
        <time>2014-02-09T08:32:18Z</time>
      </trkpt>
      <trkpt lat="45.84141" lon="4.81454">
        <ele>384</ele>
        <time>2014-02-09T08:32:21Z</time>
      </trkpt>
      <trkpt lat="45.84143" lon="4.81455">
        <ele>385</ele>
        <time>2014-02-09T08:32:22Z</time>
      </trkpt>
      <trkpt lat="45.84145" lon="4.81458">
        <ele>385</ele>
        <time>2014-02-09T08:32:25Z</time>
      </trkpt>
      <trkpt lat="45.84147" lon="4.81459">
        <ele>385</ele>
        <time>2014-02-09T08:32:28Z</time>
      </trkpt>
      <trkpt lat="45.84153" lon="4.81462">
        <ele>385</ele>
        <time>2014-02-09T08:32:32Z</time>
      </trkpt>
      <trkpt lat="45.84156" lon="4.81463">
        <ele>385</ele>
        <time>2014-02-09T08:32:36Z</time>
      </trkpt>
      <trkpt lat="45.8416" lon="4.81462">
        <ele>386</ele>
        <time>2014-02-09T08:32:38Z</time>
      </trkpt>
      <trkpt lat="45.84164" lon="4.81464">
        <ele>386</ele>
        <time>2014-02-09T08:32:42Z</time>
      </trkpt>
      <trkpt lat="45.84167" lon="4.81464">
        <ele>399</ele>
        <time>2014-02-09T08:32:44Z</time>
      </trkpt>
      <trkpt lat="45.84173" lon="4.81464">
        <ele>399</ele>
        <time>2014-02-09T08:32:48Z</time>
      </trkpt>
      <trkpt lat="45.84175" lon="4.81463">
        <ele>399</ele>
        <time>2014-02-09T08:32:50Z</time>
      </trkpt>
      <trkpt lat="45.84178" lon="4.81463">
        <ele>400</ele>
        <time>2014-02-09T08:32:52Z</time>
      </trkpt>
      <trkpt lat="45.8418" lon="4.81463">
        <ele>400</ele>
        <time>2014-02-09T08:32:53Z</time>
      </trkpt>
      <trkpt lat="45.84188" lon="4.81462">
        <ele>400</ele>
        <time>2014-02-09T08:32:59Z</time>
      </trkpt>
      <trkpt lat="45.84196" lon="4.81464">
        <ele>401</ele>
        <time>2014-02-09T08:33:04Z</time>
      </trkpt>
      <trkpt lat="45.84198" lon="4.81464">
        <ele>401</ele>
        <time>2014-02-09T08:33:05Z</time>
      </trkpt>
      <trkpt lat="45.842" lon="4.81463">
        <ele>401</ele>
        <time>2014-02-09T08:33:06Z</time>
      </trkpt>
      <trkpt lat="45.84205" lon="4.81459">
        <ele>401</ele>
        <time>2014-02-09T08:33:09Z</time>
      </trkpt>
      <trkpt lat="45.84207" lon="4.81458">
        <ele>402</ele>
        <time>2014-02-09T08:33:11Z</time>
      </trkpt>
      <trkpt lat="45.84209" lon="4.81461">
        <ele>402</ele>
        <time>2014-02-09T08:33:14Z</time>
      </trkpt>
      <trkpt lat="45.84209" lon="4.81467">
        <ele>401</ele>
        <time>2014-02-09T08:33:18Z</time>
      </trkpt>
      <trkpt lat="45.84208" lon="4.8147">
        <ele>401</ele>
        <time>2014-02-09T08:33:20Z</time>
      </trkpt>
      <trkpt lat="45.84208" lon="4.81472">
        <ele>401</ele>
        <time>2014-02-09T08:33:21Z</time>
      </trkpt>
      <trkpt lat="45.84207" lon="4.81479">
        <ele>400</ele>
        <time>2014-02-09T08:33:25Z</time>
      </trkpt>
      <trkpt lat="45.84206" lon="4.81484">
        <ele>400</ele>
        <time>2014-02-09T08:33:27Z</time>
      </trkpt>
      <trkpt lat="45.84205" lon="4.81485">
        <ele>400</ele>
        <time>2014-02-09T08:33:29Z</time>
      </trkpt>
      <trkpt lat="45.84204" lon="4.81494">
        <ele>399</ele>
        <time>2014-02-09T08:33:32Z</time>
      </trkpt>
      <trkpt lat="45.84204" lon="4.81507">
        <ele>392</ele>
        <time>2014-02-09T08:33:37Z</time>
      </trkpt>
      <trkpt lat="45.84204" lon="4.8151">
        <ele>392</ele>
        <time>2014-02-09T08:33:39Z</time>
      </trkpt>
      <trkpt lat="45.84205" lon="4.81513">
        <ele>392</ele>
        <time>2014-02-09T08:33:40Z</time>
      </trkpt>
      <trkpt lat="45.84206" lon="4.8152">
        <ele>392</ele>
        <time>2014-02-09T08:33:43Z</time>
      </trkpt>
      <trkpt lat="45.84207" lon="4.81523">
        <ele>392</ele>
        <time>2014-02-09T08:33:44Z</time>
      </trkpt>
      <trkpt lat="45.8421" lon="4.81533">
        <ele>391</ele>
        <time>2014-02-09T08:33:47Z</time>
      </trkpt>
      <trkpt lat="45.84211" lon="4.81535">
        <ele>391</ele>
        <time>2014-02-09T08:33:49Z</time>
      </trkpt>
      <trkpt lat="45.84213" lon="4.81542">
        <ele>391</ele>
        <time>2014-02-09T08:33:52Z</time>
      </trkpt>
      <trkpt lat="45.84213" lon="4.81542">
        <ele>391</ele>
        <time>2014-02-09T08:33:55Z</time>
      </trkpt>
      <trkpt lat="45.84215" lon="4.81542">
        <ele>391</ele>
        <time>2014-02-09T08:34:01Z</time>
      </trkpt>
      <trkpt lat="45.84219" lon="4.81546">
        <ele>391</ele>
        <time>2014-02-09T08:34:24Z</time>
      </trkpt>
      <trkpt lat="45.8422" lon="4.81546">
        <ele>391</ele>
        <time>2014-02-09T08:34:25Z</time>
      </trkpt>
      <trkpt lat="45.84227" lon="4.8155">
        <ele>392</ele>
        <time>2014-02-09T08:34:32Z</time>
      </trkpt>
      <trkpt lat="45.84233" lon="4.81552">
        <ele>392</ele>
        <time>2014-02-09T08:34:38Z</time>
      </trkpt>
      <trkpt lat="45.84238" lon="4.81553">
        <ele>392</ele>
        <time>2014-02-09T08:34:40Z</time>
      </trkpt>
      <trkpt lat="45.84244" lon="4.81553">
        <ele>392</ele>
        <time>2014-02-09T08:34:43Z</time>
      </trkpt>
      <trkpt lat="45.8425" lon="4.81552">
        <ele>392</ele>
        <time>2014-02-09T08:34:46Z</time>
      </trkpt>
      <trkpt lat="45.84253" lon="4.81553">
        <ele>389</ele>
        <time>2014-02-09T08:34:48Z</time>
      </trkpt>
      <trkpt lat="45.84257" lon="4.81554">
        <ele>389</ele>
        <time>2014-02-09T08:34:50Z</time>
      </trkpt>
      <trkpt lat="45.84261" lon="4.81554">
        <ele>389</ele>
        <time>2014-02-09T08:34:53Z</time>
      </trkpt>
      <trkpt lat="45.84262" lon="4.81557">
        <ele>389</ele>
        <time>2014-02-09T08:34:57Z</time>
      </trkpt>
      <trkpt lat="45.84263" lon="4.81558">
        <ele>389</ele>
        <time>2014-02-09T08:34:58Z</time>
      </trkpt>
      <trkpt lat="45.84263" lon="4.81557">
        <ele>389</ele>
        <time>2014-02-09T08:34:59Z</time>
      </trkpt>
      <trkpt lat="45.8427" lon="4.81554">
        <ele>388</ele>
        <time>2014-02-09T08:35:02Z</time>
      </trkpt>
      <trkpt lat="45.84272" lon="4.81553">
        <ele>388</ele>
        <time>2014-02-09T08:35:04Z</time>
      </trkpt>
      <trkpt lat="45.84274" lon="4.81552">
        <ele>388</ele>
        <time>2014-02-09T08:35:05Z</time>
      </trkpt>
      <trkpt lat="45.84279" lon="4.8155">
        <ele>387</ele>
        <time>2014-02-09T08:35:08Z</time>
      </trkpt>
      <trkpt lat="45.84281" lon="4.81548">
        <ele>387</ele>
        <time>2014-02-09T08:35:10Z</time>
      </trkpt>
      <trkpt lat="45.84285" lon="4.81544">
        <ele>387</ele>
        <time>2014-02-09T08:35:13Z</time>
      </trkpt>
      <trkpt lat="45.84287" lon="4.81541">
        <ele>387</ele>
        <time>2014-02-09T08:35:14Z</time>
      </trkpt>
      <trkpt lat="45.84289" lon="4.81538">
        <ele>387</ele>
        <time>2014-02-09T08:35:15Z</time>
      </trkpt>
      <trkpt lat="45.84293" lon="4.81534">
        <ele>387</ele>
        <time>2014-02-09T08:35:17Z</time>
      </trkpt>
      <trkpt lat="45.84298" lon="4.81527">
        <ele>386</ele>
        <time>2014-02-09T08:35:20Z</time>
      </trkpt>
      <trkpt lat="45.84303" lon="4.81522">
        <ele>386</ele>
        <time>2014-02-09T08:35:22Z</time>
      </trkpt>
      <trkpt lat="45.84304" lon="4.8152">
        <ele>386</ele>
        <time>2014-02-09T08:35:23Z</time>
      </trkpt>
      <trkpt lat="45.84311" lon="4.81506">
        <ele>385</ele>
        <time>2014-02-09T08:35:28Z</time>
      </trkpt>
      <trkpt lat="45.84317" lon="4.81499">
        <ele>391</ele>
        <time>2014-02-09T08:35:31Z</time>
      </trkpt>
      <trkpt lat="45.84322" lon="4.81492">
        <ele>390</ele>
        <time>2014-02-09T08:35:34Z</time>
      </trkpt>
      <trkpt lat="45.84331" lon="4.81481">
        <ele>392</ele>
        <time>2014-02-09T08:35:40Z</time>
      </trkpt>
      <trkpt lat="45.84333" lon="4.81481">
        <ele>392</ele>
        <time>2014-02-09T08:35:41Z</time>
      </trkpt>
      <trkpt lat="45.84338" lon="4.81478">
        <ele>382</ele>
        <time>2014-02-09T08:35:44Z</time>
      </trkpt>
      <trkpt lat="45.84343" lon="4.81474">
        <ele>381</ele>
        <time>2014-02-09T08:35:47Z</time>
      </trkpt>
      <trkpt lat="45.84346" lon="4.81471">
        <ele>381</ele>
        <time>2014-02-09T08:35:49Z</time>
      </trkpt>
      <trkpt lat="45.84348" lon="4.8147">
        <ele>381</ele>
        <time>2014-02-09T08:35:50Z</time>
      </trkpt>
      <trkpt lat="45.84353" lon="4.81465">
        <ele>381</ele>
        <time>2014-02-09T08:35:54Z</time>
      </trkpt>
      <trkpt lat="45.84355" lon="4.81466">
        <ele>381</ele>
        <time>2014-02-09T08:35:55Z</time>
      </trkpt>
      <trkpt lat="45.84364" lon="4.81462">
        <ele>380</ele>
        <time>2014-02-09T08:36:14Z</time>
      </trkpt>
      <trkpt lat="45.84367" lon="4.81459">
        <ele>380</ele>
        <time>2014-02-09T08:36:19Z</time>
      </trkpt>
      <trkpt lat="45.84373" lon="4.81452">
        <ele>380</ele>
        <time>2014-02-09T08:36:24Z</time>
      </trkpt>
      <trkpt lat="45.84377" lon="4.81447">
        <ele>380</ele>
        <time>2014-02-09T08:36:27Z</time>
      </trkpt>
      <trkpt lat="45.8438" lon="4.81444">
        <ele>380</ele>
        <time>2014-02-09T08:36:29Z</time>
      </trkpt>
      <trkpt lat="45.84383" lon="4.81443">
        <ele>379</ele>
        <time>2014-02-09T08:36:31Z</time>
      </trkpt>
      <trkpt lat="45.84384" lon="4.81443">
        <ele>379</ele>
        <time>2014-02-09T08:36:32Z</time>
      </trkpt>
      <trkpt lat="45.84386" lon="4.81443">
        <ele>379</ele>
        <time>2014-02-09T08:36:33Z</time>
      </trkpt>
      <trkpt lat="45.84389" lon="4.81439">
        <ele>379</ele>
        <time>2014-02-09T08:36:35Z</time>
      </trkpt>
      <trkpt lat="45.84399" lon="4.81438">
        <ele>377</ele>
        <time>2014-02-09T08:36:40Z</time>
      </trkpt>
      <trkpt lat="45.84401" lon="4.81439">
        <ele>377</ele>
        <time>2014-02-09T08:36:41Z</time>
      </trkpt>
      <trkpt lat="45.84403" lon="4.81438">
        <ele>377</ele>
        <time>2014-02-09T08:36:42Z</time>
      </trkpt>
      <trkpt lat="45.84407" lon="4.81439">
        <ele>377</ele>
        <time>2014-02-09T08:36:45Z</time>
      </trkpt>
      <trkpt lat="45.84417" lon="4.8144">
        <ele>363</ele>
        <time>2014-02-09T08:36:50Z</time>
      </trkpt>
      <trkpt lat="45.84418" lon="4.81439">
        <ele>363</ele>
        <time>2014-02-09T08:36:51Z</time>
      </trkpt>
      <trkpt lat="45.84426" lon="4.81434">
        <ele>364</ele>
        <time>2014-02-09T08:36:56Z</time>
      </trkpt>
      <trkpt lat="45.84427" lon="4.81432">
        <ele>365</ele>
        <time>2014-02-09T08:36:57Z</time>
      </trkpt>
      <trkpt lat="45.84428" lon="4.81433">
        <ele>364</ele>
        <time>2014-02-09T08:36:58Z</time>
      </trkpt>
      <trkpt lat="45.84433" lon="4.81432">
        <ele>363</ele>
        <time>2014-02-09T08:37:01Z</time>
      </trkpt>
      <trkpt lat="45.84435" lon="4.81429">
        <ele>363</ele>
        <time>2014-02-09T08:37:02Z</time>
      </trkpt>
      <trkpt lat="45.8444" lon="4.81426">
        <ele>363</ele>
        <time>2014-02-09T08:37:04Z</time>
      </trkpt>
      <trkpt lat="45.84442" lon="4.81422">
        <ele>362</ele>
        <time>2014-02-09T08:37:06Z</time>
      </trkpt>
      <trkpt lat="45.84451" lon="4.81416">
        <ele>375</ele>
        <time>2014-02-09T08:37:11Z</time>
      </trkpt>
      <trkpt lat="45.84454" lon="4.81414">
        <ele>374</ele>
        <time>2014-02-09T08:37:13Z</time>
      </trkpt>
      <trkpt lat="45.84458" lon="4.81411">
        <ele>374</ele>
        <time>2014-02-09T08:37:16Z</time>
      </trkpt>
      <trkpt lat="45.84459" lon="4.8141">
        <ele>374</ele>
        <time>2014-02-09T08:37:17Z</time>
      </trkpt>
      <trkpt lat="45.84465" lon="4.81411">
        <ele>372</ele>
        <time>2014-02-09T08:37:22Z</time>
      </trkpt>
      <trkpt lat="45.84467" lon="4.81411">
        <ele>372</ele>
        <time>2014-02-09T08:37:23Z</time>
      </trkpt>
      <trkpt lat="45.84469" lon="4.81411">
        <ele>371</ele>
        <time>2014-02-09T08:37:28Z</time>
      </trkpt>
      <trkpt lat="45.84471" lon="4.8141">
        <ele>371</ele>
        <time>2014-02-09T08:37:34Z</time>
      </trkpt>
      <trkpt lat="45.84473" lon="4.81402">
        <ele>372</ele>
        <time>2014-02-09T08:38:18Z</time>
      </trkpt>
      <trkpt lat="45.8447" lon="4.81402">
        <ele>372</ele>
        <time>2014-02-09T08:38:24Z</time>
      </trkpt>
      <trkpt lat="45.84467" lon="4.81402">
        <ele>373</ele>
        <time>2014-02-09T08:38:30Z</time>
      </trkpt>
      <trkpt lat="45.8447" lon="4.81368">
        <ele>378</ele>
        <time>2014-02-09T08:38:46Z</time>
      </trkpt>
      <trkpt lat="45.84462" lon="4.81367">
        <ele>379</ele>
        <time>2014-02-09T08:38:54Z</time>
      </trkpt>
      <trkpt lat="45.84459" lon="4.81367">
        <ele>379</ele>
        <time>2014-02-09T08:38:57Z</time>
      </trkpt>
      <trkpt lat="45.84459" lon="4.81366">
        <ele>380</ele>
        <time>2014-02-09T08:39:01Z</time>
      </trkpt>
      <trkpt lat="45.84459" lon="4.81364">
        <ele>380</ele>
        <time>2014-02-09T08:39:02Z</time>
      </trkpt>
      <trkpt lat="45.84458" lon="4.81361">
        <ele>380</ele>
        <time>2014-02-09T08:39:06Z</time>
      </trkpt>
      <trkpt lat="45.84457" lon="4.8136">
        <ele>381</ele>
        <time>2014-02-09T08:39:08Z</time>
      </trkpt>
      <trkpt lat="45.84456" lon="4.81359">
        <ele>381</ele>
        <time>2014-02-09T08:39:10Z</time>
      </trkpt>
      <trkpt lat="45.84455" lon="4.81359">
        <ele>381</ele>
        <time>2014-02-09T08:39:11Z</time>
      </trkpt>
      <trkpt lat="45.84454" lon="4.81357">
        <ele>381</ele>
        <time>2014-02-09T08:39:15Z</time>
      </trkpt>
      <trkpt lat="45.84454" lon="4.81355">
        <ele>382</ele>
        <time>2014-02-09T08:39:16Z</time>
      </trkpt>
      <trkpt lat="45.84455" lon="4.81351">
        <ele>382</ele>
        <time>2014-02-09T08:39:18Z</time>
      </trkpt>
      <trkpt lat="45.84455" lon="4.81348">
        <ele>382</ele>
        <time>2014-02-09T08:39:21Z</time>
      </trkpt>
      <trkpt lat="45.84453" lon="4.81343">
        <ele>383</ele>
        <time>2014-02-09T08:39:27Z</time>
      </trkpt>
      <trkpt lat="45.84454" lon="4.81337">
        <ele>383</ele>
        <time>2014-02-09T08:39:32Z</time>
      </trkpt>
      <trkpt lat="45.84455" lon="4.81332">
        <ele>397</ele>
        <time>2014-02-09T08:39:35Z</time>
      </trkpt>
      <trkpt lat="45.84454" lon="4.81329">
        <ele>397</ele>
        <time>2014-02-09T08:39:38Z</time>
      </trkpt>
      <trkpt lat="45.84455" lon="4.81322">
        <ele>397</ele>
        <time>2014-02-09T08:39:42Z</time>
      </trkpt>
      <trkpt lat="45.84455" lon="4.81321">
        <ele>397</ele>
        <time>2014-02-09T08:39:43Z</time>
      </trkpt>
      <trkpt lat="45.84453" lon="4.81312">
        <ele>398</ele>
        <time>2014-02-09T08:39:48Z</time>
      </trkpt>
      <trkpt lat="45.84452" lon="4.81306">
        <ele>399</ele>
        <time>2014-02-09T08:39:53Z</time>
      </trkpt>
      <trkpt lat="45.84454" lon="4.81304">
        <ele>399</ele>
        <time>2014-02-09T08:39:55Z</time>
      </trkpt>
      <trkpt lat="45.84452" lon="4.81299">
        <ele>399</ele>
        <time>2014-02-09T08:39:59Z</time>
      </trkpt>
      <trkpt lat="45.84453" lon="4.8129">
        <ele>400</ele>
        <time>2014-02-09T08:40:05Z</time>
      </trkpt>
      <trkpt lat="45.84452" lon="4.81283">
        <ele>401</ele>
        <time>2014-02-09T08:40:09Z</time>
      </trkpt>
      <trkpt lat="45.84453" lon="4.81283">
        <ele>401</ele>
        <time>2014-02-09T08:40:10Z</time>
      </trkpt>
      <trkpt lat="45.84453" lon="4.81283">
        <ele>401</ele>
        <time>2014-02-09T08:40:11Z</time>
      </trkpt>
      <trkpt lat="45.84453" lon="4.8128">
        <ele>401</ele>
        <time>2014-02-09T08:40:14Z</time>
      </trkpt>
      <trkpt lat="45.84453" lon="4.81279">
        <ele>401</ele>
        <time>2014-02-09T08:40:15Z</time>
      </trkpt>
      <trkpt lat="45.84453" lon="4.81272">
        <ele>402</ele>
        <time>2014-02-09T08:40:20Z</time>
      </trkpt>
      <trkpt lat="45.84453" lon="4.81268">
        <ele>402</ele>
        <time>2014-02-09T08:40:25Z</time>
      </trkpt>
      <trkpt lat="45.84454" lon="4.81263">
        <ele>403</ele>
        <time>2014-02-09T08:40:28Z</time>
      </trkpt>
      <trkpt lat="45.84455" lon="4.81261">
        <ele>403</ele>
        <time>2014-02-09T08:40:29Z</time>
      </trkpt>
      <trkpt lat="45.84454" lon="4.81256">
        <ele>403</ele>
        <time>2014-02-09T08:40:34Z</time>
      </trkpt>
      <trkpt lat="45.84453" lon="4.81253">
        <ele>403</ele>
        <time>2014-02-09T08:40:40Z</time>
      </trkpt>
      <trkpt lat="45.8445" lon="4.81253">
        <ele>404</ele>
        <time>2014-02-09T08:40:46Z</time>
      </trkpt>
      <trkpt lat="45.8445" lon="4.81249">
        <ele>413</ele>
        <time>2014-02-09T08:40:50Z</time>
      </trkpt>
      <trkpt lat="45.84449" lon="4.81248">
        <ele>413</ele>
        <time>2014-02-09T08:40:51Z</time>
      </trkpt>
      <trkpt lat="45.84448" lon="4.81241">
        <ele>413</ele>
        <time>2014-02-09T08:40:58Z</time>
      </trkpt>
      <trkpt lat="45.84445" lon="4.81238">
        <ele>413</ele>
        <time>2014-02-09T08:41:04Z</time>
      </trkpt>
      <trkpt lat="45.84445" lon="4.81231">
        <ele>414</ele>
        <time>2014-02-09T08:41:08Z</time>
      </trkpt>
      <trkpt lat="45.84445" lon="4.81229">
        <ele>414</ele>
        <time>2014-02-09T08:41:09Z</time>
      </trkpt>
      <trkpt lat="45.84448" lon="4.81216">
        <ele>414</ele>
        <time>2014-02-09T08:41:16Z</time>
      </trkpt>
      <trkpt lat="45.84449" lon="4.81208">
        <ele>415</ele>
        <time>2014-02-09T08:41:20Z</time>
      </trkpt>
      <trkpt lat="45.84449" lon="4.81206">
        <ele>415</ele>
        <time>2014-02-09T08:41:21Z</time>
      </trkpt>
      <trkpt lat="45.84449" lon="4.81204">
        <ele>415</ele>
        <time>2014-02-09T08:41:22Z</time>
      </trkpt>
      <trkpt lat="45.84449" lon="4.812">
        <ele>415</ele>
        <time>2014-02-09T08:41:24Z</time>
      </trkpt>
      <trkpt lat="45.84449" lon="4.81196">
        <ele>416</ele>
        <time>2014-02-09T08:41:26Z</time>
      </trkpt>
      <trkpt lat="45.8445" lon="4.81191">
        <ele>416</ele>
        <time>2014-02-09T08:41:29Z</time>
      </trkpt>
      <trkpt lat="45.84452" lon="4.81185">
        <ele>416</ele>
        <time>2014-02-09T08:41:33Z</time>
      </trkpt>
      <trkpt lat="45.84455" lon="4.81181">
        <ele>416</ele>
        <time>2014-02-09T08:41:37Z</time>
      </trkpt>
      <trkpt lat="45.84457" lon="4.81177">
        <ele>416</ele>
        <time>2014-02-09T08:41:40Z</time>
      </trkpt>
      <trkpt lat="45.84458" lon="4.81175">
        <ele>416</ele>
        <time>2014-02-09T08:41:42Z</time>
      </trkpt>
      <trkpt lat="45.84457" lon="4.8117">
        <ele>416</ele>
        <time>2014-02-09T08:41:46Z</time>
      </trkpt>
      <trkpt lat="45.84457" lon="4.81168">
        <ele>417</ele>
        <time>2014-02-09T08:41:47Z</time>
      </trkpt>
      <trkpt lat="45.84456" lon="4.81163">
        <ele>424</ele>
        <time>2014-02-09T08:41:50Z</time>
      </trkpt>
      <trkpt lat="45.84456" lon="4.81161">
        <ele>424</ele>
        <time>2014-02-09T08:41:52Z</time>
      </trkpt>
      <trkpt lat="45.84455" lon="4.81158">
        <ele>424</ele>
        <time>2014-02-09T08:41:54Z</time>
      </trkpt>
      <trkpt lat="45.84454" lon="4.81157">
        <ele>424</ele>
        <time>2014-02-09T08:41:55Z</time>
      </trkpt>
      <trkpt lat="45.84453" lon="4.81155">
        <ele>424</ele>
        <time>2014-02-09T08:41:58Z</time>
      </trkpt>
      <trkpt lat="45.84453" lon="4.81154">
        <ele>424</ele>
        <time>2014-02-09T08:41:59Z</time>
      </trkpt>
      <trkpt lat="45.84451" lon="4.81148">
        <ele>425</ele>
        <time>2014-02-09T08:42:02Z</time>
      </trkpt>
      <trkpt lat="45.8445" lon="4.81145">
        <ele>425</ele>
        <time>2014-02-09T08:42:05Z</time>
      </trkpt>
      <trkpt lat="45.84452" lon="4.81137">
        <ele>425</ele>
        <time>2014-02-09T08:42:10Z</time>
      </trkpt>
      <trkpt lat="45.84451" lon="4.81136">
        <ele>425</ele>
        <time>2014-02-09T08:42:11Z</time>
      </trkpt>
      <trkpt lat="45.84452" lon="4.81133">
        <ele>425</ele>
        <time>2014-02-09T08:42:13Z</time>
      </trkpt>
      <trkpt lat="45.84452" lon="4.81131">
        <ele>425</ele>
        <time>2014-02-09T08:42:14Z</time>
      </trkpt>
      <trkpt lat="45.84454" lon="4.81125">
        <ele>426</ele>
        <time>2014-02-09T08:42:19Z</time>
      </trkpt>
      <trkpt lat="45.84454" lon="4.81124">
        <ele>426</ele>
        <time>2014-02-09T08:42:20Z</time>
      </trkpt>
      <trkpt lat="45.84453" lon="4.81123">
        <ele>426</ele>
        <time>2014-02-09T08:42:21Z</time>
      </trkpt>
      <trkpt lat="45.84453" lon="4.81113">
        <ele>427</ele>
        <time>2014-02-09T08:42:26Z</time>
      </trkpt>
      <trkpt lat="45.84454" lon="4.81106">
        <ele>427</ele>
        <time>2014-02-09T08:42:30Z</time>
      </trkpt>
      <trkpt lat="45.84454" lon="4.81103">
        <ele>427</ele>
        <time>2014-02-09T08:42:32Z</time>
      </trkpt>
      <trkpt lat="45.84455" lon="4.81097">
        <ele>427</ele>
        <time>2014-02-09T08:42:38Z</time>
      </trkpt>
      <trkpt lat="45.84455" lon="4.81095">
        <ele>428</ele>
        <time>2014-02-09T08:42:39Z</time>
      </trkpt>
      <trkpt lat="45.84457" lon="4.81088">
        <ele>428</ele>
        <time>2014-02-09T08:42:44Z</time>
      </trkpt>
      <trkpt lat="45.84458" lon="4.81087">
        <ele>428</ele>
        <time>2014-02-09T08:42:45Z</time>
      </trkpt>
      <trkpt lat="45.84459" lon="4.81082">
        <ele>435</ele>
        <time>2014-02-09T08:42:49Z</time>
      </trkpt>
      <trkpt lat="45.8446" lon="4.81081">
        <ele>435</ele>
        <time>2014-02-09T08:42:50Z</time>
      </trkpt>
      <trkpt lat="45.84461" lon="4.81077">
        <ele>435</ele>
        <time>2014-02-09T08:42:54Z</time>
      </trkpt>
      <trkpt lat="45.84463" lon="4.81071">
        <ele>435</ele>
        <time>2014-02-09T08:43:00Z</time>
      </trkpt>
      <trkpt lat="45.84468" lon="4.81065">
        <ele>435</ele>
        <time>2014-02-09T08:43:05Z</time>
      </trkpt>
      <trkpt lat="45.84468" lon="4.81058">
        <ele>435</ele>
        <time>2014-02-09T08:43:09Z</time>
      </trkpt>
      <trkpt lat="45.84469" lon="4.81056">
        <ele>435</ele>
        <time>2014-02-09T08:43:10Z</time>
      </trkpt>
      <trkpt lat="45.8447" lon="4.8105">
        <ele>436</ele>
        <time>2014-02-09T08:43:16Z</time>
      </trkpt>
      <trkpt lat="45.8447" lon="4.81048">
        <ele>436</ele>
        <time>2014-02-09T08:43:17Z</time>
      </trkpt>
      <trkpt lat="45.8447" lon="4.81047">
        <ele>436</ele>
        <time>2014-02-09T08:43:18Z</time>
      </trkpt>
      <trkpt lat="45.84469" lon="4.81041">
        <ele>437</ele>
        <time>2014-02-09T08:43:22Z</time>
      </trkpt>
      <trkpt lat="45.84468" lon="4.81036">
        <ele>437</ele>
        <time>2014-02-09T08:43:26Z</time>
      </trkpt>
      <trkpt lat="45.8447" lon="4.81034">
        <ele>437</ele>
        <time>2014-02-09T08:43:28Z</time>
      </trkpt>
      <trkpt lat="45.8447" lon="4.81033">
        <ele>437</ele>
        <time>2014-02-09T08:43:29Z</time>
      </trkpt>
      <trkpt lat="45.8447" lon="4.81031">
        <ele>437</ele>
        <time>2014-02-09T08:43:30Z</time>
      </trkpt>
      <trkpt lat="45.84471" lon="4.81026">
        <ele>438</ele>
        <time>2014-02-09T08:43:33Z</time>
      </trkpt>
      <trkpt lat="45.84471" lon="4.81024">
        <ele>438</ele>
        <time>2014-02-09T08:43:34Z</time>
      </trkpt>
      <trkpt lat="45.84471" lon="4.81018">
        <ele>438</ele>
        <time>2014-02-09T08:43:38Z</time>
      </trkpt>
      <trkpt lat="45.84471" lon="4.81011">
        <ele>439</ele>
        <time>2014-02-09T08:43:43Z</time>
      </trkpt>
      <trkpt lat="45.84472" lon="4.8101">
        <ele>439</ele>
        <time>2014-02-09T08:43:44Z</time>
      </trkpt>
      <trkpt lat="45.84472" lon="4.81004">
        <ele>439</ele>
        <time>2014-02-09T08:43:48Z</time>
      </trkpt>
      <trkpt lat="45.84473" lon="4.81003">
        <ele>439</ele>
        <time>2014-02-09T08:43:50Z</time>
      </trkpt>
      <trkpt lat="45.84475" lon="4.80998">
        <ele>445</ele>
        <time>2014-02-09T08:43:53Z</time>
      </trkpt>
      <trkpt lat="45.84477" lon="4.80994">
        <ele>445</ele>
        <time>2014-02-09T08:43:56Z</time>
      </trkpt>
      <trkpt lat="45.84477" lon="4.80992">
        <ele>445</ele>
        <time>2014-02-09T08:43:58Z</time>
      </trkpt>
      <trkpt lat="45.84477" lon="4.80991">
        <ele>445</ele>
        <time>2014-02-09T08:43:59Z</time>
      </trkpt>
      <trkpt lat="45.84479" lon="4.80989">
        <ele>445</ele>
        <time>2014-02-09T08:44:03Z</time>
      </trkpt>
      <trkpt lat="45.84479" lon="4.80988">
        <ele>445</ele>
        <time>2014-02-09T08:44:04Z</time>
      </trkpt>
      <trkpt lat="45.84479" lon="4.80987">
        <ele>445</ele>
        <time>2014-02-09T08:44:05Z</time>
      </trkpt>
      <trkpt lat="45.84479" lon="4.80983">
        <ele>446</ele>
        <time>2014-02-09T08:44:08Z</time>
      </trkpt>
      <trkpt lat="45.8448" lon="4.80977">
        <ele>446</ele>
        <time>2014-02-09T08:44:13Z</time>
      </trkpt>
      <trkpt lat="45.84479" lon="4.80973">
        <ele>447</ele>
        <time>2014-02-09T08:44:16Z</time>
      </trkpt>
      <trkpt lat="45.84479" lon="4.8097">
        <ele>447</ele>
        <time>2014-02-09T08:44:19Z</time>
      </trkpt>
      <trkpt lat="45.84479" lon="4.80967">
        <ele>447</ele>
        <time>2014-02-09T08:44:20Z</time>
      </trkpt>
      <trkpt lat="45.84479" lon="4.8096">
        <ele>448</ele>
        <time>2014-02-09T08:44:25Z</time>
      </trkpt>
      <trkpt lat="45.84479" lon="4.80959">
        <ele>448</ele>
        <time>2014-02-09T08:44:26Z</time>
      </trkpt>
      <trkpt lat="45.84479" lon="4.80958">
        <ele>448</ele>
        <time>2014-02-09T08:44:27Z</time>
      </trkpt>
      <trkpt lat="45.8448" lon="4.80954">
        <ele>448</ele>
        <time>2014-02-09T08:44:30Z</time>
      </trkpt>
      <trkpt lat="45.8448" lon="4.80952">
        <ele>449</ele>
        <time>2014-02-09T08:44:31Z</time>
      </trkpt>
      <trkpt lat="45.84479" lon="4.80946">
        <ele>449</ele>
        <time>2014-02-09T08:44:37Z</time>
      </trkpt>
      <trkpt lat="45.8448" lon="4.80942">
        <ele>449</ele>
        <time>2014-02-09T08:44:40Z</time>
      </trkpt>
      <trkpt lat="45.8448" lon="4.8094">
        <ele>449</ele>
        <time>2014-02-09T08:44:42Z</time>
      </trkpt>
      <trkpt lat="45.84481" lon="4.80934">
        <ele>450</ele>
        <time>2014-02-09T08:44:48Z</time>
      </trkpt>
      <trkpt lat="45.84482" lon="4.80933">
        <ele>450</ele>
        <time>2014-02-09T08:44:50Z</time>
      </trkpt>
      <trkpt lat="45.84485" lon="4.80931">
        <ele>450</ele>
        <time>2014-02-09T08:44:54Z</time>
      </trkpt>
      <trkpt lat="45.84488" lon="4.80926">
        <ele>450</ele>
        <time>2014-02-09T08:45:00Z</time>
      </trkpt>
      <trkpt lat="45.84492" lon="4.80926">
        <ele>450</ele>
        <time>2014-02-09T08:45:04Z</time>
      </trkpt>
      <trkpt lat="45.84492" lon="4.8092">
        <ele>450</ele>
        <time>2014-02-09T08:45:08Z</time>
      </trkpt>
      <trkpt lat="45.84493" lon="4.80919">
        <ele>451</ele>
        <time>2014-02-09T08:45:09Z</time>
      </trkpt>
      <trkpt lat="45.84493" lon="4.80914">
        <ele>453</ele>
        <time>2014-02-09T08:45:13Z</time>
      </trkpt>
      <trkpt lat="45.84493" lon="4.80906">
        <ele>454</ele>
        <time>2014-02-09T08:45:18Z</time>
      </trkpt>
      <trkpt lat="45.84493" lon="4.80904">
        <ele>454</ele>
        <time>2014-02-09T08:45:19Z</time>
      </trkpt>
      <trkpt lat="45.84492" lon="4.80901">
        <ele>455</ele>
        <time>2014-02-09T08:45:21Z</time>
      </trkpt>
      <trkpt lat="45.8449" lon="4.80897">
        <ele>455</ele>
        <time>2014-02-09T08:45:25Z</time>
      </trkpt>
      <trkpt lat="45.84489" lon="4.80891">
        <ele>456</ele>
        <time>2014-02-09T08:45:31Z</time>
      </trkpt>
      <trkpt lat="45.84489" lon="4.8089">
        <ele>456</ele>
        <time>2014-02-09T08:45:32Z</time>
      </trkpt>
      <trkpt lat="45.84489" lon="4.80888">
        <ele>456</ele>
        <time>2014-02-09T08:45:33Z</time>
      </trkpt>
      <trkpt lat="45.8449" lon="4.80885">
        <ele>457</ele>
        <time>2014-02-09T08:45:36Z</time>
      </trkpt>
      <trkpt lat="45.84491" lon="4.80883">
        <ele>457</ele>
        <time>2014-02-09T08:45:37Z</time>
      </trkpt>
      <trkpt lat="45.84492" lon="4.80879">
        <ele>457</ele>
        <time>2014-02-09T08:45:40Z</time>
      </trkpt>
      <trkpt lat="45.84493" lon="4.80875">
        <ele>457</ele>
        <time>2014-02-09T08:45:42Z</time>
      </trkpt>
      <trkpt lat="45.84495" lon="4.80869">
        <ele>458</ele>
        <time>2014-02-09T08:45:47Z</time>
      </trkpt>
      <trkpt lat="45.84496" lon="4.80864">
        <ele>458</ele>
        <time>2014-02-09T08:45:50Z</time>
      </trkpt>
      <trkpt lat="45.84497" lon="4.80862">
        <ele>458</ele>
        <time>2014-02-09T08:45:51Z</time>
      </trkpt>
      <trkpt lat="45.84498" lon="4.80859">
        <ele>458</ele>
        <time>2014-02-09T08:45:54Z</time>
      </trkpt>
      <trkpt lat="45.84498" lon="4.80858">
        <ele>458</ele>
        <time>2014-02-09T08:45:55Z</time>
      </trkpt>
      <trkpt lat="45.845" lon="4.80852">
        <ele>459</ele>
        <time>2014-02-09T08:45:59Z</time>
      </trkpt>
      <trkpt lat="45.845" lon="4.80851">
        <ele>459</ele>
        <time>2014-02-09T08:46:00Z</time>
      </trkpt>
      <trkpt lat="45.84501" lon="4.80849">
        <ele>460</ele>
        <time>2014-02-09T08:46:01Z</time>
      </trkpt>
      <trkpt lat="45.84504" lon="4.80841">
        <ele>460</ele>
        <time>2014-02-09T08:46:06Z</time>
      </trkpt>
      <trkpt lat="45.84505" lon="4.8084">
        <ele>460</ele>
        <time>2014-02-09T08:46:07Z</time>
      </trkpt>
      <trkpt lat="45.84505" lon="4.80839">
        <ele>460</ele>
        <time>2014-02-09T08:46:08Z</time>
      </trkpt>
      <trkpt lat="45.84506" lon="4.80836">
        <ele>460</ele>
        <time>2014-02-09T08:46:11Z</time>
      </trkpt>
      <trkpt lat="45.84507" lon="4.80834">
        <ele>460</ele>
        <time>2014-02-09T08:46:12Z</time>
      </trkpt>
      <trkpt lat="45.84506" lon="4.80827">
        <ele>463</ele>
        <time>2014-02-09T08:46:17Z</time>
      </trkpt>
      <trkpt lat="45.84505" lon="4.80822">
        <ele>463</ele>
        <time>2014-02-09T08:46:20Z</time>
      </trkpt>
      <trkpt lat="45.84506" lon="4.80819">
        <ele>464</ele>
        <time>2014-02-09T08:46:24Z</time>
      </trkpt>
      <trkpt lat="45.84508" lon="4.80819">
        <ele>464</ele>
        <time>2014-02-09T08:46:29Z</time>
      </trkpt>
      <trkpt lat="45.84509" lon="4.80816">
        <ele>464</ele>
        <time>2014-02-09T08:46:31Z</time>
      </trkpt>
      <trkpt lat="45.84509" lon="4.80815">
        <ele>465</ele>
        <time>2014-02-09T08:46:32Z</time>
      </trkpt>
      <trkpt lat="45.8451" lon="4.80812">
        <ele>465</ele>
        <time>2014-02-09T08:46:34Z</time>
      </trkpt>
      <trkpt lat="45.84511" lon="4.8081">
        <ele>465</ele>
        <time>2014-02-09T08:46:35Z</time>
      </trkpt>
      <trkpt lat="45.84512" lon="4.80803">
        <ele>466</ele>
        <time>2014-02-09T08:46:40Z</time>
      </trkpt>
      <trkpt lat="45.84514" lon="4.80794">
        <ele>467</ele>
        <time>2014-02-09T08:46:46Z</time>
      </trkpt>
      <trkpt lat="45.84514" lon="4.80792">
        <ele>467</ele>
        <time>2014-02-09T08:46:47Z</time>
      </trkpt>
      <trkpt lat="45.84514" lon="4.80789">
        <ele>467</ele>
        <time>2014-02-09T08:46:49Z</time>
      </trkpt>
      <trkpt lat="45.84515" lon="4.80786">
        <ele>468</ele>
        <time>2014-02-09T08:46:51Z</time>
      </trkpt>
      <trkpt lat="45.84517" lon="4.80782">
        <ele>468</ele>
        <time>2014-02-09T08:46:53Z</time>
      </trkpt>
      <trkpt lat="45.8452" lon="4.80777">
        <ele>468</ele>
        <time>2014-02-09T08:46:57Z</time>
      </trkpt>
      <trkpt lat="45.8452" lon="4.80774">
        <ele>468</ele>
        <time>2014-02-09T08:46:59Z</time>
      </trkpt>
      <trkpt lat="45.84521" lon="4.8077">
        <ele>469</ele>
        <time>2014-02-09T08:47:03Z</time>
      </trkpt>
      <trkpt lat="45.84521" lon="4.80768">
        <ele>469</ele>
        <time>2014-02-09T08:47:06Z</time>
      </trkpt>
      <trkpt lat="45.84522" lon="4.80763">
        <ele>469</ele>
        <time>2014-02-09T08:47:10Z</time>
      </trkpt>
      <trkpt lat="45.84524" lon="4.80758">
        <ele>469</ele>
        <time>2014-02-09T08:47:14Z</time>
      </trkpt>
      <trkpt lat="45.84524" lon="4.80755">
        <ele>469</ele>
        <time>2014-02-09T08:47:16Z</time>
      </trkpt>
      <trkpt lat="45.84524" lon="4.80751">
        <ele>469</ele>
        <time>2014-02-09T08:47:18Z</time>
      </trkpt>
      <trkpt lat="45.84526" lon="4.80743">
        <ele>475</ele>
        <time>2014-02-09T08:47:23Z</time>
      </trkpt>
      <trkpt lat="45.84526" lon="4.80741">
        <ele>475</ele>
        <time>2014-02-09T08:47:24Z</time>
      </trkpt>
      <trkpt lat="45.84529" lon="4.80734">
        <ele>475</ele>
        <time>2014-02-09T08:47:29Z</time>
      </trkpt>
      <trkpt lat="45.84529" lon="4.80733">
        <ele>475</ele>
        <time>2014-02-09T08:47:30Z</time>
      </trkpt>
      <trkpt lat="45.8453" lon="4.8073">
        <ele>476</ele>
        <time>2014-02-09T08:47:33Z</time>
      </trkpt>
      <trkpt lat="45.84532" lon="4.80726">
        <ele>476</ele>
        <time>2014-02-09T08:47:36Z</time>
      </trkpt>
      <trkpt lat="45.84533" lon="4.80719">
        <ele>476</ele>
        <time>2014-02-09T08:47:42Z</time>
      </trkpt>
      <trkpt lat="45.84533" lon="4.80715">
        <ele>477</ele>
        <time>2014-02-09T08:47:45Z</time>
      </trkpt>
      <trkpt lat="45.84533" lon="4.8071">
        <ele>477</ele>
        <time>2014-02-09T08:47:47Z</time>
      </trkpt>
      <trkpt lat="45.84533" lon="4.80709">
        <ele>477</ele>
        <time>2014-02-09T08:47:48Z</time>
      </trkpt>
      <trkpt lat="45.84532" lon="4.80702">
        <ele>477</ele>
        <time>2014-02-09T08:47:52Z</time>
      </trkpt>
      <trkpt lat="45.84532" lon="4.80699">
        <ele>477</ele>
        <time>2014-02-09T08:47:54Z</time>
      </trkpt>
      <trkpt lat="45.84532" lon="4.80698">
        <ele>478</ele>
        <time>2014-02-09T08:47:55Z</time>
      </trkpt>
      <trkpt lat="45.84532" lon="4.80694">
        <ele>478</ele>
        <time>2014-02-09T08:47:59Z</time>
      </trkpt>
      <trkpt lat="45.84531" lon="4.80693">
        <ele>478</ele>
        <time>2014-02-09T08:48:00Z</time>
      </trkpt>
      <trkpt lat="45.84531" lon="4.80691">
        <ele>478</ele>
        <time>2014-02-09T08:48:02Z</time>
      </trkpt>
      <trkpt lat="45.8453" lon="4.80689">
        <ele>478</ele>
        <time>2014-02-09T08:48:03Z</time>
      </trkpt>
      <trkpt lat="45.84529" lon="4.80688">
        <ele>478</ele>
        <time>2014-02-09T08:48:04Z</time>
      </trkpt>
      <trkpt lat="45.84527" lon="4.80686">
        <ele>478</ele>
        <time>2014-02-09T08:48:07Z</time>
      </trkpt>
      <trkpt lat="45.84525" lon="4.80685">
        <ele>478</ele>
        <time>2014-02-09T08:48:09Z</time>
      </trkpt>
      <trkpt lat="45.84525" lon="4.80683">
        <ele>478</ele>
        <time>2014-02-09T08:48:10Z</time>
      </trkpt>
      <trkpt lat="45.84525" lon="4.80672">
        <ele>478</ele>
        <time>2014-02-09T08:48:16Z</time>
      </trkpt>
      <trkpt lat="45.84525" lon="4.80669">
        <ele>478</ele>
        <time>2014-02-09T08:48:18Z</time>
      </trkpt>
      <trkpt lat="45.84526" lon="4.80667">
        <ele>478</ele>
        <time>2014-02-09T08:48:19Z</time>
      </trkpt>
      <trkpt lat="45.84527" lon="4.80665">
        <ele>484</ele>
        <time>2014-02-09T08:48:21Z</time>
      </trkpt>
      <trkpt lat="45.84527" lon="4.80659">
        <ele>485</ele>
        <time>2014-02-09T08:48:25Z</time>
      </trkpt>
      <trkpt lat="45.84528" lon="4.80657">
        <ele>485</ele>
        <time>2014-02-09T08:48:27Z</time>
      </trkpt>
      <trkpt lat="45.8453" lon="4.80649">
        <ele>486</ele>
        <time>2014-02-09T08:48:32Z</time>
      </trkpt>
      <trkpt lat="45.84531" lon="4.80647">
        <ele>486</ele>
        <time>2014-02-09T08:48:33Z</time>
      </trkpt>
      <trkpt lat="45.84532" lon="4.80643">
        <ele>486</ele>
        <time>2014-02-09T08:48:36Z</time>
      </trkpt>
      <trkpt lat="45.84534" lon="4.80639">
        <ele>487</ele>
        <time>2014-02-09T08:48:39Z</time>
      </trkpt>
      <trkpt lat="45.84535" lon="4.80636">
        <ele>487</ele>
        <time>2014-02-09T08:48:42Z</time>
      </trkpt>
      <trkpt lat="45.84535" lon="4.80634">
        <ele>487</ele>
        <time>2014-02-09T08:48:44Z</time>
      </trkpt>
      <trkpt lat="45.84538" lon="4.80627">
        <ele>488</ele>
        <time>2014-02-09T08:48:50Z</time>
      </trkpt>
      <trkpt lat="45.8454" lon="4.8062">
        <ele>488</ele>
        <time>2014-02-09T08:48:55Z</time>
      </trkpt>
      <trkpt lat="45.84541" lon="4.80619">
        <ele>488</ele>
        <time>2014-02-09T08:48:56Z</time>
      </trkpt>
      <trkpt lat="45.84544" lon="4.80614">
        <ele>489</ele>
        <time>2014-02-09T08:49:02Z</time>
      </trkpt>
      <trkpt lat="45.84547" lon="4.80609">
        <ele>489</ele>
        <time>2014-02-09T08:49:07Z</time>
      </trkpt>
      <trkpt lat="45.84548" lon="4.80608">
        <ele>489</ele>
        <time>2014-02-09T08:49:11Z</time>
      </trkpt>
      <trkpt lat="45.84548" lon="4.80608">
        <ele>489</ele>
        <time>2014-02-09T08:49:17Z</time>
      </trkpt>
      <trkpt lat="45.84546" lon="4.80608">
        <ele>489</ele>
        <time>2014-02-09T08:50:10Z</time>
      </trkpt>
      <trkpt lat="45.84546" lon="4.80605">
        <ele>489</ele>
        <time>2014-02-09T08:50:14Z</time>
      </trkpt>
      <trkpt lat="45.84546" lon="4.80601">
        <ele>489</ele>
        <time>2014-02-09T08:50:17Z</time>
      </trkpt>
      <trkpt lat="45.84546" lon="4.80594">
        <ele>490</ele>
        <time>2014-02-09T08:50:23Z</time>
      </trkpt>
      <trkpt lat="45.84549" lon="4.80585">
        <ele>490</ele>
        <time>2014-02-09T08:50:30Z</time>
      </trkpt>
      <trkpt lat="45.84548" lon="4.80582">
        <ele>498</ele>
        <time>2014-02-09T08:50:33Z</time>
      </trkpt>
      <trkpt lat="45.84547" lon="4.80578">
        <ele>498</ele>
        <time>2014-02-09T08:50:36Z</time>
      </trkpt>
      <trkpt lat="45.84547" lon="4.80577">
        <ele>498</ele>
        <time>2014-02-09T08:50:37Z</time>
      </trkpt>
      <trkpt lat="45.84547" lon="4.80573">
        <ele>498</ele>
        <time>2014-02-09T08:50:44Z</time>
      </trkpt>
      <trkpt lat="45.84548" lon="4.80566">
        <ele>498</ele>
        <time>2014-02-09T08:50:49Z</time>
      </trkpt>
      <trkpt lat="45.84551" lon="4.80559">
        <ele>499</ele>
        <time>2014-02-09T08:50:56Z</time>
      </trkpt>
      <trkpt lat="45.84551" lon="4.80557">
        <ele>499</ele>
        <time>2014-02-09T08:50:58Z</time>
      </trkpt>
      <trkpt lat="45.84548" lon="4.80555">
        <ele>499</ele>
        <time>2014-02-09T08:51:04Z</time>
      </trkpt>
      <trkpt lat="45.84547" lon="4.80556">
        <ele>499</ele>
        <time>2014-02-09T08:51:05Z</time>
      </trkpt>
      <trkpt lat="45.8454" lon="4.80558">
        <ele>499</ele>
        <time>2014-02-09T08:51:10Z</time>
      </trkpt>
      <trkpt lat="45.84533" lon="4.80563">
        <ele>498</ele>
        <time>2014-02-09T08:51:14Z</time>
      </trkpt>
      <trkpt lat="45.84531" lon="4.80565">
        <ele>498</ele>
        <time>2014-02-09T08:51:15Z</time>
      </trkpt>
      <trkpt lat="45.84521" lon="4.80573">
        <ele>497</ele>
        <time>2014-02-09T08:51:21Z</time>
      </trkpt>
      <trkpt lat="45.84517" lon="4.80576">
        <ele>497</ele>
        <time>2014-02-09T08:51:24Z</time>
      </trkpt>
      <trkpt lat="45.84512" lon="4.80578">
        <ele>496</ele>
        <time>2014-02-09T08:51:27Z</time>
      </trkpt>
      <trkpt lat="45.84505" lon="4.80582">
        <ele>494</ele>
        <time>2014-02-09T08:51:31Z</time>
      </trkpt>
      <trkpt lat="45.84502" lon="4.80583">
        <ele>493</ele>
        <time>2014-02-09T08:51:33Z</time>
      </trkpt>
      <trkpt lat="45.845" lon="4.80584">
        <ele>493</ele>
        <time>2014-02-09T08:51:34Z</time>
      </trkpt>
      <trkpt lat="45.84491" lon="4.80586">
        <ele>492</ele>
        <time>2014-02-09T08:51:40Z</time>
      </trkpt>
      <trkpt lat="45.84481" lon="4.80592">
        <ele>491</ele>
        <time>2014-02-09T08:51:45Z</time>
      </trkpt>
      <trkpt lat="45.8447" lon="4.80592">
        <ele>491</ele>
        <time>2014-02-09T08:51:52Z</time>
      </trkpt>
      <trkpt lat="45.84467" lon="4.80592">
        <ele>491</ele>
        <time>2014-02-09T08:51:54Z</time>
      </trkpt>
      <trkpt lat="45.84462" lon="4.80593">
        <ele>491</ele>
        <time>2014-02-09T08:51:57Z</time>
      </trkpt>
      <trkpt lat="45.8445" lon="4.8059">
        <ele>491</ele>
        <time>2014-02-09T08:52:03Z</time>
      </trkpt>
      <trkpt lat="45.84444" lon="4.8059">
        <ele>492</ele>
        <time>2014-02-09T08:52:06Z</time>
      </trkpt>
      <trkpt lat="45.84438" lon="4.80588">
        <ele>493</ele>
        <time>2014-02-09T08:52:10Z</time>
      </trkpt>
      <trkpt lat="45.84436" lon="4.80587">
        <ele>493</ele>
        <time>2014-02-09T08:52:11Z</time>
      </trkpt>
      <trkpt lat="45.84431" lon="4.80586">
        <ele>494</ele>
        <time>2014-02-09T08:52:15Z</time>
      </trkpt>
      <trkpt lat="45.8443" lon="4.80586">
        <ele>494</ele>
        <time>2014-02-09T08:52:16Z</time>
      </trkpt>
      <trkpt lat="45.84426" lon="4.80585">
        <ele>494</ele>
        <time>2014-02-09T08:52:18Z</time>
      </trkpt>
      <trkpt lat="45.8442" lon="4.8058">
        <ele>498</ele>
        <time>2014-02-09T08:52:23Z</time>
      </trkpt>
      <trkpt lat="45.84419" lon="4.8058">
        <ele>498</ele>
        <time>2014-02-09T08:52:24Z</time>
      </trkpt>
      <trkpt lat="45.84417" lon="4.80579">
        <ele>498</ele>
        <time>2014-02-09T08:52:28Z</time>
      </trkpt>
      <trkpt lat="45.84414" lon="4.80581">
        <ele>497</ele>
        <time>2014-02-09T08:52:33Z</time>
      </trkpt>
      <trkpt lat="45.84413" lon="4.80578">
        <ele>498</ele>
        <time>2014-02-09T08:52:37Z</time>
      </trkpt>
      <trkpt lat="45.8441" lon="4.80572">
        <ele>498</ele>
        <time>2014-02-09T08:52:41Z</time>
      </trkpt>
      <trkpt lat="45.84409" lon="4.8057">
        <ele>499</ele>
        <time>2014-02-09T08:52:42Z</time>
      </trkpt>
      <trkpt lat="45.84407" lon="4.80566">
        <ele>499</ele>
        <time>2014-02-09T08:52:45Z</time>
      </trkpt>
      <trkpt lat="45.84407" lon="4.80565">
        <ele>499</ele>
        <time>2014-02-09T08:52:46Z</time>
      </trkpt>
      <trkpt lat="45.84406" lon="4.80564">
        <ele>499</ele>
        <time>2014-02-09T08:52:47Z</time>
      </trkpt>
      <trkpt lat="45.84402" lon="4.80557">
        <ele>500</ele>
        <time>2014-02-09T08:52:52Z</time>
      </trkpt>
      <trkpt lat="45.84399" lon="4.8055">
        <ele>500</ele>
        <time>2014-02-09T08:52:57Z</time>
      </trkpt>
      <trkpt lat="45.84398" lon="4.80549">
        <ele>500</ele>
        <time>2014-02-09T08:52:58Z</time>
      </trkpt>
      <trkpt lat="45.84393" lon="4.80539">
        <ele>501</ele>
        <time>2014-02-09T08:53:05Z</time>
      </trkpt>
      <trkpt lat="45.8439" lon="4.80527">
        <ele>501</ele>
        <time>2014-02-09T08:53:11Z</time>
      </trkpt>
      <trkpt lat="45.84389" lon="4.80514">
        <ele>502</ele>
        <time>2014-02-09T08:53:18Z</time>
      </trkpt>
      <trkpt lat="45.84389" lon="4.80502">
        <ele>502</ele>
        <time>2014-02-09T08:53:25Z</time>
      </trkpt>
      <trkpt lat="45.84389" lon="4.80491">
        <ele>509</ele>
        <time>2014-02-09T08:53:31Z</time>
      </trkpt>
      <trkpt lat="45.8439" lon="4.80486">
        <ele>509</ele>
        <time>2014-02-09T08:53:34Z</time>
      </trkpt>
      <trkpt lat="45.84391" lon="4.80485">
        <ele>509</ele>
        <time>2014-02-09T08:53:37Z</time>
      </trkpt>
      <trkpt lat="45.84391" lon="4.80479">
        <ele>510</ele>
        <time>2014-02-09T08:53:44Z</time>
      </trkpt>
      <trkpt lat="45.84391" lon="4.80475">
        <ele>510</ele>
        <time>2014-02-09T08:53:46Z</time>
      </trkpt>
      <trkpt lat="45.84389" lon="4.80467">
        <ele>511</ele>
        <time>2014-02-09T08:53:51Z</time>
      </trkpt>
      <trkpt lat="45.84388" lon="4.80457">
        <ele>512</ele>
        <time>2014-02-09T08:53:57Z</time>
      </trkpt>
      <trkpt lat="45.84387" lon="4.80449">
        <ele>513</ele>
        <time>2014-02-09T08:54:02Z</time>
      </trkpt>
      <trkpt lat="45.84387" lon="4.80447">
        <ele>513</ele>
        <time>2014-02-09T08:54:03Z</time>
      </trkpt>
      <trkpt lat="45.84387" lon="4.80437">
        <ele>514</ele>
        <time>2014-02-09T08:54:09Z</time>
      </trkpt>
      <trkpt lat="45.84387" lon="4.80436">
        <ele>514</ele>
        <time>2014-02-09T08:54:10Z</time>
      </trkpt>
      <trkpt lat="45.84388" lon="4.80434">
        <ele>514</ele>
        <time>2014-02-09T08:54:12Z</time>
      </trkpt>
      <trkpt lat="45.84388" lon="4.80429">
        <ele>514</ele>
        <time>2014-02-09T08:54:15Z</time>
      </trkpt>
      <trkpt lat="45.8439" lon="4.80423">
        <ele>515</ele>
        <time>2014-02-09T08:54:19Z</time>
      </trkpt>
      <trkpt lat="45.8439" lon="4.80422">
        <ele>515</ele>
        <time>2014-02-09T08:54:20Z</time>
      </trkpt>
      <trkpt lat="45.84391" lon="4.80418">
        <ele>515</ele>
        <time>2014-02-09T08:54:22Z</time>
      </trkpt>
      <trkpt lat="45.84392" lon="4.80415">
        <ele>522</ele>
        <time>2014-02-09T08:54:25Z</time>
      </trkpt>
      <trkpt lat="45.84393" lon="4.80408">
        <ele>523</ele>
        <time>2014-02-09T08:54:31Z</time>
      </trkpt>
      <trkpt lat="45.84392" lon="4.80402">
        <ele>523</ele>
        <time>2014-02-09T08:54:35Z</time>
      </trkpt>
      <trkpt lat="45.84392" lon="4.80398">
        <ele>523</ele>
        <time>2014-02-09T08:54:37Z</time>
      </trkpt>
      <trkpt lat="45.84393" lon="4.80396">
        <ele>523</ele>
        <time>2014-02-09T08:54:38Z</time>
      </trkpt>
      <trkpt lat="45.84393" lon="4.80388">
        <ele>524</ele>
        <time>2014-02-09T08:54:43Z</time>
      </trkpt>
      <trkpt lat="45.84394" lon="4.80385">
        <ele>524</ele>
        <time>2014-02-09T08:54:46Z</time>
      </trkpt>
      <trkpt lat="45.84395" lon="4.80382">
        <ele>525</ele>
        <time>2014-02-09T08:54:49Z</time>
      </trkpt>
      <trkpt lat="45.84395" lon="4.80378">
        <ele>525</ele>
        <time>2014-02-09T08:54:52Z</time>
      </trkpt>
      <trkpt lat="45.84394" lon="4.80374">
        <ele>526</ele>
        <time>2014-02-09T08:54:54Z</time>
      </trkpt>
      <trkpt lat="45.84393" lon="4.80371">
        <ele>526</ele>
        <time>2014-02-09T08:54:56Z</time>
      </trkpt>
      <trkpt lat="45.84392" lon="4.80366">
        <ele>526</ele>
        <time>2014-02-09T08:54:59Z</time>
      </trkpt>
      <trkpt lat="45.84391" lon="4.8036">
        <ele>527</ele>
        <time>2014-02-09T08:55:02Z</time>
      </trkpt>
      <trkpt lat="45.84391" lon="4.80358">
        <ele>527</ele>
        <time>2014-02-09T08:55:03Z</time>
      </trkpt>
      <trkpt lat="45.8439" lon="4.80351">
        <ele>528</ele>
        <time>2014-02-09T08:55:08Z</time>
      </trkpt>
      <trkpt lat="45.84391" lon="4.80344">
        <ele>528</ele>
        <time>2014-02-09T08:55:12Z</time>
      </trkpt>
      <trkpt lat="45.84391" lon="4.80341">
        <ele>528</ele>
        <time>2014-02-09T08:55:14Z</time>
      </trkpt>
      <trkpt lat="45.84393" lon="4.80332">
        <ele>535</ele>
        <time>2014-02-09T08:55:19Z</time>
      </trkpt>
      <trkpt lat="45.84393" lon="4.8033">
        <ele>535</ele>
        <time>2014-02-09T08:55:20Z</time>
      </trkpt>
      <trkpt lat="45.84394" lon="4.80322">
        <ele>536</ele>
        <time>2014-02-09T08:55:25Z</time>
      </trkpt>
      <trkpt lat="45.84395" lon="4.80318">
        <ele>536</ele>
        <time>2014-02-09T08:55:27Z</time>
      </trkpt>
      <trkpt lat="45.84394" lon="4.80315">
        <ele>536</ele>
        <time>2014-02-09T08:55:30Z</time>
      </trkpt>
      <trkpt lat="45.84394" lon="4.80313">
        <ele>536</ele>
        <time>2014-02-09T08:55:31Z</time>
      </trkpt>
      <trkpt lat="45.84394" lon="4.80308">
        <ele>537</ele>
        <time>2014-02-09T08:55:35Z</time>
      </trkpt>
      <trkpt lat="45.84395" lon="4.80301">
        <ele>537</ele>
        <time>2014-02-09T08:55:39Z</time>
      </trkpt>
      <trkpt lat="45.84396" lon="4.80293">
        <ele>538</ele>
        <time>2014-02-09T08:55:45Z</time>
      </trkpt>
      <trkpt lat="45.84397" lon="4.80287">
        <ele>538</ele>
        <time>2014-02-09T08:55:49Z</time>
      </trkpt>
      <trkpt lat="45.84397" lon="4.80283">
        <ele>539</ele>
        <time>2014-02-09T08:55:52Z</time>
      </trkpt>
      <trkpt lat="45.84398" lon="4.8028">
        <ele>539</ele>
        <time>2014-02-09T08:55:54Z</time>
      </trkpt>
      <trkpt lat="45.84397" lon="4.80274">
        <ele>539</ele>
        <time>2014-02-09T08:55:57Z</time>
      </trkpt>
      <trkpt lat="45.84397" lon="4.80273">
        <ele>539</ele>
        <time>2014-02-09T08:55:58Z</time>
      </trkpt>
      <trkpt lat="45.84397" lon="4.80266">
        <ele>540</ele>
        <time>2014-02-09T08:56:02Z</time>
      </trkpt>
      <trkpt lat="45.84397" lon="4.80261">
        <ele>540</ele>
        <time>2014-02-09T08:56:05Z</time>
      </trkpt>
      <trkpt lat="45.84398" lon="4.80259">
        <ele>540</ele>
        <time>2014-02-09T08:56:06Z</time>
      </trkpt>
      <trkpt lat="45.84399" lon="4.80257">
        <ele>541</ele>
        <time>2014-02-09T08:56:08Z</time>
      </trkpt>
      <trkpt lat="45.84399" lon="4.80256">
        <ele>541</ele>
        <time>2014-02-09T08:56:09Z</time>
      </trkpt>
      <trkpt lat="45.84403" lon="4.8025">
        <ele>545</ele>
        <time>2014-02-09T08:56:13Z</time>
      </trkpt>
      <trkpt lat="45.84403" lon="4.80248">
        <ele>545</ele>
        <time>2014-02-09T08:56:14Z</time>
      </trkpt>
      <trkpt lat="45.84401" lon="4.80242">
        <ele>546</ele>
        <time>2014-02-09T08:56:17Z</time>
      </trkpt>
      <trkpt lat="45.84398" lon="4.80236">
        <ele>546</ele>
        <time>2014-02-09T08:56:21Z</time>
      </trkpt>
      <trkpt lat="45.84398" lon="4.80235">
        <ele>546</ele>
        <time>2014-02-09T08:56:22Z</time>
      </trkpt>
      <trkpt lat="45.84395" lon="4.80225">
        <ele>547</ele>
        <time>2014-02-09T08:56:28Z</time>
      </trkpt>
      <trkpt lat="45.84393" lon="4.80219">
        <ele>547</ele>
        <time>2014-02-09T08:56:32Z</time>
      </trkpt>
      <trkpt lat="45.84392" lon="4.80218">
        <ele>547</ele>
        <time>2014-02-09T08:56:33Z</time>
      </trkpt>
      <trkpt lat="45.84392" lon="4.80215">
        <ele>547</ele>
        <time>2014-02-09T08:56:35Z</time>
      </trkpt>
      <trkpt lat="45.84391" lon="4.80211">
        <ele>547</ele>
        <time>2014-02-09T08:56:38Z</time>
      </trkpt>
      <trkpt lat="45.84388" lon="4.80203">
        <ele>548</ele>
        <time>2014-02-09T08:56:43Z</time>
      </trkpt>
      <trkpt lat="45.84388" lon="4.80202">
        <ele>548</ele>
        <time>2014-02-09T08:56:44Z</time>
      </trkpt>
      <trkpt lat="45.84385" lon="4.80196">
        <ele>548</ele>
        <time>2014-02-09T08:56:48Z</time>
      </trkpt>
      <trkpt lat="45.84384" lon="4.80193">
        <ele>548</ele>
        <time>2014-02-09T08:56:50Z</time>
      </trkpt>
      <trkpt lat="45.84379" lon="4.80189">
        <ele>548</ele>
        <time>2014-02-09T08:56:55Z</time>
      </trkpt>
      <trkpt lat="45.8437" lon="4.80183">
        <ele>548</ele>
        <time>2014-02-09T08:57:03Z</time>
      </trkpt>
      <trkpt lat="45.8437" lon="4.80182">
        <ele>548</ele>
        <time>2014-02-09T08:57:04Z</time>
      </trkpt>
      <trkpt lat="45.84367" lon="4.80176">
        <ele>549</ele>
        <time>2014-02-09T08:57:08Z</time>
      </trkpt>
      <trkpt lat="45.84367" lon="4.80176">
        <ele>549</ele>
        <time>2014-02-09T08:57:13Z</time>
      </trkpt>
      <trkpt lat="45.84366" lon="4.8017">
        <ele>549</ele>
        <time>2014-02-09T08:57:32Z</time>
      </trkpt>
      <trkpt lat="45.84363" lon="4.80161">
        <ele>554</ele>
        <time>2014-02-09T08:57:38Z</time>
      </trkpt>
      <trkpt lat="45.84363" lon="4.8016">
        <ele>554</ele>
        <time>2014-02-09T08:57:39Z</time>
      </trkpt>
      <trkpt lat="45.84358" lon="4.8015">
        <ele>555</ele>
        <time>2014-02-09T08:57:45Z</time>
      </trkpt>
      <trkpt lat="45.84358" lon="4.80148">
        <ele>555</ele>
        <time>2014-02-09T08:57:47Z</time>
      </trkpt>
      <trkpt lat="45.84355" lon="4.80141">
        <ele>555</ele>
        <time>2014-02-09T08:57:51Z</time>
      </trkpt>
      <trkpt lat="45.84354" lon="4.80139">
        <ele>555</ele>
        <time>2014-02-09T08:57:53Z</time>
      </trkpt>
      <trkpt lat="45.84354" lon="4.80137">
        <ele>555</ele>
        <time>2014-02-09T08:57:54Z</time>
      </trkpt>
      <trkpt lat="45.84353" lon="4.80133">
        <ele>556</ele>
        <time>2014-02-09T08:57:56Z</time>
      </trkpt>
      <trkpt lat="45.84347" lon="4.80118">
        <ele>557</ele>
        <time>2014-02-09T08:58:04Z</time>
      </trkpt>
      <trkpt lat="45.84345" lon="4.80113">
        <ele>558</ele>
        <time>2014-02-09T08:58:07Z</time>
      </trkpt>
      <trkpt lat="45.84342" lon="4.80106">
        <ele>558</ele>
        <time>2014-02-09T08:58:11Z</time>
      </trkpt>
      <trkpt lat="45.84337" lon="4.80095">
        <ele>560</ele>
        <time>2014-02-09T08:58:18Z</time>
      </trkpt>
      <trkpt lat="45.84335" lon="4.80091">
        <ele>560</ele>
        <time>2014-02-09T08:58:20Z</time>
      </trkpt>
      <trkpt lat="45.84331" lon="4.80078">
        <ele>562</ele>
        <time>2014-02-09T08:58:27Z</time>
      </trkpt>
      <trkpt lat="45.84329" lon="4.80065">
        <ele>563</ele>
        <time>2014-02-09T08:58:35Z</time>
      </trkpt>
      <trkpt lat="45.84328" lon="4.80064">
        <ele>564</ele>
        <time>2014-02-09T08:58:36Z</time>
      </trkpt>
      <trkpt lat="45.84323" lon="4.80051">
        <ele>564</ele>
        <time>2014-02-09T08:58:45Z</time>
      </trkpt>
      <trkpt lat="45.8432" lon="4.80042">
        <ele>565</ele>
        <time>2014-02-09T08:58:51Z</time>
      </trkpt>
      <trkpt lat="45.84319" lon="4.80039">
        <ele>565</ele>
        <time>2014-02-09T08:58:53Z</time>
      </trkpt>
      <trkpt lat="45.84312" lon="4.80032">
        <ele>565</ele>
        <time>2014-02-09T08:59:00Z</time>
      </trkpt>
      <trkpt lat="45.84306" lon="4.80026">
        <ele>566</ele>
        <time>2014-02-09T08:59:05Z</time>
      </trkpt>
      <trkpt lat="45.84305" lon="4.80022">
        <ele>566</ele>
        <time>2014-02-09T08:59:07Z</time>
      </trkpt>
      <trkpt lat="45.84304" lon="4.80019">
        <ele>566</ele>
        <time>2014-02-09T08:59:09Z</time>
      </trkpt>
      <trkpt lat="45.84302" lon="4.80011">
        <ele>566</ele>
        <time>2014-02-09T08:59:14Z</time>
      </trkpt>
      <trkpt lat="45.84299" lon="4.80001">
        <ele>567</ele>
        <time>2014-02-09T08:59:19Z</time>
      </trkpt>
      <trkpt lat="45.84299" lon="4.79999">
        <ele>571</ele>
        <time>2014-02-09T08:59:20Z</time>
      </trkpt>
      <trkpt lat="45.84297" lon="4.79989">
        <ele>572</ele>
        <time>2014-02-09T08:59:26Z</time>
      </trkpt>
      <trkpt lat="45.84295" lon="4.79976">
        <ele>572</ele>
        <time>2014-02-09T08:59:33Z</time>
      </trkpt>
      <trkpt lat="45.84295" lon="4.79975">
        <ele>572</ele>
        <time>2014-02-09T08:59:34Z</time>
      </trkpt>
      <trkpt lat="45.84292" lon="4.79967">
        <ele>572</ele>
        <time>2014-02-09T08:59:38Z</time>
      </trkpt>
      <trkpt lat="45.84288" lon="4.79954">
        <ele>573</ele>
        <time>2014-02-09T08:59:45Z</time>
      </trkpt>
      <trkpt lat="45.84287" lon="4.79951">
        <ele>573</ele>
        <time>2014-02-09T08:59:47Z</time>
      </trkpt>
      <trkpt lat="45.84283" lon="4.7994">
        <ele>573</ele>
        <time>2014-02-09T08:59:53Z</time>
      </trkpt>
      <trkpt lat="45.8428" lon="4.7993">
        <ele>574</ele>
        <time>2014-02-09T08:59:59Z</time>
      </trkpt>
      <trkpt lat="45.84279" lon="4.79927">
        <ele>574</ele>
        <time>2014-02-09T09:00:01Z</time>
      </trkpt>
      <trkpt lat="45.84275" lon="4.79916">
        <ele>578</ele>
        <time>2014-02-09T09:00:07Z</time>
      </trkpt>
      <trkpt lat="45.84268" lon="4.79905">
        <ele>578</ele>
        <time>2014-02-09T09:00:12Z</time>
      </trkpt>
      <trkpt lat="45.8426" lon="4.79898">
        <ele>578</ele>
        <time>2014-02-09T09:00:17Z</time>
      </trkpt>
      <trkpt lat="45.84252" lon="4.7989">
        <ele>579</ele>
        <time>2014-02-09T09:00:21Z</time>
      </trkpt>
      <trkpt lat="45.84249" lon="4.79886">
        <ele>584</ele>
        <time>2014-02-09T09:00:23Z</time>
      </trkpt>
      <trkpt lat="45.8424" lon="4.79874">
        <ele>585</ele>
        <time>2014-02-09T09:00:29Z</time>
      </trkpt>
      <trkpt lat="45.84239" lon="4.79872">
        <ele>585</ele>
        <time>2014-02-09T09:00:30Z</time>
      </trkpt>
      <trkpt lat="45.84235" lon="4.79867">
        <ele>586</ele>
        <time>2014-02-09T09:00:32Z</time>
      </trkpt>
      <trkpt lat="45.84233" lon="4.79862">
        <ele>586</ele>
        <time>2014-02-09T09:00:34Z</time>
      </trkpt>
      <trkpt lat="45.84228" lon="4.79848">
        <ele>587</ele>
        <time>2014-02-09T09:00:39Z</time>
      </trkpt>
      <trkpt lat="45.84221" lon="4.79827">
        <ele>591</ele>
        <time>2014-02-09T09:00:46Z</time>
      </trkpt>
      <trkpt lat="45.8422" lon="4.79824">
        <ele>591</ele>
        <time>2014-02-09T09:00:47Z</time>
      </trkpt>
      <trkpt lat="45.84218" lon="4.79812">
        <ele>591</ele>
        <time>2014-02-09T09:00:52Z</time>
      </trkpt>
      <trkpt lat="45.84217" lon="4.79811">
        <ele>591</ele>
        <time>2014-02-09T09:00:58Z</time>
      </trkpt>
      <trkpt lat="45.84217" lon="4.79811">
        <ele>591</ele>
        <time>2014-02-09T09:01:12Z</time>
      </trkpt>
      <trkpt lat="45.84217" lon="4.79811">
        <ele>591</ele>
        <time>2014-02-09T09:01:28Z</time>
      </trkpt>
      <trkpt lat="45.84217" lon="4.79809">
        <ele>591</ele>
        <time>2014-02-09T09:01:36Z</time>
      </trkpt>
      <trkpt lat="45.84219" lon="4.7981">
        <ele>591</ele>
        <time>2014-02-09T09:02:22Z</time>
      </trkpt>
      <trkpt lat="45.8422" lon="4.79811">
        <ele>591</ele>
        <time>2014-02-09T09:02:29Z</time>
      </trkpt>
      <trkpt lat="45.8422" lon="4.79812">
        <ele>591</ele>
        <time>2014-02-09T09:02:36Z</time>
      </trkpt>
      <trkpt lat="45.84224" lon="4.79815">
        <ele>591</ele>
        <time>2014-02-09T09:03:09Z</time>
      </trkpt>
      <trkpt lat="45.84225" lon="4.79816">
        <ele>591</ele>
        <time>2014-02-09T09:03:16Z</time>
      </trkpt>
      <trkpt lat="45.84225" lon="4.79815">
        <ele>591</ele>
        <time>2014-02-09T09:03:25Z</time>
      </trkpt>
      <trkpt lat="45.84227" lon="4.79818">
        <ele>591</ele>
        <time>2014-02-09T09:03:31Z</time>
      </trkpt>
      <trkpt lat="45.84228" lon="4.79819">
        <ele>591</ele>
        <time>2014-02-09T09:03:32Z</time>
      </trkpt>
      <trkpt lat="45.84233" lon="4.79823">
        <ele>591</ele>
        <time>2014-02-09T09:03:36Z</time>
      </trkpt>
      <trkpt lat="45.84235" lon="4.79824">
        <ele>591</ele>
        <time>2014-02-09T09:03:37Z</time>
      </trkpt>
      <trkpt lat="45.84239" lon="4.79828">
        <ele>591</ele>
        <time>2014-02-09T09:03:43Z</time>
      </trkpt>
      <trkpt lat="45.8424" lon="4.79829">
        <ele>591</ele>
        <time>2014-02-09T09:03:49Z</time>
      </trkpt>
      <trkpt lat="45.84234" lon="4.79827">
        <ele>591</ele>
        <time>2014-02-09T09:03:53Z</time>
      </trkpt>
      <trkpt lat="45.84231" lon="4.79825">
        <ele>591</ele>
        <time>2014-02-09T09:03:54Z</time>
      </trkpt>
      <trkpt lat="45.84222" lon="4.79816">
        <ele>591</ele>
        <time>2014-02-09T09:03:59Z</time>
      </trkpt>
      <trkpt lat="45.84218" lon="4.79812">
        <ele>591</ele>
        <time>2014-02-09T09:04:03Z</time>
      </trkpt>
      <trkpt lat="45.84218" lon="4.7981">
        <ele>591</ele>
        <time>2014-02-09T09:04:05Z</time>
      </trkpt>
      <trkpt lat="45.84217" lon="4.79809">
        <ele>591</ele>
        <time>2014-02-09T09:04:08Z</time>
      </trkpt>
      <trkpt lat="45.84218" lon="4.79806">
        <ele>591</ele>
        <time>2014-02-09T09:04:10Z</time>
      </trkpt>
      <trkpt lat="45.84218" lon="4.79806">
        <ele>591</ele>
        <time>2014-02-09T09:04:16Z</time>
      </trkpt>
      <trkpt lat="45.84219" lon="4.7981">
        <ele>591</ele>
        <time>2014-02-09T09:04:22Z</time>
      </trkpt>
      <trkpt lat="45.84222" lon="4.79805">
        <ele>591</ele>
        <time>2014-02-09T09:04:50Z</time>
      </trkpt>
      <trkpt lat="45.84223" lon="4.79805">
        <ele>591</ele>
        <time>2014-02-09T09:04:51Z</time>
      </trkpt>
      <trkpt lat="45.84228" lon="4.79808">
        <ele>591</ele>
        <time>2014-02-09T09:04:55Z</time>
      </trkpt>
      <trkpt lat="45.8423" lon="4.7981">
        <ele>591</ele>
        <time>2014-02-09T09:04:56Z</time>
      </trkpt>
      <trkpt lat="45.84233" lon="4.79813">
        <ele>591</ele>
        <time>2014-02-09T09:04:58Z</time>
      </trkpt>
      <trkpt lat="45.84243" lon="4.79827">
        <ele>590</ele>
        <time>2014-02-09T09:05:04Z</time>
      </trkpt>
      <trkpt lat="45.84245" lon="4.79829">
        <ele>590</ele>
        <time>2014-02-09T09:05:05Z</time>
      </trkpt>
      <trkpt lat="45.84254" lon="4.79846">
        <ele>585</ele>
        <time>2014-02-09T09:05:12Z</time>
      </trkpt>
      <trkpt lat="45.84256" lon="4.79848">
        <ele>584</ele>
        <time>2014-02-09T09:05:13Z</time>
      </trkpt>
      <trkpt lat="45.84262" lon="4.79857">
        <ele>581</ele>
        <time>2014-02-09T09:05:17Z</time>
      </trkpt>
      <trkpt lat="45.84269" lon="4.79866">
        <ele>580</ele>
        <time>2014-02-09T09:05:21Z</time>
      </trkpt>
      <trkpt lat="45.84277" lon="4.79875">
        <ele>578</ele>
        <time>2014-02-09T09:05:25Z</time>
      </trkpt>
      <trkpt lat="45.84285" lon="4.79883">
        <ele>577</ele>
        <time>2014-02-09T09:05:29Z</time>
      </trkpt>
      <trkpt lat="45.84289" lon="4.79888">
        <ele>577</ele>
        <time>2014-02-09T09:05:31Z</time>
      </trkpt>
      <trkpt lat="45.843" lon="4.799">
        <ele>576</ele>
        <time>2014-02-09T09:05:37Z</time>
      </trkpt>
      <trkpt lat="45.84302" lon="4.79902">
        <ele>576</ele>
        <time>2014-02-09T09:05:38Z</time>
      </trkpt>
      <trkpt lat="45.84315" lon="4.79918">
        <ele>573</ele>
        <time>2014-02-09T09:05:45Z</time>
      </trkpt>
      <trkpt lat="45.84325" lon="4.7993">
        <ele>572</ele>
        <time>2014-02-09T09:05:51Z</time>
      </trkpt>
      <trkpt lat="45.84331" lon="4.79932">
        <ele>572</ele>
        <time>2014-02-09T09:05:54Z</time>
      </trkpt>
      <trkpt lat="45.84332" lon="4.79931">
        <ele>572</ele>
        <time>2014-02-09T09:05:55Z</time>
      </trkpt>
      <trkpt lat="45.84337" lon="4.79927">
        <ele>569</ele>
        <time>2014-02-09T09:06:00Z</time>
      </trkpt>
      <trkpt lat="45.84343" lon="4.79924">
        <ele>569</ele>
        <time>2014-02-09T09:06:05Z</time>
      </trkpt>
      <trkpt lat="45.84349" lon="4.79925">
        <ele>568</ele>
        <time>2014-02-09T09:06:09Z</time>
      </trkpt>
      <trkpt lat="45.8435" lon="4.79927">
        <ele>568</ele>
        <time>2014-02-09T09:06:10Z</time>
      </trkpt>
      <trkpt lat="45.84357" lon="4.79936">
        <ele>566</ele>
        <time>2014-02-09T09:06:15Z</time>
      </trkpt>
      <trkpt lat="45.84357" lon="4.79936">
        <ele>566</ele>
        <time>2014-02-09T09:06:16Z</time>
      </trkpt>
      <trkpt lat="45.84361" lon="4.79938">
        <ele>566</ele>
        <time>2014-02-09T09:06:18Z</time>
      </trkpt>
      <trkpt lat="45.84363" lon="4.7994">
        <ele>565</ele>
        <time>2014-02-09T09:06:19Z</time>
      </trkpt>
      <trkpt lat="45.84366" lon="4.79944">
        <ele>565</ele>
        <time>2014-02-09T09:06:21Z</time>
      </trkpt>
      <trkpt lat="45.8437" lon="4.79946">
        <ele>565</ele>
        <time>2014-02-09T09:06:23Z</time>
      </trkpt>
      <trkpt lat="45.84375" lon="4.79947">
        <ele>564</ele>
        <time>2014-02-09T09:06:25Z</time>
      </trkpt>
      <trkpt lat="45.84379" lon="4.79953">
        <ele>564</ele>
        <time>2014-02-09T09:06:28Z</time>
      </trkpt>
      <trkpt lat="45.84384" lon="4.79968">
        <ele>564</ele>
        <time>2014-02-09T09:06:33Z</time>
      </trkpt>
      <trkpt lat="45.84386" lon="4.7997">
        <ele>564</ele>
        <time>2014-02-09T09:06:34Z</time>
      </trkpt>
      <trkpt lat="45.84389" lon="4.79974">
        <ele>563</ele>
        <time>2014-02-09T09:06:36Z</time>
      </trkpt>
      <trkpt lat="45.84392" lon="4.79978">
        <ele>563</ele>
        <time>2014-02-09T09:06:38Z</time>
      </trkpt>
      <trkpt lat="45.844" lon="4.79985">
        <ele>563</ele>
        <time>2014-02-09T09:06:42Z</time>
      </trkpt>
      <trkpt lat="45.84403" lon="4.79991">
        <ele>562</ele>
        <time>2014-02-09T09:06:44Z</time>
      </trkpt>
      <trkpt lat="45.84407" lon="4.79997">
        <ele>562</ele>
        <time>2014-02-09T09:06:46Z</time>
      </trkpt>
      <trkpt lat="45.84412" lon="4.80014">
        <ele>562</ele>
        <time>2014-02-09T09:06:51Z</time>
      </trkpt>
      <trkpt lat="45.84412" lon="4.80025">
        <ele>562</ele>
        <time>2014-02-09T09:06:54Z</time>
      </trkpt>
      <trkpt lat="45.84414" lon="4.80027">
        <ele>563</ele>
        <time>2014-02-09T09:06:55Z</time>
      </trkpt>
      <trkpt lat="45.84419" lon="4.80038">
        <ele>555</ele>
        <time>2014-02-09T09:06:59Z</time>
      </trkpt>
      <trkpt lat="45.84421" lon="4.8004">
        <ele>555</ele>
        <time>2014-02-09T09:07:00Z</time>
      </trkpt>
      <trkpt lat="45.84426" lon="4.80046">
        <ele>555</ele>
        <time>2014-02-09T09:07:02Z</time>
      </trkpt>
      <trkpt lat="45.84433" lon="4.80053">
        <ele>555</ele>
        <time>2014-02-09T09:07:05Z</time>
      </trkpt>
      <trkpt lat="45.84436" lon="4.80055">
        <ele>554</ele>
        <time>2014-02-09T09:07:06Z</time>
      </trkpt>
      <trkpt lat="45.84441" lon="4.80063">
        <ele>554</ele>
        <time>2014-02-09T09:07:09Z</time>
      </trkpt>
      <trkpt lat="45.84443" lon="4.80066">
        <ele>554</ele>
        <time>2014-02-09T09:07:10Z</time>
      </trkpt>
      <trkpt lat="45.84446" lon="4.80073">
        <ele>554</ele>
        <time>2014-02-09T09:07:12Z</time>
      </trkpt>
      <trkpt lat="45.84448" lon="4.80077">
        <ele>554</ele>
        <time>2014-02-09T09:07:13Z</time>
      </trkpt>
      <trkpt lat="45.84455" lon="4.80095">
        <ele>555</ele>
        <time>2014-02-09T09:07:18Z</time>
      </trkpt>
      <trkpt lat="45.84459" lon="4.80102">
        <ele>555</ele>
        <time>2014-02-09T09:07:20Z</time>
      </trkpt>
      <trkpt lat="45.84464" lon="4.80105">
        <ele>555</ele>
        <time>2014-02-09T09:07:22Z</time>
      </trkpt>
      <trkpt lat="45.84471" lon="4.80101">
        <ele>554</ele>
        <time>2014-02-09T09:07:25Z</time>
      </trkpt>
      <trkpt lat="45.84473" lon="4.80098">
        <ele>554</ele>
        <time>2014-02-09T09:07:26Z</time>
      </trkpt>
      <trkpt lat="45.8448" lon="4.8009">
        <ele>553</ele>
        <time>2014-02-09T09:07:31Z</time>
      </trkpt>
      <trkpt lat="45.84484" lon="4.80096">
        <ele>553</ele>
        <time>2014-02-09T09:07:34Z</time>
      </trkpt>
      <trkpt lat="45.84485" lon="4.80098">
        <ele>553</ele>
        <time>2014-02-09T09:07:35Z</time>
      </trkpt>
      <trkpt lat="45.8449" lon="4.80107">
        <ele>554</ele>
        <time>2014-02-09T09:07:40Z</time>
      </trkpt>
      <trkpt lat="45.84499" lon="4.8011">
        <ele>553</ele>
        <time>2014-02-09T09:07:44Z</time>
      </trkpt>
      <trkpt lat="45.84501" lon="4.80111">
        <ele>547</ele>
        <time>2014-02-09T09:07:45Z</time>
      </trkpt>
      <trkpt lat="45.84509" lon="4.80111">
        <ele>546</ele>
        <time>2014-02-09T09:07:49Z</time>
      </trkpt>
      <trkpt lat="45.84517" lon="4.80118">
        <ele>546</ele>
        <time>2014-02-09T09:07:53Z</time>
      </trkpt>
      <trkpt lat="45.84526" lon="4.80123">
        <ele>545</ele>
        <time>2014-02-09T09:07:56Z</time>
      </trkpt>
      <trkpt lat="45.8453" lon="4.80127">
        <ele>545</ele>
        <time>2014-02-09T09:07:58Z</time>
      </trkpt>
      <trkpt lat="45.84531" lon="4.80128">
        <ele>545</ele>
        <time>2014-02-09T09:07:59Z</time>
      </trkpt>
      <trkpt lat="45.84535" lon="4.80134">
        <ele>544</ele>
        <time>2014-02-09T09:08:02Z</time>
      </trkpt>
      <trkpt lat="45.84536" lon="4.80135">
        <ele>544</ele>
        <time>2014-02-09T09:08:03Z</time>
      </trkpt>
      <trkpt lat="45.84541" lon="4.80144">
        <ele>544</ele>
        <time>2014-02-09T09:08:08Z</time>
      </trkpt>
      <trkpt lat="45.84549" lon="4.80154">
        <ele>544</ele>
        <time>2014-02-09T09:08:13Z</time>
      </trkpt>
      <trkpt lat="45.84551" lon="4.80156">
        <ele>544</ele>
        <time>2014-02-09T09:08:14Z</time>
      </trkpt>
      <trkpt lat="45.8456" lon="4.80165">
        <ele>543</ele>
        <time>2014-02-09T09:08:19Z</time>
      </trkpt>
      <trkpt lat="45.84562" lon="4.80166">
        <ele>543</ele>
        <time>2014-02-09T09:08:20Z</time>
      </trkpt>
      <trkpt lat="45.84566" lon="4.8017">
        <ele>544</ele>
        <time>2014-02-09T09:08:22Z</time>
      </trkpt>
      <trkpt lat="45.84568" lon="4.80172">
        <ele>544</ele>
        <time>2014-02-09T09:08:23Z</time>
      </trkpt>
      <trkpt lat="45.84572" lon="4.8018">
        <ele>544</ele>
        <time>2014-02-09T09:08:27Z</time>
      </trkpt>
      <trkpt lat="45.84573" lon="4.80182">
        <ele>544</ele>
        <time>2014-02-09T09:08:28Z</time>
      </trkpt>
      <trkpt lat="45.84581" lon="4.8019">
        <ele>544</ele>
        <time>2014-02-09T09:08:32Z</time>
      </trkpt>
      <trkpt lat="45.8459" lon="4.80207">
        <ele>536</ele>
        <time>2014-02-09T09:08:38Z</time>
      </trkpt>
      <trkpt lat="45.8459" lon="4.80213">
        <ele>536</ele>
        <time>2014-02-09T09:08:40Z</time>
      </trkpt>
      <trkpt lat="45.84589" lon="4.80219">
        <ele>537</ele>
        <time>2014-02-09T09:08:42Z</time>
      </trkpt>
      <trkpt lat="45.84586" lon="4.80231">
        <ele>538</ele>
        <time>2014-02-09T09:08:46Z</time>
      </trkpt>
      <trkpt lat="45.84582" lon="4.80237">
        <ele>545</ele>
        <time>2014-02-09T09:08:49Z</time>
      </trkpt>
      <trkpt lat="45.8458" lon="4.80247">
        <ele>544</ele>
        <time>2014-02-09T09:08:52Z</time>
      </trkpt>
      <trkpt lat="45.84582" lon="4.80254">
        <ele>543</ele>
        <time>2014-02-09T09:08:57Z</time>
      </trkpt>
      <trkpt lat="45.84582" lon="4.80255">
        <ele>543</ele>
        <time>2014-02-09T09:08:58Z</time>
      </trkpt>
      <trkpt lat="45.84586" lon="4.80261">
        <ele>540</ele>
        <time>2014-02-09T09:09:03Z</time>
      </trkpt>
      <trkpt lat="45.84587" lon="4.80263">
        <ele>540</ele>
        <time>2014-02-09T09:09:04Z</time>
      </trkpt>
      <trkpt lat="45.84594" lon="4.80272">
        <ele>538</ele>
        <time>2014-02-09T09:09:10Z</time>
      </trkpt>
      <trkpt lat="45.84603" lon="4.80275">
        <ele>537</ele>
        <time>2014-02-09T09:09:14Z</time>
      </trkpt>
      <trkpt lat="45.84605" lon="4.80275">
        <ele>536</ele>
        <time>2014-02-09T09:09:15Z</time>
      </trkpt>
      <trkpt lat="45.84616" lon="4.80278">
        <ele>536</ele>
        <time>2014-02-09T09:09:20Z</time>
      </trkpt>
      <trkpt lat="45.84622" lon="4.80281">
        <ele>535</ele>
        <time>2014-02-09T09:09:23Z</time>
      </trkpt>
      <trkpt lat="45.84624" lon="4.80282">
        <ele>535</ele>
        <time>2014-02-09T09:09:24Z</time>
      </trkpt>
      <trkpt lat="45.84636" lon="4.80292">
        <ele>534</ele>
        <time>2014-02-09T09:09:30Z</time>
      </trkpt>
      <trkpt lat="45.8464" lon="4.80295">
        <ele>534</ele>
        <time>2014-02-09T09:09:32Z</time>
      </trkpt>
      <trkpt lat="45.84644" lon="4.80299">
        <ele>534</ele>
        <time>2014-02-09T09:09:36Z</time>
      </trkpt>
      <trkpt lat="45.84645" lon="4.80299">
        <ele>534</ele>
        <time>2014-02-09T09:09:37Z</time>
      </trkpt>
      <trkpt lat="45.84646" lon="4.803">
        <ele>534</ele>
        <time>2014-02-09T09:09:40Z</time>
      </trkpt>
      <trkpt lat="45.84646" lon="4.80301">
        <ele>534</ele>
        <time>2014-02-09T09:09:42Z</time>
      </trkpt>
      <trkpt lat="45.84645" lon="4.803">
        <ele>534</ele>
        <time>2014-02-09T09:09:47Z</time>
      </trkpt>
      <trkpt lat="45.84647" lon="4.80302">
        <ele>534</ele>
        <time>2014-02-09T09:09:51Z</time>
      </trkpt>
      <trkpt lat="45.84649" lon="4.80306">
        <ele>534</ele>
        <time>2014-02-09T09:09:53Z</time>
      </trkpt>
      <trkpt lat="45.84652" lon="4.8031">
        <ele>534</ele>
        <time>2014-02-09T09:09:55Z</time>
      </trkpt>
      <trkpt lat="45.84653" lon="4.8031">
        <ele>534</ele>
        <time>2014-02-09T09:09:56Z</time>
      </trkpt>
      <trkpt lat="45.84657" lon="4.80306">
        <ele>533</ele>
        <time>2014-02-09T09:10:04Z</time>
      </trkpt>
      <trkpt lat="45.84657" lon="4.80307">
        <ele>533</ele>
        <time>2014-02-09T09:10:07Z</time>
      </trkpt>
      <trkpt lat="45.84656" lon="4.80311">
        <ele>533</ele>
        <time>2014-02-09T09:10:10Z</time>
      </trkpt>
      <trkpt lat="45.84657" lon="4.80312">
        <ele>533</ele>
        <time>2014-02-09T09:10:11Z</time>
      </trkpt>
      <trkpt lat="45.8466" lon="4.80318">
        <ele>533</ele>
        <time>2014-02-09T09:10:15Z</time>
      </trkpt>
      <trkpt lat="45.8466" lon="4.80319">
        <ele>533</ele>
        <time>2014-02-09T09:10:16Z</time>
      </trkpt>
      <trkpt lat="45.84661" lon="4.80321">
        <ele>533</ele>
        <time>2014-02-09T09:10:17Z</time>
      </trkpt>
      <trkpt lat="45.84663" lon="4.80323">
        <ele>533</ele>
        <time>2014-02-09T09:10:19Z</time>
      </trkpt>
      <trkpt lat="45.84666" lon="4.80321">
        <ele>533</ele>
        <time>2014-02-09T09:10:21Z</time>
      </trkpt>
      <trkpt lat="45.84669" lon="4.80319">
        <ele>526</ele>
        <time>2014-02-09T09:10:24Z</time>
      </trkpt>
      <trkpt lat="45.84672" lon="4.80317">
        <ele>525</ele>
        <time>2014-02-09T09:10:26Z</time>
      </trkpt>
      <trkpt lat="45.84674" lon="4.80316">
        <ele>525</ele>
        <time>2014-02-09T09:10:27Z</time>
      </trkpt>
      <trkpt lat="45.84683" lon="4.80311">
        <ele>522</ele>
        <time>2014-02-09T09:10:31Z</time>
      </trkpt>
      <trkpt lat="45.84689" lon="4.80314">
        <ele>522</ele>
        <time>2014-02-09T09:10:35Z</time>
      </trkpt>
      <trkpt lat="45.84691" lon="4.80316">
        <ele>522</ele>
        <time>2014-02-09T09:10:36Z</time>
      </trkpt>
      <trkpt lat="45.84695" lon="4.80324">
        <ele>521</ele>
        <time>2014-02-09T09:10:39Z</time>
      </trkpt>
      <trkpt lat="45.84697" lon="4.80328">
        <ele>521</ele>
        <time>2014-02-09T09:10:42Z</time>
      </trkpt>
      <trkpt lat="45.84698" lon="4.80328">
        <ele>521</ele>
        <time>2014-02-09T09:10:43Z</time>
      </trkpt>
      <trkpt lat="45.84699" lon="4.80328">
        <ele>521</ele>
        <time>2014-02-09T09:10:44Z</time>
      </trkpt>
      <trkpt lat="45.84705" lon="4.8033">
        <ele>519</ele>
        <time>2014-02-09T09:10:47Z</time>
      </trkpt>
      <trkpt lat="45.84707" lon="4.80332">
        <ele>519</ele>
        <time>2014-02-09T09:10:48Z</time>
      </trkpt>
      <trkpt lat="45.84709" lon="4.80335">
        <ele>523</ele>
        <time>2014-02-09T09:10:49Z</time>
      </trkpt>
      <trkpt lat="45.84714" lon="4.80346">
        <ele>523</ele>
        <time>2014-02-09T09:10:53Z</time>
      </trkpt>
      <trkpt lat="45.8472" lon="4.80352">
        <ele>522</ele>
        <time>2014-02-09T09:10:57Z</time>
      </trkpt>
      <trkpt lat="45.84721" lon="4.80354">
        <ele>522</ele>
        <time>2014-02-09T09:10:58Z</time>
      </trkpt>
      <trkpt lat="45.8473" lon="4.80365">
        <ele>522</ele>
        <time>2014-02-09T09:11:03Z</time>
      </trkpt>
      <trkpt lat="45.84734" lon="4.80371">
        <ele>522</ele>
        <time>2014-02-09T09:11:05Z</time>
      </trkpt>
      <trkpt lat="45.84736" lon="4.80377">
        <ele>522</ele>
        <time>2014-02-09T09:11:07Z</time>
      </trkpt>
      <trkpt lat="45.84737" lon="4.80379">
        <ele>522</ele>
        <time>2014-02-09T09:11:09Z</time>
      </trkpt>
      <trkpt lat="45.84739" lon="4.80378">
        <ele>522</ele>
        <time>2014-02-09T09:11:11Z</time>
      </trkpt>
      <trkpt lat="45.84744" lon="4.80382">
        <ele>522</ele>
        <time>2014-02-09T09:11:15Z</time>
      </trkpt>
      <trkpt lat="45.84747" lon="4.80386">
        <ele>523</ele>
        <time>2014-02-09T09:11:17Z</time>
      </trkpt>
      <trkpt lat="45.84751" lon="4.8039">
        <ele>511</ele>
        <time>2014-02-09T09:11:19Z</time>
      </trkpt>
      <trkpt lat="45.84755" lon="4.804">
        <ele>514</ele>
        <time>2014-02-09T09:11:24Z</time>
      </trkpt>
      <trkpt lat="45.84758" lon="4.80402">
        <ele>514</ele>
        <time>2014-02-09T09:11:26Z</time>
      </trkpt>
      <trkpt lat="45.8476" lon="4.80403">
        <ele>513</ele>
        <time>2014-02-09T09:11:28Z</time>
      </trkpt>
      <trkpt lat="45.84761" lon="4.80402">
        <ele>513</ele>
        <time>2014-02-09T09:11:29Z</time>
      </trkpt>
      <trkpt lat="45.84762" lon="4.80403">
        <ele>513</ele>
        <time>2014-02-09T09:11:30Z</time>
      </trkpt>
      <trkpt lat="45.84764" lon="4.80408">
        <ele>514</ele>
        <time>2014-02-09T09:11:33Z</time>
      </trkpt>
      <trkpt lat="45.84764" lon="4.8041">
        <ele>514</ele>
        <time>2014-02-09T09:11:34Z</time>
      </trkpt>
      <trkpt lat="45.84765" lon="4.80421">
        <ele>518</ele>
        <time>2014-02-09T09:11:38Z</time>
      </trkpt>
      <trkpt lat="45.84767" lon="4.80422">
        <ele>517</ele>
        <time>2014-02-09T09:11:40Z</time>
      </trkpt>
      <trkpt lat="45.84769" lon="4.80421">
        <ele>516</ele>
        <time>2014-02-09T09:11:42Z</time>
      </trkpt>
      <trkpt lat="45.84777" lon="4.80419">
        <ele>515</ele>
        <time>2014-02-09T09:11:48Z</time>
      </trkpt>
      <trkpt lat="45.84781" lon="4.80424">
        <ele>514</ele>
        <time>2014-02-09T09:11:51Z</time>
      </trkpt>
      <trkpt lat="45.84783" lon="4.8043">
        <ele>513</ele>
        <time>2014-02-09T09:11:53Z</time>
      </trkpt>
      <trkpt lat="45.84789" lon="4.80441">
        <ele>512</ele>
        <time>2014-02-09T09:11:58Z</time>
      </trkpt>
      <trkpt lat="45.84792" lon="4.80445">
        <ele>511</ele>
        <time>2014-02-09T09:12:03Z</time>
      </trkpt>
      <trkpt lat="45.84796" lon="4.80445">
        <ele>511</ele>
        <time>2014-02-09T09:12:13Z</time>
      </trkpt>
      <trkpt lat="45.84798" lon="4.80447">
        <ele>511</ele>
        <time>2014-02-09T09:12:14Z</time>
      </trkpt>
      <trkpt lat="45.84802" lon="4.80452">
        <ele>510</ele>
        <time>2014-02-09T09:12:19Z</time>
      </trkpt>
      <trkpt lat="45.84807" lon="4.80452">
        <ele>510</ele>
        <time>2014-02-09T09:12:26Z</time>
      </trkpt>
      <trkpt lat="45.84808" lon="4.80454">
        <ele>510</ele>
        <time>2014-02-09T09:12:28Z</time>
      </trkpt>
      <trkpt lat="45.84811" lon="4.80461">
        <ele>510</ele>
        <time>2014-02-09T09:12:32Z</time>
      </trkpt>
      <trkpt lat="45.84815" lon="4.80465">
        <ele>510</ele>
        <time>2014-02-09T09:12:35Z</time>
      </trkpt>
      <trkpt lat="45.84816" lon="4.80468">
        <ele>510</ele>
        <time>2014-02-09T09:12:38Z</time>
      </trkpt>
      <trkpt lat="45.84817" lon="4.80469">
        <ele>510</ele>
        <time>2014-02-09T09:12:39Z</time>
      </trkpt>
      <trkpt lat="45.84821" lon="4.80471">
        <ele>509</ele>
        <time>2014-02-09T09:12:43Z</time>
      </trkpt>
      <trkpt lat="45.84822" lon="4.80473">
        <ele>509</ele>
        <time>2014-02-09T09:12:45Z</time>
      </trkpt>
      <trkpt lat="45.84824" lon="4.80474">
        <ele>509</ele>
        <time>2014-02-09T09:12:47Z</time>
      </trkpt>
      <trkpt lat="45.84827" lon="4.80478">
        <ele>509</ele>
        <time>2014-02-09T09:12:50Z</time>
      </trkpt>
      <trkpt lat="45.84829" lon="4.80478">
        <ele>509</ele>
        <time>2014-02-09T09:12:52Z</time>
      </trkpt>
      <trkpt lat="45.84833" lon="4.8048">
        <ele>509</ele>
        <time>2014-02-09T09:12:55Z</time>
      </trkpt>
      <trkpt lat="45.84834" lon="4.80482">
        <ele>498</ele>
        <time>2014-02-09T09:12:56Z</time>
      </trkpt>
      <trkpt lat="45.84838" lon="4.80488">
        <ele>500</ele>
        <time>2014-02-09T09:13:00Z</time>
      </trkpt>
      <trkpt lat="45.84839" lon="4.80493">
        <ele>502</ele>
        <time>2014-02-09T09:13:02Z</time>
      </trkpt>
      <trkpt lat="45.84844" lon="4.80502">
        <ele>504</ele>
        <time>2014-02-09T09:13:06Z</time>
      </trkpt>
      <trkpt lat="45.84845" lon="4.80504">
        <ele>504</ele>
        <time>2014-02-09T09:13:07Z</time>
      </trkpt>
      <trkpt lat="45.84856" lon="4.80511">
        <ele>501</ele>
        <time>2014-02-09T09:13:12Z</time>
      </trkpt>
      <trkpt lat="45.84863" lon="4.80512">
        <ele>500</ele>
        <time>2014-02-09T09:13:15Z</time>
      </trkpt>
      <trkpt lat="45.84867" lon="4.80514">
        <ele>499</ele>
        <time>2014-02-09T09:13:17Z</time>
      </trkpt>
      <trkpt lat="45.84873" lon="4.80518">
        <ele>498</ele>
        <time>2014-02-09T09:13:20Z</time>
      </trkpt>
      <trkpt lat="45.84875" lon="4.80519">
        <ele>498</ele>
        <time>2014-02-09T09:13:22Z</time>
      </trkpt>
      <trkpt lat="45.84876" lon="4.80522">
        <ele>498</ele>
        <time>2014-02-09T09:13:23Z</time>
      </trkpt>
      <trkpt lat="45.84878" lon="4.80525">
        <ele>497</ele>
        <time>2014-02-09T09:13:25Z</time>
      </trkpt>
      <trkpt lat="45.84879" lon="4.80527">
        <ele>497</ele>
        <time>2014-02-09T09:13:26Z</time>
      </trkpt>
      <trkpt lat="45.84884" lon="4.80533">
        <ele>497</ele>
        <time>2014-02-09T09:13:30Z</time>
      </trkpt>
      <trkpt lat="45.84889" lon="4.80541">
        <ele>497</ele>
        <time>2014-02-09T09:13:36Z</time>
      </trkpt>
      <trkpt lat="45.84891" lon="4.80544">
        <ele>497</ele>
        <time>2014-02-09T09:13:38Z</time>
      </trkpt>
      <trkpt lat="45.84897" lon="4.80554">
        <ele>497</ele>
        <time>2014-02-09T09:13:43Z</time>
      </trkpt>
      <trkpt lat="45.84901" lon="4.80558">
        <ele>497</ele>
        <time>2014-02-09T09:13:46Z</time>
      </trkpt>
      <trkpt lat="45.84903" lon="4.80562">
        <ele>497</ele>
        <time>2014-02-09T09:13:48Z</time>
      </trkpt>
      <trkpt lat="45.84904" lon="4.80564">
        <ele>497</ele>
        <time>2014-02-09T09:13:50Z</time>
      </trkpt>
      <trkpt lat="45.84907" lon="4.80564">
        <ele>497</ele>
        <time>2014-02-09T09:13:52Z</time>
      </trkpt>
      <trkpt lat="45.84913" lon="4.80569">
        <ele>496</ele>
        <time>2014-02-09T09:13:56Z</time>
      </trkpt>
      <trkpt lat="45.84916" lon="4.80571">
        <ele>496</ele>
        <time>2014-02-09T09:13:58Z</time>
      </trkpt>
      <trkpt lat="45.84921" lon="4.80575">
        <ele>488</ele>
        <time>2014-02-09T09:14:02Z</time>
      </trkpt>
      <trkpt lat="45.84924" lon="4.80576">
        <ele>488</ele>
        <time>2014-02-09T09:14:04Z</time>
      </trkpt>
      <trkpt lat="45.84932" lon="4.80586">
        <ele>489</ele>
        <time>2014-02-09T09:14:10Z</time>
      </trkpt>
      <trkpt lat="45.84935" lon="4.80591">
        <ele>488</ele>
        <time>2014-02-09T09:14:13Z</time>
      </trkpt>
      <trkpt lat="45.84938" lon="4.80593">
        <ele>487</ele>
        <time>2014-02-09T09:14:16Z</time>
      </trkpt>
      <trkpt lat="45.84949" lon="4.80604">
        <ele>484</ele>
        <time>2014-02-09T09:14:22Z</time>
      </trkpt>
      <trkpt lat="45.84952" lon="4.80607">
        <ele>483</ele>
        <time>2014-02-09T09:14:24Z</time>
      </trkpt>
      <trkpt lat="45.84956" lon="4.8061">
        <ele>482</ele>
        <time>2014-02-09T09:14:27Z</time>
      </trkpt>
      <trkpt lat="45.84959" lon="4.80615">
        <ele>482</ele>
        <time>2014-02-09T09:14:32Z</time>
      </trkpt>
      <trkpt lat="45.84962" lon="4.80621">
        <ele>481</ele>
        <time>2014-02-09T09:14:37Z</time>
      </trkpt>
      <trkpt lat="45.84963" lon="4.80623">
        <ele>481</ele>
        <time>2014-02-09T09:14:38Z</time>
      </trkpt>
      <trkpt lat="45.84963" lon="4.80625">
        <ele>481</ele>
        <time>2014-02-09T09:14:39Z</time>
      </trkpt>
      <trkpt lat="45.84964" lon="4.80628">
        <ele>482</ele>
        <time>2014-02-09T09:14:41Z</time>
      </trkpt>
      <trkpt lat="45.84965" lon="4.80632">
        <ele>481</ele>
        <time>2014-02-09T09:14:43Z</time>
      </trkpt>
      <trkpt lat="45.84969" lon="4.80637">
        <ele>481</ele>
        <time>2014-02-09T09:14:47Z</time>
      </trkpt>
      <trkpt lat="45.8497" lon="4.80639">
        <ele>481</ele>
        <time>2014-02-09T09:14:48Z</time>
      </trkpt>
      <trkpt lat="45.84974" lon="4.80642">
        <ele>481</ele>
        <time>2014-02-09T09:14:52Z</time>
      </trkpt>
      <trkpt lat="45.84971" lon="4.80649">
        <ele>481</ele>
        <time>2014-02-09T09:15:22Z</time>
      </trkpt>
      <trkpt lat="45.84973" lon="4.80654">
        <ele>481</ele>
        <time>2014-02-09T09:15:37Z</time>
      </trkpt>
      <trkpt lat="45.84974" lon="4.80656">
        <ele>481</ele>
        <time>2014-02-09T09:15:38Z</time>
      </trkpt>
      <trkpt lat="45.84974" lon="4.80665">
        <ele>481</ele>
        <time>2014-02-09T09:15:42Z</time>
      </trkpt>
      <trkpt lat="45.84975" lon="4.80672">
        <ele>484</ele>
        <time>2014-02-09T09:15:44Z</time>
      </trkpt>
      <trkpt lat="45.84976" lon="4.80677">
        <ele>484</ele>
        <time>2014-02-09T09:15:46Z</time>
      </trkpt>
      <trkpt lat="45.84978" lon="4.80691">
        <ele>485</ele>
        <time>2014-02-09T09:15:51Z</time>
      </trkpt>
      <trkpt lat="45.84977" lon="4.80698">
        <ele>486</ele>
        <time>2014-02-09T09:15:54Z</time>
      </trkpt>
      <trkpt lat="45.84977" lon="4.80703">
        <ele>486</ele>
        <time>2014-02-09T09:15:57Z</time>
      </trkpt>
      <trkpt lat="45.84974" lon="4.80698">
        <ele>486</ele>
        <time>2014-02-09T09:16:02Z</time>
      </trkpt>
      <trkpt lat="45.8497" lon="4.80692">
        <ele>486</ele>
        <time>2014-02-09T09:16:07Z</time>
      </trkpt>
      <trkpt lat="45.84969" lon="4.80686">
        <ele>486</ele>
        <time>2014-02-09T09:16:11Z</time>
      </trkpt>
      <trkpt lat="45.84968" lon="4.80685">
        <ele>486</ele>
        <time>2014-02-09T09:16:12Z</time>
      </trkpt>
      <trkpt lat="45.84967" lon="4.80684">
        <ele>486</ele>
        <time>2014-02-09T09:16:13Z</time>
      </trkpt>
      <trkpt lat="45.84963" lon="4.80678">
        <ele>487</ele>
        <time>2014-02-09T09:16:18Z</time>
      </trkpt>
      <trkpt lat="45.84962" lon="4.80678">
        <ele>487</ele>
        <time>2014-02-09T09:16:25Z</time>
      </trkpt>
      <trkpt lat="45.84957" lon="4.80676">
        <ele>488</ele>
        <time>2014-02-09T09:16:31Z</time>
      </trkpt>
      <trkpt lat="45.84953" lon="4.80674">
        <ele>488</ele>
        <time>2014-02-09T09:16:34Z</time>
      </trkpt>
      <trkpt lat="45.84952" lon="4.80672">
        <ele>488</ele>
        <time>2014-02-09T09:16:36Z</time>
      </trkpt>
      <trkpt lat="45.8495" lon="4.8067">
        <ele>489</ele>
        <time>2014-02-09T09:16:39Z</time>
      </trkpt>
      <trkpt lat="45.84949" lon="4.80671">
        <ele>489</ele>
        <time>2014-02-09T09:16:40Z</time>
      </trkpt>
      <trkpt lat="45.84949" lon="4.80672">
        <ele>489</ele>
        <time>2014-02-09T09:16:49Z</time>
      </trkpt>
      <trkpt lat="45.84952" lon="4.80666">
        <ele>485</ele>
        <time>2014-02-09T09:17:07Z</time>
      </trkpt>
      <trkpt lat="45.84949" lon="4.80668">
        <ele>489</ele>
        <time>2014-02-09T09:17:22Z</time>
      </trkpt>
      <trkpt lat="45.84951" lon="4.80663">
        <ele>485</ele>
        <time>2014-02-09T09:18:11Z</time>
      </trkpt>
      <trkpt lat="45.84951" lon="4.80662">
        <ele>485</ele>
        <time>2014-02-09T09:18:12Z</time>
      </trkpt>
      <trkpt lat="45.84952" lon="4.80661">
        <ele>485</ele>
        <time>2014-02-09T09:18:15Z</time>
      </trkpt>
      <trkpt lat="45.8495" lon="4.80664">
        <ele>485</ele>
        <time>2014-02-09T09:18:18Z</time>
      </trkpt>
      <trkpt lat="45.84949" lon="4.80665">
        <ele>486</ele>
        <time>2014-02-09T09:18:19Z</time>
      </trkpt>
      <trkpt lat="45.84949" lon="4.80667">
        <ele>486</ele>
        <time>2014-02-09T09:18:21Z</time>
      </trkpt>
      <trkpt lat="45.84949" lon="4.80669">
        <ele>489</ele>
        <time>2014-02-09T09:18:24Z</time>
      </trkpt>
      <trkpt lat="45.84952" lon="4.80676">
        <ele>488</ele>
        <time>2014-02-09T09:18:29Z</time>
      </trkpt>
      <trkpt lat="45.84954" lon="4.80679">
        <ele>488</ele>
        <time>2014-02-09T09:18:32Z</time>
      </trkpt>
      <trkpt lat="45.84955" lon="4.80682">
        <ele>488</ele>
        <time>2014-02-09T09:18:33Z</time>
      </trkpt>
      <trkpt lat="45.84956" lon="4.80685">
        <ele>488</ele>
        <time>2014-02-09T09:18:34Z</time>
      </trkpt>
      <trkpt lat="45.84958" lon="4.8069">
        <ele>488</ele>
        <time>2014-02-09T09:18:36Z</time>
      </trkpt>
      <trkpt lat="45.84961" lon="4.80696">
        <ele>488</ele>
        <time>2014-02-09T09:18:38Z</time>
      </trkpt>
      <trkpt lat="45.84963" lon="4.80701">
        <ele>487</ele>
        <time>2014-02-09T09:18:40Z</time>
      </trkpt>
      <trkpt lat="45.84964" lon="4.80704">
        <ele>487</ele>
        <time>2014-02-09T09:18:41Z</time>
      </trkpt>
      <trkpt lat="45.84965" lon="4.80707">
        <ele>488</ele>
        <time>2014-02-09T09:18:42Z</time>
      </trkpt>
      <trkpt lat="45.84974" lon="4.80723">
        <ele>488</ele>
        <time>2014-02-09T09:18:48Z</time>
      </trkpt>
      <trkpt lat="45.84976" lon="4.80726">
        <ele>488</ele>
        <time>2014-02-09T09:18:49Z</time>
      </trkpt>
      <trkpt lat="45.84982" lon="4.80736">
        <ele>488</ele>
        <time>2014-02-09T09:18:52Z</time>
      </trkpt>
      <trkpt lat="45.84989" lon="4.80748">
        <ele>488</ele>
        <time>2014-02-09T09:18:56Z</time>
      </trkpt>
      <trkpt lat="45.84991" lon="4.80751">
        <ele>490</ele>
        <time>2014-02-09T09:18:57Z</time>
      </trkpt>
      <trkpt lat="45.84996" lon="4.80767">
        <ele>490</ele>
        <time>2014-02-09T09:19:02Z</time>
      </trkpt>
      <trkpt lat="45.84998" lon="4.80774">
        <ele>491</ele>
        <time>2014-02-09T09:19:04Z</time>
      </trkpt>
      <trkpt lat="45.85002" lon="4.80784">
        <ele>483</ele>
        <time>2014-02-09T09:19:08Z</time>
      </trkpt>
      <trkpt lat="45.85003" lon="4.80787">
        <ele>483</ele>
        <time>2014-02-09T09:19:09Z</time>
      </trkpt>
      <trkpt lat="45.85008" lon="4.80796">
        <ele>484</ele>
        <time>2014-02-09T09:19:13Z</time>
      </trkpt>
      <trkpt lat="45.85015" lon="4.80812">
        <ele>485</ele>
        <time>2014-02-09T09:19:18Z</time>
      </trkpt>
      <trkpt lat="45.85018" lon="4.80818">
        <ele>485</ele>
        <time>2014-02-09T09:19:20Z</time>
      </trkpt>
      <trkpt lat="45.85022" lon="4.80829">
        <ele>485</ele>
        <time>2014-02-09T09:19:23Z</time>
      </trkpt>
      <trkpt lat="45.85024" lon="4.80832">
        <ele>485</ele>
        <time>2014-02-09T09:19:24Z</time>
      </trkpt>
      <trkpt lat="45.85028" lon="4.80841">
        <ele>488</ele>
        <time>2014-02-09T09:19:27Z</time>
      </trkpt>
      <trkpt lat="45.8503" lon="4.80844">
        <ele>488</ele>
        <time>2014-02-09T09:19:28Z</time>
      </trkpt>
      <trkpt lat="45.85031" lon="4.80848">
        <ele>488</ele>
        <time>2014-02-09T09:19:29Z</time>
      </trkpt>
      <trkpt lat="45.85039" lon="4.80859">
        <ele>487</ele>
        <time>2014-02-09T09:19:33Z</time>
      </trkpt>
      <trkpt lat="45.85041" lon="4.80863">
        <ele>487</ele>
        <time>2014-02-09T09:19:34Z</time>
      </trkpt>
      <trkpt lat="45.8505" lon="4.80878">
        <ele>486</ele>
        <time>2014-02-09T09:19:39Z</time>
      </trkpt>
      <trkpt lat="45.85054" lon="4.80883">
        <ele>486</ele>
        <time>2014-02-09T09:19:41Z</time>
      </trkpt>
      <trkpt lat="45.85062" lon="4.80895">
        <ele>486</ele>
        <time>2014-02-09T09:19:45Z</time>
      </trkpt>
      <trkpt lat="45.85067" lon="4.80903">
        <ele>487</ele>
        <time>2014-02-09T09:19:48Z</time>
      </trkpt>
      <trkpt lat="45.85071" lon="4.80911">
        <ele>487</ele>
        <time>2014-02-09T09:19:51Z</time>
      </trkpt>
      <trkpt lat="45.85079" lon="4.80923">
        <ele>487</ele>
        <time>2014-02-09T09:19:55Z</time>
      </trkpt>
      <trkpt lat="45.8508" lon="4.80926">
        <ele>487</ele>
        <time>2014-02-09T09:19:56Z</time>
      </trkpt>
      <trkpt lat="45.85093" lon="4.80944">
        <ele>481</ele>
        <time>2014-02-09T09:20:03Z</time>
      </trkpt>
      <trkpt lat="45.85103" lon="4.80954">
        <ele>480</ele>
        <time>2014-02-09T09:20:08Z</time>
      </trkpt>
      <trkpt lat="45.85109" lon="4.80962">
        <ele>479</ele>
        <time>2014-02-09T09:20:11Z</time>
      </trkpt>
      <trkpt lat="45.85116" lon="4.80972">
        <ele>479</ele>
        <time>2014-02-09T09:20:15Z</time>
      </trkpt>
      <trkpt lat="45.85123" lon="4.80981">
        <ele>479</ele>
        <time>2014-02-09T09:20:19Z</time>
      </trkpt>
      <trkpt lat="45.85133" lon="4.80988">
        <ele>478</ele>
        <time>2014-02-09T09:20:24Z</time>
      </trkpt>
      <trkpt lat="45.85139" lon="4.80993">
        <ele>478</ele>
        <time>2014-02-09T09:20:27Z</time>
      </trkpt>
      <trkpt lat="45.85146" lon="4.80998">
        <ele>478</ele>
        <time>2014-02-09T09:20:30Z</time>
      </trkpt>
      <trkpt lat="45.85155" lon="4.8101">
        <ele>480</ele>
        <time>2014-02-09T09:20:35Z</time>
      </trkpt>
      <trkpt lat="45.85157" lon="4.81012">
        <ele>480</ele>
        <time>2014-02-09T09:20:36Z</time>
      </trkpt>
      <trkpt lat="45.85167" lon="4.81028">
        <ele>472</ele>
        <time>2014-02-09T09:20:42Z</time>
      </trkpt>
      <trkpt lat="45.85168" lon="4.81031">
        <ele>472</ele>
        <time>2014-02-09T09:20:43Z</time>
      </trkpt>
      <trkpt lat="45.85174" lon="4.8104">
        <ele>472</ele>
        <time>2014-02-09T09:20:47Z</time>
      </trkpt>
      <trkpt lat="45.85181" lon="4.81052">
        <ele>472</ele>
        <time>2014-02-09T09:20:51Z</time>
      </trkpt>
      <trkpt lat="45.85185" lon="4.81059">
        <ele>472</ele>
        <time>2014-02-09T09:20:54Z</time>
      </trkpt>
      <trkpt lat="45.85191" lon="4.81068">
        <ele>472</ele>
        <time>2014-02-09T09:20:58Z</time>
      </trkpt>
      <trkpt lat="45.85192" lon="4.8107">
        <ele>472</ele>
        <time>2014-02-09T09:20:59Z</time>
      </trkpt>
      <trkpt lat="45.85194" lon="4.81073">
        <ele>472</ele>
        <time>2014-02-09T09:21:00Z</time>
      </trkpt>
      <trkpt lat="45.85202" lon="4.81082">
        <ele>471</ele>
        <time>2014-02-09T09:21:04Z</time>
      </trkpt>
      <trkpt lat="45.85209" lon="4.81089">
        <ele>473</ele>
        <time>2014-02-09T09:21:07Z</time>
      </trkpt>
      <trkpt lat="45.85213" lon="4.81092">
        <ele>473</ele>
        <time>2014-02-09T09:21:09Z</time>
      </trkpt>
      <trkpt lat="45.85222" lon="4.81101">
        <ele>472</ele>
        <time>2014-02-09T09:21:13Z</time>
      </trkpt>
      <trkpt lat="45.85224" lon="4.81103">
        <ele>472</ele>
        <time>2014-02-09T09:21:14Z</time>
      </trkpt>
      <trkpt lat="45.85234" lon="4.81112">
        <ele>472</ele>
        <time>2014-02-09T09:21:19Z</time>
      </trkpt>
      <trkpt lat="45.85235" lon="4.81114">
        <ele>472</ele>
        <time>2014-02-09T09:21:20Z</time>
      </trkpt>
      <trkpt lat="45.85241" lon="4.81119">
        <ele>472</ele>
        <time>2014-02-09T09:21:23Z</time>
      </trkpt>
      <trkpt lat="45.85245" lon="4.81126">
        <ele>472</ele>
        <time>2014-02-09T09:21:26Z</time>
      </trkpt>
      <trkpt lat="45.85249" lon="4.81129">
        <ele>472</ele>
        <time>2014-02-09T09:21:28Z</time>
      </trkpt>
      <trkpt lat="45.85253" lon="4.81133">
        <ele>462</ele>
        <time>2014-02-09T09:21:30Z</time>
      </trkpt>
      <trkpt lat="45.85255" lon="4.81136">
        <ele>463</ele>
        <time>2014-02-09T09:21:31Z</time>
      </trkpt>
      <trkpt lat="45.85264" lon="4.81147">
        <ele>463</ele>
        <time>2014-02-09T09:21:36Z</time>
      </trkpt>
      <trkpt lat="45.85269" lon="4.81154">
        <ele>463</ele>
        <time>2014-02-09T09:21:39Z</time>
      </trkpt>
      <trkpt lat="45.85271" lon="4.81156">
        <ele>463</ele>
        <time>2014-02-09T09:21:40Z</time>
      </trkpt>
      <trkpt lat="45.85281" lon="4.8117">
        <ele>466</ele>
        <time>2014-02-09T09:21:46Z</time>
      </trkpt>
      <trkpt lat="45.85282" lon="4.81172">
        <ele>466</ele>
        <time>2014-02-09T09:21:47Z</time>
      </trkpt>
      <trkpt lat="45.85288" lon="4.8118">
        <ele>465</ele>
        <time>2014-02-09T09:21:50Z</time>
      </trkpt>
      <trkpt lat="45.85298" lon="4.81188">
        <ele>465</ele>
        <time>2014-02-09T09:21:54Z</time>
      </trkpt>
      <trkpt lat="45.85301" lon="4.81189">
        <ele>464</ele>
        <time>2014-02-09T09:21:55Z</time>
      </trkpt>
      <trkpt lat="45.85313" lon="4.81198">
        <ele>464</ele>
        <time>2014-02-09T09:22:00Z</time>
      </trkpt>
      <trkpt lat="45.85315" lon="4.81199">
        <ele>464</ele>
        <time>2014-02-09T09:22:01Z</time>
      </trkpt>
      <trkpt lat="45.85325" lon="4.81205">
        <ele>464</ele>
        <time>2014-02-09T09:22:05Z</time>
      </trkpt>
      <trkpt lat="45.85327" lon="4.81207">
        <ele>464</ele>
        <time>2014-02-09T09:22:06Z</time>
      </trkpt>
      <trkpt lat="45.85332" lon="4.81212">
        <ele>464</ele>
        <time>2014-02-09T09:22:09Z</time>
      </trkpt>
      <trkpt lat="45.8534" lon="4.81219">
        <ele>457</ele>
        <time>2014-02-09T09:22:13Z</time>
      </trkpt>
      <trkpt lat="45.85346" lon="4.81226">
        <ele>457</ele>
        <time>2014-02-09T09:22:16Z</time>
      </trkpt>
      <trkpt lat="45.85349" lon="4.81228">
        <ele>457</ele>
        <time>2014-02-09T09:22:17Z</time>
      </trkpt>
      <trkpt lat="45.85361" lon="4.81241">
        <ele>457</ele>
        <time>2014-02-09T09:22:23Z</time>
      </trkpt>
      <trkpt lat="45.85362" lon="4.81242">
        <ele>457</ele>
        <time>2014-02-09T09:22:24Z</time>
      </trkpt>
      <trkpt lat="45.85368" lon="4.81244">
        <ele>456</ele>
        <time>2014-02-09T09:22:27Z</time>
      </trkpt>
      <trkpt lat="45.85376" lon="4.8125">
        <ele>455</ele>
        <time>2014-02-09T09:22:32Z</time>
      </trkpt>
      <trkpt lat="45.8538" lon="4.81253">
        <ele>459</ele>
        <time>2014-02-09T09:22:34Z</time>
      </trkpt>
      <trkpt lat="45.85384" lon="4.81256">
        <ele>458</ele>
        <time>2014-02-09T09:22:36Z</time>
      </trkpt>
      <trkpt lat="45.85391" lon="4.81259">
        <ele>458</ele>
        <time>2014-02-09T09:22:39Z</time>
      </trkpt>
      <trkpt lat="45.85394" lon="4.81261">
        <ele>457</ele>
        <time>2014-02-09T09:22:41Z</time>
      </trkpt>
      <trkpt lat="45.85397" lon="4.81262">
        <ele>457</ele>
        <time>2014-02-09T09:22:43Z</time>
      </trkpt>
      <trkpt lat="45.85402" lon="4.81265">
        <ele>457</ele>
        <time>2014-02-09T09:22:46Z</time>
      </trkpt>
      <trkpt lat="45.85411" lon="4.8127">
        <ele>456</ele>
        <time>2014-02-09T09:22:52Z</time>
      </trkpt>
      <trkpt lat="45.85415" lon="4.81272">
        <ele>456</ele>
        <time>2014-02-09T09:22:55Z</time>
      </trkpt>
      <trkpt lat="45.85419" lon="4.81274">
        <ele>448</ele>
        <time>2014-02-09T09:22:57Z</time>
      </trkpt>
      <trkpt lat="45.85424" lon="4.81276">
        <ele>447</ele>
        <time>2014-02-09T09:22:59Z</time>
      </trkpt>
      <trkpt lat="45.85432" lon="4.81278">
        <ele>447</ele>
        <time>2014-02-09T09:23:03Z</time>
      </trkpt>
      <trkpt lat="45.85434" lon="4.81278">
        <ele>446</ele>
        <time>2014-02-09T09:23:04Z</time>
      </trkpt>
      <trkpt lat="45.85442" lon="4.81279">
        <ele>446</ele>
        <time>2014-02-09T09:23:08Z</time>
      </trkpt>
      <trkpt lat="45.85452" lon="4.8128">
        <ele>444</ele>
        <time>2014-02-09T09:23:14Z</time>
      </trkpt>
      <trkpt lat="45.85453" lon="4.81281">
        <ele>444</ele>
        <time>2014-02-09T09:23:15Z</time>
      </trkpt>
      <trkpt lat="45.85463" lon="4.81283">
        <ele>443</ele>
        <time>2014-02-09T09:23:21Z</time>
      </trkpt>
      <trkpt lat="45.85464" lon="4.81284">
        <ele>443</ele>
        <time>2014-02-09T09:23:22Z</time>
      </trkpt>
      <trkpt lat="45.8547" lon="4.81285">
        <ele>442</ele>
        <time>2014-02-09T09:23:25Z</time>
      </trkpt>
      <trkpt lat="45.85471" lon="4.81285">
        <ele>442</ele>
        <time>2014-02-09T09:23:26Z</time>
      </trkpt>
      <trkpt lat="45.85474" lon="4.81286">
        <ele>442</ele>
        <time>2014-02-09T09:23:29Z</time>
      </trkpt>
      <trkpt lat="45.85476" lon="4.81287">
        <ele>442</ele>
        <time>2014-02-09T09:23:31Z</time>
      </trkpt>
      <trkpt lat="45.85484" lon="4.81287">
        <ele>441</ele>
        <time>2014-02-09T09:23:36Z</time>
      </trkpt>
      <trkpt lat="45.85487" lon="4.81285">
        <ele>441</ele>
        <time>2014-02-09T09:23:39Z</time>
      </trkpt>
      <trkpt lat="45.85489" lon="4.81284">
        <ele>441</ele>
        <time>2014-02-09T09:23:41Z</time>
      </trkpt>
      <trkpt lat="45.8549" lon="4.81282">
        <ele>440</ele>
        <time>2014-02-09T09:23:43Z</time>
      </trkpt>
      <trkpt lat="45.8549" lon="4.81281">
        <ele>440</ele>
        <time>2014-02-09T09:23:44Z</time>
      </trkpt>
      <trkpt lat="45.8549" lon="4.81284">
        <ele>441</ele>
        <time>2014-02-09T09:23:47Z</time>
      </trkpt>
      <trkpt lat="45.85491" lon="4.81286">
        <ele>441</ele>
        <time>2014-02-09T09:23:56Z</time>
      </trkpt>
      <trkpt lat="45.85491" lon="4.81288">
        <ele>441</ele>
        <time>2014-02-09T09:24:05Z</time>
      </trkpt>
      <trkpt lat="45.85493" lon="4.81288">
        <ele>441</ele>
        <time>2014-02-09T09:24:17Z</time>
      </trkpt>
      <trkpt lat="45.85497" lon="4.81286">
        <ele>440</ele>
        <time>2014-02-09T09:26:22Z</time>
      </trkpt>
      <trkpt lat="45.85498" lon="4.81286">
        <ele>440</ele>
        <time>2014-02-09T09:26:23Z</time>
      </trkpt>
      <trkpt lat="45.85504" lon="4.81283">
        <ele>430</ele>
        <time>2014-02-09T09:26:26Z</time>
      </trkpt>
      <trkpt lat="45.85504" lon="4.81282">
        <ele>430</ele>
        <time>2014-02-09T09:26:27Z</time>
      </trkpt>
      <trkpt lat="45.85502" lon="4.81279">
        <ele>430</ele>
        <time>2014-02-09T09:26:29Z</time>
      </trkpt>
      <trkpt lat="45.85499" lon="4.81271">
        <ele>439</ele>
        <time>2014-02-09T09:26:33Z</time>
      </trkpt>
      <trkpt lat="45.85496" lon="4.81267">
        <ele>438</ele>
        <time>2014-02-09T09:26:35Z</time>
      </trkpt>
      <trkpt lat="45.85487" lon="4.81253">
        <ele>438</ele>
        <time>2014-02-09T09:26:41Z</time>
      </trkpt>
      <trkpt lat="45.85486" lon="4.81252">
        <ele>438</ele>
        <time>2014-02-09T09:26:42Z</time>
      </trkpt>
      <trkpt lat="45.8548" lon="4.81243">
        <ele>432</ele>
        <time>2014-02-09T09:26:47Z</time>
      </trkpt>
      <trkpt lat="45.85478" lon="4.81241">
        <ele>432</ele>
        <time>2014-02-09T09:26:49Z</time>
      </trkpt>
      <trkpt lat="45.85476" lon="4.81235">
        <ele>432</ele>
        <time>2014-02-09T09:26:52Z</time>
      </trkpt>
      <trkpt lat="45.85474" lon="4.81233">
        <ele>431</ele>
        <time>2014-02-09T09:26:53Z</time>
      </trkpt>
      <trkpt lat="45.85469" lon="4.81225">
        <ele>431</ele>
        <time>2014-02-09T09:26:57Z</time>
      </trkpt>
      <trkpt lat="45.85466" lon="4.81221">
        <ele>431</ele>
        <time>2014-02-09T09:26:59Z</time>
      </trkpt>
      <trkpt lat="45.85462" lon="4.81216">
        <ele>431</ele>
        <time>2014-02-09T09:27:02Z</time>
      </trkpt>
      <trkpt lat="45.8546" lon="4.81213">
        <ele>431</ele>
        <time>2014-02-09T09:27:03Z</time>
      </trkpt>
      <trkpt lat="45.85455" lon="4.81204">
        <ele>430</ele>
        <time>2014-02-09T09:27:06Z</time>
      </trkpt>
      <trkpt lat="45.85449" lon="4.81193">
        <ele>429</ele>
        <time>2014-02-09T09:27:10Z</time>
      </trkpt>
      <trkpt lat="45.85447" lon="4.8119">
        <ele>429</ele>
        <time>2014-02-09T09:27:11Z</time>
      </trkpt>
      <trkpt lat="45.85438" lon="4.81178">
        <ele>429</ele>
        <time>2014-02-09T09:27:16Z</time>
      </trkpt>
      <trkpt lat="45.85436" lon="4.81171">
        <ele>429</ele>
        <time>2014-02-09T09:27:18Z</time>
      </trkpt>
      <trkpt lat="45.85434" lon="4.81164">
        <ele>417</ele>
        <time>2014-02-09T09:27:20Z</time>
      </trkpt>
      <trkpt lat="45.85431" lon="4.81155">
        <ele>416</ele>
        <time>2014-02-09T09:27:24Z</time>
      </trkpt>
      <trkpt lat="45.85427" lon="4.81147">
        <ele>415</ele>
        <time>2014-02-09T09:27:27Z</time>
      </trkpt>
      <trkpt lat="45.85426" lon="4.81146">
        <ele>414</ele>
        <time>2014-02-09T09:27:28Z</time>
      </trkpt>
      <trkpt lat="45.85418" lon="4.81133">
        <ele>410</ele>
        <time>2014-02-09T09:27:33Z</time>
      </trkpt>
      <trkpt lat="45.85414" lon="4.81128">
        <ele>427</ele>
        <time>2014-02-09T09:27:36Z</time>
      </trkpt>
      <trkpt lat="45.85409" lon="4.81123">
        <ele>426</ele>
        <time>2014-02-09T09:27:39Z</time>
      </trkpt>
      <trkpt lat="45.85403" lon="4.81115">
        <ele>424</ele>
        <time>2014-02-09T09:27:44Z</time>
      </trkpt>
      <trkpt lat="45.85401" lon="4.81111">
        <ele>424</ele>
        <time>2014-02-09T09:27:46Z</time>
      </trkpt>
      <trkpt lat="45.85392" lon="4.81096">
        <ele>423</ele>
        <time>2014-02-09T09:27:52Z</time>
      </trkpt>
      <trkpt lat="45.85389" lon="4.81092">
        <ele>423</ele>
        <time>2014-02-09T09:27:53Z</time>
      </trkpt>
      <trkpt lat="45.85386" lon="4.81082">
        <ele>408</ele>
        <time>2014-02-09T09:27:56Z</time>
      </trkpt>
      <trkpt lat="45.85382" lon="4.81067">
        <ele>407</ele>
        <time>2014-02-09T09:28:02Z</time>
      </trkpt>
      <trkpt lat="45.8538" lon="4.81059">
        <ele>407</ele>
        <time>2014-02-09T09:28:05Z</time>
      </trkpt>
      <trkpt lat="45.85378" lon="4.81054">
        <ele>407</ele>
        <time>2014-02-09T09:28:07Z</time>
      </trkpt>
      <trkpt lat="45.85373" lon="4.81041">
        <ele>406</ele>
        <time>2014-02-09T09:28:12Z</time>
      </trkpt>
      <trkpt lat="45.85371" lon="4.81029">
        <ele>404</ele>
        <time>2014-02-09T09:28:17Z</time>
      </trkpt>
      <trkpt lat="45.85369" lon="4.81018">
        <ele>403</ele>
        <time>2014-02-09T09:28:20Z</time>
      </trkpt>
      <trkpt lat="45.85369" lon="4.81014">
        <ele>403</ele>
        <time>2014-02-09T09:28:21Z</time>
      </trkpt>
      <trkpt lat="45.85368" lon="4.81011">
        <ele>403</ele>
        <time>2014-02-09T09:28:22Z</time>
      </trkpt>
      <trkpt lat="45.85364" lon="4.80989">
        <ele>389</ele>
        <time>2014-02-09T09:28:28Z</time>
      </trkpt>
      <trkpt lat="45.8536" lon="4.80971">
        <ele>387</ele>
        <time>2014-02-09T09:28:33Z</time>
      </trkpt>
      <trkpt lat="45.8536" lon="4.80968">
        <ele>386</ele>
        <time>2014-02-09T09:28:34Z</time>
      </trkpt>
      <trkpt lat="45.85358" lon="4.80961">
        <ele>386</ele>
        <time>2014-02-09T09:28:36Z</time>
      </trkpt>
      <trkpt lat="45.85358" lon="4.80958">
        <ele>386</ele>
        <time>2014-02-09T09:28:37Z</time>
      </trkpt>
      <trkpt lat="45.85356" lon="4.80951">
        <ele>385</ele>
        <time>2014-02-09T09:28:41Z</time>
      </trkpt>
      <trkpt lat="45.85357" lon="4.8095">
        <ele>385</ele>
        <time>2014-02-09T09:28:42Z</time>
      </trkpt>
      <trkpt lat="45.85365" lon="4.80956">
        <ele>384</ele>
        <time>2014-02-09T09:28:56Z</time>
      </trkpt>
      <trkpt lat="45.85362" lon="4.80953">
        <ele>384</ele>
        <time>2014-02-09T09:29:14Z</time>
      </trkpt>
      <trkpt lat="45.85365" lon="4.80955">
        <ele>384</ele>
        <time>2014-02-09T09:29:28Z</time>
      </trkpt>
      <trkpt lat="45.85365" lon="4.80957">
        <ele>384</ele>
        <time>2014-02-09T09:29:30Z</time>
      </trkpt>
      <trkpt lat="45.85366" lon="4.80959">
        <ele>384</ele>
        <time>2014-02-09T09:29:32Z</time>
      </trkpt>
      <trkpt lat="45.85368" lon="4.80962">
        <ele>384</ele>
        <time>2014-02-09T09:29:37Z</time>
      </trkpt>
      <trkpt lat="45.85368" lon="4.80963">
        <ele>384</ele>
        <time>2014-02-09T09:29:43Z</time>
      </trkpt>
      <trkpt lat="45.8537" lon="4.80965">
        <ele>384</ele>
        <time>2014-02-09T09:29:45Z</time>
      </trkpt>
      <trkpt lat="45.85373" lon="4.80971">
        <ele>384</ele>
        <time>2014-02-09T09:29:48Z</time>
      </trkpt>
      <trkpt lat="45.85374" lon="4.80974">
        <ele>384</ele>
        <time>2014-02-09T09:29:49Z</time>
      </trkpt>
      <trkpt lat="45.85376" lon="4.80977">
        <ele>384</ele>
        <time>2014-02-09T09:29:50Z</time>
      </trkpt>
      <trkpt lat="45.85379" lon="4.80984">
        <ele>384</ele>
        <time>2014-02-09T09:29:53Z</time>
      </trkpt>
      <trkpt lat="45.85389" lon="4.80998">
        <ele>382</ele>
        <time>2014-02-09T09:29:59Z</time>
      </trkpt>
      <trkpt lat="45.85397" lon="4.81008">
        <ele>392</ele>
        <time>2014-02-09T09:30:03Z</time>
      </trkpt>
      <trkpt lat="45.85399" lon="4.81009">
        <ele>392</ele>
        <time>2014-02-09T09:30:04Z</time>
      </trkpt>
      <trkpt lat="45.85406" lon="4.81014">
        <ele>390</ele>
        <time>2014-02-09T09:30:07Z</time>
      </trkpt>
      <trkpt lat="45.85409" lon="4.81018">
        <ele>391</ele>
        <time>2014-02-09T09:30:09Z</time>
      </trkpt>
      <trkpt lat="45.85413" lon="4.81026">
        <ele>394</ele>
        <time>2014-02-09T09:30:12Z</time>
      </trkpt>
      <trkpt lat="45.85418" lon="4.8103">
        <ele>378</ele>
        <time>2014-02-09T09:30:14Z</time>
      </trkpt>
      <trkpt lat="45.8542" lon="4.81032">
        <ele>378</ele>
        <time>2014-02-09T09:30:15Z</time>
      </trkpt>
      <trkpt lat="45.85425" lon="4.81039">
        <ele>379</ele>
        <time>2014-02-09T09:30:18Z</time>
      </trkpt>
      <trkpt lat="45.85431" lon="4.81049">
        <ele>381</ele>
        <time>2014-02-09T09:30:22Z</time>
      </trkpt>
      <trkpt lat="45.85435" lon="4.81053">
        <ele>381</ele>
        <time>2014-02-09T09:30:24Z</time>
      </trkpt>
      <trkpt lat="45.85442" lon="4.8106">
        <ele>381</ele>
        <time>2014-02-09T09:30:28Z</time>
      </trkpt>
      <trkpt lat="45.85452" lon="4.8107">
        <ele>380</ele>
        <time>2014-02-09T09:30:33Z</time>
      </trkpt>
      <trkpt lat="45.85463" lon="4.81079">
        <ele>379</ele>
        <time>2014-02-09T09:30:38Z</time>
      </trkpt>
      <trkpt lat="45.85469" lon="4.81084">
        <ele>394</ele>
        <time>2014-02-09T09:30:40Z</time>
      </trkpt>
      <trkpt lat="45.85477" lon="4.8109">
        <ele>391</ele>
        <time>2014-02-09T09:30:43Z</time>
      </trkpt>
      <trkpt lat="45.85489" lon="4.81098">
        <ele>389</ele>
        <time>2014-02-09T09:30:47Z</time>
      </trkpt>
      <trkpt lat="45.85492" lon="4.811">
        <ele>388</ele>
        <time>2014-02-09T09:30:48Z</time>
      </trkpt>
      <trkpt lat="45.855" lon="4.81107">
        <ele>375</ele>
        <time>2014-02-09T09:30:53Z</time>
      </trkpt>
      <trkpt lat="45.85506" lon="4.81108">
        <ele>374</ele>
        <time>2014-02-09T09:30:59Z</time>
      </trkpt>
      <trkpt lat="45.8551" lon="4.81113">
        <ele>375</ele>
        <time>2014-02-09T09:31:01Z</time>
      </trkpt>
      <trkpt lat="45.8552" lon="4.81126">
        <ele>376</ele>
        <time>2014-02-09T09:31:07Z</time>
      </trkpt>
      <trkpt lat="45.85528" lon="4.8113">
        <ele>376</ele>
        <time>2014-02-09T09:31:11Z</time>
      </trkpt>
      <trkpt lat="45.85531" lon="4.81141">
        <ele>378</ele>
        <time>2014-02-09T09:31:17Z</time>
      </trkpt>
      <trkpt lat="45.85533" lon="4.81146">
        <ele>378</ele>
        <time>2014-02-09T09:31:20Z</time>
      </trkpt>
      <trkpt lat="45.85533" lon="4.81149">
        <ele>379</ele>
        <time>2014-02-09T09:31:22Z</time>
      </trkpt>
      <trkpt lat="45.85534" lon="4.81151">
        <ele>379</ele>
        <time>2014-02-09T09:31:23Z</time>
      </trkpt>
      <trkpt lat="45.85539" lon="4.8116">
        <ele>379</ele>
        <time>2014-02-09T09:31:28Z</time>
      </trkpt>
      <trkpt lat="45.85544" lon="4.81166">
        <ele>378</ele>
        <time>2014-02-09T09:31:32Z</time>
      </trkpt>
      <trkpt lat="45.85546" lon="4.81168">
        <ele>398</ele>
        <time>2014-02-09T09:31:33Z</time>
      </trkpt>
      <trkpt lat="45.85548" lon="4.8117">
        <ele>397</ele>
        <time>2014-02-09T09:31:35Z</time>
      </trkpt>
      <trkpt lat="45.85553" lon="4.81177">
        <ele>397</ele>
        <time>2014-02-09T09:31:39Z</time>
      </trkpt>
      <trkpt lat="45.85556" lon="4.81182">
        <ele>397</ele>
        <time>2014-02-09T09:31:41Z</time>
      </trkpt>
      <trkpt lat="45.85557" lon="4.81185">
        <ele>397</ele>
        <time>2014-02-09T09:31:42Z</time>
      </trkpt>
      <trkpt lat="45.85562" lon="4.81191">
        <ele>397</ele>
        <time>2014-02-09T09:31:45Z</time>
      </trkpt>
      <trkpt lat="45.85568" lon="4.81197">
        <ele>398</ele>
        <time>2014-02-09T09:31:49Z</time>
      </trkpt>
      <trkpt lat="45.85572" lon="4.812">
        <ele>398</ele>
        <time>2014-02-09T09:31:51Z</time>
      </trkpt>
      <trkpt lat="45.85575" lon="4.81201">
        <ele>399</ele>
        <time>2014-02-09T09:31:52Z</time>
      </trkpt>
      <trkpt lat="45.85581" lon="4.81206">
        <ele>400</ele>
        <time>2014-02-09T09:31:55Z</time>
      </trkpt>
      <trkpt lat="45.85584" lon="4.81208">
        <ele>385</ele>
        <time>2014-02-09T09:31:56Z</time>
      </trkpt>
      <trkpt lat="45.85594" lon="4.81212">
        <ele>386</ele>
        <time>2014-02-09T09:32:00Z</time>
      </trkpt>
      <trkpt lat="45.85597" lon="4.81215">
        <ele>386</ele>
        <time>2014-02-09T09:32:01Z</time>
      </trkpt>
      <trkpt lat="45.85611" lon="4.81222">
        <ele>386</ele>
        <time>2014-02-09T09:32:07Z</time>
      </trkpt>
      <trkpt lat="45.85613" lon="4.81223">
        <ele>386</ele>
        <time>2014-02-09T09:32:08Z</time>
      </trkpt>
      <trkpt lat="45.85619" lon="4.81226">
        <ele>385</ele>
        <time>2014-02-09T09:32:12Z</time>
      </trkpt>
      <trkpt lat="45.85631" lon="4.81232">
        <ele>384</ele>
        <time>2014-02-09T09:32:17Z</time>
      </trkpt>
      <trkpt lat="45.85636" lon="4.81234">
        <ele>384</ele>
        <time>2014-02-09T09:32:19Z</time>
      </trkpt>
      <trkpt lat="45.85641" lon="4.81235">
        <ele>384</ele>
        <time>2014-02-09T09:32:21Z</time>
      </trkpt>
      <trkpt lat="45.85651" lon="4.81241">
        <ele>384</ele>
        <time>2014-02-09T09:32:25Z</time>
      </trkpt>
      <trkpt lat="45.85653" lon="4.81243">
        <ele>384</ele>
        <time>2014-02-09T09:32:26Z</time>
      </trkpt>
      <trkpt lat="45.85665" lon="4.81252">
        <ele>389</ele>
        <time>2014-02-09T09:32:32Z</time>
      </trkpt>
      <trkpt lat="45.85668" lon="4.81256">
        <ele>387</ele>
        <time>2014-02-09T09:32:34Z</time>
      </trkpt>
      <trkpt lat="45.85674" lon="4.81259">
        <ele>389</ele>
        <time>2014-02-09T09:32:37Z</time>
      </trkpt>
      <trkpt lat="45.85676" lon="4.81259">
        <ele>389</ele>
        <time>2014-02-09T09:32:38Z</time>
      </trkpt>
      <trkpt lat="45.85685" lon="4.81262">
        <ele>390</ele>
        <time>2014-02-09T09:32:42Z</time>
      </trkpt>
      <trkpt lat="45.85688" lon="4.81264">
        <ele>390</ele>
        <time>2014-02-09T09:32:43Z</time>
      </trkpt>
      <trkpt lat="45.8569" lon="4.81267">
        <ele>390</ele>
        <time>2014-02-09T09:32:44Z</time>
      </trkpt>
      <trkpt lat="45.85701" lon="4.81274">
        <ele>391</ele>
        <time>2014-02-09T09:32:48Z</time>
      </trkpt>
      <trkpt lat="45.85703" lon="4.81273">
        <ele>390</ele>
        <time>2014-02-09T09:32:49Z</time>
      </trkpt>
      <trkpt lat="45.85714" lon="4.81272">
        <ele>389</ele>
        <time>2014-02-09T09:32:54Z</time>
      </trkpt>
      <trkpt lat="45.85721" lon="4.8127">
        <ele>388</ele>
        <time>2014-02-09T09:32:57Z</time>
      </trkpt>
      <trkpt lat="45.85726" lon="4.81269">
        <ele>387</ele>
        <time>2014-02-09T09:32:59Z</time>
      </trkpt>
      <trkpt lat="45.85737" lon="4.81268">
        <ele>384</ele>
        <time>2014-02-09T09:33:03Z</time>
      </trkpt>
      <trkpt lat="45.85739" lon="4.8127">
        <ele>384</ele>
        <time>2014-02-09T09:33:04Z</time>
      </trkpt>
      <trkpt lat="45.85744" lon="4.81273">
        <ele>385</ele>
        <time>2014-02-09T09:33:08Z</time>
      </trkpt>
      <trkpt lat="45.85752" lon="4.81276">
        <ele>378</ele>
        <time>2014-02-09T09:33:13Z</time>
      </trkpt>
      <trkpt lat="45.85753" lon="4.81276">
        <ele>378</ele>
        <time>2014-02-09T09:33:14Z</time>
      </trkpt>
      <trkpt lat="45.85758" lon="4.81277">
        <ele>378</ele>
        <time>2014-02-09T09:33:17Z</time>
      </trkpt>
      <trkpt lat="45.85759" lon="4.81277">
        <ele>378</ele>
        <time>2014-02-09T09:33:18Z</time>
      </trkpt>
      <trkpt lat="45.85762" lon="4.81277">
        <ele>378</ele>
        <time>2014-02-09T09:33:20Z</time>
      </trkpt>
      <trkpt lat="45.85765" lon="4.81277">
        <ele>378</ele>
        <time>2014-02-09T09:33:23Z</time>
      </trkpt>
      <trkpt lat="45.85766" lon="4.81277">
        <ele>378</ele>
        <time>2014-02-09T09:33:24Z</time>
      </trkpt>
      <trkpt lat="45.8577" lon="4.81277">
        <ele>378</ele>
        <time>2014-02-09T09:33:31Z</time>
      </trkpt>
      <trkpt lat="45.85774" lon="4.8128">
        <ele>378</ele>
        <time>2014-02-09T09:33:35Z</time>
      </trkpt>
      <trkpt lat="45.85776" lon="4.81283">
        <ele>378</ele>
        <time>2014-02-09T09:33:37Z</time>
      </trkpt>
      <trkpt lat="45.85781" lon="4.81284">
        <ele>378</ele>
        <time>2014-02-09T09:33:41Z</time>
      </trkpt>
      <trkpt lat="45.85783" lon="4.81286">
        <ele>378</ele>
        <time>2014-02-09T09:33:43Z</time>
      </trkpt>
      <trkpt lat="45.8579" lon="4.81293">
        <ele>379</ele>
        <time>2014-02-09T09:33:49Z</time>
      </trkpt>
      <trkpt lat="45.85791" lon="4.81294">
        <ele>379</ele>
        <time>2014-02-09T09:33:50Z</time>
      </trkpt>
      <trkpt lat="45.85792" lon="4.81296">
        <ele>379</ele>
        <time>2014-02-09T09:33:51Z</time>
      </trkpt>
      <trkpt lat="45.85794" lon="4.81298">
        <ele>379</ele>
        <time>2014-02-09T09:33:53Z</time>
      </trkpt>
      <trkpt lat="45.85797" lon="4.813">
        <ele>379</ele>
        <time>2014-02-09T09:33:56Z</time>
      </trkpt>
      <trkpt lat="45.85799" lon="4.81301">
        <ele>379</ele>
        <time>2014-02-09T09:33:57Z</time>
      </trkpt>
      <trkpt lat="45.85803" lon="4.81305">
        <ele>379</ele>
        <time>2014-02-09T09:33:59Z</time>
      </trkpt>
      <trkpt lat="45.85804" lon="4.81307">
        <ele>380</ele>
        <time>2014-02-09T09:34:00Z</time>
      </trkpt>
      <trkpt lat="45.85806" lon="4.81308">
        <ele>380</ele>
        <time>2014-02-09T09:34:01Z</time>
      </trkpt>
      <trkpt lat="45.8581" lon="4.81308">
        <ele>379</ele>
        <time>2014-02-09T09:34:04Z</time>
      </trkpt>
      <trkpt lat="45.85815" lon="4.81301">
        <ele>378</ele>
        <time>2014-02-09T09:34:09Z</time>
      </trkpt>
      <trkpt lat="45.85817" lon="4.81297">
        <ele>378</ele>
        <time>2014-02-09T09:34:11Z</time>
      </trkpt>
      <trkpt lat="45.85821" lon="4.81292">
        <ele>376</ele>
        <time>2014-02-09T09:34:14Z</time>
      </trkpt>
      <trkpt lat="45.85826" lon="4.81289">
        <ele>375</ele>
        <time>2014-02-09T09:34:18Z</time>
      </trkpt>
      <trkpt lat="45.85828" lon="4.81289">
        <ele>375</ele>
        <time>2014-02-09T09:34:19Z</time>
      </trkpt>
      <trkpt lat="45.85836" lon="4.8129">
        <ele>365</ele>
        <time>2014-02-09T09:34:23Z</time>
      </trkpt>
      <trkpt lat="45.85838" lon="4.81291">
        <ele>365</ele>
        <time>2014-02-09T09:34:24Z</time>
      </trkpt>
      <trkpt lat="45.85841" lon="4.81292">
        <ele>365</ele>
        <time>2014-02-09T09:34:26Z</time>
      </trkpt>
      <trkpt lat="45.85842" lon="4.81295">
        <ele>366</ele>
        <time>2014-02-09T09:34:27Z</time>
      </trkpt>
      <trkpt lat="45.8585" lon="4.81306">
        <ele>368</ele>
        <time>2014-02-09T09:34:33Z</time>
      </trkpt>
      <trkpt lat="45.85851" lon="4.81309">
        <ele>368</ele>
        <time>2014-02-09T09:34:34Z</time>
      </trkpt>
      <trkpt lat="45.85856" lon="4.81317">
        <ele>369</ele>
        <time>2014-02-09T09:34:38Z</time>
      </trkpt>
      <trkpt lat="45.85861" lon="4.81321">
        <ele>368</ele>
        <time>2014-02-09T09:34:42Z</time>
      </trkpt>
      <trkpt lat="45.85865" lon="4.81325">
        <ele>368</ele>
        <time>2014-02-09T09:34:44Z</time>
      </trkpt>
      <trkpt lat="45.85867" lon="4.81326">
        <ele>367</ele>
        <time>2014-02-09T09:34:45Z</time>
      </trkpt>
      <trkpt lat="45.85872" lon="4.81329">
        <ele>366</ele>
        <time>2014-02-09T09:34:47Z</time>
      </trkpt>
      <trkpt lat="45.85876" lon="4.81333">
        <ele>366</ele>
        <time>2014-02-09T09:34:49Z</time>
      </trkpt>
      <trkpt lat="45.85881" lon="4.81338">
        <ele>373</ele>
        <time>2014-02-09T09:34:52Z</time>
      </trkpt>
      <trkpt lat="45.85889" lon="4.81348">
        <ele>372</ele>
        <time>2014-02-09T09:34:57Z</time>
      </trkpt>
      <trkpt lat="45.85896" lon="4.81355">
        <ele>372</ele>
        <time>2014-02-09T09:35:00Z</time>
      </trkpt>
      <trkpt lat="45.85898" lon="4.81357">
        <ele>371</ele>
        <time>2014-02-09T09:35:01Z</time>
      </trkpt>
      <trkpt lat="45.85909" lon="4.81362">
        <ele>371</ele>
        <time>2014-02-09T09:35:06Z</time>
      </trkpt>
      <trkpt lat="45.85915" lon="4.81364">
        <ele>371</ele>
        <time>2014-02-09T09:35:09Z</time>
      </trkpt>
      <trkpt lat="45.8592" lon="4.81369">
        <ele>358</ele>
        <time>2014-02-09T09:35:11Z</time>
      </trkpt>
      <trkpt lat="45.85932" lon="4.81378">
        <ele>358</ele>
        <time>2014-02-09T09:35:17Z</time>
      </trkpt>
      <trkpt lat="45.85942" lon="4.81388">
        <ele>358</ele>
        <time>2014-02-09T09:35:22Z</time>
      </trkpt>
      <trkpt lat="45.85947" lon="4.81392">
        <ele>357</ele>
        <time>2014-02-09T09:35:24Z</time>
      </trkpt>
      <trkpt lat="45.85948" lon="4.81393">
        <ele>357</ele>
        <time>2014-02-09T09:35:25Z</time>
      </trkpt>
      <trkpt lat="45.85954" lon="4.81399">
        <ele>357</ele>
        <time>2014-02-09T09:35:28Z</time>
      </trkpt>
      <trkpt lat="45.85965" lon="4.81406">
        <ele>356</ele>
        <time>2014-02-09T09:35:33Z</time>
      </trkpt>
      <trkpt lat="45.85978" lon="4.81413">
        <ele>355</ele>
        <time>2014-02-09T09:35:38Z</time>
      </trkpt>
      <trkpt lat="45.85983" lon="4.81416">
        <ele>355</ele>
        <time>2014-02-09T09:35:40Z</time>
      </trkpt>
      <trkpt lat="45.85995" lon="4.81422">
        <ele>355</ele>
        <time>2014-02-09T09:35:44Z</time>
      </trkpt>
      <trkpt lat="45.86" lon="4.81425">
        <ele>352</ele>
        <time>2014-02-09T09:35:46Z</time>
      </trkpt>
      <trkpt lat="45.86015" lon="4.81428">
        <ele>350</ele>
        <time>2014-02-09T09:35:50Z</time>
      </trkpt>
      <trkpt lat="45.8602" lon="4.81429">
        <ele>349</ele>
        <time>2014-02-09T09:35:52Z</time>
      </trkpt>
      <trkpt lat="45.86029" lon="4.81434">
        <ele>347</ele>
        <time>2014-02-09T09:35:56Z</time>
      </trkpt>
      <trkpt lat="45.86038" lon="4.81435">
        <ele>346</ele>
        <time>2014-02-09T09:36:00Z</time>
      </trkpt>
      <trkpt lat="45.8604" lon="4.81435">
        <ele>346</ele>
        <time>2014-02-09T09:36:01Z</time>
      </trkpt>
      <trkpt lat="45.86055" lon="4.81438">
        <ele>345</ele>
        <time>2014-02-09T09:36:07Z</time>
      </trkpt>
      <trkpt lat="45.86073" lon="4.81446">
        <ele>344</ele>
        <time>2014-02-09T09:36:14Z</time>
      </trkpt>
      <trkpt lat="45.86076" lon="4.81447">
        <ele>344</ele>
        <time>2014-02-09T09:36:15Z</time>
      </trkpt>
      <trkpt lat="45.8609" lon="4.81452">
        <ele>341</ele>
        <time>2014-02-09T09:36:21Z</time>
      </trkpt>
      <trkpt lat="45.86093" lon="4.81453">
        <ele>341</ele>
        <time>2014-02-09T09:36:22Z</time>
      </trkpt>
      <trkpt lat="45.861" lon="4.81457">
        <ele>341</ele>
        <time>2014-02-09T09:36:25Z</time>
      </trkpt>
      <trkpt lat="45.8611" lon="4.81462">
        <ele>341</ele>
        <time>2014-02-09T09:36:29Z</time>
      </trkpt>
      <trkpt lat="45.86117" lon="4.81466">
        <ele>341</ele>
        <time>2014-02-09T09:36:32Z</time>
      </trkpt>
      <trkpt lat="45.86129" lon="4.81471">
        <ele>341</ele>
        <time>2014-02-09T09:36:37Z</time>
      </trkpt>
      <trkpt lat="45.86131" lon="4.81472">
        <ele>341</ele>
        <time>2014-02-09T09:36:38Z</time>
      </trkpt>
      <trkpt lat="45.86143" lon="4.81477">
        <ele>342</ele>
        <time>2014-02-09T09:36:43Z</time>
      </trkpt>
      <trkpt lat="45.86147" lon="4.8148">
        <ele>343</ele>
        <time>2014-02-09T09:36:45Z</time>
      </trkpt>
      <trkpt lat="45.86152" lon="4.81482">
        <ele>343</ele>
        <time>2014-02-09T09:36:47Z</time>
      </trkpt>
      <trkpt lat="45.8616" lon="4.81486">
        <ele>345</ele>
        <time>2014-02-09T09:36:51Z</time>
      </trkpt>
      <trkpt lat="45.86162" lon="4.81486">
        <ele>345</ele>
        <time>2014-02-09T09:36:52Z</time>
      </trkpt>
      <trkpt lat="45.86164" lon="4.81487">
        <ele>345</ele>
        <time>2014-02-09T09:36:53Z</time>
      </trkpt>
      <trkpt lat="45.86169" lon="4.81489">
        <ele>344</ele>
        <time>2014-02-09T09:36:55Z</time>
      </trkpt>
      <trkpt lat="45.86177" lon="4.81492">
        <ele>344</ele>
        <time>2014-02-09T09:36:58Z</time>
      </trkpt>
      <trkpt lat="45.86182" lon="4.81494">
        <ele>343</ele>
        <time>2014-02-09T09:37:00Z</time>
      </trkpt>
      <trkpt lat="45.86194" lon="4.81497">
        <ele>342</ele>
        <time>2014-02-09T09:37:04Z</time>
      </trkpt>
      <trkpt lat="45.862" lon="4.815">
        <ele>342</ele>
        <time>2014-02-09T09:37:07Z</time>
      </trkpt>
      <trkpt lat="45.86207" lon="4.81504">
        <ele>345</ele>
        <time>2014-02-09T09:37:10Z</time>
      </trkpt>
      <trkpt lat="45.86216" lon="4.81508">
        <ele>345</ele>
        <time>2014-02-09T09:37:14Z</time>
      </trkpt>
      <trkpt lat="45.86219" lon="4.8151">
        <ele>346</ele>
        <time>2014-02-09T09:37:15Z</time>
      </trkpt>
      <trkpt lat="45.86234" lon="4.81516">
        <ele>346</ele>
        <time>2014-02-09T09:37:21Z</time>
      </trkpt>
      <trkpt lat="45.86247" lon="4.81521">
        <ele>346</ele>
        <time>2014-02-09T09:37:26Z</time>
      </trkpt>
      <trkpt lat="45.86252" lon="4.81522">
        <ele>347</ele>
        <time>2014-02-09T09:37:28Z</time>
      </trkpt>
      <trkpt lat="45.8626" lon="4.81526">
        <ele>346</ele>
        <time>2014-02-09T09:37:31Z</time>
      </trkpt>
      <trkpt lat="45.86269" lon="4.8153">
        <ele>345</ele>
        <time>2014-02-09T09:37:34Z</time>
      </trkpt>
      <trkpt lat="45.86277" lon="4.81534">
        <ele>345</ele>
        <time>2014-02-09T09:37:37Z</time>
      </trkpt>
      <trkpt lat="45.86287" lon="4.81538">
        <ele>344</ele>
        <time>2014-02-09T09:37:41Z</time>
      </trkpt>
      <trkpt lat="45.86292" lon="4.81539">
        <ele>344</ele>
        <time>2014-02-09T09:37:43Z</time>
      </trkpt>
      <trkpt lat="45.86304" lon="4.81544">
        <ele>344</ele>
        <time>2014-02-09T09:37:48Z</time>
      </trkpt>
      <trkpt lat="45.86306" lon="4.81546">
        <ele>344</ele>
        <time>2014-02-09T09:37:49Z</time>
      </trkpt>
      <trkpt lat="45.86314" lon="4.81553">
        <ele>344</ele>
        <time>2014-02-09T09:37:53Z</time>
      </trkpt>
      <trkpt lat="45.86321" lon="4.81562">
        <ele>344</ele>
        <time>2014-02-09T09:37:58Z</time>
      </trkpt>
      <trkpt lat="45.86322" lon="4.81563">
        <ele>344</ele>
        <time>2014-02-09T09:37:59Z</time>
      </trkpt>
      <trkpt lat="45.86326" lon="4.81566">
        <ele>344</ele>
        <time>2014-02-09T09:38:04Z</time>
      </trkpt>
      <trkpt lat="45.86334" lon="4.81566">
        <ele>339</ele>
        <time>2014-02-09T09:38:08Z</time>
      </trkpt>
      <trkpt lat="45.86335" lon="4.81567">
        <ele>340</ele>
        <time>2014-02-09T09:38:10Z</time>
      </trkpt>
      <trkpt lat="45.86336" lon="4.81568">
        <ele>340</ele>
        <time>2014-02-09T09:38:12Z</time>
      </trkpt>
      <trkpt lat="45.86339" lon="4.81568">
        <ele>339</ele>
        <time>2014-02-09T09:38:14Z</time>
      </trkpt>
      <trkpt lat="45.86341" lon="4.81574">
        <ele>340</ele>
        <time>2014-02-09T09:38:19Z</time>
      </trkpt>
      <trkpt lat="45.86339" lon="4.81577">
        <ele>341</ele>
        <time>2014-02-09T09:38:24Z</time>
      </trkpt>
      <trkpt lat="45.86339" lon="4.81576">
        <ele>341</ele>
        <time>2014-02-09T09:38:30Z</time>
      </trkpt>
      <trkpt lat="45.86339" lon="4.81576">
        <ele>341</ele>
        <time>2014-02-09T09:38:37Z</time>
      </trkpt>
      <trkpt lat="45.86339" lon="4.81574">
        <ele>341</ele>
        <time>2014-02-09T09:38:58Z</time>
      </trkpt>
      <trkpt lat="45.86339" lon="4.81572">
        <ele>341</ele>
        <time>2014-02-09T09:39:03Z</time>
      </trkpt>
      <trkpt lat="45.86339" lon="4.81573">
        <ele>341</ele>
        <time>2014-02-09T09:39:10Z</time>
      </trkpt>
      <trkpt lat="45.86338" lon="4.81576">
        <ele>341</ele>
        <time>2014-02-09T09:39:12Z</time>
      </trkpt>
      <trkpt lat="45.86338" lon="4.81576">
        <ele>342</ele>
        <time>2014-02-09T09:39:13Z</time>
      </trkpt>
      <trkpt lat="45.86337" lon="4.81578">
        <ele>342</ele>
        <time>2014-02-09T09:39:15Z</time>
      </trkpt>
      <trkpt lat="45.86338" lon="4.81582">
        <ele>343</ele>
        <time>2014-02-09T09:39:17Z</time>
      </trkpt>
      <trkpt lat="45.86342" lon="4.81584">
        <ele>341</ele>
        <time>2014-02-09T09:39:22Z</time>
      </trkpt>
      <trkpt lat="45.86343" lon="4.81581">
        <ele>341</ele>
        <time>2014-02-09T09:39:27Z</time>
      </trkpt>
      <trkpt lat="45.86344" lon="4.81579">
        <ele>341</ele>
        <time>2014-02-09T09:39:29Z</time>
      </trkpt>
      <trkpt lat="45.86343" lon="4.81577">
        <ele>341</ele>
        <time>2014-02-09T09:39:33Z</time>
      </trkpt>
      <trkpt lat="45.86342" lon="4.81574">
        <ele>340</ele>
        <time>2014-02-09T09:39:38Z</time>
      </trkpt>
      <trkpt lat="45.8634" lon="4.81573">
        <ele>340</ele>
        <time>2014-02-09T09:39:41Z</time>
      </trkpt>
      <trkpt lat="45.86339" lon="4.81575">
        <ele>341</ele>
        <time>2014-02-09T09:39:45Z</time>
      </trkpt>
      <trkpt lat="45.86341" lon="4.81573">
        <ele>340</ele>
        <time>2014-02-09T09:40:06Z</time>
      </trkpt>
      <trkpt lat="45.86344" lon="4.81573">
        <ele>340</ele>
        <time>2014-02-09T09:40:12Z</time>
      </trkpt>
      <trkpt lat="45.86345" lon="4.8157">
        <ele>339</ele>
        <time>2014-02-09T09:40:17Z</time>
      </trkpt>
      <trkpt lat="45.86346" lon="4.8157">
        <ele>339</ele>
        <time>2014-02-09T09:40:26Z</time>
      </trkpt>
      <trkpt lat="45.86348" lon="4.81571">
        <ele>339</ele>
        <time>2014-02-09T09:40:29Z</time>
      </trkpt>
      <trkpt lat="45.86349" lon="4.81573">
        <ele>339</ele>
        <time>2014-02-09T09:40:34Z</time>
      </trkpt>
      <trkpt lat="45.86351" lon="4.81578">
        <ele>339</ele>
        <time>2014-02-09T09:40:43Z</time>
      </trkpt>
      <trkpt lat="45.86353" lon="4.81585">
        <ele>338</ele>
        <time>2014-02-09T09:40:48Z</time>
      </trkpt>
      <trkpt lat="45.86356" lon="4.81588">
        <ele>337</ele>
        <time>2014-02-09T09:40:52Z</time>
      </trkpt>
      <trkpt lat="45.86357" lon="4.81591">
        <ele>337</ele>
        <time>2014-02-09T09:40:54Z</time>
      </trkpt>
      <trkpt lat="45.86358" lon="4.81594">
        <ele>337</ele>
        <time>2014-02-09T09:40:56Z</time>
      </trkpt>
      <trkpt lat="45.8636" lon="4.81599">
        <ele>336</ele>
        <time>2014-02-09T09:40:58Z</time>
      </trkpt>
      <trkpt lat="45.86362" lon="4.81603">
        <ele>335</ele>
        <time>2014-02-09T09:41:00Z</time>
      </trkpt>
      <trkpt lat="45.86363" lon="4.8161">
        <ele>335</ele>
        <time>2014-02-09T09:41:03Z</time>
      </trkpt>
      <trkpt lat="45.86364" lon="4.81614">
        <ele>334</ele>
        <time>2014-02-09T09:41:05Z</time>
      </trkpt>
      <trkpt lat="45.86366" lon="4.81615">
        <ele>334</ele>
        <time>2014-02-09T09:41:06Z</time>
      </trkpt>
      <trkpt lat="45.86368" lon="4.81618">
        <ele>334</ele>
        <time>2014-02-09T09:41:08Z</time>
      </trkpt>
      <trkpt lat="45.8637" lon="4.8162">
        <ele>333</ele>
        <time>2014-02-09T09:41:09Z</time>
      </trkpt>
      <trkpt lat="45.86379" lon="4.81623">
        <ele>333</ele>
        <time>2014-02-09T09:41:13Z</time>
      </trkpt>
      <trkpt lat="45.86383" lon="4.81624">
        <ele>332</ele>
        <time>2014-02-09T09:41:15Z</time>
      </trkpt>
      <trkpt lat="45.8639" lon="4.81623">
        <ele>332</ele>
        <time>2014-02-09T09:41:18Z</time>
      </trkpt>
      <trkpt lat="45.864" lon="4.81619">
        <ele>332</ele>
        <time>2014-02-09T09:41:23Z</time>
      </trkpt>
      <trkpt lat="45.86403" lon="4.81618">
        <ele>332</ele>
        <time>2014-02-09T09:41:24Z</time>
      </trkpt>
      <trkpt lat="45.86409" lon="4.81613">
        <ele>332</ele>
        <time>2014-02-09T09:41:27Z</time>
      </trkpt>
      <trkpt lat="45.86411" lon="4.81607">
        <ele>332</ele>
        <time>2014-02-09T09:41:29Z</time>
      </trkpt>
      <trkpt lat="45.86413" lon="4.816">
        <ele>332</ele>
        <time>2014-02-09T09:41:31Z</time>
      </trkpt>
      <trkpt lat="45.86416" lon="4.8159">
        <ele>332</ele>
        <time>2014-02-09T09:41:34Z</time>
      </trkpt>
      <trkpt lat="45.86416" lon="4.81587">
        <ele>332</ele>
        <time>2014-02-09T09:41:35Z</time>
      </trkpt>
      <trkpt lat="45.86418" lon="4.81578">
        <ele>328</ele>
        <time>2014-02-09T09:41:38Z</time>
      </trkpt>
      <trkpt lat="45.86419" lon="4.81575">
        <ele>325</ele>
        <time>2014-02-09T09:41:39Z</time>
      </trkpt>
      <trkpt lat="45.8642" lon="4.81564">
        <ele>320</ele>
        <time>2014-02-09T09:41:43Z</time>
      </trkpt>
      <trkpt lat="45.86421" lon="4.81552">
        <ele>317</ele>
        <time>2014-02-09T09:41:48Z</time>
      </trkpt>
      <trkpt lat="45.86423" lon="4.81556">
        <ele>317</ele>
        <time>2014-02-09T09:41:51Z</time>
      </trkpt>
      <trkpt lat="45.86423" lon="4.81558">
        <ele>318</ele>
        <time>2014-02-09T09:41:52Z</time>
      </trkpt>
      <trkpt lat="45.86424" lon="4.81563">
        <ele>319</ele>
        <time>2014-02-09T09:41:54Z</time>
      </trkpt>
      <trkpt lat="45.86426" lon="4.8157">
        <ele>321</ele>
        <time>2014-02-09T09:41:57Z</time>
      </trkpt>
      <trkpt lat="45.86427" lon="4.81572">
        <ele>322</ele>
        <time>2014-02-09T09:41:58Z</time>
      </trkpt>
      <trkpt lat="45.86429" lon="4.81581">
        <ele>323</ele>
        <time>2014-02-09T09:42:01Z</time>
      </trkpt>
      <trkpt lat="45.8643" lon="4.81584">
        <ele>326</ele>
        <time>2014-02-09T09:42:02Z</time>
      </trkpt>
      <trkpt lat="45.86435" lon="4.81598">
        <ele>322</ele>
        <time>2014-02-09T09:42:07Z</time>
      </trkpt>
      <trkpt lat="45.86436" lon="4.81604">
        <ele>321</ele>
        <time>2014-02-09T09:42:09Z</time>
      </trkpt>
      <trkpt lat="45.86436" lon="4.81607">
        <ele>321</ele>
        <time>2014-02-09T09:42:10Z</time>
      </trkpt>
      <trkpt lat="45.86437" lon="4.81616">
        <ele>320</ele>
        <time>2014-02-09T09:42:13Z</time>
      </trkpt>
      <trkpt lat="45.86436" lon="4.81635">
        <ele>320</ele>
        <time>2014-02-09T09:42:19Z</time>
      </trkpt>
      <trkpt lat="45.86436" lon="4.81638">
        <ele>320</ele>
        <time>2014-02-09T09:42:20Z</time>
      </trkpt>
      <trkpt lat="45.86433" lon="4.81656">
        <ele>321</ele>
        <time>2014-02-09T09:42:26Z</time>
      </trkpt>
      <trkpt lat="45.86432" lon="4.8166">
        <ele>321</ele>
        <time>2014-02-09T09:42:27Z</time>
      </trkpt>
      <trkpt lat="45.8643" lon="4.81675">
        <ele>319</ele>
        <time>2014-02-09T09:42:32Z</time>
      </trkpt>
      <trkpt lat="45.86429" lon="4.81684">
        <ele>317</ele>
        <time>2014-02-09T09:42:35Z</time>
      </trkpt>
      <trkpt lat="45.86427" lon="4.81697">
        <ele>315</ele>
        <time>2014-02-09T09:42:38Z</time>
      </trkpt>
      <trkpt lat="45.86425" lon="4.81711">
        <ele>314</ele>
        <time>2014-02-09T09:42:42Z</time>
      </trkpt>
      <trkpt lat="45.86424" lon="4.81716">
        <ele>313</ele>
        <time>2014-02-09T09:42:43Z</time>
      </trkpt>
      <trkpt lat="45.86421" lon="4.81737">
        <ele>312</ele>
        <time>2014-02-09T09:42:48Z</time>
      </trkpt>
      <trkpt lat="45.8642" lon="4.81748">
        <ele>312</ele>
        <time>2014-02-09T09:42:51Z</time>
      </trkpt>
      <trkpt lat="45.86418" lon="4.81765">
        <ele>308</ele>
        <time>2014-02-09T09:42:56Z</time>
      </trkpt>
      <trkpt lat="45.86418" lon="4.81772">
        <ele>306</ele>
        <time>2014-02-09T09:42:58Z</time>
      </trkpt>
      <trkpt lat="45.86425" lon="4.81785">
        <ele>304</ele>
        <time>2014-02-09T09:43:03Z</time>
      </trkpt>
      <trkpt lat="45.86426" lon="4.81787">
        <ele>304</ele>
        <time>2014-02-09T09:43:04Z</time>
      </trkpt>
      <trkpt lat="45.86437" lon="4.81793">
        <ele>303</ele>
        <time>2014-02-09T09:43:08Z</time>
      </trkpt>
      <trkpt lat="45.86444" lon="4.81796">
        <ele>303</ele>
        <time>2014-02-09T09:43:11Z</time>
      </trkpt>
      <trkpt lat="45.86454" lon="4.81801">
        <ele>302</ele>
        <time>2014-02-09T09:43:15Z</time>
      </trkpt>
      <trkpt lat="45.86461" lon="4.81806">
        <ele>302</ele>
        <time>2014-02-09T09:43:18Z</time>
      </trkpt>
      <trkpt lat="45.86468" lon="4.81814">
        <ele>301</ele>
        <time>2014-02-09T09:43:22Z</time>
      </trkpt>
      <trkpt lat="45.86475" lon="4.81825">
        <ele>301</ele>
        <time>2014-02-09T09:43:26Z</time>
      </trkpt>
      <trkpt lat="45.86481" lon="4.81831">
        <ele>300</ele>
        <time>2014-02-09T09:43:29Z</time>
      </trkpt>
      <trkpt lat="45.86493" lon="4.81835">
        <ele>296</ele>
        <time>2014-02-09T09:43:34Z</time>
      </trkpt>
      <trkpt lat="45.86512" lon="4.81838">
        <ele>294</ele>
        <time>2014-02-09T09:43:42Z</time>
      </trkpt>
      <trkpt lat="45.86529" lon="4.81845">
        <ele>290</ele>
        <time>2014-02-09T09:43:49Z</time>
      </trkpt>
      <trkpt lat="45.86532" lon="4.81846">
        <ele>290</ele>
        <time>2014-02-09T09:43:50Z</time>
      </trkpt>
      <trkpt lat="45.8655" lon="4.81849">
        <ele>289</ele>
        <time>2014-02-09T09:43:57Z</time>
      </trkpt>
      <trkpt lat="45.86566" lon="4.81845">
        <ele>289</ele>
        <time>2014-02-09T09:44:03Z</time>
      </trkpt>
      <trkpt lat="45.86568" lon="4.81843">
        <ele>289</ele>
        <time>2014-02-09T09:44:04Z</time>
      </trkpt>
      <trkpt lat="45.86572" lon="4.81839">
        <ele>289</ele>
        <time>2014-02-09T09:44:07Z</time>
      </trkpt>
      <trkpt lat="45.86572" lon="4.81839">
        <ele>289</ele>
        <time>2014-02-09T09:44:08Z</time>
      </trkpt>
      <trkpt lat="45.86573" lon="4.81839">
        <ele>289</ele>
        <time>2014-02-09T09:44:11Z</time>
      </trkpt>
      <trkpt lat="45.8657" lon="4.81843">
        <ele>289</ele>
        <time>2014-02-09T09:44:15Z</time>
      </trkpt>
      <trkpt lat="45.8657" lon="4.81842">
        <ele>289</ele>
        <time>2014-02-09T09:44:16Z</time>
      </trkpt>
      <trkpt lat="45.86575" lon="4.81835">
        <ele>289</ele>
        <time>2014-02-09T09:44:19Z</time>
      </trkpt>
      <trkpt lat="45.86577" lon="4.81833">
        <ele>289</ele>
        <time>2014-02-09T09:44:20Z</time>
      </trkpt>
      <trkpt lat="45.86579" lon="4.81832">
        <ele>291</ele>
        <time>2014-02-09T09:44:21Z</time>
      </trkpt>
      <trkpt lat="45.86589" lon="4.8182">
        <ele>285</ele>
        <time>2014-02-09T09:44:26Z</time>
      </trkpt>
      <trkpt lat="45.8659" lon="4.81817">
        <ele>284</ele>
        <time>2014-02-09T09:44:27Z</time>
      </trkpt>
      <trkpt lat="45.86593" lon="4.8181">
        <ele>283</ele>
        <time>2014-02-09T09:44:30Z</time>
      </trkpt>
      <trkpt lat="45.86595" lon="4.81812">
        <ele>283</ele>
        <time>2014-02-09T09:44:36Z</time>
      </trkpt>
      <trkpt lat="45.86599" lon="4.81816">
        <ele>283</ele>
        <time>2014-02-09T09:44:39Z</time>
      </trkpt>
      <trkpt lat="45.86599" lon="4.81818">
        <ele>283</ele>
        <time>2014-02-09T09:44:40Z</time>
      </trkpt>
      <trkpt lat="45.866" lon="4.81823">
        <ele>283</ele>
        <time>2014-02-09T09:44:45Z</time>
      </trkpt>
      <trkpt lat="45.866" lon="4.81825">
        <ele>284</ele>
        <time>2014-02-09T09:44:47Z</time>
      </trkpt>
      <trkpt lat="45.866" lon="4.81826">
        <ele>284</ele>
        <time>2014-02-09T09:44:48Z</time>
      </trkpt>
      <trkpt lat="45.866" lon="4.81826">
        <ele>284</ele>
        <time>2014-02-09T09:44:49Z</time>
      </trkpt>
      <trkpt lat="45.86601" lon="4.81827">
        <ele>284</ele>
        <time>2014-02-09T09:44:50Z</time>
      </trkpt>
      <trkpt lat="45.86603" lon="4.81831">
        <ele>283</ele>
        <time>2014-02-09T09:44:53Z</time>
      </trkpt>
      <trkpt lat="45.86604" lon="4.81831">
        <ele>283</ele>
        <time>2014-02-09T09:44:55Z</time>
      </trkpt>
      <trkpt lat="45.86602" lon="4.81833">
        <ele>283</ele>
        <time>2014-02-09T09:44:58Z</time>
      </trkpt>
      <trkpt lat="45.866" lon="4.81836">
        <ele>283</ele>
        <time>2014-02-09T09:45:01Z</time>
      </trkpt>
      <trkpt lat="45.86599" lon="4.81837">
        <ele>283</ele>
        <time>2014-02-09T09:45:02Z</time>
      </trkpt>
      <trkpt lat="45.86598" lon="4.81844">
        <ele>283</ele>
        <time>2014-02-09T09:45:06Z</time>
      </trkpt>
      <trkpt lat="45.86598" lon="4.81847">
        <ele>283</ele>
        <time>2014-02-09T09:45:07Z</time>
      </trkpt>
      <trkpt lat="45.86595" lon="4.81851">
        <ele>282</ele>
        <time>2014-02-09T09:45:11Z</time>
      </trkpt>
      <trkpt lat="45.86593" lon="4.81856">
        <ele>282</ele>
        <time>2014-02-09T09:45:16Z</time>
      </trkpt>
      <trkpt lat="45.86592" lon="4.81857">
        <ele>281</ele>
        <time>2014-02-09T09:45:17Z</time>
      </trkpt>
      <trkpt lat="45.8659" lon="4.8186">
        <ele>281</ele>
        <time>2014-02-09T09:45:22Z</time>
      </trkpt>
      <trkpt lat="45.86587" lon="4.81868">
        <ele>280</ele>
        <time>2014-02-09T09:45:43Z</time>
      </trkpt>
      <trkpt lat="45.86587" lon="4.81869">
        <ele>280</ele>
        <time>2014-02-09T09:45:52Z</time>
      </trkpt>
      <trkpt lat="45.86588" lon="4.81874">
        <ele>279</ele>
        <time>2014-02-09T09:46:02Z</time>
      </trkpt>
      <trkpt lat="45.86587" lon="4.81868">
        <ele>280</ele>
        <time>2014-02-09T09:46:11Z</time>
      </trkpt>
      <trkpt lat="45.86586" lon="4.81868">
        <ele>280</ele>
        <time>2014-02-09T09:46:12Z</time>
      </trkpt>
      <trkpt lat="45.86587" lon="4.81872">
        <ele>280</ele>
        <time>2014-02-09T09:46:18Z</time>
      </trkpt>
      <trkpt lat="45.86587" lon="4.81873">
        <ele>279</ele>
        <time>2014-02-09T09:46:20Z</time>
      </trkpt>
      <trkpt lat="45.86588" lon="4.81872">
        <ele>279</ele>
        <time>2014-02-09T09:46:24Z</time>
      </trkpt>
      <trkpt lat="45.86587" lon="4.81867">
        <ele>280</ele>
        <time>2014-02-09T09:46:35Z</time>
      </trkpt>
      <trkpt lat="45.8659" lon="4.81867">
        <ele>280</ele>
        <time>2014-02-09T09:46:44Z</time>
      </trkpt>
      <trkpt lat="45.8659" lon="4.81866">
        <ele>280</ele>
        <time>2014-02-09T09:46:55Z</time>
      </trkpt>
      <trkpt lat="45.8659" lon="4.81865">
        <ele>280</ele>
        <time>2014-02-09T09:47:10Z</time>
      </trkpt>
      <trkpt lat="45.86587" lon="4.81865">
        <ele>281</ele>
        <time>2014-02-09T09:47:45Z</time>
      </trkpt>
      <trkpt lat="45.86586" lon="4.81867">
        <ele>280</ele>
        <time>2014-02-09T09:48:30Z</time>
      </trkpt>
      <trkpt lat="45.86585" lon="4.81864">
        <ele>281</ele>
        <time>2014-02-09T09:48:32Z</time>
      </trkpt>
      <trkpt lat="45.86587" lon="4.81862">
        <ele>281</ele>
        <time>2014-02-09T09:48:37Z</time>
      </trkpt>
      <trkpt lat="45.86587" lon="4.81861">
        <ele>281</ele>
        <time>2014-02-09T09:48:46Z</time>
      </trkpt>
      <trkpt lat="45.86587" lon="4.81862">
        <ele>281</ele>
        <time>2014-02-09T09:48:49Z</time>
      </trkpt>
      <trkpt lat="45.86587" lon="4.81862">
        <ele>281</ele>
        <time>2014-02-09T09:48:50Z</time>
      </trkpt>
      <trkpt lat="45.86587" lon="4.81867">
        <ele>280</ele>
        <time>2014-02-09T09:48:58Z</time>
      </trkpt>
      <trkpt lat="45.86588" lon="4.81872">
        <ele>280</ele>
        <time>2014-02-09T09:49:00Z</time>
      </trkpt>
      <trkpt lat="45.86589" lon="4.81876">
        <ele>279</ele>
        <time>2014-02-09T09:49:02Z</time>
      </trkpt>
      <trkpt lat="45.86586" lon="4.81878">
        <ele>279</ele>
        <time>2014-02-09T09:49:04Z</time>
      </trkpt>
      <trkpt lat="45.86584" lon="4.8188">
        <ele>279</ele>
        <time>2014-02-09T09:49:07Z</time>
      </trkpt>
      <trkpt lat="45.86586" lon="4.81882">
        <ele>279</ele>
        <time>2014-02-09T09:49:10Z</time>
      </trkpt>
      <trkpt lat="45.86586" lon="4.81883">
        <ele>279</ele>
        <time>2014-02-09T09:49:11Z</time>
      </trkpt>
      <trkpt lat="45.86588" lon="4.81886">
        <ele>278</ele>
        <time>2014-02-09T09:49:15Z</time>
      </trkpt>
      <trkpt lat="45.86588" lon="4.81889">
        <ele>278</ele>
        <time>2014-02-09T09:49:17Z</time>
      </trkpt>
      <trkpt lat="45.86589" lon="4.81892">
        <ele>278</ele>
        <time>2014-02-09T09:49:19Z</time>
      </trkpt>
      <trkpt lat="45.86591" lon="4.81893">
        <ele>278</ele>
        <time>2014-02-09T09:49:21Z</time>
      </trkpt>
      <trkpt lat="45.86592" lon="4.81898">
        <ele>277</ele>
        <time>2014-02-09T09:49:25Z</time>
      </trkpt>
      <trkpt lat="45.86593" lon="4.819">
        <ele>277</ele>
        <time>2014-02-09T09:49:26Z</time>
      </trkpt>
      <trkpt lat="45.86594" lon="4.81901">
        <ele>277</ele>
        <time>2014-02-09T09:49:30Z</time>
      </trkpt>
      <trkpt lat="45.86594" lon="4.81899">
        <ele>277</ele>
        <time>2014-02-09T09:49:38Z</time>
      </trkpt>
      <trkpt lat="45.86594" lon="4.81899">
        <ele>277</ele>
        <time>2014-02-09T09:49:46Z</time>
      </trkpt>
      <trkpt lat="45.86597" lon="4.81899">
        <ele>277</ele>
        <time>2014-02-09T09:49:49Z</time>
      </trkpt>
      <trkpt lat="45.86599" lon="4.81899">
        <ele>277</ele>
        <time>2014-02-09T09:49:50Z</time>
      </trkpt>
      <trkpt lat="45.86607" lon="4.819">
        <ele>277</ele>
        <time>2014-02-09T09:49:55Z</time>
      </trkpt>
      <trkpt lat="45.86616" lon="4.81901">
        <ele>276</ele>
        <time>2014-02-09T09:49:59Z</time>
      </trkpt>
      <trkpt lat="45.86618" lon="4.81901">
        <ele>276</ele>
        <time>2014-02-09T09:50:00Z</time>
      </trkpt>
      <trkpt lat="45.86634" lon="4.81898">
        <ele>275</ele>
        <time>2014-02-09T09:50:07Z</time>
      </trkpt>
      <trkpt lat="45.86638" lon="4.81895">
        <ele>275</ele>
        <time>2014-02-09T09:50:09Z</time>
      </trkpt>
      <trkpt lat="45.86641" lon="4.81888">
        <ele>275</ele>
        <time>2014-02-09T09:50:11Z</time>
      </trkpt>
      <trkpt lat="45.86643" lon="4.81881">
        <ele>275</ele>
        <time>2014-02-09T09:50:13Z</time>
      </trkpt>
      <trkpt lat="45.86645" lon="4.81877">
        <ele>275</ele>
        <time>2014-02-09T09:50:14Z</time>
      </trkpt>
      <trkpt lat="45.86649" lon="4.81871">
        <ele>275</ele>
        <time>2014-02-09T09:50:16Z</time>
      </trkpt>
      <trkpt lat="45.86649" lon="4.81868">
        <ele>275</ele>
        <time>2014-02-09T09:50:17Z</time>
      </trkpt>
      <trkpt lat="45.86647" lon="4.81858">
        <ele>275</ele>
        <time>2014-02-09T09:50:20Z</time>
      </trkpt>
      <trkpt lat="45.86646" lon="4.81854">
        <ele>275</ele>
        <time>2014-02-09T09:50:21Z</time>
      </trkpt>
      <trkpt lat="45.86645" lon="4.81851">
        <ele>275</ele>
        <time>2014-02-09T09:50:22Z</time>
      </trkpt>
      <trkpt lat="45.86642" lon="4.81841">
        <ele>276</ele>
        <time>2014-02-09T09:50:25Z</time>
      </trkpt>
      <trkpt lat="45.86639" lon="4.81827">
        <ele>276</ele>
        <time>2014-02-09T09:50:29Z</time>
      </trkpt>
      <trkpt lat="45.86637" lon="4.8182">
        <ele>277</ele>
        <time>2014-02-09T09:50:31Z</time>
      </trkpt>
      <trkpt lat="45.86632" lon="4.81802">
        <ele>277</ele>
        <time>2014-02-09T09:50:36Z</time>
      </trkpt>
      <trkpt lat="45.86631" lon="4.81798">
        <ele>277</ele>
        <time>2014-02-09T09:50:37Z</time>
      </trkpt>
      <trkpt lat="45.86624" lon="4.81777">
        <ele>277</ele>
        <time>2014-02-09T09:50:42Z</time>
      </trkpt>
      <trkpt lat="45.86621" lon="4.81763">
        <ele>278</ele>
        <time>2014-02-09T09:50:46Z</time>
      </trkpt>
      <trkpt lat="45.8662" lon="4.8176">
        <ele>278</ele>
        <time>2014-02-09T09:50:47Z</time>
      </trkpt>
      <trkpt lat="45.86617" lon="4.8175">
        <ele>278</ele>
        <time>2014-02-09T09:50:50Z</time>
      </trkpt>
      <trkpt lat="45.86616" lon="4.81744">
        <ele>276</ele>
        <time>2014-02-09T09:50:52Z</time>
      </trkpt>
      <trkpt lat="45.86616" lon="4.81742">
        <ele>276</ele>
        <time>2014-02-09T09:50:53Z</time>
      </trkpt>
      <trkpt lat="45.86617" lon="4.81741">
        <ele>276</ele>
        <time>2014-02-09T09:50:55Z</time>
      </trkpt>
      <trkpt lat="45.86618" lon="4.81743">
        <ele>275</ele>
        <time>2014-02-09T09:50:56Z</time>
      </trkpt>
      <trkpt lat="45.86624" lon="4.81754">
        <ele>277</ele>
        <time>2014-02-09T09:51:01Z</time>
      </trkpt>
      <trkpt lat="45.86634" lon="4.81769">
        <ele>275</ele>
        <time>2014-02-09T09:51:07Z</time>
      </trkpt>
      <trkpt lat="45.86638" lon="4.81774">
        <ele>275</ele>
        <time>2014-02-09T09:51:09Z</time>
      </trkpt>
      <trkpt lat="45.86645" lon="4.81786">
        <ele>275</ele>
        <time>2014-02-09T09:51:13Z</time>
      </trkpt>
      <trkpt lat="45.8665" lon="4.81794">
        <ele>275</ele>
        <time>2014-02-09T09:51:16Z</time>
      </trkpt>
      <trkpt lat="45.86652" lon="4.81798">
        <ele>275</ele>
        <time>2014-02-09T09:51:17Z</time>
      </trkpt>
      <trkpt lat="45.86659" lon="4.81812">
        <ele>274</ele>
        <time>2014-02-09T09:51:22Z</time>
      </trkpt>
      <trkpt lat="45.86661" lon="4.81819">
        <ele>274</ele>
        <time>2014-02-09T09:51:24Z</time>
      </trkpt>
      <trkpt lat="45.86663" lon="4.81824">
        <ele>273</ele>
        <time>2014-02-09T09:51:26Z</time>
      </trkpt>
      <trkpt lat="45.86664" lon="4.81826">
        <ele>273</ele>
        <time>2014-02-09T09:51:27Z</time>
      </trkpt>
      <trkpt lat="45.86667" lon="4.81835">
        <ele>270</ele>
        <time>2014-02-09T09:51:30Z</time>
      </trkpt>
      <trkpt lat="45.86672" lon="4.81843">
        <ele>267</ele>
        <time>2014-02-09T09:51:33Z</time>
      </trkpt>
      <trkpt lat="45.86676" lon="4.8185">
        <ele>264</ele>
        <time>2014-02-09T09:51:35Z</time>
      </trkpt>
      <trkpt lat="45.86678" lon="4.81853">
        <ele>263</ele>
        <time>2014-02-09T09:51:36Z</time>
      </trkpt>
      <trkpt lat="45.86686" lon="4.81863">
        <ele>261</ele>
        <time>2014-02-09T09:51:40Z</time>
      </trkpt>
      <trkpt lat="45.86692" lon="4.8187">
        <ele>260</ele>
        <time>2014-02-09T09:51:44Z</time>
      </trkpt>
      <trkpt lat="45.86694" lon="4.8187">
        <ele>260</ele>
        <time>2014-02-09T09:51:45Z</time>
      </trkpt>
      <trkpt lat="45.867" lon="4.81858">
        <ele>259</ele>
        <time>2014-02-09T09:51:49Z</time>
      </trkpt>
      <trkpt lat="45.86702" lon="4.81846">
        <ele>259</ele>
        <time>2014-02-09T09:51:53Z</time>
      </trkpt>
      <trkpt lat="45.86699" lon="4.81832">
        <ele>258</ele>
        <time>2014-02-09T09:51:58Z</time>
      </trkpt>
      <trkpt lat="45.86697" lon="4.81817">
        <ele>258</ele>
        <time>2014-02-09T09:52:02Z</time>
      </trkpt>
      <trkpt lat="45.86696" lon="4.81806">
        <ele>257</ele>
        <time>2014-02-09T09:52:05Z</time>
      </trkpt>
      <trkpt lat="45.86694" lon="4.81803">
        <ele>257</ele>
        <time>2014-02-09T09:52:06Z</time>
      </trkpt>
      <trkpt lat="45.86691" lon="4.8179">
        <ele>256</ele>
        <time>2014-02-09T09:52:10Z</time>
      </trkpt>
      <trkpt lat="45.86687" lon="4.81782">
        <ele>257</ele>
        <time>2014-02-09T09:52:13Z</time>
      </trkpt>
      <trkpt lat="45.86686" lon="4.81779">
        <ele>257</ele>
        <time>2014-02-09T09:52:14Z</time>
      </trkpt>
      <trkpt lat="45.8668" lon="4.81767">
        <ele>258</ele>
        <time>2014-02-09T09:52:18Z</time>
      </trkpt>
      <trkpt lat="45.86677" lon="4.81759">
        <ele>259</ele>
        <time>2014-02-09T09:52:20Z</time>
      </trkpt>
      <trkpt lat="45.86675" lon="4.81756">
        <ele>259</ele>
        <time>2014-02-09T09:52:21Z</time>
      </trkpt>
      <trkpt lat="45.86673" lon="4.81754">
        <ele>260</ele>
        <time>2014-02-09T09:52:22Z</time>
      </trkpt>
      <trkpt lat="45.86671" lon="4.81739">
        <ele>257</ele>
        <time>2014-02-09T09:52:27Z</time>
      </trkpt>
      <trkpt lat="45.8667" lon="4.81736">
        <ele>256</ele>
        <time>2014-02-09T09:52:28Z</time>
      </trkpt>
      <trkpt lat="45.86666" lon="4.81722">
        <ele>268</ele>
        <time>2014-02-09T09:52:33Z</time>
      </trkpt>
      <trkpt lat="45.86664" lon="4.81716">
        <ele>268</ele>
        <time>2014-02-09T09:52:35Z</time>
      </trkpt>
      <trkpt lat="45.86662" lon="4.81709">
        <ele>268</ele>
        <time>2014-02-09T09:52:37Z</time>
      </trkpt>
      <trkpt lat="45.86659" lon="4.81699">
        <ele>267</ele>
        <time>2014-02-09T09:52:40Z</time>
      </trkpt>
      <trkpt lat="45.86654" lon="4.81685">
        <ele>266</ele>
        <time>2014-02-09T09:52:44Z</time>
      </trkpt>
      <trkpt lat="45.86653" lon="4.81682">
        <ele>265</ele>
        <time>2014-02-09T09:52:45Z</time>
      </trkpt>
      <trkpt lat="45.86651" lon="4.81674">
        <ele>264</ele>
        <time>2014-02-09T09:52:47Z</time>
      </trkpt>
      <trkpt lat="45.86648" lon="4.81668">
        <ele>265</ele>
        <time>2014-02-09T09:52:49Z</time>
      </trkpt>
      <trkpt lat="45.86645" lon="4.81662">
        <ele>262</ele>
        <time>2014-02-09T09:52:51Z</time>
      </trkpt>
      <trkpt lat="45.8664" lon="4.81653">
        <ele>264</ele>
        <time>2014-02-09T09:52:54Z</time>
      </trkpt>
      <trkpt lat="45.86635" lon="4.81638">
        <ele>265</ele>
        <time>2014-02-09T09:52:58Z</time>
      </trkpt>
      <trkpt lat="45.86629" lon="4.81617">
        <ele>264</ele>
        <time>2014-02-09T09:53:04Z</time>
      </trkpt>
      <trkpt lat="45.86628" lon="4.81613">
        <ele>264</ele>
        <time>2014-02-09T09:53:05Z</time>
      </trkpt>
      <trkpt lat="45.86626" lon="4.81602">
        <ele>264</ele>
        <time>2014-02-09T09:53:09Z</time>
      </trkpt>
      <trkpt lat="45.86626" lon="4.81588">
        <ele>264</ele>
        <time>2014-02-09T09:53:14Z</time>
      </trkpt>
      <trkpt lat="45.86627" lon="4.8159">
        <ele>263</ele>
        <time>2014-02-09T09:53:15Z</time>
      </trkpt>
      <trkpt lat="45.8663" lon="4.81595">
        <ele>263</ele>
        <time>2014-02-09T09:53:17Z</time>
      </trkpt>
      <trkpt lat="45.86635" lon="4.81604">
        <ele>262</ele>
        <time>2014-02-09T09:53:21Z</time>
      </trkpt>
      <trkpt lat="45.86637" lon="4.81611">
        <ele>262</ele>
        <time>2014-02-09T09:53:24Z</time>
      </trkpt>
      <trkpt lat="45.86641" lon="4.81618">
        <ele>262</ele>
        <time>2014-02-09T09:53:27Z</time>
      </trkpt>
      <trkpt lat="45.86644" lon="4.81626">
        <ele>263</ele>
        <time>2014-02-09T09:53:30Z</time>
      </trkpt>
      <trkpt lat="45.86645" lon="4.81627">
        <ele>262</ele>
        <time>2014-02-09T09:53:31Z</time>
      </trkpt>
      <trkpt lat="45.8665" lon="4.81627">
        <ele>262</ele>
        <time>2014-02-09T09:53:34Z</time>
      </trkpt>
      <trkpt lat="45.86654" lon="4.81627">
        <ele>261</ele>
        <time>2014-02-09T09:53:36Z</time>
      </trkpt>
      <trkpt lat="45.86659" lon="4.81629">
        <ele>261</ele>
        <time>2014-02-09T09:53:41Z</time>
      </trkpt>
      <trkpt lat="45.86669" lon="4.81636">
        <ele>247</ele>
        <time>2014-02-09T09:53:47Z</time>
      </trkpt>
      <trkpt lat="45.86679" lon="4.81642">
        <ele>247</ele>
        <time>2014-02-09T09:53:52Z</time>
      </trkpt>
      <trkpt lat="45.86686" lon="4.81649">
        <ele>247</ele>
        <time>2014-02-09T09:53:56Z</time>
      </trkpt>
      <trkpt lat="45.86691" lon="4.81655">
        <ele>246</ele>
        <time>2014-02-09T09:53:59Z</time>
      </trkpt>
      <trkpt lat="45.86699" lon="4.81667">
        <ele>248</ele>
        <time>2014-02-09T09:54:04Z</time>
      </trkpt>
      <trkpt lat="45.86701" lon="4.8167">
        <ele>248</ele>
        <time>2014-02-09T09:54:05Z</time>
      </trkpt>
      <trkpt lat="45.86708" lon="4.81686">
        <ele>247</ele>
        <time>2014-02-09T09:54:09Z</time>
      </trkpt>
      <trkpt lat="45.86711" lon="4.81689">
        <ele>246</ele>
        <time>2014-02-09T09:54:10Z</time>
      </trkpt>
      <trkpt lat="45.86716" lon="4.81699">
        <ele>246</ele>
        <time>2014-02-09T09:54:14Z</time>
      </trkpt>
      <trkpt lat="45.86722" lon="4.81713">
        <ele>246</ele>
        <time>2014-02-09T09:54:21Z</time>
      </trkpt>
      <trkpt lat="45.86729" lon="4.81731">
        <ele>245</ele>
        <time>2014-02-09T09:54:27Z</time>
      </trkpt>
      <trkpt lat="45.86731" lon="4.81734">
        <ele>244</ele>
        <time>2014-02-09T09:54:28Z</time>
      </trkpt>
      <trkpt lat="45.86735" lon="4.81745">
        <ele>243</ele>
        <time>2014-02-09T09:54:31Z</time>
      </trkpt>
      <trkpt lat="45.86736" lon="4.81749">
        <ele>242</ele>
        <time>2014-02-09T09:54:32Z</time>
      </trkpt>
      <trkpt lat="45.86737" lon="4.81761">
        <ele>246</ele>
        <time>2014-02-09T09:54:35Z</time>
      </trkpt>
      <trkpt lat="45.86739" lon="4.81767">
        <ele>247</ele>
        <time>2014-02-09T09:54:37Z</time>
      </trkpt>
      <trkpt lat="45.86742" lon="4.81776">
        <ele>248</ele>
        <time>2014-02-09T09:54:40Z</time>
      </trkpt>
      <trkpt lat="45.86745" lon="4.81785">
        <ele>249</ele>
        <time>2014-02-09T09:54:42Z</time>
      </trkpt>
      <trkpt lat="45.86748" lon="4.81794">
        <ele>249</ele>
        <time>2014-02-09T09:54:44Z</time>
      </trkpt>
      <trkpt lat="45.86748" lon="4.81797">
        <ele>250</ele>
        <time>2014-02-09T09:54:45Z</time>
      </trkpt>
      <trkpt lat="45.86748" lon="4.81801">
        <ele>250</ele>
        <time>2014-02-09T09:54:46Z</time>
      </trkpt>
      <trkpt lat="45.86749" lon="4.81809">
        <ele>249</ele>
        <time>2014-02-09T09:54:49Z</time>
      </trkpt>
      <trkpt lat="45.86749" lon="4.81812">
        <ele>249</ele>
        <time>2014-02-09T09:54:50Z</time>
      </trkpt>
      <trkpt lat="45.86752" lon="4.81825">
        <ele>243</ele>
        <time>2014-02-09T09:54:55Z</time>
      </trkpt>
      <trkpt lat="45.86757" lon="4.81836">
        <ele>243</ele>
        <time>2014-02-09T09:54:59Z</time>
      </trkpt>
      <trkpt lat="45.86759" lon="4.81838">
        <ele>243</ele>
        <time>2014-02-09T09:55:00Z</time>
      </trkpt>
      <trkpt lat="45.86762" lon="4.81843">
        <ele>242</ele>
        <time>2014-02-09T09:55:02Z</time>
      </trkpt>
      <trkpt lat="45.86764" lon="4.8185">
        <ele>241</ele>
        <time>2014-02-09T09:55:04Z</time>
      </trkpt>
      <trkpt lat="45.86767" lon="4.81855">
        <ele>241</ele>
        <time>2014-02-09T09:55:06Z</time>
      </trkpt>
      <trkpt lat="45.8677" lon="4.81858">
        <ele>241</ele>
        <time>2014-02-09T09:55:07Z</time>
      </trkpt>
      <trkpt lat="45.86771" lon="4.8186">
        <ele>241</ele>
        <time>2014-02-09T09:55:08Z</time>
      </trkpt>
      <trkpt lat="45.86774" lon="4.81864">
        <ele>240</ele>
        <time>2014-02-09T09:55:10Z</time>
      </trkpt>
      <trkpt lat="45.8678" lon="4.81874">
        <ele>240</ele>
        <time>2014-02-09T09:55:14Z</time>
      </trkpt>
      <trkpt lat="45.86783" lon="4.81879">
        <ele>240</ele>
        <time>2014-02-09T09:55:16Z</time>
      </trkpt>
      <trkpt lat="45.86792" lon="4.81892">
        <ele>239</ele>
        <time>2014-02-09T09:55:21Z</time>
      </trkpt>
      <trkpt lat="45.86798" lon="4.819">
        <ele>239</ele>
        <time>2014-02-09T09:55:24Z</time>
      </trkpt>
      <trkpt lat="45.86803" lon="4.8191">
        <ele>238</ele>
        <time>2014-02-09T09:55:28Z</time>
      </trkpt>
      <trkpt lat="45.86811" lon="4.81919">
        <ele>241</ele>
        <time>2014-02-09T09:55:32Z</time>
      </trkpt>
      <trkpt lat="45.86813" lon="4.8192">
        <ele>241</ele>
        <time>2014-02-09T09:55:33Z</time>
      </trkpt>
      <trkpt lat="45.86821" lon="4.81927">
        <ele>240</ele>
        <time>2014-02-09T09:55:37Z</time>
      </trkpt>
      <trkpt lat="45.86824" lon="4.81929">
        <ele>240</ele>
        <time>2014-02-09T09:55:38Z</time>
      </trkpt>
      <trkpt lat="45.86828" lon="4.81929">
        <ele>239</ele>
        <time>2014-02-09T09:55:40Z</time>
      </trkpt>
      <trkpt lat="45.86831" lon="4.81928">
        <ele>239</ele>
        <time>2014-02-09T09:55:41Z</time>
      </trkpt>
      <trkpt lat="45.86836" lon="4.81924">
        <ele>235</ele>
        <time>2014-02-09T09:55:43Z</time>
      </trkpt>
      <trkpt lat="45.86847" lon="4.81913">
        <ele>233</ele>
        <time>2014-02-09T09:55:47Z</time>
      </trkpt>
      <trkpt lat="45.86859" lon="4.81897">
        <ele>232</ele>
        <time>2014-02-09T09:55:53Z</time>
      </trkpt>
      <trkpt lat="45.8686" lon="4.81892">
        <ele>232</ele>
        <time>2014-02-09T09:55:56Z</time>
      </trkpt>
      <trkpt lat="45.86861" lon="4.81891">
        <ele>232</ele>
        <time>2014-02-09T09:55:57Z</time>
      </trkpt>
      <trkpt lat="45.86859" lon="4.81887">
        <ele>232</ele>
        <time>2014-02-09T09:56:00Z</time>
      </trkpt>
      <trkpt lat="45.86858" lon="4.81883">
        <ele>232</ele>
        <time>2014-02-09T09:56:02Z</time>
      </trkpt>
      <trkpt lat="45.86852" lon="4.8187">
        <ele>232</ele>
        <time>2014-02-09T09:56:08Z</time>
      </trkpt>
      <trkpt lat="45.8685" lon="4.81864">
        <ele>232</ele>
        <time>2014-02-09T09:56:10Z</time>
      </trkpt>
      <trkpt lat="45.86849" lon="4.81847">
        <ele>231</ele>
        <time>2014-02-09T09:56:15Z</time>
      </trkpt>
      <trkpt lat="45.86849" lon="4.81844">
        <ele>231</ele>
        <time>2014-02-09T09:56:16Z</time>
      </trkpt>
      <trkpt lat="45.86843" lon="4.81828">
        <ele>233</ele>
        <time>2014-02-09T09:56:21Z</time>
      </trkpt>
      <trkpt lat="45.86838" lon="4.81819">
        <ele>234</ele>
        <time>2014-02-09T09:56:24Z</time>
      </trkpt>
      <trkpt lat="45.86834" lon="4.81811">
        <ele>236</ele>
        <time>2014-02-09T09:56:27Z</time>
      </trkpt>
      <trkpt lat="45.86828" lon="4.81796">
        <ele>236</ele>
        <time>2014-02-09T09:56:32Z</time>
      </trkpt>
      <trkpt lat="45.86826" lon="4.81786">
        <ele>236</ele>
        <time>2014-02-09T09:56:37Z</time>
      </trkpt>
      <trkpt lat="45.86824" lon="4.81774">
        <ele>237</ele>
        <time>2014-02-09T09:56:43Z</time>
      </trkpt>
      <trkpt lat="45.86823" lon="4.8177">
        <ele>237</ele>
        <time>2014-02-09T09:56:45Z</time>
      </trkpt>
      <trkpt lat="45.86823" lon="4.81766">
        <ele>237</ele>
        <time>2014-02-09T09:56:47Z</time>
      </trkpt>
      <trkpt lat="45.86822" lon="4.81755">
        <ele>238</ele>
        <time>2014-02-09T09:56:54Z</time>
      </trkpt>
      <trkpt lat="45.86822" lon="4.81745">
        <ele>239</ele>
        <time>2014-02-09T09:57:00Z</time>
      </trkpt>
      <trkpt lat="45.86821" lon="4.81744">
        <ele>240</ele>
        <time>2014-02-09T09:57:01Z</time>
      </trkpt>
      <trkpt lat="45.86821" lon="4.81739">
        <ele>240</ele>
        <time>2014-02-09T09:57:04Z</time>
      </trkpt>
      <trkpt lat="45.86821" lon="4.8173">
        <ele>240</ele>
        <time>2014-02-09T09:57:09Z</time>
      </trkpt>
      <trkpt lat="45.86822" lon="4.81718">
        <ele>242</ele>
        <time>2014-02-09T09:57:17Z</time>
      </trkpt>
      <trkpt lat="45.86824" lon="4.81706">
        <ele>243</ele>
        <time>2014-02-09T09:57:25Z</time>
      </trkpt>
      <trkpt lat="45.86825" lon="4.81694">
        <ele>245</ele>
        <time>2014-02-09T09:57:33Z</time>
      </trkpt>
      <trkpt lat="45.86825" lon="4.81691">
        <ele>245</ele>
        <time>2014-02-09T09:57:35Z</time>
      </trkpt>
      <trkpt lat="45.86826" lon="4.81682">
        <ele>247</ele>
        <time>2014-02-09T09:57:41Z</time>
      </trkpt>
      <trkpt lat="45.86827" lon="4.81677">
        <ele>249</ele>
        <time>2014-02-09T09:57:44Z</time>
      </trkpt>
      <trkpt lat="45.86827" lon="4.81674">
        <ele>250</ele>
        <time>2014-02-09T09:57:46Z</time>
      </trkpt>
      <trkpt lat="45.86828" lon="4.81666">
        <ele>253</ele>
        <time>2014-02-09T09:57:51Z</time>
      </trkpt>
      <trkpt lat="45.86829" lon="4.81664">
        <ele>253</ele>
        <time>2014-02-09T09:57:53Z</time>
      </trkpt>
      <trkpt lat="45.8683" lon="4.81665">
        <ele>253</ele>
        <time>2014-02-09T09:57:56Z</time>
      </trkpt>
      <trkpt lat="45.86832" lon="4.81669">
        <ele>252</ele>
        <time>2014-02-09T09:57:59Z</time>
      </trkpt>
      <trkpt lat="45.86833" lon="4.81673">
        <ele>251</ele>
        <time>2014-02-09T09:58:02Z</time>
      </trkpt>
      <trkpt lat="45.86834" lon="4.81677">
        <ele>255</ele>
        <time>2014-02-09T09:58:05Z</time>
      </trkpt>
      <trkpt lat="45.86834" lon="4.81677">
        <ele>255</ele>
        <time>2014-02-09T09:58:07Z</time>
      </trkpt>
      <trkpt lat="45.86834" lon="4.8168">
        <ele>255</ele>
        <time>2014-02-09T09:58:11Z</time>
      </trkpt>
      <trkpt lat="45.86835" lon="4.81682">
        <ele>255</ele>
        <time>2014-02-09T09:58:12Z</time>
      </trkpt>
      <trkpt lat="45.86835" lon="4.81683">
        <ele>255</ele>
        <time>2014-02-09T09:58:13Z</time>
      </trkpt>
      <trkpt lat="45.86836" lon="4.81687">
        <ele>255</ele>
        <time>2014-02-09T09:58:16Z</time>
      </trkpt>
      <trkpt lat="45.8684" lon="4.81693">
        <ele>256</ele>
        <time>2014-02-09T09:58:22Z</time>
      </trkpt>
      <trkpt lat="45.86841" lon="4.81694">
        <ele>256</ele>
        <time>2014-02-09T09:58:24Z</time>
      </trkpt>
      <trkpt lat="45.86844" lon="4.81698">
        <ele>255</ele>
        <time>2014-02-09T09:58:28Z</time>
      </trkpt>
      <trkpt lat="45.86845" lon="4.81701">
        <ele>255</ele>
        <time>2014-02-09T09:58:30Z</time>
      </trkpt>
      <trkpt lat="45.86847" lon="4.81702">
        <ele>255</ele>
        <time>2014-02-09T09:58:33Z</time>
      </trkpt>
      <trkpt lat="45.86852" lon="4.817">
        <ele>256</ele>
        <time>2014-02-09T09:58:38Z</time>
      </trkpt>
      <trkpt lat="45.86855" lon="4.81699">
        <ele>256</ele>
        <time>2014-02-09T09:58:47Z</time>
      </trkpt>
      <trkpt lat="45.86856" lon="4.81695">
        <ele>257</ele>
        <time>2014-02-09T09:59:08Z</time>
      </trkpt>
      <trkpt lat="45.86857" lon="4.81691">
        <ele>257</ele>
        <time>2014-02-09T09:59:15Z</time>
      </trkpt>
      <trkpt lat="45.86859" lon="4.81689">
        <ele>258</ele>
        <time>2014-02-09T09:59:18Z</time>
      </trkpt>
      <trkpt lat="45.8686" lon="4.81685">
        <ele>258</ele>
        <time>2014-02-09T09:59:22Z</time>
      </trkpt>
      <trkpt lat="45.86861" lon="4.81684">
        <ele>258</ele>
        <time>2014-02-09T09:59:23Z</time>
      </trkpt>
      <trkpt lat="45.86864" lon="4.8168">
        <ele>259</ele>
        <time>2014-02-09T09:59:27Z</time>
      </trkpt>
      <trkpt lat="45.86864" lon="4.81682">
        <ele>259</ele>
        <time>2014-02-09T09:59:29Z</time>
      </trkpt>
      <trkpt lat="45.86866" lon="4.81678">
        <ele>259</ele>
        <time>2014-02-09T09:59:36Z</time>
      </trkpt>
      <trkpt lat="45.86867" lon="4.81675">
        <ele>260</ele>
        <time>2014-02-09T09:59:38Z</time>
      </trkpt>
      <trkpt lat="45.86871" lon="4.81666">
        <ele>271</ele>
        <time>2014-02-09T09:59:43Z</time>
      </trkpt>
      <trkpt lat="45.86871" lon="4.81665">
        <ele>271</ele>
        <time>2014-02-09T09:59:44Z</time>
      </trkpt>
      <trkpt lat="45.86874" lon="4.81654">
        <ele>272</ele>
        <time>2014-02-09T09:59:51Z</time>
      </trkpt>
      <trkpt lat="45.86876" lon="4.81643">
        <ele>274</ele>
        <time>2014-02-09T09:59:58Z</time>
      </trkpt>
      <trkpt lat="45.86876" lon="4.81642">
        <ele>274</ele>
        <time>2014-02-09T09:59:59Z</time>
      </trkpt>
      <trkpt lat="45.86876" lon="4.8164">
        <ele>274</ele>
        <time>2014-02-09T10:00:00Z</time>
      </trkpt>
      <trkpt lat="45.86877" lon="4.81638">
        <ele>274</ele>
        <time>2014-02-09T10:00:02Z</time>
      </trkpt>
      <trkpt lat="45.86878" lon="4.81636">
        <ele>274</ele>
        <time>2014-02-09T10:00:03Z</time>
      </trkpt>
      <trkpt lat="45.86879" lon="4.81632">
        <ele>275</ele>
        <time>2014-02-09T10:00:08Z</time>
      </trkpt>
      <trkpt lat="45.8688" lon="4.81624">
        <ele>276</ele>
        <time>2014-02-09T10:00:13Z</time>
      </trkpt>
      <trkpt lat="45.8688" lon="4.81619">
        <ele>277</ele>
        <time>2014-02-09T10:00:16Z</time>
      </trkpt>
      <trkpt lat="45.86878" lon="4.81618">
        <ele>276</ele>
        <time>2014-02-09T10:00:18Z</time>
      </trkpt>
      <trkpt lat="45.86876" lon="4.81617">
        <ele>276</ele>
        <time>2014-02-09T10:00:19Z</time>
      </trkpt>
      <trkpt lat="45.86871" lon="4.81616">
        <ele>275</ele>
        <time>2014-02-09T10:00:25Z</time>
      </trkpt>
      <trkpt lat="45.86867" lon="4.81615">
        <ele>274</ele>
        <time>2014-02-09T10:00:31Z</time>
      </trkpt>
      <trkpt lat="45.86865" lon="4.81615">
        <ele>274</ele>
        <time>2014-02-09T10:00:33Z</time>
      </trkpt>
      <trkpt lat="45.86863" lon="4.81612">
        <ele>274</ele>
        <time>2014-02-09T10:00:36Z</time>
      </trkpt>
      <trkpt lat="45.86863" lon="4.81608">
        <ele>274</ele>
        <time>2014-02-09T10:00:39Z</time>
      </trkpt>
      <trkpt lat="45.86864" lon="4.81606">
        <ele>274</ele>
        <time>2014-02-09T10:00:42Z</time>
      </trkpt>
      <trkpt lat="45.86864" lon="4.81603">
        <ele>274</ele>
        <time>2014-02-09T10:00:47Z</time>
      </trkpt>
      <trkpt lat="45.86862" lon="4.81598">
        <ele>274</ele>
        <time>2014-02-09T10:00:53Z</time>
      </trkpt>
      <trkpt lat="45.8686" lon="4.81591">
        <ele>274</ele>
        <time>2014-02-09T10:01:00Z</time>
      </trkpt>
      <trkpt lat="45.86854" lon="4.81588">
        <ele>272</ele>
        <time>2014-02-09T10:01:07Z</time>
      </trkpt>
      <trkpt lat="45.86854" lon="4.8159">
        <ele>272</ele>
        <time>2014-02-09T10:01:12Z</time>
      </trkpt>
      <trkpt lat="45.8685" lon="4.81587">
        <ele>271</ele>
        <time>2014-02-09T10:01:16Z</time>
      </trkpt>
      <trkpt lat="45.86844" lon="4.81581">
        <ele>274</ele>
        <time>2014-02-09T10:01:21Z</time>
      </trkpt>
      <trkpt lat="45.8684" lon="4.8158">
        <ele>272</ele>
        <time>2014-02-09T10:01:26Z</time>
      </trkpt>
      <trkpt lat="45.86838" lon="4.81578">
        <ele>271</ele>
        <time>2014-02-09T10:01:28Z</time>
      </trkpt>
      <trkpt lat="45.86836" lon="4.81576">
        <ele>272</ele>
        <time>2014-02-09T10:01:30Z</time>
      </trkpt>
      <trkpt lat="45.86836" lon="4.81575">
        <ele>273</ele>
        <time>2014-02-09T10:01:31Z</time>
      </trkpt>
      <trkpt lat="45.86837" lon="4.81566">
        <ele>277</ele>
        <time>2014-02-09T10:01:36Z</time>
      </trkpt>
      <trkpt lat="45.86836" lon="4.81564">
        <ele>278</ele>
        <time>2014-02-09T10:01:37Z</time>
      </trkpt>
      <trkpt lat="45.86835" lon="4.8156">
        <ele>279</ele>
        <time>2014-02-09T10:01:41Z</time>
      </trkpt>
      <trkpt lat="45.86834" lon="4.8156">
        <ele>279</ele>
        <time>2014-02-09T10:01:42Z</time>
      </trkpt>
      <trkpt lat="45.86832" lon="4.81556">
        <ele>262</ele>
        <time>2014-02-09T10:01:44Z</time>
      </trkpt>
      <trkpt lat="45.8683" lon="4.8155">
        <ele>262</ele>
        <time>2014-02-09T10:01:47Z</time>
      </trkpt>
      <trkpt lat="45.86828" lon="4.81538">
        <ele>262</ele>
        <time>2014-02-09T10:01:52Z</time>
      </trkpt>
      <trkpt lat="45.86828" lon="4.81535">
        <ele>263</ele>
        <time>2014-02-09T10:01:55Z</time>
      </trkpt>
      <trkpt lat="45.86828" lon="4.81534">
        <ele>263</ele>
        <time>2014-02-09T10:01:56Z</time>
      </trkpt>
      <trkpt lat="45.86828" lon="4.8153">
        <ele>264</ele>
        <time>2014-02-09T10:02:00Z</time>
      </trkpt>
      <trkpt lat="45.86828" lon="4.81527">
        <ele>265</ele>
        <time>2014-02-09T10:02:02Z</time>
      </trkpt>
      <trkpt lat="45.86828" lon="4.81518">
        <ele>267</ele>
        <time>2014-02-09T10:02:07Z</time>
      </trkpt>
      <trkpt lat="45.86826" lon="4.8151">
        <ele>270</ele>
        <time>2014-02-09T10:02:12Z</time>
      </trkpt>
      <trkpt lat="45.86825" lon="4.81504">
        <ele>271</ele>
        <time>2014-02-09T10:02:15Z</time>
      </trkpt>
      <trkpt lat="45.86823" lon="4.81498">
        <ele>274</ele>
        <time>2014-02-09T10:02:18Z</time>
      </trkpt>
      <trkpt lat="45.86822" lon="4.81495">
        <ele>274</ele>
        <time>2014-02-09T10:02:20Z</time>
      </trkpt>
      <trkpt lat="45.86822" lon="4.81491">
        <ele>273</ele>
        <time>2014-02-09T10:02:23Z</time>
      </trkpt>
      <trkpt lat="45.8682" lon="4.81483">
        <ele>272</ele>
        <time>2014-02-09T10:02:28Z</time>
      </trkpt>
      <trkpt lat="45.86819" lon="4.81482">
        <ele>272</ele>
        <time>2014-02-09T10:02:29Z</time>
      </trkpt>
      <trkpt lat="45.86819" lon="4.8148">
        <ele>272</ele>
        <time>2014-02-09T10:02:30Z</time>
      </trkpt>
      <trkpt lat="45.86817" lon="4.81472">
        <ele>271</ele>
        <time>2014-02-09T10:02:35Z</time>
      </trkpt>
      <trkpt lat="45.86817" lon="4.81471">
        <ele>271</ele>
        <time>2014-02-09T10:02:36Z</time>
      </trkpt>
      <trkpt lat="45.86815" lon="4.81464">
        <ele>271</ele>
        <time>2014-02-09T10:02:40Z</time>
      </trkpt>
      <trkpt lat="45.86816" lon="4.81459">
        <ele>272</ele>
        <time>2014-02-09T10:02:45Z</time>
      </trkpt>
      <trkpt lat="45.86815" lon="4.81458">
        <ele>272</ele>
        <time>2014-02-09T10:02:47Z</time>
      </trkpt>
      <trkpt lat="45.86814" lon="4.81453">
        <ele>272</ele>
        <time>2014-02-09T10:02:50Z</time>
      </trkpt>
      <trkpt lat="45.86813" lon="4.8145">
        <ele>273</ele>
        <time>2014-02-09T10:02:52Z</time>
      </trkpt>
      <trkpt lat="45.86813" lon="4.81445">
        <ele>273</ele>
        <time>2014-02-09T10:02:54Z</time>
      </trkpt>
      <trkpt lat="45.86814" lon="4.81443">
        <ele>274</ele>
        <time>2014-02-09T10:02:55Z</time>
      </trkpt>
      <trkpt lat="45.86814" lon="4.81441">
        <ele>274</ele>
        <time>2014-02-09T10:02:56Z</time>
      </trkpt>
      <trkpt lat="45.86818" lon="4.81442">
        <ele>275</ele>
        <time>2014-02-09T10:02:59Z</time>
      </trkpt>
      <trkpt lat="45.86818" lon="4.81444">
        <ele>275</ele>
        <time>2014-02-09T10:03:02Z</time>
      </trkpt>
      <trkpt lat="45.86819" lon="4.81445">
        <ele>275</ele>
        <time>2014-02-09T10:03:03Z</time>
      </trkpt>
      <trkpt lat="45.8682" lon="4.81445">
        <ele>275</ele>
        <time>2014-02-09T10:03:04Z</time>
      </trkpt>
      <trkpt lat="45.86818" lon="4.81443">
        <ele>275</ele>
        <time>2014-02-09T10:03:10Z</time>
      </trkpt>
      <trkpt lat="45.86822" lon="4.81443">
        <ele>275</ele>
        <time>2014-02-09T10:03:16Z</time>
      </trkpt>
      <trkpt lat="45.86825" lon="4.81444">
        <ele>276</ele>
        <time>2014-02-09T10:03:20Z</time>
      </trkpt>
      <trkpt lat="45.86827" lon="4.81448">
        <ele>275</ele>
        <time>2014-02-09T10:03:25Z</time>
      </trkpt>
      <trkpt lat="45.86828" lon="4.8145">
        <ele>275</ele>
        <time>2014-02-09T10:03:27Z</time>
      </trkpt>
      <trkpt lat="45.86831" lon="4.81453">
        <ele>274</ele>
        <time>2014-02-09T10:03:31Z</time>
      </trkpt>
      <trkpt lat="45.86832" lon="4.81453">
        <ele>275</ele>
        <time>2014-02-09T10:03:32Z</time>
      </trkpt>
      <trkpt lat="45.86834" lon="4.81455">
        <ele>296</ele>
        <time>2014-02-09T10:03:34Z</time>
      </trkpt>
      <trkpt lat="45.86836" lon="4.81456">
        <ele>296</ele>
        <time>2014-02-09T10:03:36Z</time>
      </trkpt>
      <trkpt lat="45.86836" lon="4.81458">
        <ele>296</ele>
        <time>2014-02-09T10:03:38Z</time>
      </trkpt>
      <trkpt lat="45.86837" lon="4.81458">
        <ele>296</ele>
        <time>2014-02-09T10:03:40Z</time>
      </trkpt>
      <trkpt lat="45.86837" lon="4.81459">
        <ele>296</ele>
        <time>2014-02-09T10:03:41Z</time>
      </trkpt>
      <trkpt lat="45.8684" lon="4.81465">
        <ele>296</ele>
        <time>2014-02-09T10:03:46Z</time>
      </trkpt>
      <trkpt lat="45.86841" lon="4.81466">
        <ele>296</ele>
        <time>2014-02-09T10:03:47Z</time>
      </trkpt>
      <trkpt lat="45.86841" lon="4.81466">
        <ele>296</ele>
        <time>2014-02-09T10:03:48Z</time>
      </trkpt>
      <trkpt lat="45.86843" lon="4.81467">
        <ele>296</ele>
        <time>2014-02-09T10:03:50Z</time>
      </trkpt>
      <trkpt lat="45.86843" lon="4.81467">
        <ele>296</ele>
        <time>2014-02-09T10:03:51Z</time>
      </trkpt>
      <trkpt lat="45.86845" lon="4.8147">
        <ele>295</ele>
        <time>2014-02-09T10:03:54Z</time>
      </trkpt>
      <trkpt lat="45.86846" lon="4.81472">
        <ele>295</ele>
        <time>2014-02-09T10:03:55Z</time>
      </trkpt>
      <trkpt lat="45.8685" lon="4.81478">
        <ele>294</ele>
        <time>2014-02-09T10:04:01Z</time>
      </trkpt>
      <trkpt lat="45.86853" lon="4.81483">
        <ele>294</ele>
        <time>2014-02-09T10:04:06Z</time>
      </trkpt>
      <trkpt lat="45.86853" lon="4.81484">
        <ele>294</ele>
        <time>2014-02-09T10:04:07Z</time>
      </trkpt>
      <trkpt lat="45.86857" lon="4.81489">
        <ele>294</ele>
        <time>2014-02-09T10:04:11Z</time>
      </trkpt>
      <trkpt lat="45.86858" lon="4.8149">
        <ele>295</ele>
        <time>2014-02-09T10:04:13Z</time>
      </trkpt>
      <trkpt lat="45.86861" lon="4.81497">
        <ele>295</ele>
        <time>2014-02-09T10:04:18Z</time>
      </trkpt>
      <trkpt lat="45.86862" lon="4.81499">
        <ele>296</ele>
        <time>2014-02-09T10:04:21Z</time>
      </trkpt>
      <trkpt lat="45.86864" lon="4.81503">
        <ele>288</ele>
        <time>2014-02-09T10:04:24Z</time>
      </trkpt>
      <trkpt lat="45.86868" lon="4.81509">
        <ele>289</ele>
        <time>2014-02-09T10:04:29Z</time>
      </trkpt>
      <trkpt lat="45.86868" lon="4.81511">
        <ele>289</ele>
        <time>2014-02-09T10:04:30Z</time>
      </trkpt>
      <trkpt lat="45.86869" lon="4.81514">
        <ele>290</ele>
        <time>2014-02-09T10:04:32Z</time>
      </trkpt>
      <trkpt lat="45.86871" lon="4.8152">
        <ele>290</ele>
        <time>2014-02-09T10:04:36Z</time>
      </trkpt>
      <trkpt lat="45.86871" lon="4.81523">
        <ele>290</ele>
        <time>2014-02-09T10:04:38Z</time>
      </trkpt>
      <trkpt lat="45.86873" lon="4.81528">
        <ele>290</ele>
        <time>2014-02-09T10:04:42Z</time>
      </trkpt>
      <trkpt lat="45.86873" lon="4.81534">
        <ele>290</ele>
        <time>2014-02-09T10:04:45Z</time>
      </trkpt>
      <trkpt lat="45.86874" lon="4.81537">
        <ele>289</ele>
        <time>2014-02-09T10:04:48Z</time>
      </trkpt>
      <trkpt lat="45.86875" lon="4.81538">
        <ele>289</ele>
        <time>2014-02-09T10:04:49Z</time>
      </trkpt>
      <trkpt lat="45.86877" lon="4.81543">
        <ele>290</ele>
        <time>2014-02-09T10:04:52Z</time>
      </trkpt>
      <trkpt lat="45.86882" lon="4.8155">
        <ele>290</ele>
        <time>2014-02-09T10:04:58Z</time>
      </trkpt>
      <trkpt lat="45.86885" lon="4.81553">
        <ele>290</ele>
        <time>2014-02-09T10:05:02Z</time>
      </trkpt>
      <trkpt lat="45.86888" lon="4.81555">
        <ele>291</ele>
        <time>2014-02-09T10:05:06Z</time>
      </trkpt>
      <trkpt lat="45.86888" lon="4.81556">
        <ele>291</ele>
        <time>2014-02-09T10:05:07Z</time>
      </trkpt>
      <trkpt lat="45.8689" lon="4.8156">
        <ele>291</ele>
        <time>2014-02-09T10:05:11Z</time>
      </trkpt>
      <trkpt lat="45.86892" lon="4.81558">
        <ele>292</ele>
        <time>2014-02-09T10:05:16Z</time>
      </trkpt>
      <trkpt lat="45.86894" lon="4.81556">
        <ele>292</ele>
        <time>2014-02-09T10:05:21Z</time>
      </trkpt>
      <trkpt lat="45.86896" lon="4.81556">
        <ele>292</ele>
        <time>2014-02-09T10:05:28Z</time>
      </trkpt>
      <trkpt lat="45.86898" lon="4.81553">
        <ele>293</ele>
        <time>2014-02-09T10:05:32Z</time>
      </trkpt>
      <trkpt lat="45.86899" lon="4.81552">
        <ele>293</ele>
        <time>2014-02-09T10:05:33Z</time>
      </trkpt>
      <trkpt lat="45.869" lon="4.81548">
        <ele>293</ele>
        <time>2014-02-09T10:05:38Z</time>
      </trkpt>
      <trkpt lat="45.86901" lon="4.81543">
        <ele>294</ele>
        <time>2014-02-09T10:05:43Z</time>
      </trkpt>
      <trkpt lat="45.869" lon="4.81541">
        <ele>294</ele>
        <time>2014-02-09T10:05:54Z</time>
      </trkpt>
      <trkpt lat="45.869" lon="4.81534">
        <ele>295</ele>
        <time>2014-02-09T10:06:04Z</time>
      </trkpt>
      <trkpt lat="45.86899" lon="4.81528">
        <ele>296</ele>
        <time>2014-02-09T10:06:07Z</time>
      </trkpt>
      <trkpt lat="45.86899" lon="4.81527">
        <ele>296</ele>
        <time>2014-02-09T10:06:08Z</time>
      </trkpt>
      <trkpt lat="45.86898" lon="4.81524">
        <ele>296</ele>
        <time>2014-02-09T10:06:10Z</time>
      </trkpt>
      <trkpt lat="45.86899" lon="4.81517">
        <ele>298</ele>
        <time>2014-02-09T10:06:16Z</time>
      </trkpt>
      <trkpt lat="45.86899" lon="4.81508">
        <ele>300</ele>
        <time>2014-02-09T10:06:23Z</time>
      </trkpt>
      <trkpt lat="45.86899" lon="4.81504">
        <ele>301</ele>
        <time>2014-02-09T10:06:26Z</time>
      </trkpt>
      <trkpt lat="45.86898" lon="4.81497">
        <ele>307</ele>
        <time>2014-02-09T10:06:31Z</time>
      </trkpt>
      <trkpt lat="45.86897" lon="4.81493">
        <ele>307</ele>
        <time>2014-02-09T10:06:33Z</time>
      </trkpt>
      <trkpt lat="45.86898" lon="4.81488">
        <ele>307</ele>
        <time>2014-02-09T10:06:37Z</time>
      </trkpt>
      <trkpt lat="45.86899" lon="4.81488">
        <ele>307</ele>
        <time>2014-02-09T10:06:39Z</time>
      </trkpt>
      <trkpt lat="45.869" lon="4.81487">
        <ele>308</ele>
        <time>2014-02-09T10:06:42Z</time>
      </trkpt>
      <trkpt lat="45.86903" lon="4.81486">
        <ele>308</ele>
        <time>2014-02-09T10:06:47Z</time>
      </trkpt>
      <trkpt lat="45.86904" lon="4.81486">
        <ele>308</ele>
        <time>2014-02-09T10:06:48Z</time>
      </trkpt>
      <trkpt lat="45.86906" lon="4.81485">
        <ele>309</ele>
        <time>2014-02-09T10:06:52Z</time>
      </trkpt>
      <trkpt lat="45.86909" lon="4.81485">
        <ele>309</ele>
        <time>2014-02-09T10:06:56Z</time>
      </trkpt>
      <trkpt lat="45.86914" lon="4.81483">
        <ele>309</ele>
        <time>2014-02-09T10:07:04Z</time>
      </trkpt>
      <trkpt lat="45.86918" lon="4.81485">
        <ele>319</ele>
        <time>2014-02-09T10:07:10Z</time>
      </trkpt>
      <trkpt lat="45.8692" lon="4.81484">
        <ele>319</ele>
        <time>2014-02-09T10:07:15Z</time>
      </trkpt>
      <trkpt lat="45.86921" lon="4.81483">
        <ele>319</ele>
        <time>2014-02-09T10:07:16Z</time>
      </trkpt>
      <trkpt lat="45.86921" lon="4.81479">
        <ele>320</ele>
        <time>2014-02-09T10:07:19Z</time>
      </trkpt>
      <trkpt lat="45.8692" lon="4.81473">
        <ele>321</ele>
        <time>2014-02-09T10:07:24Z</time>
      </trkpt>
      <trkpt lat="45.86919" lon="4.81468">
        <ele>322</ele>
        <time>2014-02-09T10:07:32Z</time>
      </trkpt>
      <trkpt lat="45.86919" lon="4.81467">
        <ele>322</ele>
        <time>2014-02-09T10:07:33Z</time>
      </trkpt>
      <trkpt lat="45.86919" lon="4.8146">
        <ele>323</ele>
        <time>2014-02-09T10:07:37Z</time>
      </trkpt>
      <trkpt lat="45.86919" lon="4.81458">
        <ele>323</ele>
        <time>2014-02-09T10:07:38Z</time>
      </trkpt>
      <trkpt lat="45.86919" lon="4.81456">
        <ele>324</ele>
        <time>2014-02-09T10:07:40Z</time>
      </trkpt>
      <trkpt lat="45.86918" lon="4.81453">
        <ele>324</ele>
        <time>2014-02-09T10:07:42Z</time>
      </trkpt>
      <trkpt lat="45.86918" lon="4.81449">
        <ele>324</ele>
        <time>2014-02-09T10:07:44Z</time>
      </trkpt>
      <trkpt lat="45.86917" lon="4.81444">
        <ele>325</ele>
        <time>2014-02-09T10:07:47Z</time>
      </trkpt>
      <trkpt lat="45.86917" lon="4.81439">
        <ele>326</ele>
        <time>2014-02-09T10:07:50Z</time>
      </trkpt>
      <trkpt lat="45.86915" lon="4.81432">
        <ele>318</ele>
        <time>2014-02-09T10:07:55Z</time>
      </trkpt>
      <trkpt lat="45.86915" lon="4.8143">
        <ele>318</ele>
        <time>2014-02-09T10:07:56Z</time>
      </trkpt>
      <trkpt lat="45.86915" lon="4.81426">
        <ele>321</ele>
        <time>2014-02-09T10:07:59Z</time>
      </trkpt>
      <trkpt lat="45.86915" lon="4.81422">
        <ele>324</ele>
        <time>2014-02-09T10:08:02Z</time>
      </trkpt>
      <trkpt lat="45.86915" lon="4.8142">
        <ele>325</ele>
        <time>2014-02-09T10:08:03Z</time>
      </trkpt>
      <trkpt lat="45.86914" lon="4.81409">
        <ele>326</ele>
        <time>2014-02-09T10:08:10Z</time>
      </trkpt>
      <trkpt lat="45.86913" lon="4.81406">
        <ele>325</ele>
        <time>2014-02-09T10:08:12Z</time>
      </trkpt>
      <trkpt lat="45.86909" lon="4.81398">
        <ele>323</ele>
        <time>2014-02-09T10:08:17Z</time>
      </trkpt>
      <trkpt lat="45.86904" lon="4.81386">
        <ele>322</ele>
        <time>2014-02-09T10:08:24Z</time>
      </trkpt>
      <trkpt lat="45.86903" lon="4.81385">
        <ele>322</ele>
        <time>2014-02-09T10:08:25Z</time>
      </trkpt>
      <trkpt lat="45.86901" lon="4.81378">
        <ele>323</ele>
        <time>2014-02-09T10:08:31Z</time>
      </trkpt>
      <trkpt lat="45.86898" lon="4.81372">
        <ele>323</ele>
        <time>2014-02-09T10:08:41Z</time>
      </trkpt>
      <trkpt lat="45.86894" lon="4.81365">
        <ele>323</ele>
        <time>2014-02-09T10:08:45Z</time>
      </trkpt>
      <trkpt lat="45.86892" lon="4.8136">
        <ele>323</ele>
        <time>2014-02-09T10:08:47Z</time>
      </trkpt>
      <trkpt lat="45.86885" lon="4.81345">
        <ele>323</ele>
        <time>2014-02-09T10:08:53Z</time>
      </trkpt>
      <trkpt lat="45.86885" lon="4.81343">
        <ele>323</ele>
        <time>2014-02-09T10:08:54Z</time>
      </trkpt>
      <trkpt lat="45.86885" lon="4.81342">
        <ele>323</ele>
        <time>2014-02-09T10:08:55Z</time>
      </trkpt>
      <trkpt lat="45.86885" lon="4.81337">
        <ele>324</ele>
        <time>2014-02-09T10:08:58Z</time>
      </trkpt>
      <trkpt lat="45.86885" lon="4.81334">
        <ele>324</ele>
        <time>2014-02-09T10:09:00Z</time>
      </trkpt>
      <trkpt lat="45.86884" lon="4.81327">
        <ele>334</ele>
        <time>2014-02-09T10:09:04Z</time>
      </trkpt>
      <trkpt lat="45.86882" lon="4.81319">
        <ele>333</ele>
        <time>2014-02-09T10:09:10Z</time>
      </trkpt>
      <trkpt lat="45.86881" lon="4.81316">
        <ele>333</ele>
        <time>2014-02-09T10:09:12Z</time>
      </trkpt>
      <trkpt lat="45.86879" lon="4.81309">
        <ele>333</ele>
        <time>2014-02-09T10:09:16Z</time>
      </trkpt>
      <trkpt lat="45.86878" lon="4.81303">
        <ele>334</ele>
        <time>2014-02-09T10:09:21Z</time>
      </trkpt>
      <trkpt lat="45.86875" lon="4.81291">
        <ele>334</ele>
        <time>2014-02-09T10:09:28Z</time>
      </trkpt>
      <trkpt lat="45.86874" lon="4.81287">
        <ele>334</ele>
        <time>2014-02-09T10:09:31Z</time>
      </trkpt>
      <trkpt lat="45.86872" lon="4.81282">
        <ele>334</ele>
        <time>2014-02-09T10:09:34Z</time>
      </trkpt>
      <trkpt lat="45.86871" lon="4.81273">
        <ele>335</ele>
        <time>2014-02-09T10:09:40Z</time>
      </trkpt>
      <trkpt lat="45.86871" lon="4.81272">
        <ele>335</ele>
        <time>2014-02-09T10:09:41Z</time>
      </trkpt>
      <trkpt lat="45.8687" lon="4.81268">
        <ele>335</ele>
        <time>2014-02-09T10:09:44Z</time>
      </trkpt>
      <trkpt lat="45.86869" lon="4.81266">
        <ele>335</ele>
        <time>2014-02-09T10:09:45Z</time>
      </trkpt>
      <trkpt lat="45.86868" lon="4.81257">
        <ele>335</ele>
        <time>2014-02-09T10:09:51Z</time>
      </trkpt>
      <trkpt lat="45.86868" lon="4.81256">
        <ele>335</ele>
        <time>2014-02-09T10:09:52Z</time>
      </trkpt>
      <trkpt lat="45.86869" lon="4.81253">
        <ele>336</ele>
        <time>2014-02-09T10:09:57Z</time>
      </trkpt>
      <trkpt lat="45.86871" lon="4.81253">
        <ele>336</ele>
        <time>2014-02-09T10:10:02Z</time>
      </trkpt>
      <trkpt lat="45.86874" lon="4.81258">
        <ele>337</ele>
        <time>2014-02-09T10:10:08Z</time>
      </trkpt>
      <trkpt lat="45.86875" lon="4.81259">
        <ele>337</ele>
        <time>2014-02-09T10:10:09Z</time>
      </trkpt>
      <trkpt lat="45.86878" lon="4.8126">
        <ele>338</ele>
        <time>2014-02-09T10:10:13Z</time>
      </trkpt>
      <trkpt lat="45.86879" lon="4.81262">
        <ele>338</ele>
        <time>2014-02-09T10:10:16Z</time>
      </trkpt>
      <trkpt lat="45.86881" lon="4.81262">
        <ele>338</ele>
        <time>2014-02-09T10:10:19Z</time>
      </trkpt>
      <trkpt lat="45.86882" lon="4.8126">
        <ele>339</ele>
        <time>2014-02-09T10:10:23Z</time>
      </trkpt>
      <trkpt lat="45.86883" lon="4.81251">
        <ele>339</ele>
        <time>2014-02-09T10:10:30Z</time>
      </trkpt>
      <trkpt lat="45.86883" lon="4.8125">
        <ele>339</ele>
        <time>2014-02-09T10:10:31Z</time>
      </trkpt>
      <trkpt lat="45.86884" lon="4.8125">
        <ele>340</ele>
        <time>2014-02-09T10:10:33Z</time>
      </trkpt>
      <trkpt lat="45.86886" lon="4.81251">
        <ele>340</ele>
        <time>2014-02-09T10:10:35Z</time>
      </trkpt>
      <trkpt lat="45.86889" lon="4.81253">
        <ele>341</ele>
        <time>2014-02-09T10:10:40Z</time>
      </trkpt>
      <trkpt lat="45.86889" lon="4.81248">
        <ele>351</ele>
        <time>2014-02-09T10:10:46Z</time>
      </trkpt>
      <trkpt lat="45.86889" lon="4.81242">
        <ele>351</ele>
        <time>2014-02-09T10:10:50Z</time>
      </trkpt>
      <trkpt lat="45.8689" lon="4.81241">
        <ele>351</ele>
        <time>2014-02-09T10:10:52Z</time>
      </trkpt>
      <trkpt lat="45.86892" lon="4.81242">
        <ele>352</ele>
        <time>2014-02-09T10:10:54Z</time>
      </trkpt>
      <trkpt lat="45.86893" lon="4.81243">
        <ele>352</ele>
        <time>2014-02-09T10:10:55Z</time>
      </trkpt>
      <trkpt lat="45.86895" lon="4.81245">
        <ele>352</ele>
        <time>2014-02-09T10:10:57Z</time>
      </trkpt>
      <trkpt lat="45.86896" lon="4.81246">
        <ele>352</ele>
        <time>2014-02-09T10:10:59Z</time>
      </trkpt>
      <trkpt lat="45.86897" lon="4.81245">
        <ele>352</ele>
        <time>2014-02-09T10:11:01Z</time>
      </trkpt>
      <trkpt lat="45.86897" lon="4.81244">
        <ele>352</ele>
        <time>2014-02-09T10:11:02Z</time>
      </trkpt>
      <trkpt lat="45.86897" lon="4.81238">
        <ele>352</ele>
        <time>2014-02-09T10:11:07Z</time>
      </trkpt>
      <trkpt lat="45.869" lon="4.8124">
        <ele>353</ele>
        <time>2014-02-09T10:11:11Z</time>
      </trkpt>
      <trkpt lat="45.86901" lon="4.81242">
        <ele>353</ele>
        <time>2014-02-09T10:11:13Z</time>
      </trkpt>
      <trkpt lat="45.86902" lon="4.81244">
        <ele>353</ele>
        <time>2014-02-09T10:11:14Z</time>
      </trkpt>
      <trkpt lat="45.86906" lon="4.81248">
        <ele>354</ele>
        <time>2014-02-09T10:11:18Z</time>
      </trkpt>
      <trkpt lat="45.86912" lon="4.81242">
        <ele>355</ele>
        <time>2014-02-09T10:11:24Z</time>
      </trkpt>
      <trkpt lat="45.86914" lon="4.8124">
        <ele>355</ele>
        <time>2014-02-09T10:11:27Z</time>
      </trkpt>
      <trkpt lat="45.86914" lon="4.81239">
        <ele>354</ele>
        <time>2014-02-09T10:11:29Z</time>
      </trkpt>
      <trkpt lat="45.86912" lon="4.81235">
        <ele>354</ele>
        <time>2014-02-09T10:11:32Z</time>
      </trkpt>
      <trkpt lat="45.86912" lon="4.81232">
        <ele>354</ele>
        <time>2014-02-09T10:11:36Z</time>
      </trkpt>
      <trkpt lat="45.86912" lon="4.8123">
        <ele>354</ele>
        <time>2014-02-09T10:11:57Z</time>
      </trkpt>
      <trkpt lat="45.86913" lon="4.81232">
        <ele>354</ele>
        <time>2014-02-09T10:12:04Z</time>
      </trkpt>
      <trkpt lat="45.86914" lon="4.81232">
        <ele>354</ele>
        <time>2014-02-09T10:12:11Z</time>
      </trkpt>
      <trkpt lat="45.86915" lon="4.81234">
        <ele>354</ele>
        <time>2014-02-09T10:12:22Z</time>
      </trkpt>
      <trkpt lat="45.86915" lon="4.81236">
        <ele>354</ele>
        <time>2014-02-09T10:12:38Z</time>
      </trkpt>
      <trkpt lat="45.86915" lon="4.81236">
        <ele>354</ele>
        <time>2014-02-09T10:12:53Z</time>
      </trkpt>
      <trkpt lat="45.86913" lon="4.81234">
        <ele>354</ele>
        <time>2014-02-09T10:13:41Z</time>
      </trkpt>
      <trkpt lat="45.86913" lon="4.81234">
        <ele>354</ele>
        <time>2014-02-09T10:13:44Z</time>
      </trkpt>
      <trkpt lat="45.86912" lon="4.81232">
        <ele>354</ele>
        <time>2014-02-09T10:13:50Z</time>
      </trkpt>
      <trkpt lat="45.86913" lon="4.81231">
        <ele>354</ele>
        <time>2014-02-09T10:14:30Z</time>
      </trkpt>
      <trkpt lat="45.86912" lon="4.81231">
        <ele>354</ele>
        <time>2014-02-09T10:15:27Z</time>
      </trkpt>
      <trkpt lat="45.86913" lon="4.81232">
        <ele>354</ele>
        <time>2014-02-09T10:16:19Z</time>
      </trkpt>
      <trkpt lat="45.86912" lon="4.81228">
        <ele>354</ele>
        <time>2014-02-09T10:16:26Z</time>
      </trkpt>
      <trkpt lat="45.8691" lon="4.81219">
        <ele>354</ele>
        <time>2014-02-09T10:16:33Z</time>
      </trkpt>
      <trkpt lat="45.86906" lon="4.81209">
        <ele>355</ele>
        <time>2014-02-09T10:16:40Z</time>
      </trkpt>
      <trkpt lat="45.86904" lon="4.81206">
        <ele>355</ele>
        <time>2014-02-09T10:16:42Z</time>
      </trkpt>
      <trkpt lat="45.86902" lon="4.812">
        <ele>356</ele>
        <time>2014-02-09T10:16:46Z</time>
      </trkpt>
      <trkpt lat="45.86899" lon="4.81189">
        <ele>358</ele>
        <time>2014-02-09T10:16:52Z</time>
      </trkpt>
      <trkpt lat="45.86898" lon="4.81186">
        <ele>358</ele>
        <time>2014-02-09T10:16:54Z</time>
      </trkpt>
      <trkpt lat="45.86898" lon="4.81182">
        <ele>359</ele>
        <time>2014-02-09T10:16:56Z</time>
      </trkpt>
      <trkpt lat="45.86898" lon="4.81181">
        <ele>359</ele>
        <time>2014-02-09T10:16:57Z</time>
      </trkpt>
      <trkpt lat="45.86898" lon="4.81176">
        <ele>360</ele>
        <time>2014-02-09T10:17:00Z</time>
      </trkpt>
      <trkpt lat="45.86899" lon="4.81168">
        <ele>361</ele>
        <time>2014-02-09T10:17:04Z</time>
      </trkpt>
      <trkpt lat="45.86897" lon="4.81158">
        <ele>368</ele>
        <time>2014-02-09T10:17:10Z</time>
      </trkpt>
      <trkpt lat="45.86896" lon="4.81156">
        <ele>368</ele>
        <time>2014-02-09T10:17:11Z</time>
      </trkpt>
      <trkpt lat="45.86892" lon="4.81146">
        <ele>368</ele>
        <time>2014-02-09T10:17:17Z</time>
      </trkpt>
      <trkpt lat="45.8689" lon="4.81134">
        <ele>368</ele>
        <time>2014-02-09T10:17:23Z</time>
      </trkpt>
      <trkpt lat="45.8689" lon="4.81132">
        <ele>368</ele>
        <time>2014-02-09T10:17:24Z</time>
      </trkpt>
      <trkpt lat="45.86888" lon="4.81122">
        <ele>368</ele>
        <time>2014-02-09T10:17:29Z</time>
      </trkpt>
      <trkpt lat="45.86886" lon="4.81113">
        <ele>369</ele>
        <time>2014-02-09T10:17:34Z</time>
      </trkpt>
      <trkpt lat="45.86884" lon="4.81107">
        <ele>369</ele>
        <time>2014-02-09T10:17:38Z</time>
      </trkpt>
      <trkpt lat="45.86881" lon="4.81095">
        <ele>370</ele>
        <time>2014-02-09T10:17:44Z</time>
      </trkpt>
      <trkpt lat="45.86878" lon="4.81083">
        <ele>376</ele>
        <time>2014-02-09T10:17:51Z</time>
      </trkpt>
      <trkpt lat="45.86876" lon="4.81072">
        <ele>376</ele>
        <time>2014-02-09T10:17:57Z</time>
      </trkpt>
      <trkpt lat="45.86872" lon="4.81059">
        <ele>376</ele>
        <time>2014-02-09T10:18:03Z</time>
      </trkpt>
      <trkpt lat="45.86872" lon="4.81057">
        <ele>376</ele>
        <time>2014-02-09T10:18:04Z</time>
      </trkpt>
      <trkpt lat="45.86872" lon="4.81055">
        <ele>376</ele>
        <time>2014-02-09T10:18:05Z</time>
      </trkpt>
      <trkpt lat="45.86872" lon="4.81049">
        <ele>376</ele>
        <time>2014-02-09T10:18:08Z</time>
      </trkpt>
      <trkpt lat="45.86871" lon="4.81042">
        <ele>377</ele>
        <time>2014-02-09T10:18:12Z</time>
      </trkpt>
      <trkpt lat="45.86871" lon="4.8104">
        <ele>377</ele>
        <time>2014-02-09T10:18:13Z</time>
      </trkpt>
      <trkpt lat="45.8687" lon="4.81033">
        <ele>377</ele>
        <time>2014-02-09T10:18:17Z</time>
      </trkpt>
      <trkpt lat="45.86869" lon="4.81029">
        <ele>377</ele>
        <time>2014-02-09T10:18:19Z</time>
      </trkpt>
      <trkpt lat="45.86868" lon="4.81025">
        <ele>377</ele>
        <time>2014-02-09T10:18:21Z</time>
      </trkpt>
      <trkpt lat="45.86865" lon="4.81017">
        <ele>377</ele>
        <time>2014-02-09T10:18:25Z</time>
      </trkpt>
      <trkpt lat="45.86861" lon="4.81009">
        <ele>376</ele>
        <time>2014-02-09T10:18:30Z</time>
      </trkpt>
      <trkpt lat="45.86861" lon="4.81007">
        <ele>376</ele>
        <time>2014-02-09T10:18:31Z</time>
      </trkpt>
      <trkpt lat="45.8686" lon="4.81005">
        <ele>376</ele>
        <time>2014-02-09T10:18:32Z</time>
      </trkpt>
      <trkpt lat="45.86857" lon="4.80991">
        <ele>381</ele>
        <time>2014-02-09T10:18:40Z</time>
      </trkpt>
      <trkpt lat="45.86856" lon="4.80989">
        <ele>381</ele>
        <time>2014-02-09T10:18:41Z</time>
      </trkpt>
      <trkpt lat="45.86855" lon="4.80984">
        <ele>381</ele>
        <time>2014-02-09T10:18:43Z</time>
      </trkpt>
      <trkpt lat="45.86853" lon="4.80972">
        <ele>382</ele>
        <time>2014-02-09T10:18:48Z</time>
      </trkpt>
      <trkpt lat="45.86853" lon="4.80967">
        <ele>383</ele>
        <time>2014-02-09T10:18:50Z</time>
      </trkpt>
      <trkpt lat="45.86851" lon="4.80959">
        <ele>383</ele>
        <time>2014-02-09T10:18:53Z</time>
      </trkpt>
      <trkpt lat="45.86848" lon="4.80947">
        <ele>384</ele>
        <time>2014-02-09T10:18:57Z</time>
      </trkpt>
      <trkpt lat="45.86847" lon="4.80942">
        <ele>384</ele>
        <time>2014-02-09T10:18:59Z</time>
      </trkpt>
      <trkpt lat="45.86844" lon="4.80933">
        <ele>385</ele>
        <time>2014-02-09T10:19:02Z</time>
      </trkpt>
      <trkpt lat="45.86841" lon="4.80915">
        <ele>387</ele>
        <time>2014-02-09T10:19:08Z</time>
      </trkpt>
      <trkpt lat="45.86838" lon="4.80907">
        <ele>388</ele>
        <time>2014-02-09T10:19:11Z</time>
      </trkpt>
      <trkpt lat="45.86838" lon="4.80904">
        <ele>388</ele>
        <time>2014-02-09T10:19:12Z</time>
      </trkpt>
      <trkpt lat="45.86836" lon="4.80892">
        <ele>390</ele>
        <time>2014-02-09T10:19:17Z</time>
      </trkpt>
      <trkpt lat="45.86833" lon="4.80881">
        <ele>390</ele>
        <time>2014-02-09T10:19:21Z</time>
      </trkpt>
      <trkpt lat="45.86834" lon="4.80872">
        <ele>391</ele>
        <time>2014-02-09T10:19:24Z</time>
      </trkpt>
      <trkpt lat="45.86832" lon="4.80854">
        <ele>381</ele>
        <time>2014-02-09T10:19:30Z</time>
      </trkpt>
      <trkpt lat="45.8683" lon="4.80841">
        <ele>386</ele>
        <time>2014-02-09T10:19:35Z</time>
      </trkpt>
      <trkpt lat="45.86828" lon="4.80826">
        <ele>388</ele>
        <time>2014-02-09T10:19:40Z</time>
      </trkpt>
      <trkpt lat="45.86826" lon="4.80809">
        <ele>386</ele>
        <time>2014-02-09T10:19:46Z</time>
      </trkpt>
      <trkpt lat="45.86825" lon="4.808">
        <ele>386</ele>
        <time>2014-02-09T10:19:49Z</time>
      </trkpt>
      <trkpt lat="45.86824" lon="4.80795">
        <ele>386</ele>
        <time>2014-02-09T10:19:51Z</time>
      </trkpt>
      <trkpt lat="45.86823" lon="4.80781">
        <ele>388</ele>
        <time>2014-02-09T10:19:56Z</time>
      </trkpt>
      <trkpt lat="45.86822" lon="4.8077">
        <ele>389</ele>
        <time>2014-02-09T10:19:59Z</time>
      </trkpt>
      <trkpt lat="45.86822" lon="4.80768">
        <ele>390</ele>
        <time>2014-02-09T10:20:01Z</time>
      </trkpt>
      <trkpt lat="45.86822" lon="4.80748">
        <ele>396</ele>
        <time>2014-02-09T10:20:07Z</time>
      </trkpt>
      <trkpt lat="45.86821" lon="4.80743">
        <ele>395</ele>
        <time>2014-02-09T10:20:09Z</time>
      </trkpt>
      <trkpt lat="45.86821" lon="4.8074">
        <ele>395</ele>
        <time>2014-02-09T10:20:12Z</time>
      </trkpt>
      <trkpt lat="45.86821" lon="4.8074">
        <ele>395</ele>
        <time>2014-02-09T10:20:21Z</time>
      </trkpt>
      <trkpt lat="45.86821" lon="4.8074">
        <ele>395</ele>
        <time>2014-02-09T10:20:31Z</time>
      </trkpt>
      <trkpt lat="45.8682" lon="4.80738">
        <ele>395</ele>
        <time>2014-02-09T10:20:42Z</time>
      </trkpt>
      <trkpt lat="45.86817" lon="4.80735">
        <ele>394</ele>
        <time>2014-02-09T10:20:49Z</time>
      </trkpt>
      <trkpt lat="45.86814" lon="4.80733">
        <ele>394</ele>
        <time>2014-02-09T10:20:56Z</time>
      </trkpt>
      <trkpt lat="45.86808" lon="4.80733">
        <ele>393</ele>
        <time>2014-02-09T10:21:01Z</time>
      </trkpt>
      <trkpt lat="45.86807" lon="4.80732">
        <ele>393</ele>
        <time>2014-02-09T10:21:02Z</time>
      </trkpt>
      <trkpt lat="45.86799" lon="4.80738">
        <ele>391</ele>
        <time>2014-02-09T10:21:07Z</time>
      </trkpt>
      <trkpt lat="45.86796" lon="4.80742">
        <ele>391</ele>
        <time>2014-02-09T10:21:09Z</time>
      </trkpt>
      <trkpt lat="45.8679" lon="4.80744">
        <ele>390</ele>
        <time>2014-02-09T10:21:12Z</time>
      </trkpt>
      <trkpt lat="45.86785" lon="4.80745">
        <ele>389</ele>
        <time>2014-02-09T10:21:15Z</time>
      </trkpt>
      <trkpt lat="45.86784" lon="4.80745">
        <ele>388</ele>
        <time>2014-02-09T10:21:16Z</time>
      </trkpt>
      <trkpt lat="45.86782" lon="4.80746">
        <ele>388</ele>
        <time>2014-02-09T10:21:17Z</time>
      </trkpt>
      <trkpt lat="45.86778" lon="4.80746">
        <ele>387</ele>
        <time>2014-02-09T10:21:21Z</time>
      </trkpt>
      <trkpt lat="45.86771" lon="4.80744">
        <ele>385</ele>
        <time>2014-02-09T10:21:24Z</time>
      </trkpt>
      <trkpt lat="45.86768" lon="4.80741">
        <ele>385</ele>
        <time>2014-02-09T10:21:26Z</time>
      </trkpt>
      <trkpt lat="45.86766" lon="4.80739">
        <ele>384</ele>
        <time>2014-02-09T10:21:27Z</time>
      </trkpt>
      <trkpt lat="45.86759" lon="4.80735">
        <ele>384</ele>
        <time>2014-02-09T10:21:30Z</time>
      </trkpt>
      <trkpt lat="45.86754" lon="4.80733">
        <ele>383</ele>
        <time>2014-02-09T10:21:32Z</time>
      </trkpt>
      <trkpt lat="45.86746" lon="4.8073">
        <ele>376</ele>
        <time>2014-02-09T10:21:35Z</time>
      </trkpt>
      <trkpt lat="45.86737" lon="4.80721">
        <ele>376</ele>
        <time>2014-02-09T10:21:38Z</time>
      </trkpt>
      <trkpt lat="45.86735" lon="4.80717">
        <ele>377</ele>
        <time>2014-02-09T10:21:39Z</time>
      </trkpt>
      <trkpt lat="45.8673" lon="4.80712">
        <ele>377</ele>
        <time>2014-02-09T10:21:43Z</time>
      </trkpt>
      <trkpt lat="45.86731" lon="4.80712">
        <ele>377</ele>
        <time>2014-02-09T10:21:46Z</time>
      </trkpt>
      <trkpt lat="45.8673" lon="4.80714">
        <ele>377</ele>
        <time>2014-02-09T10:21:48Z</time>
      </trkpt>
      <trkpt lat="45.86726" lon="4.80716">
        <ele>376</ele>
        <time>2014-02-09T10:21:50Z</time>
      </trkpt>
      <trkpt lat="45.86724" lon="4.80716">
        <ele>376</ele>
        <time>2014-02-09T10:21:52Z</time>
      </trkpt>
      <trkpt lat="45.86723" lon="4.80716">
        <ele>376</ele>
        <time>2014-02-09T10:21:53Z</time>
      </trkpt>
      <trkpt lat="45.86722" lon="4.80718">
        <ele>376</ele>
        <time>2014-02-09T10:21:55Z</time>
      </trkpt>
      <trkpt lat="45.86719" lon="4.80723">
        <ele>376</ele>
        <time>2014-02-09T10:21:58Z</time>
      </trkpt>
      <trkpt lat="45.86714" lon="4.80735">
        <ele>375</ele>
        <time>2014-02-09T10:22:03Z</time>
      </trkpt>
      <trkpt lat="45.86713" lon="4.80739">
        <ele>374</ele>
        <time>2014-02-09T10:22:05Z</time>
      </trkpt>
      <trkpt lat="45.86713" lon="4.80741">
        <ele>374</ele>
        <time>2014-02-09T10:22:06Z</time>
      </trkpt>
      <trkpt lat="45.86713" lon="4.80746">
        <ele>374</ele>
        <time>2014-02-09T10:22:08Z</time>
      </trkpt>
      <trkpt lat="45.8671" lon="4.80758">
        <ele>366</ele>
        <time>2014-02-09T10:22:13Z</time>
      </trkpt>
      <trkpt lat="45.86708" lon="4.80766">
        <ele>365</ele>
        <time>2014-02-09T10:22:16Z</time>
      </trkpt>
      <trkpt lat="45.86708" lon="4.80772">
        <ele>365</ele>
        <time>2014-02-09T10:22:18Z</time>
      </trkpt>
      <trkpt lat="45.86711" lon="4.80783">
        <ele>364</ele>
        <time>2014-02-09T10:22:22Z</time>
      </trkpt>
      <trkpt lat="45.86711" lon="4.80786">
        <ele>364</ele>
        <time>2014-02-09T10:22:23Z</time>
      </trkpt>
      <trkpt lat="45.86712" lon="4.80793">
        <ele>364</ele>
        <time>2014-02-09T10:22:25Z</time>
      </trkpt>
      <trkpt lat="45.86712" lon="4.80795">
        <ele>364</ele>
        <time>2014-02-09T10:22:26Z</time>
      </trkpt>
      <trkpt lat="45.86712" lon="4.80803">
        <ele>363</ele>
        <time>2014-02-09T10:22:30Z</time>
      </trkpt>
      <trkpt lat="45.86712" lon="4.80804">
        <ele>363</ele>
        <time>2014-02-09T10:22:31Z</time>
      </trkpt>
      <trkpt lat="45.86713" lon="4.80807">
        <ele>363</ele>
        <time>2014-02-09T10:22:33Z</time>
      </trkpt>
      <trkpt lat="45.86718" lon="4.80816">
        <ele>363</ele>
        <time>2014-02-09T10:22:37Z</time>
      </trkpt>
      <trkpt lat="45.8672" lon="4.80818">
        <ele>363</ele>
        <time>2014-02-09T10:22:38Z</time>
      </trkpt>
      <trkpt lat="45.86724" lon="4.80827">
        <ele>363</ele>
        <time>2014-02-09T10:22:42Z</time>
      </trkpt>
      <trkpt lat="45.86726" lon="4.80844">
        <ele>353</ele>
        <time>2014-02-09T10:22:48Z</time>
      </trkpt>
      <trkpt lat="45.86729" lon="4.80857">
        <ele>351</ele>
        <time>2014-02-09T10:22:53Z</time>
      </trkpt>
      <trkpt lat="45.86729" lon="4.80862">
        <ele>350</ele>
        <time>2014-02-09T10:22:55Z</time>
      </trkpt>
      <trkpt lat="45.86728" lon="4.80871">
        <ele>349</ele>
        <time>2014-02-09T10:22:58Z</time>
      </trkpt>
      <trkpt lat="45.86726" lon="4.8088">
        <ele>347</ele>
        <time>2014-02-09T10:23:01Z</time>
      </trkpt>
      <trkpt lat="45.86726" lon="4.8088">
        <ele>347</ele>
        <time>2014-02-09T10:23:02Z</time>
      </trkpt>
      <trkpt lat="45.86724" lon="4.80889">
        <ele>346</ele>
        <time>2014-02-09T10:23:07Z</time>
      </trkpt>
      <trkpt lat="45.86725" lon="4.80898">
        <ele>345</ele>
        <time>2014-02-09T10:23:11Z</time>
      </trkpt>
      <trkpt lat="45.86725" lon="4.80899">
        <ele>345</ele>
        <time>2014-02-09T10:23:12Z</time>
      </trkpt>
      <trkpt lat="45.86728" lon="4.80913">
        <ele>345</ele>
        <time>2014-02-09T10:23:19Z</time>
      </trkpt>
      <trkpt lat="45.86727" lon="4.8092">
        <ele>335</ele>
        <time>2014-02-09T10:23:23Z</time>
      </trkpt>
      <trkpt lat="45.86725" lon="4.80923">
        <ele>334</ele>
        <time>2014-02-09T10:23:25Z</time>
      </trkpt>
      <trkpt lat="45.86725" lon="4.80924">
        <ele>334</ele>
        <time>2014-02-09T10:23:26Z</time>
      </trkpt>
      <trkpt lat="45.86725" lon="4.80926">
        <ele>334</ele>
        <time>2014-02-09T10:23:30Z</time>
      </trkpt>
      <trkpt lat="45.86721" lon="4.80928">
        <ele>333</ele>
        <time>2014-02-09T10:23:41Z</time>
      </trkpt>
      <trkpt lat="45.86716" lon="4.80926">
        <ele>332</ele>
        <time>2014-02-09T10:23:45Z</time>
      </trkpt>
      <trkpt lat="45.86707" lon="4.80923">
        <ele>330</ele>
        <time>2014-02-09T10:23:49Z</time>
      </trkpt>
      <trkpt lat="45.86706" lon="4.80924">
        <ele>330</ele>
        <time>2014-02-09T10:23:50Z</time>
      </trkpt>
      <trkpt lat="45.86704" lon="4.80926">
        <ele>330</ele>
        <time>2014-02-09T10:23:51Z</time>
      </trkpt>
      <trkpt lat="45.86693" lon="4.80932">
        <ele>328</ele>
        <time>2014-02-09T10:23:57Z</time>
      </trkpt>
      <trkpt lat="45.86688" lon="4.80932">
        <ele>327</ele>
        <time>2014-02-09T10:23:59Z</time>
      </trkpt>
      <trkpt lat="45.86683" lon="4.80931">
        <ele>327</ele>
        <time>2014-02-09T10:24:02Z</time>
      </trkpt>
      <trkpt lat="45.86669" lon="4.80924">
        <ele>326</ele>
        <time>2014-02-09T10:24:08Z</time>
      </trkpt>
      <trkpt lat="45.86667" lon="4.80923">
        <ele>326</ele>
        <time>2014-02-09T10:24:09Z</time>
      </trkpt>
      <trkpt lat="45.86657" lon="4.80919">
        <ele>323</ele>
        <time>2014-02-09T10:24:14Z</time>
      </trkpt>
      <trkpt lat="45.86651" lon="4.80916">
        <ele>331</ele>
        <time>2014-02-09T10:24:17Z</time>
      </trkpt>
      <trkpt lat="45.86647" lon="4.80915">
        <ele>332</ele>
        <time>2014-02-09T10:24:19Z</time>
      </trkpt>
      <trkpt lat="45.86633" lon="4.80914">
        <ele>334</ele>
        <time>2014-02-09T10:24:26Z</time>
      </trkpt>
      <trkpt lat="45.86621" lon="4.80917">
        <ele>322</ele>
        <time>2014-02-09T10:24:33Z</time>
      </trkpt>
      <trkpt lat="45.86615" lon="4.80921">
        <ele>322</ele>
        <time>2014-02-09T10:24:38Z</time>
      </trkpt>
      <trkpt lat="45.86614" lon="4.80921">
        <ele>322</ele>
        <time>2014-02-09T10:24:39Z</time>
      </trkpt>
      <trkpt lat="45.86611" lon="4.80922">
        <ele>322</ele>
        <time>2014-02-09T10:24:42Z</time>
      </trkpt>
      <trkpt lat="45.86608" lon="4.80922">
        <ele>323</ele>
        <time>2014-02-09T10:24:45Z</time>
      </trkpt>
      <trkpt lat="45.86603" lon="4.80922">
        <ele>323</ele>
        <time>2014-02-09T10:24:50Z</time>
      </trkpt>
      <trkpt lat="45.86601" lon="4.80923">
        <ele>323</ele>
        <time>2014-02-09T10:24:52Z</time>
      </trkpt>
      <trkpt lat="45.86598" lon="4.80926">
        <ele>323</ele>
        <time>2014-02-09T10:24:55Z</time>
      </trkpt>
      <trkpt lat="45.86595" lon="4.80932">
        <ele>323</ele>
        <time>2014-02-09T10:25:02Z</time>
      </trkpt>
      <trkpt lat="45.86591" lon="4.80936">
        <ele>323</ele>
        <time>2014-02-09T10:25:05Z</time>
      </trkpt>
      <trkpt lat="45.86589" lon="4.8094">
        <ele>322</ele>
        <time>2014-02-09T10:25:07Z</time>
      </trkpt>
      <trkpt lat="45.86587" lon="4.80941">
        <ele>322</ele>
        <time>2014-02-09T10:25:08Z</time>
      </trkpt>
      <trkpt lat="45.86583" lon="4.80942">
        <ele>322</ele>
        <time>2014-02-09T10:25:11Z</time>
      </trkpt>
      <trkpt lat="45.86582" lon="4.80942">
        <ele>322</ele>
        <time>2014-02-09T10:25:12Z</time>
      </trkpt>
      <trkpt lat="45.86576" lon="4.80941">
        <ele>322</ele>
        <time>2014-02-09T10:25:17Z</time>
      </trkpt>
      <trkpt lat="45.86574" lon="4.80942">
        <ele>322</ele>
        <time>2014-02-09T10:25:20Z</time>
      </trkpt>
      <trkpt lat="45.86571" lon="4.80941">
        <ele>322</ele>
        <time>2014-02-09T10:25:22Z</time>
      </trkpt>
      <trkpt lat="45.86564" lon="4.8094">
        <ele>322</ele>
        <time>2014-02-09T10:25:27Z</time>
      </trkpt>
      <trkpt lat="45.86558" lon="4.80938">
        <ele>322</ele>
        <time>2014-02-09T10:25:30Z</time>
      </trkpt>
      <trkpt lat="45.86545" lon="4.80933">
        <ele>322</ele>
        <time>2014-02-09T10:25:36Z</time>
      </trkpt>
      <trkpt lat="45.86533" lon="4.80926">
        <ele>322</ele>
        <time>2014-02-09T10:25:42Z</time>
      </trkpt>
      <trkpt lat="45.86526" lon="4.80923">
        <ele>323</ele>
        <time>2014-02-09T10:25:45Z</time>
      </trkpt>
      <trkpt lat="45.86517" lon="4.80915">
        <ele>332</ele>
        <time>2014-02-09T10:25:50Z</time>
      </trkpt>
      <trkpt lat="45.8651" lon="4.8091">
        <ele>331</ele>
        <time>2014-02-09T10:25:54Z</time>
      </trkpt>
      <trkpt lat="45.86508" lon="4.80909">
        <ele>331</ele>
        <time>2014-02-09T10:25:55Z</time>
      </trkpt>
      <trkpt lat="45.86494" lon="4.809">
        <ele>330</ele>
        <time>2014-02-09T10:26:02Z</time>
      </trkpt>
      <trkpt lat="45.86493" lon="4.80899">
        <ele>330</ele>
        <time>2014-02-09T10:26:03Z</time>
      </trkpt>
      <trkpt lat="45.86482" lon="4.8089">
        <ele>332</ele>
        <time>2014-02-09T10:26:09Z</time>
      </trkpt>
      <trkpt lat="45.86477" lon="4.80885">
        <ele>332</ele>
        <time>2014-02-09T10:26:12Z</time>
      </trkpt>
      <trkpt lat="45.86472" lon="4.8088">
        <ele>332</ele>
        <time>2014-02-09T10:26:15Z</time>
      </trkpt>
      <trkpt lat="45.86466" lon="4.80874">
        <ele>333</ele>
        <time>2014-02-09T10:26:20Z</time>
      </trkpt>
      <trkpt lat="45.86462" lon="4.8087">
        <ele>333</ele>
        <time>2014-02-09T10:26:24Z</time>
      </trkpt>
      <trkpt lat="45.86461" lon="4.80868">
        <ele>333</ele>
        <time>2014-02-09T10:26:25Z</time>
      </trkpt>
      <trkpt lat="45.86457" lon="4.80863">
        <ele>333</ele>
        <time>2014-02-09T10:26:29Z</time>
      </trkpt>
      <trkpt lat="45.86455" lon="4.8086">
        <ele>334</ele>
        <time>2014-02-09T10:26:31Z</time>
      </trkpt>
      <trkpt lat="45.86449" lon="4.80852">
        <ele>334</ele>
        <time>2014-02-09T10:26:37Z</time>
      </trkpt>
      <trkpt lat="45.8644" lon="4.80842">
        <ele>334</ele>
        <time>2014-02-09T10:26:45Z</time>
      </trkpt>
      <trkpt lat="45.86434" lon="4.80835">
        <ele>335</ele>
        <time>2014-02-09T10:26:51Z</time>
      </trkpt>
      <trkpt lat="45.8643" lon="4.80831">
        <ele>342</ele>
        <time>2014-02-09T10:26:55Z</time>
      </trkpt>
      <trkpt lat="45.86427" lon="4.80827">
        <ele>341</ele>
        <time>2014-02-09T10:26:58Z</time>
      </trkpt>
      <trkpt lat="45.86421" lon="4.8082">
        <ele>342</ele>
        <time>2014-02-09T10:27:04Z</time>
      </trkpt>
      <trkpt lat="45.8642" lon="4.80818">
        <ele>342</ele>
        <time>2014-02-09T10:27:05Z</time>
      </trkpt>
      <trkpt lat="45.86415" lon="4.80812">
        <ele>338</ele>
        <time>2014-02-09T10:27:10Z</time>
      </trkpt>
      <trkpt lat="45.86411" lon="4.80808">
        <ele>339</ele>
        <time>2014-02-09T10:27:14Z</time>
      </trkpt>
      <trkpt lat="45.86409" lon="4.80806">
        <ele>339</ele>
        <time>2014-02-09T10:27:16Z</time>
      </trkpt>
      <trkpt lat="45.86407" lon="4.80802">
        <ele>339</ele>
        <time>2014-02-09T10:27:19Z</time>
      </trkpt>
      <trkpt lat="45.86406" lon="4.80801">
        <ele>339</ele>
        <time>2014-02-09T10:27:20Z</time>
      </trkpt>
      <trkpt lat="45.86404" lon="4.80798">
        <ele>339</ele>
        <time>2014-02-09T10:27:23Z</time>
      </trkpt>
      <trkpt lat="45.86398" lon="4.8079">
        <ele>340</ele>
        <time>2014-02-09T10:27:31Z</time>
      </trkpt>
      <trkpt lat="45.86395" lon="4.80779">
        <ele>341</ele>
        <time>2014-02-09T10:27:37Z</time>
      </trkpt>
      <trkpt lat="45.86394" lon="4.80777">
        <ele>341</ele>
        <time>2014-02-09T10:27:38Z</time>
      </trkpt>
      <trkpt lat="45.86393" lon="4.80762">
        <ele>342</ele>
        <time>2014-02-09T10:27:45Z</time>
      </trkpt>
      <trkpt lat="45.86394" lon="4.80754">
        <ele>343</ele>
        <time>2014-02-09T10:27:49Z</time>
      </trkpt>
      <trkpt lat="45.86395" lon="4.80747">
        <ele>347</ele>
        <time>2014-02-09T10:27:52Z</time>
      </trkpt>
      <trkpt lat="45.86396" lon="4.80733">
        <ele>347</ele>
        <time>2014-02-09T10:27:59Z</time>
      </trkpt>
      <trkpt lat="45.86397" lon="4.80728">
        <ele>347</ele>
        <time>2014-02-09T10:28:01Z</time>
      </trkpt>
      <trkpt lat="45.86398" lon="4.80717">
        <ele>347</ele>
        <time>2014-02-09T10:28:06Z</time>
      </trkpt>
      <trkpt lat="45.86401" lon="4.80701">
        <ele>348</ele>
        <time>2014-02-09T10:28:13Z</time>
      </trkpt>
      <trkpt lat="45.86401" lon="4.80698">
        <ele>348</ele>
        <time>2014-02-09T10:28:14Z</time>
      </trkpt>
      <trkpt lat="45.864" lon="4.80676">
        <ele>351</ele>
        <time>2014-02-09T10:28:23Z</time>
      </trkpt>
      <trkpt lat="45.864" lon="4.80674">
        <ele>351</ele>
        <time>2014-02-09T10:28:24Z</time>
      </trkpt>
      <trkpt lat="45.86398" lon="4.80661">
        <ele>354</ele>
        <time>2014-02-09T10:28:30Z</time>
      </trkpt>
      <trkpt lat="45.86394" lon="4.80648">
        <ele>354</ele>
        <time>2014-02-09T10:28:36Z</time>
      </trkpt>
      <trkpt lat="45.86392" lon="4.80642">
        <ele>354</ele>
        <time>2014-02-09T10:28:39Z</time>
      </trkpt>
      <trkpt lat="45.86386" lon="4.80628">
        <ele>354</ele>
        <time>2014-02-09T10:28:46Z</time>
      </trkpt>
      <trkpt lat="45.86385" lon="4.80624">
        <ele>354</ele>
        <time>2014-02-09T10:28:48Z</time>
      </trkpt>
      <trkpt lat="45.8638" lon="4.80613">
        <ele>355</ele>
        <time>2014-02-09T10:28:54Z</time>
      </trkpt>
      <trkpt lat="45.86374" lon="4.80603">
        <ele>355</ele>
        <time>2014-02-09T10:29:00Z</time>
      </trkpt>
      <trkpt lat="45.86372" lon="4.806">
        <ele>355</ele>
        <time>2014-02-09T10:29:02Z</time>
      </trkpt>
      <trkpt lat="45.86362" lon="4.80586">
        <ele>354</ele>
        <time>2014-02-09T10:29:09Z</time>
      </trkpt>
      <trkpt lat="45.8636" lon="4.80584">
        <ele>354</ele>
        <time>2014-02-09T10:29:10Z</time>
      </trkpt>
      <trkpt lat="45.86358" lon="4.80582">
        <ele>360</ele>
        <time>2014-02-09T10:29:12Z</time>
      </trkpt>
      <trkpt lat="45.86357" lon="4.80582">
        <ele>359</ele>
        <time>2014-02-09T10:29:14Z</time>
      </trkpt>
      <trkpt lat="45.86352" lon="4.80581">
        <ele>358</ele>
        <time>2014-02-09T10:29:20Z</time>
      </trkpt>
      <trkpt lat="45.86344" lon="4.80575">
        <ele>357</ele>
        <time>2014-02-09T10:29:26Z</time>
      </trkpt>
      <trkpt lat="45.86339" lon="4.80571">
        <ele>357</ele>
        <time>2014-02-09T10:29:28Z</time>
      </trkpt>
      <trkpt lat="45.86327" lon="4.80559">
        <ele>355</ele>
        <time>2014-02-09T10:29:34Z</time>
      </trkpt>
      <trkpt lat="45.86313" lon="4.8054">
        <ele>357</ele>
        <time>2014-02-09T10:29:42Z</time>
      </trkpt>
      <trkpt lat="45.86312" lon="4.80537">
        <ele>357</ele>
        <time>2014-02-09T10:29:43Z</time>
      </trkpt>
      <trkpt lat="45.86307" lon="4.80525">
        <ele>358</ele>
        <time>2014-02-09T10:29:47Z</time>
      </trkpt>
      <trkpt lat="45.86303" lon="4.80521">
        <ele>358</ele>
        <time>2014-02-09T10:29:50Z</time>
      </trkpt>
      <trkpt lat="45.86295" lon="4.80514">
        <ele>358</ele>
        <time>2014-02-09T10:29:53Z</time>
      </trkpt>
      <trkpt lat="45.86285" lon="4.80505">
        <ele>359</ele>
        <time>2014-02-09T10:29:58Z</time>
      </trkpt>
      <trkpt lat="45.86283" lon="4.80504">
        <ele>359</ele>
        <time>2014-02-09T10:29:59Z</time>
      </trkpt>
      <trkpt lat="45.86273" lon="4.805">
        <ele>367</ele>
        <time>2014-02-09T10:30:04Z</time>
      </trkpt>
      <trkpt lat="45.86267" lon="4.80499">
        <ele>366</ele>
        <time>2014-02-09T10:30:07Z</time>
      </trkpt>
      <trkpt lat="45.86263" lon="4.80499">
        <ele>366</ele>
        <time>2014-02-09T10:30:09Z</time>
      </trkpt>
      <trkpt lat="45.86252" lon="4.80506">
        <ele>361</ele>
        <time>2014-02-09T10:30:15Z</time>
      </trkpt>
      <trkpt lat="45.86249" lon="4.80509">
        <ele>362</ele>
        <time>2014-02-09T10:30:17Z</time>
      </trkpt>
      <trkpt lat="45.86243" lon="4.80513">
        <ele>361</ele>
        <time>2014-02-09T10:30:21Z</time>
      </trkpt>
      <trkpt lat="45.86237" lon="4.80519">
        <ele>360</ele>
        <time>2014-02-09T10:30:26Z</time>
      </trkpt>
      <trkpt lat="45.86233" lon="4.80522">
        <ele>360</ele>
        <time>2014-02-09T10:30:29Z</time>
      </trkpt>
      <trkpt lat="45.8623" lon="4.80524">
        <ele>360</ele>
        <time>2014-02-09T10:30:32Z</time>
      </trkpt>
      <trkpt lat="45.8622" lon="4.8053">
        <ele>360</ele>
        <time>2014-02-09T10:30:38Z</time>
      </trkpt>
      <trkpt lat="45.86214" lon="4.80531">
        <ele>360</ele>
        <time>2014-02-09T10:30:42Z</time>
      </trkpt>
      <trkpt lat="45.86212" lon="4.80531">
        <ele>360</ele>
        <time>2014-02-09T10:30:44Z</time>
      </trkpt>
      <trkpt lat="45.86198" lon="4.80533">
        <ele>361</ele>
        <time>2014-02-09T10:30:51Z</time>
      </trkpt>
      <trkpt lat="45.86196" lon="4.80532">
        <ele>361</ele>
        <time>2014-02-09T10:30:52Z</time>
      </trkpt>
      <trkpt lat="45.86182" lon="4.80529">
        <ele>362</ele>
        <time>2014-02-09T10:30:58Z</time>
      </trkpt>
      <trkpt lat="45.86177" lon="4.80528">
        <ele>362</ele>
        <time>2014-02-09T10:31:00Z</time>
      </trkpt>
      <trkpt lat="45.86165" lon="4.80524">
        <ele>365</ele>
        <time>2014-02-09T10:31:05Z</time>
      </trkpt>
      <trkpt lat="45.86157" lon="4.80526">
        <ele>365</ele>
        <time>2014-02-09T10:31:08Z</time>
      </trkpt>
      <trkpt lat="45.86155" lon="4.80529">
        <ele>364</ele>
        <time>2014-02-09T10:31:09Z</time>
      </trkpt>
      <trkpt lat="45.86152" lon="4.80543">
        <ele>363</ele>
        <time>2014-02-09T10:31:14Z</time>
      </trkpt>
      <trkpt lat="45.86153" lon="4.80552">
        <ele>362</ele>
        <time>2014-02-09T10:31:17Z</time>
      </trkpt>
      <trkpt lat="45.86152" lon="4.80555">
        <ele>362</ele>
        <time>2014-02-09T10:31:18Z</time>
      </trkpt>
      <trkpt lat="45.86151" lon="4.80559">
        <ele>361</ele>
        <time>2014-02-09T10:31:19Z</time>
      </trkpt>
      <trkpt lat="45.86149" lon="4.80577">
        <ele>360</ele>
        <time>2014-02-09T10:31:24Z</time>
      </trkpt>
      <trkpt lat="45.86149" lon="4.80581">
        <ele>359</ele>
        <time>2014-02-09T10:31:25Z</time>
      </trkpt>
      <trkpt lat="45.86146" lon="4.80604">
        <ele>356</ele>
        <time>2014-02-09T10:31:31Z</time>
      </trkpt>
      <trkpt lat="45.86146" lon="4.80604">
        <ele>356</ele>
        <time>2014-02-09T10:31:32Z</time>
      </trkpt>
      <trkpt lat="45.86143" lon="4.80633">
        <ele>355</ele>
        <time>2014-02-09T10:31:39Z</time>
      </trkpt>
      <trkpt lat="45.86143" lon="4.80652">
        <ele>355</ele>
        <time>2014-02-09T10:31:44Z</time>
      </trkpt>
      <trkpt lat="45.86142" lon="4.80659">
        <ele>355</ele>
        <time>2014-02-09T10:31:46Z</time>
      </trkpt>
      <trkpt lat="45.8614" lon="4.8068">
        <ele>354</ele>
        <time>2014-02-09T10:31:52Z</time>
      </trkpt>
      <trkpt lat="45.86139" lon="4.80687">
        <ele>354</ele>
        <time>2014-02-09T10:31:54Z</time>
      </trkpt>
      <trkpt lat="45.86138" lon="4.80697">
        <ele>354</ele>
        <time>2014-02-09T10:31:57Z</time>
      </trkpt>
      <trkpt lat="45.86137" lon="4.80714">
        <ele>355</ele>
        <time>2014-02-09T10:32:02Z</time>
      </trkpt>
      <trkpt lat="45.86137" lon="4.80721">
        <ele>355</ele>
        <time>2014-02-09T10:32:04Z</time>
      </trkpt>
      <trkpt lat="45.86134" lon="4.80741">
        <ele>355</ele>
        <time>2014-02-09T10:32:10Z</time>
      </trkpt>
      <trkpt lat="45.86129" lon="4.80755">
        <ele>355</ele>
        <time>2014-02-09T10:32:15Z</time>
      </trkpt>
      <trkpt lat="45.86127" lon="4.80759">
        <ele>355</ele>
        <time>2014-02-09T10:32:19Z</time>
      </trkpt>
      <trkpt lat="45.86126" lon="4.80759">
        <ele>355</ele>
        <time>2014-02-09T10:32:22Z</time>
      </trkpt>
      <trkpt lat="45.86126" lon="4.80756">
        <ele>355</ele>
        <time>2014-02-09T10:32:36Z</time>
      </trkpt>
      <trkpt lat="45.86127" lon="4.80755">
        <ele>355</ele>
        <time>2014-02-09T10:32:39Z</time>
      </trkpt>
      <trkpt lat="45.86123" lon="4.80753">
        <ele>354</ele>
        <time>2014-02-09T10:32:45Z</time>
      </trkpt>
      <trkpt lat="45.86112" lon="4.80754">
        <ele>354</ele>
        <time>2014-02-09T10:32:53Z</time>
      </trkpt>
      <trkpt lat="45.86109" lon="4.80754">
        <ele>354</ele>
        <time>2014-02-09T10:32:55Z</time>
      </trkpt>
      <trkpt lat="45.86098" lon="4.80754">
        <ele>354</ele>
        <time>2014-02-09T10:33:00Z</time>
      </trkpt>
      <trkpt lat="45.8609" lon="4.80751">
        <ele>354</ele>
        <time>2014-02-09T10:33:04Z</time>
      </trkpt>
      <trkpt lat="45.86085" lon="4.80748">
        <ele>354</ele>
        <time>2014-02-09T10:33:06Z</time>
      </trkpt>
      <trkpt lat="45.86074" lon="4.80735">
        <ele>352</ele>
        <time>2014-02-09T10:33:12Z</time>
      </trkpt>
      <trkpt lat="45.86062" lon="4.80722">
        <ele>352</ele>
        <time>2014-02-09T10:33:18Z</time>
      </trkpt>
      <trkpt lat="45.86058" lon="4.80719">
        <ele>352</ele>
        <time>2014-02-09T10:33:20Z</time>
      </trkpt>
      <trkpt lat="45.86052" lon="4.80716">
        <ele>351</ele>
        <time>2014-02-09T10:33:23Z</time>
      </trkpt>
      <trkpt lat="45.8604" lon="4.80708">
        <ele>351</ele>
        <time>2014-02-09T10:33:28Z</time>
      </trkpt>
      <trkpt lat="45.86037" lon="4.80707">
        <ele>351</ele>
        <time>2014-02-09T10:33:29Z</time>
      </trkpt>
      <trkpt lat="45.86024" lon="4.80696">
        <ele>351</ele>
        <time>2014-02-09T10:33:35Z</time>
      </trkpt>
      <trkpt lat="45.8601" lon="4.80685">
        <ele>351</ele>
        <time>2014-02-09T10:33:41Z</time>
      </trkpt>
      <trkpt lat="45.86006" lon="4.80682">
        <ele>351</ele>
        <time>2014-02-09T10:33:43Z</time>
      </trkpt>
      <trkpt lat="45.85999" lon="4.80678">
        <ele>347</ele>
        <time>2014-02-09T10:33:46Z</time>
      </trkpt>
      <trkpt lat="45.85987" lon="4.8067">
        <ele>347</ele>
        <time>2014-02-09T10:33:51Z</time>
      </trkpt>
      <trkpt lat="45.85985" lon="4.80669">
        <ele>346</ele>
        <time>2014-02-09T10:33:52Z</time>
      </trkpt>
      <trkpt lat="45.85972" lon="4.80661">
        <ele>349</ele>
        <time>2014-02-09T10:33:58Z</time>
      </trkpt>
      <trkpt lat="45.85969" lon="4.80659">
        <ele>349</ele>
        <time>2014-02-09T10:33:59Z</time>
      </trkpt>
      <trkpt lat="45.85958" lon="4.80656">
        <ele>348</ele>
        <time>2014-02-09T10:34:04Z</time>
      </trkpt>
      <trkpt lat="45.8595" lon="4.80655">
        <ele>347</ele>
        <time>2014-02-09T10:34:08Z</time>
      </trkpt>
      <trkpt lat="45.85948" lon="4.80654">
        <ele>347</ele>
        <time>2014-02-09T10:34:09Z</time>
      </trkpt>
      <trkpt lat="45.85931" lon="4.80652">
        <ele>345</ele>
        <time>2014-02-09T10:34:18Z</time>
      </trkpt>
      <trkpt lat="45.85921" lon="4.80647">
        <ele>345</ele>
        <time>2014-02-09T10:34:24Z</time>
      </trkpt>
      <trkpt lat="45.85913" lon="4.80642">
        <ele>342</ele>
        <time>2014-02-09T10:34:28Z</time>
      </trkpt>
      <trkpt lat="45.85911" lon="4.80641">
        <ele>342</ele>
        <time>2014-02-09T10:34:29Z</time>
      </trkpt>
      <trkpt lat="45.85898" lon="4.80634">
        <ele>343</ele>
        <time>2014-02-09T10:34:35Z</time>
      </trkpt>
      <trkpt lat="45.85896" lon="4.80632">
        <ele>343</ele>
        <time>2014-02-09T10:34:36Z</time>
      </trkpt>
      <trkpt lat="45.85894" lon="4.8063">
        <ele>343</ele>
        <time>2014-02-09T10:34:38Z</time>
      </trkpt>
      <trkpt lat="45.85893" lon="4.8063">
        <ele>343</ele>
        <time>2014-02-09T10:34:39Z</time>
      </trkpt>
      <trkpt lat="45.85885" lon="4.80637">
        <ele>342</ele>
        <time>2014-02-09T10:34:45Z</time>
      </trkpt>
      <trkpt lat="45.85882" lon="4.80643">
        <ele>341</ele>
        <time>2014-02-09T10:34:47Z</time>
      </trkpt>
      <trkpt lat="45.8588" lon="4.80645">
        <ele>341</ele>
        <time>2014-02-09T10:34:48Z</time>
      </trkpt>
      <trkpt lat="45.85878" lon="4.80646">
        <ele>341</ele>
        <time>2014-02-09T10:34:49Z</time>
      </trkpt>
      <trkpt lat="45.85867" lon="4.80648">
        <ele>340</ele>
        <time>2014-02-09T10:34:54Z</time>
      </trkpt>
      <trkpt lat="45.85864" lon="4.80648">
        <ele>340</ele>
        <time>2014-02-09T10:34:55Z</time>
      </trkpt>
      <trkpt lat="45.85857" lon="4.80651">
        <ele>339</ele>
        <time>2014-02-09T10:34:59Z</time>
      </trkpt>
      <trkpt lat="45.85853" lon="4.80652">
        <ele>339</ele>
        <time>2014-02-09T10:35:02Z</time>
      </trkpt>
      <trkpt lat="45.8585" lon="4.80654">
        <ele>338</ele>
        <time>2014-02-09T10:35:04Z</time>
      </trkpt>
      <trkpt lat="45.85849" lon="4.80655">
        <ele>338</ele>
        <time>2014-02-09T10:35:05Z</time>
      </trkpt>
      <trkpt lat="45.85845" lon="4.80656">
        <ele>337</ele>
        <time>2014-02-09T10:35:07Z</time>
      </trkpt>
      <trkpt lat="45.85841" lon="4.80656">
        <ele>336</ele>
        <time>2014-02-09T10:35:09Z</time>
      </trkpt>
      <trkpt lat="45.85828" lon="4.80661">
        <ele>332</ele>
        <time>2014-02-09T10:35:15Z</time>
      </trkpt>
      <trkpt lat="45.85826" lon="4.80661">
        <ele>332</ele>
        <time>2014-02-09T10:35:16Z</time>
      </trkpt>
      <trkpt lat="45.85817" lon="4.80663">
        <ele>333</ele>
        <time>2014-02-09T10:35:20Z</time>
      </trkpt>
      <trkpt lat="45.85807" lon="4.80661">
        <ele>333</ele>
        <time>2014-02-09T10:35:25Z</time>
      </trkpt>
      <trkpt lat="45.85805" lon="4.8066">
        <ele>333</ele>
        <time>2014-02-09T10:35:26Z</time>
      </trkpt>
      <trkpt lat="45.85791" lon="4.80663">
        <ele>332</ele>
        <time>2014-02-09T10:35:33Z</time>
      </trkpt>
      <trkpt lat="45.85789" lon="4.80663">
        <ele>332</ele>
        <time>2014-02-09T10:35:34Z</time>
      </trkpt>
      <trkpt lat="45.85772" lon="4.80659">
        <ele>330</ele>
        <time>2014-02-09T10:35:41Z</time>
      </trkpt>
      <trkpt lat="45.8577" lon="4.80657">
        <ele>329</ele>
        <time>2014-02-09T10:35:42Z</time>
      </trkpt>
      <trkpt lat="45.85759" lon="4.80651">
        <ele>329</ele>
        <time>2014-02-09T10:35:47Z</time>
      </trkpt>
      <trkpt lat="45.85752" lon="4.80647">
        <ele>329</ele>
        <time>2014-02-09T10:35:50Z</time>
      </trkpt>
      <trkpt lat="45.85745" lon="4.80644">
        <ele>322</ele>
        <time>2014-02-09T10:35:53Z</time>
      </trkpt>
      <trkpt lat="45.85734" lon="4.80638">
        <ele>322</ele>
        <time>2014-02-09T10:35:58Z</time>
      </trkpt>
      <trkpt lat="45.85732" lon="4.80637">
        <ele>322</ele>
        <time>2014-02-09T10:35:59Z</time>
      </trkpt>
      <trkpt lat="45.85719" lon="4.80631">
        <ele>321</ele>
        <time>2014-02-09T10:36:05Z</time>
      </trkpt>
      <trkpt lat="45.85717" lon="4.80629">
        <ele>321</ele>
        <time>2014-02-09T10:36:06Z</time>
      </trkpt>
      <trkpt lat="45.85703" lon="4.80622">
        <ele>320</ele>
        <time>2014-02-09T10:36:12Z</time>
      </trkpt>
      <trkpt lat="45.85699" lon="4.80619">
        <ele>320</ele>
        <time>2014-02-09T10:36:14Z</time>
      </trkpt>
      <trkpt lat="45.85693" lon="4.80613">
        <ele>320</ele>
        <time>2014-02-09T10:36:17Z</time>
      </trkpt>
      <trkpt lat="45.85682" lon="4.80603">
        <ele>319</ele>
        <time>2014-02-09T10:36:22Z</time>
      </trkpt>
      <trkpt lat="45.8568" lon="4.80602">
        <ele>319</ele>
        <time>2014-02-09T10:36:23Z</time>
      </trkpt>
      <trkpt lat="45.8567" lon="4.8059">
        <ele>317</ele>
        <time>2014-02-09T10:36:29Z</time>
      </trkpt>
      <trkpt lat="45.85667" lon="4.80587">
        <ele>317</ele>
        <time>2014-02-09T10:36:31Z</time>
      </trkpt>
      <trkpt lat="45.85656" lon="4.80577">
        <ele>316</ele>
        <time>2014-02-09T10:36:37Z</time>
      </trkpt>
      <trkpt lat="45.85651" lon="4.80572">
        <ele>316</ele>
        <time>2014-02-09T10:36:40Z</time>
      </trkpt>
      <trkpt lat="45.85643" lon="4.80565">
        <ele>316</ele>
        <time>2014-02-09T10:36:45Z</time>
      </trkpt>
      <trkpt lat="45.85635" lon="4.80559">
        <ele>315</ele>
        <time>2014-02-09T10:36:50Z</time>
      </trkpt>
      <trkpt lat="45.85623" lon="4.8055">
        <ele>315</ele>
        <time>2014-02-09T10:36:57Z</time>
      </trkpt>
      <trkpt lat="45.85617" lon="4.80548">
        <ele>314</ele>
        <time>2014-02-09T10:37:00Z</time>
      </trkpt>
      <trkpt lat="45.85611" lon="4.80549">
        <ele>314</ele>
        <time>2014-02-09T10:37:03Z</time>
      </trkpt>
      <trkpt lat="45.85599" lon="4.80559">
        <ele>312</ele>
        <time>2014-02-09T10:37:10Z</time>
      </trkpt>
      <trkpt lat="45.85589" lon="4.80568">
        <ele>309</ele>
        <time>2014-02-09T10:37:16Z</time>
      </trkpt>
      <trkpt lat="45.85584" lon="4.80575">
        <ele>307</ele>
        <time>2014-02-09T10:37:19Z</time>
      </trkpt>
      <trkpt lat="45.85578" lon="4.80583">
        <ele>305</ele>
        <time>2014-02-09T10:37:23Z</time>
      </trkpt>
      <trkpt lat="45.85573" lon="4.80596">
        <ele>306</ele>
        <time>2014-02-09T10:37:27Z</time>
      </trkpt>
      <trkpt lat="45.85573" lon="4.806">
        <ele>306</ele>
        <time>2014-02-09T10:37:28Z</time>
      </trkpt>
      <trkpt lat="45.8557" lon="4.80622">
        <ele>306</ele>
        <time>2014-02-09T10:37:34Z</time>
      </trkpt>
      <trkpt lat="45.8557" lon="4.80626">
        <ele>306</ele>
        <time>2014-02-09T10:37:35Z</time>
      </trkpt>
      <trkpt lat="45.85566" lon="4.80646">
        <ele>306</ele>
        <time>2014-02-09T10:37:41Z</time>
      </trkpt>
      <trkpt lat="45.85564" lon="4.80649">
        <ele>306</ele>
        <time>2014-02-09T10:37:42Z</time>
      </trkpt>
      <trkpt lat="45.85558" lon="4.80653">
        <ele>306</ele>
        <time>2014-02-09T10:37:47Z</time>
      </trkpt>
      <trkpt lat="45.85548" lon="4.80653">
        <ele>307</ele>
        <time>2014-02-09T10:37:54Z</time>
      </trkpt>
      <trkpt lat="45.85547" lon="4.80653">
        <ele>307</ele>
        <time>2014-02-09T10:37:55Z</time>
      </trkpt>
      <trkpt lat="45.85542" lon="4.80652">
        <ele>308</ele>
        <time>2014-02-09T10:37:59Z</time>
      </trkpt>
      <trkpt lat="45.85541" lon="4.80652">
        <ele>308</ele>
        <time>2014-02-09T10:38:00Z</time>
      </trkpt>
      <trkpt lat="45.85533" lon="4.80651">
        <ele>309</ele>
        <time>2014-02-09T10:38:06Z</time>
      </trkpt>
      <trkpt lat="45.85531" lon="4.80651">
        <ele>309</ele>
        <time>2014-02-09T10:38:07Z</time>
      </trkpt>
      <trkpt lat="45.85528" lon="4.8065">
        <ele>309</ele>
        <time>2014-02-09T10:38:09Z</time>
      </trkpt>
      <trkpt lat="45.8552" lon="4.8065">
        <ele>310</ele>
        <time>2014-02-09T10:38:16Z</time>
      </trkpt>
      <trkpt lat="45.85509" lon="4.80648">
        <ele>311</ele>
        <time>2014-02-09T10:38:25Z</time>
      </trkpt>
      <trkpt lat="45.85497" lon="4.80648">
        <ele>319</ele>
        <time>2014-02-09T10:38:34Z</time>
      </trkpt>
      <trkpt lat="45.85493" lon="4.80649">
        <ele>319</ele>
        <time>2014-02-09T10:38:38Z</time>
      </trkpt>
      <trkpt lat="45.85492" lon="4.80649">
        <ele>319</ele>
        <time>2014-02-09T10:38:39Z</time>
      </trkpt>
      <trkpt lat="45.85492" lon="4.80652">
        <ele>319</ele>
        <time>2014-02-09T10:38:41Z</time>
      </trkpt>
      <trkpt lat="45.85492" lon="4.80658">
        <ele>318</ele>
        <time>2014-02-09T10:38:44Z</time>
      </trkpt>
      <trkpt lat="45.85495" lon="4.8067">
        <ele>319</ele>
        <time>2014-02-09T10:38:50Z</time>
      </trkpt>
      <trkpt lat="45.85497" lon="4.80677">
        <ele>321</ele>
        <time>2014-02-09T10:38:54Z</time>
      </trkpt>
      <trkpt lat="45.85498" lon="4.80679">
        <ele>321</ele>
        <time>2014-02-09T10:38:55Z</time>
      </trkpt>
      <trkpt lat="45.85499" lon="4.80684">
        <ele>323</ele>
        <time>2014-02-09T10:38:57Z</time>
      </trkpt>
      <trkpt lat="45.85498" lon="4.80688">
        <ele>324</ele>
        <time>2014-02-09T10:38:59Z</time>
      </trkpt>
      <trkpt lat="45.85496" lon="4.80689">
        <ele>324</ele>
        <time>2014-02-09T10:39:02Z</time>
      </trkpt>
      <trkpt lat="45.85494" lon="4.80686">
        <ele>324</ele>
        <time>2014-02-09T10:39:04Z</time>
      </trkpt>
      <trkpt lat="45.85491" lon="4.80683">
        <ele>323</ele>
        <time>2014-02-09T10:39:07Z</time>
      </trkpt>
      <trkpt lat="45.8549" lon="4.80683">
        <ele>323</ele>
        <time>2014-02-09T10:39:08Z</time>
      </trkpt>
      <trkpt lat="45.85487" lon="4.80686">
        <ele>325</ele>
        <time>2014-02-09T10:39:12Z</time>
      </trkpt>
      <trkpt lat="45.85486" lon="4.80687">
        <ele>325</ele>
        <time>2014-02-09T10:39:13Z</time>
      </trkpt>
      <trkpt lat="45.85481" lon="4.8069">
        <ele>326</ele>
        <time>2014-02-09T10:39:18Z</time>
      </trkpt>
      <trkpt lat="45.85477" lon="4.80694">
        <ele>327</ele>
        <time>2014-02-09T10:39:22Z</time>
      </trkpt>
      <trkpt lat="45.85474" lon="4.80696">
        <ele>328</ele>
        <time>2014-02-09T10:39:24Z</time>
      </trkpt>
      <trkpt lat="45.85473" lon="4.80697">
        <ele>328</ele>
        <time>2014-02-09T10:39:25Z</time>
      </trkpt>
      <trkpt lat="45.85473" lon="4.80699">
        <ele>329</ele>
        <time>2014-02-09T10:39:26Z</time>
      </trkpt>
      <trkpt lat="45.85473" lon="4.80705">
        <ele>329</ele>
        <time>2014-02-09T10:39:29Z</time>
      </trkpt>
      <trkpt lat="45.85474" lon="4.80709">
        <ele>329</ele>
        <time>2014-02-09T10:39:32Z</time>
      </trkpt>
      <trkpt lat="45.85475" lon="4.80709">
        <ele>329</ele>
        <time>2014-02-09T10:39:33Z</time>
      </trkpt>
      <trkpt lat="45.85477" lon="4.80715">
        <ele>329</ele>
        <time>2014-02-09T10:39:36Z</time>
      </trkpt>
      <trkpt lat="45.8548" lon="4.80718">
        <ele>329</ele>
        <time>2014-02-09T10:39:38Z</time>
      </trkpt>
      <trkpt lat="45.85481" lon="4.80719">
        <ele>329</ele>
        <time>2014-02-09T10:39:39Z</time>
      </trkpt>
      <trkpt lat="45.85489" lon="4.80726">
        <ele>329</ele>
        <time>2014-02-09T10:39:45Z</time>
      </trkpt>
      <trkpt lat="45.8549" lon="4.80727">
        <ele>329</ele>
        <time>2014-02-09T10:39:46Z</time>
      </trkpt>
      <trkpt lat="45.85495" lon="4.80733">
        <ele>328</ele>
        <time>2014-02-09T10:39:51Z</time>
      </trkpt>
      <trkpt lat="45.85497" lon="4.80736">
        <ele>328</ele>
        <time>2014-02-09T10:39:53Z</time>
      </trkpt>
      <trkpt lat="45.85495" lon="4.80739">
        <ele>328</ele>
        <time>2014-02-09T10:39:57Z</time>
      </trkpt>
      <trkpt lat="45.85493" lon="4.80738">
        <ele>328</ele>
        <time>2014-02-09T10:39:58Z</time>
      </trkpt>
      <trkpt lat="45.85488" lon="4.80733">
        <ele>329</ele>
        <time>2014-02-09T10:40:05Z</time>
      </trkpt>
      <trkpt lat="45.85486" lon="4.80728">
        <ele>329</ele>
        <time>2014-02-09T10:40:09Z</time>
      </trkpt>
      <trkpt lat="45.85485" lon="4.80728">
        <ele>329</ele>
        <time>2014-02-09T10:40:10Z</time>
      </trkpt>
      <trkpt lat="45.85484" lon="4.80727">
        <ele>329</ele>
        <time>2014-02-09T10:40:11Z</time>
      </trkpt>
      <trkpt lat="45.85479" lon="4.80725">
        <ele>330</ele>
        <time>2014-02-09T10:40:17Z</time>
      </trkpt>
      <trkpt lat="45.85474" lon="4.80726">
        <ele>330</ele>
        <time>2014-02-09T10:40:23Z</time>
      </trkpt>
      <trkpt lat="45.85469" lon="4.80729">
        <ele>331</ele>
        <time>2014-02-09T10:40:28Z</time>
      </trkpt>
      <trkpt lat="45.85469" lon="4.8073">
        <ele>331</ele>
        <time>2014-02-09T10:40:29Z</time>
      </trkpt>
      <trkpt lat="45.85468" lon="4.8073">
        <ele>331</ele>
        <time>2014-02-09T10:40:30Z</time>
      </trkpt>
      <trkpt lat="45.85467" lon="4.80731">
        <ele>331</ele>
        <time>2014-02-09T10:40:31Z</time>
      </trkpt>
      <trkpt lat="45.85464" lon="4.80735">
        <ele>332</ele>
        <time>2014-02-09T10:40:35Z</time>
      </trkpt>
      <trkpt lat="45.85456" lon="4.80742">
        <ele>333</ele>
        <time>2014-02-09T10:40:44Z</time>
      </trkpt>
      <trkpt lat="45.85453" lon="4.80746">
        <ele>334</ele>
        <time>2014-02-09T10:40:48Z</time>
      </trkpt>
      <trkpt lat="45.85452" lon="4.80746">
        <ele>334</ele>
        <time>2014-02-09T10:40:49Z</time>
      </trkpt>
      <trkpt lat="45.85447" lon="4.80748">
        <ele>335</ele>
        <time>2014-02-09T10:40:53Z</time>
      </trkpt>
      <trkpt lat="45.85446" lon="4.80748">
        <ele>335</ele>
        <time>2014-02-09T10:40:54Z</time>
      </trkpt>
      <trkpt lat="45.85446" lon="4.80749">
        <ele>335</ele>
        <time>2014-02-09T10:40:55Z</time>
      </trkpt>
      <trkpt lat="45.85445" lon="4.80754">
        <ele>340</ele>
        <time>2014-02-09T10:40:58Z</time>
      </trkpt>
      <trkpt lat="45.85444" lon="4.80755">
        <ele>340</ele>
        <time>2014-02-09T10:41:00Z</time>
      </trkpt>
      <trkpt lat="45.85444" lon="4.80757">
        <ele>340</ele>
        <time>2014-02-09T10:41:04Z</time>
      </trkpt>
      <trkpt lat="45.85445" lon="4.80761">
        <ele>340</ele>
        <time>2014-02-09T10:41:10Z</time>
      </trkpt>
      <trkpt lat="45.85443" lon="4.8076">
        <ele>340</ele>
        <time>2014-02-09T10:41:12Z</time>
      </trkpt>
      <trkpt lat="45.85443" lon="4.80759">
        <ele>340</ele>
        <time>2014-02-09T10:41:13Z</time>
      </trkpt>
      <trkpt lat="45.85442" lon="4.80759">
        <ele>340</ele>
        <time>2014-02-09T10:41:16Z</time>
      </trkpt>
      <trkpt lat="45.85441" lon="4.80758">
        <ele>340</ele>
        <time>2014-02-09T10:41:21Z</time>
      </trkpt>
      <trkpt lat="45.85438" lon="4.80757">
        <ele>341</ele>
        <time>2014-02-09T10:41:24Z</time>
      </trkpt>
      <trkpt lat="45.85438" lon="4.80757">
        <ele>341</ele>
        <time>2014-02-09T10:41:25Z</time>
      </trkpt>
      <trkpt lat="45.85431" lon="4.80756">
        <ele>342</ele>
        <time>2014-02-09T10:41:32Z</time>
      </trkpt>
      <trkpt lat="45.85425" lon="4.80755">
        <ele>343</ele>
        <time>2014-02-09T10:41:37Z</time>
      </trkpt>
      <trkpt lat="45.85421" lon="4.80756">
        <ele>343</ele>
        <time>2014-02-09T10:41:40Z</time>
      </trkpt>
      <trkpt lat="45.85414" lon="4.80757">
        <ele>347</ele>
        <time>2014-02-09T10:41:47Z</time>
      </trkpt>
      <trkpt lat="45.85412" lon="4.80757">
        <ele>348</ele>
        <time>2014-02-09T10:41:49Z</time>
      </trkpt>
      <trkpt lat="45.85407" lon="4.80759">
        <ele>349</ele>
        <time>2014-02-09T10:41:53Z</time>
      </trkpt>
      <trkpt lat="45.85402" lon="4.80766">
        <ele>351</ele>
        <time>2014-02-09T10:42:00Z</time>
      </trkpt>
      <trkpt lat="45.85397" lon="4.80771">
        <ele>352</ele>
        <time>2014-02-09T10:42:05Z</time>
      </trkpt>
      <trkpt lat="45.85394" lon="4.80775">
        <ele>352</ele>
        <time>2014-02-09T10:42:11Z</time>
      </trkpt>
      <trkpt lat="45.85393" lon="4.80775">
        <ele>352</ele>
        <time>2014-02-09T10:42:13Z</time>
      </trkpt>
      <trkpt lat="45.85391" lon="4.80777">
        <ele>353</ele>
        <time>2014-02-09T10:42:17Z</time>
      </trkpt>
      <trkpt lat="45.8539" lon="4.80779">
        <ele>353</ele>
        <time>2014-02-09T10:42:20Z</time>
      </trkpt>
      <trkpt lat="45.85389" lon="4.8078">
        <ele>353</ele>
        <time>2014-02-09T10:42:21Z</time>
      </trkpt>
      <trkpt lat="45.85385" lon="4.80785">
        <ele>354</ele>
        <time>2014-02-09T10:42:26Z</time>
      </trkpt>
      <trkpt lat="45.85384" lon="4.80785">
        <ele>354</ele>
        <time>2014-02-09T10:42:27Z</time>
      </trkpt>
      <trkpt lat="45.85383" lon="4.80786">
        <ele>354</ele>
        <time>2014-02-09T10:42:33Z</time>
      </trkpt>
      <trkpt lat="45.8538" lon="4.80789">
        <ele>354</ele>
        <time>2014-02-09T10:42:36Z</time>
      </trkpt>
      <trkpt lat="45.85379" lon="4.80791">
        <ele>355</ele>
        <time>2014-02-09T10:42:38Z</time>
      </trkpt>
      <trkpt lat="45.85377" lon="4.80795">
        <ele>355</ele>
        <time>2014-02-09T10:42:42Z</time>
      </trkpt>
      <trkpt lat="45.85376" lon="4.80795">
        <ele>355</ele>
        <time>2014-02-09T10:42:43Z</time>
      </trkpt>
      <trkpt lat="45.85369" lon="4.80803">
        <ele>356</ele>
        <time>2014-02-09T10:42:49Z</time>
      </trkpt>
      <trkpt lat="45.85365" lon="4.80807">
        <ele>357</ele>
        <time>2014-02-09T10:42:53Z</time>
      </trkpt>
      <trkpt lat="45.85363" lon="4.80809">
        <ele>357</ele>
        <time>2014-02-09T10:42:56Z</time>
      </trkpt>
      <trkpt lat="45.85362" lon="4.8081">
        <ele>357</ele>
        <time>2014-02-09T10:42:57Z</time>
      </trkpt>
      <trkpt lat="45.85361" lon="4.80814">
        <ele>358</ele>
        <time>2014-02-09T10:43:00Z</time>
      </trkpt>
      <trkpt lat="45.85358" lon="4.80818">
        <ele>359</ele>
        <time>2014-02-09T10:43:03Z</time>
      </trkpt>
      <trkpt lat="45.85356" lon="4.8082">
        <ele>359</ele>
        <time>2014-02-09T10:43:06Z</time>
      </trkpt>
      <trkpt lat="45.85355" lon="4.80822">
        <ele>360</ele>
        <time>2014-02-09T10:43:09Z</time>
      </trkpt>
      <trkpt lat="45.85354" lon="4.80823">
        <ele>360</ele>
        <time>2014-02-09T10:43:10Z</time>
      </trkpt>
      <trkpt lat="45.85354" lon="4.80824">
        <ele>360</ele>
        <time>2014-02-09T10:43:11Z</time>
      </trkpt>
      <trkpt lat="45.85353" lon="4.80828">
        <ele>361</ele>
        <time>2014-02-09T10:43:13Z</time>
      </trkpt>
      <trkpt lat="45.85353" lon="4.80829">
        <ele>361</ele>
        <time>2014-02-09T10:43:14Z</time>
      </trkpt>
      <trkpt lat="45.85351" lon="4.80834">
        <ele>367</ele>
        <time>2014-02-09T10:43:20Z</time>
      </trkpt>
      <trkpt lat="45.85351" lon="4.80837">
        <ele>367</ele>
        <time>2014-02-09T10:43:22Z</time>
      </trkpt>
      <trkpt lat="45.85349" lon="4.80843">
        <ele>367</ele>
        <time>2014-02-09T10:43:26Z</time>
      </trkpt>
      <trkpt lat="45.85349" lon="4.80851">
        <ele>367</ele>
        <time>2014-02-09T10:43:31Z</time>
      </trkpt>
      <trkpt lat="45.85348" lon="4.80853">
        <ele>367</ele>
        <time>2014-02-09T10:43:32Z</time>
      </trkpt>
      <trkpt lat="45.85348" lon="4.80858">
        <ele>368</ele>
        <time>2014-02-09T10:43:36Z</time>
      </trkpt>
      <trkpt lat="45.85349" lon="4.80861">
        <ele>368</ele>
        <time>2014-02-09T10:43:38Z</time>
      </trkpt>
      <trkpt lat="45.85349" lon="4.80862">
        <ele>368</ele>
        <time>2014-02-09T10:43:39Z</time>
      </trkpt>
      <trkpt lat="45.85348" lon="4.80864">
        <ele>368</ele>
        <time>2014-02-09T10:43:40Z</time>
      </trkpt>
      <trkpt lat="45.85348" lon="4.80873">
        <ele>369</ele>
        <time>2014-02-09T10:43:46Z</time>
      </trkpt>
      <trkpt lat="45.85349" lon="4.80874">
        <ele>369</ele>
        <time>2014-02-09T10:43:47Z</time>
      </trkpt>
      <trkpt lat="45.8535" lon="4.80876">
        <ele>370</ele>
        <time>2014-02-09T10:43:49Z</time>
      </trkpt>
      <trkpt lat="45.8535" lon="4.80878">
        <ele>370</ele>
        <time>2014-02-09T10:43:50Z</time>
      </trkpt>
      <trkpt lat="45.8535" lon="4.80879">
        <ele>370</ele>
        <time>2014-02-09T10:43:51Z</time>
      </trkpt>
      <trkpt lat="45.85351" lon="4.80882">
        <ele>370</ele>
        <time>2014-02-09T10:43:53Z</time>
      </trkpt>
      <trkpt lat="45.85352" lon="4.80884">
        <ele>370</ele>
        <time>2014-02-09T10:43:54Z</time>
      </trkpt>
      <trkpt lat="45.85352" lon="4.80887">
        <ele>371</ele>
        <time>2014-02-09T10:43:56Z</time>
      </trkpt>
      <trkpt lat="45.85351" lon="4.80894">
        <ele>373</ele>
        <time>2014-02-09T10:44:01Z</time>
      </trkpt>
      <trkpt lat="45.85351" lon="4.80896">
        <ele>373</ele>
        <time>2014-02-09T10:44:02Z</time>
      </trkpt>
      <trkpt lat="45.85352" lon="4.80899">
        <ele>373</ele>
        <time>2014-02-09T10:44:05Z</time>
      </trkpt>
      <trkpt lat="45.85353" lon="4.809">
        <ele>373</ele>
        <time>2014-02-09T10:44:06Z</time>
      </trkpt>
      <trkpt lat="45.85352" lon="4.80904">
        <ele>374</ele>
        <time>2014-02-09T10:44:08Z</time>
      </trkpt>
      <trkpt lat="45.85353" lon="4.80906">
        <ele>374</ele>
        <time>2014-02-09T10:44:09Z</time>
      </trkpt>
      <trkpt lat="45.85353" lon="4.80907">
        <ele>375</ele>
        <time>2014-02-09T10:44:10Z</time>
      </trkpt>
      <trkpt lat="45.85354" lon="4.80916">
        <ele>375</ele>
        <time>2014-02-09T10:44:16Z</time>
      </trkpt>
      <trkpt lat="45.85355" lon="4.80925">
        <ele>384</ele>
        <time>2014-02-09T10:44:22Z</time>
      </trkpt>
      <trkpt lat="45.85355" lon="4.80931">
        <ele>384</ele>
        <time>2014-02-09T10:44:26Z</time>
      </trkpt>
      <trkpt lat="45.85356" lon="4.80933">
        <ele>384</ele>
        <time>2014-02-09T10:44:27Z</time>
      </trkpt>
      <trkpt lat="45.85357" lon="4.80937">
        <ele>384</ele>
        <time>2014-02-09T10:44:30Z</time>
      </trkpt>
      <trkpt lat="45.85357" lon="4.80941">
        <ele>384</ele>
        <time>2014-02-09T10:44:33Z</time>
      </trkpt>
      <trkpt lat="45.85358" lon="4.80946">
        <ele>384</ele>
        <time>2014-02-09T10:44:36Z</time>
      </trkpt>
      <trkpt lat="45.85358" lon="4.80947">
        <ele>384</ele>
        <time>2014-02-09T10:44:37Z</time>
      </trkpt>
      <trkpt lat="45.8536" lon="4.80949">
        <ele>384</ele>
        <time>2014-02-09T10:44:39Z</time>
      </trkpt>
      <trkpt lat="45.85361" lon="4.8095">
        <ele>384</ele>
        <time>2014-02-09T10:44:46Z</time>
      </trkpt>
      <trkpt lat="45.85361" lon="4.80952">
        <ele>384</ele>
        <time>2014-02-09T10:45:27Z</time>
      </trkpt>
      <trkpt lat="45.85359" lon="4.80954">
        <ele>385</ele>
        <time>2014-02-09T10:45:31Z</time>
      </trkpt>
      <trkpt lat="45.85357" lon="4.80956">
        <ele>385</ele>
        <time>2014-02-09T10:45:34Z</time>
      </trkpt>
      <trkpt lat="45.85351" lon="4.80957">
        <ele>386</ele>
        <time>2014-02-09T10:45:39Z</time>
      </trkpt>
      <trkpt lat="45.85348" lon="4.80957">
        <ele>387</ele>
        <time>2014-02-09T10:45:42Z</time>
      </trkpt>
      <trkpt lat="45.85346" lon="4.80956">
        <ele>387</ele>
        <time>2014-02-09T10:45:44Z</time>
      </trkpt>
      <trkpt lat="45.85344" lon="4.80956">
        <ele>387</ele>
        <time>2014-02-09T10:45:46Z</time>
      </trkpt>
      <trkpt lat="45.85341" lon="4.80957">
        <ele>387</ele>
        <time>2014-02-09T10:45:49Z</time>
      </trkpt>
      <trkpt lat="45.85336" lon="4.80958">
        <ele>388</ele>
        <time>2014-02-09T10:45:52Z</time>
      </trkpt>
      <trkpt lat="45.85334" lon="4.80959">
        <ele>388</ele>
        <time>2014-02-09T10:45:54Z</time>
      </trkpt>
      <trkpt lat="45.85331" lon="4.80959">
        <ele>409</ele>
        <time>2014-02-09T10:45:57Z</time>
      </trkpt>
      <trkpt lat="45.85326" lon="4.80959">
        <ele>409</ele>
        <time>2014-02-09T10:46:02Z</time>
      </trkpt>
      <trkpt lat="45.85326" lon="4.80959">
        <ele>409</ele>
        <time>2014-02-09T10:46:03Z</time>
      </trkpt>
      <trkpt lat="45.85321" lon="4.80957">
        <ele>409</ele>
        <time>2014-02-09T10:46:08Z</time>
      </trkpt>
      <trkpt lat="45.85316" lon="4.80955">
        <ele>410</ele>
        <time>2014-02-09T10:46:12Z</time>
      </trkpt>
      <trkpt lat="45.85314" lon="4.80954">
        <ele>410</ele>
        <time>2014-02-09T10:46:14Z</time>
      </trkpt>
      <trkpt lat="45.8531" lon="4.80953">
        <ele>411</ele>
        <time>2014-02-09T10:46:19Z</time>
      </trkpt>
      <trkpt lat="45.85309" lon="4.80952">
        <ele>411</ele>
        <time>2014-02-09T10:46:20Z</time>
      </trkpt>
      <trkpt lat="45.85308" lon="4.80951">
        <ele>411</ele>
        <time>2014-02-09T10:46:21Z</time>
      </trkpt>
      <trkpt lat="45.85306" lon="4.80949">
        <ele>411</ele>
        <time>2014-02-09T10:46:24Z</time>
      </trkpt>
      <trkpt lat="45.85299" lon="4.80946">
        <ele>412</ele>
        <time>2014-02-09T10:46:30Z</time>
      </trkpt>
      <trkpt lat="45.85298" lon="4.80945">
        <ele>412</ele>
        <time>2014-02-09T10:46:31Z</time>
      </trkpt>
      <trkpt lat="45.85293" lon="4.80943">
        <ele>413</ele>
        <time>2014-02-09T10:46:36Z</time>
      </trkpt>
      <trkpt lat="45.85293" lon="4.80943">
        <ele>413</ele>
        <time>2014-02-09T10:46:37Z</time>
      </trkpt>
      <trkpt lat="45.85291" lon="4.80941">
        <ele>413</ele>
        <time>2014-02-09T10:46:39Z</time>
      </trkpt>
      <trkpt lat="45.85291" lon="4.80941">
        <ele>413</ele>
        <time>2014-02-09T10:46:40Z</time>
      </trkpt>
      <trkpt lat="45.85289" lon="4.80939">
        <ele>413</ele>
        <time>2014-02-09T10:46:43Z</time>
      </trkpt>
      <trkpt lat="45.85283" lon="4.80934">
        <ele>414</ele>
        <time>2014-02-09T10:46:48Z</time>
      </trkpt>
      <trkpt lat="45.85282" lon="4.80932">
        <ele>414</ele>
        <time>2014-02-09T10:46:50Z</time>
      </trkpt>
      <trkpt lat="45.8528" lon="4.80928">
        <ele>414</ele>
        <time>2014-02-09T10:46:53Z</time>
      </trkpt>
      <trkpt lat="45.85279" lon="4.80926">
        <ele>415</ele>
        <time>2014-02-09T10:46:55Z</time>
      </trkpt>
      <trkpt lat="45.85276" lon="4.80925">
        <ele>415</ele>
        <time>2014-02-09T10:46:56Z</time>
      </trkpt>
      <trkpt lat="45.85274" lon="4.80924">
        <ele>416</ele>
        <time>2014-02-09T10:46:58Z</time>
      </trkpt>
      <trkpt lat="45.85272" lon="4.80919">
        <ele>416</ele>
        <time>2014-02-09T10:47:02Z</time>
      </trkpt>
      <trkpt lat="45.85271" lon="4.80918">
        <ele>416</ele>
        <time>2014-02-09T10:47:03Z</time>
      </trkpt>
      <trkpt lat="45.8527" lon="4.80916">
        <ele>405</ele>
        <time>2014-02-09T10:47:04Z</time>
      </trkpt>
      <trkpt lat="45.85264" lon="4.80911">
        <ele>408</ele>
        <time>2014-02-09T10:47:10Z</time>
      </trkpt>
      <trkpt lat="45.85263" lon="4.8091">
        <ele>408</ele>
        <time>2014-02-09T10:47:11Z</time>
      </trkpt>
      <trkpt lat="45.85261" lon="4.80909">
        <ele>409</ele>
        <time>2014-02-09T10:47:12Z</time>
      </trkpt>
      <trkpt lat="45.85257" lon="4.80908">
        <ele>410</ele>
        <time>2014-02-09T10:47:15Z</time>
      </trkpt>
      <trkpt lat="45.85251" lon="4.80904">
        <ele>410</ele>
        <time>2014-02-09T10:47:21Z</time>
      </trkpt>
      <trkpt lat="45.85249" lon="4.80902">
        <ele>423</ele>
        <time>2014-02-09T10:47:28Z</time>
      </trkpt>
      <trkpt lat="45.85249" lon="4.809">
        <ele>423</ele>
        <time>2014-02-09T10:47:33Z</time>
      </trkpt>
      <trkpt lat="45.85245" lon="4.809">
        <ele>423</ele>
        <time>2014-02-09T10:47:39Z</time>
      </trkpt>
      <trkpt lat="45.85244" lon="4.809">
        <ele>423</ele>
        <time>2014-02-09T10:47:40Z</time>
      </trkpt>
      <trkpt lat="45.85241" lon="4.80898">
        <ele>424</ele>
        <time>2014-02-09T10:47:45Z</time>
      </trkpt>
      <trkpt lat="45.85239" lon="4.80897">
        <ele>424</ele>
        <time>2014-02-09T10:47:57Z</time>
      </trkpt>
      <trkpt lat="45.85236" lon="4.80894">
        <ele>425</ele>
        <time>2014-02-09T10:48:01Z</time>
      </trkpt>
      <trkpt lat="45.85229" lon="4.80889">
        <ele>426</ele>
        <time>2014-02-09T10:48:08Z</time>
      </trkpt>
      <trkpt lat="45.85228" lon="4.80889">
        <ele>426</ele>
        <time>2014-02-09T10:48:09Z</time>
      </trkpt>
      <trkpt lat="45.85223" lon="4.80888">
        <ele>427</ele>
        <time>2014-02-09T10:48:13Z</time>
      </trkpt>
      <trkpt lat="45.85222" lon="4.80888">
        <ele>427</ele>
        <time>2014-02-09T10:48:14Z</time>
      </trkpt>
      <trkpt lat="45.85217" lon="4.80888">
        <ele>428</ele>
        <time>2014-02-09T10:48:20Z</time>
      </trkpt>
      <trkpt lat="45.85216" lon="4.80888">
        <ele>428</ele>
        <time>2014-02-09T10:48:22Z</time>
      </trkpt>
      <trkpt lat="45.85214" lon="4.80888">
        <ele>429</ele>
        <time>2014-02-09T10:48:24Z</time>
      </trkpt>
      <trkpt lat="45.85212" lon="4.80888">
        <ele>429</ele>
        <time>2014-02-09T10:48:28Z</time>
      </trkpt>
      <trkpt lat="45.85211" lon="4.80886">
        <ele>429</ele>
        <time>2014-02-09T10:48:33Z</time>
      </trkpt>
      <trkpt lat="45.85211" lon="4.80885">
        <ele>429</ele>
        <time>2014-02-09T10:48:36Z</time>
      </trkpt>
      <trkpt lat="45.85206" lon="4.80885">
        <ele>430</ele>
        <time>2014-02-09T10:48:40Z</time>
      </trkpt>
      <trkpt lat="45.85205" lon="4.80885">
        <ele>430</ele>
        <time>2014-02-09T10:48:41Z</time>
      </trkpt>
      <trkpt lat="45.85204" lon="4.80886">
        <ele>431</ele>
        <time>2014-02-09T10:48:44Z</time>
      </trkpt>
      <trkpt lat="45.85203" lon="4.80888">
        <ele>432</ele>
        <time>2014-02-09T10:48:46Z</time>
      </trkpt>
      <trkpt lat="45.852" lon="4.8089">
        <ele>433</ele>
        <time>2014-02-09T10:48:53Z</time>
      </trkpt>
      <trkpt lat="45.85197" lon="4.80888">
        <ele>433</ele>
        <time>2014-02-09T10:48:59Z</time>
      </trkpt>
      <trkpt lat="45.85194" lon="4.80886">
        <ele>433</ele>
        <time>2014-02-09T10:49:04Z</time>
      </trkpt>
      <trkpt lat="45.85193" lon="4.80886">
        <ele>434</ele>
        <time>2014-02-09T10:49:05Z</time>
      </trkpt>
      <trkpt lat="45.85192" lon="4.80885">
        <ele>434</ele>
        <time>2014-02-09T10:49:09Z</time>
      </trkpt>
      <trkpt lat="45.85189" lon="4.80884">
        <ele>434</ele>
        <time>2014-02-09T10:49:14Z</time>
      </trkpt>
      <trkpt lat="45.85185" lon="4.80883">
        <ele>435</ele>
        <time>2014-02-09T10:49:18Z</time>
      </trkpt>
      <trkpt lat="45.85184" lon="4.80883">
        <ele>435</ele>
        <time>2014-02-09T10:49:19Z</time>
      </trkpt>
      <trkpt lat="45.85183" lon="4.80883">
        <ele>435</ele>
        <time>2014-02-09T10:49:21Z</time>
      </trkpt>
      <trkpt lat="45.85181" lon="4.80883">
        <ele>436</ele>
        <time>2014-02-09T10:49:24Z</time>
      </trkpt>
      <trkpt lat="45.85177" lon="4.80884">
        <ele>437</ele>
        <time>2014-02-09T10:49:28Z</time>
      </trkpt>
      <trkpt lat="45.85175" lon="4.80883">
        <ele>437</ele>
        <time>2014-02-09T10:49:29Z</time>
      </trkpt>
      <trkpt lat="45.85172" lon="4.80881">
        <ele>437</ele>
        <time>2014-02-09T10:49:33Z</time>
      </trkpt>
      <trkpt lat="45.8517" lon="4.80879">
        <ele>436</ele>
        <time>2014-02-09T10:49:36Z</time>
      </trkpt>
      <trkpt lat="45.85166" lon="4.80881">
        <ele>459</ele>
        <time>2014-02-09T10:49:44Z</time>
      </trkpt>
      <trkpt lat="45.8516" lon="4.80882">
        <ele>460</ele>
        <time>2014-02-09T10:49:55Z</time>
      </trkpt>
      <trkpt lat="45.85163" lon="4.8088">
        <ele>459</ele>
        <time>2014-02-09T10:50:02Z</time>
      </trkpt>
      <trkpt lat="45.85162" lon="4.80879">
        <ele>459</ele>
        <time>2014-02-09T10:50:06Z</time>
      </trkpt>
      <trkpt lat="45.85158" lon="4.80879">
        <ele>460</ele>
        <time>2014-02-09T10:50:10Z</time>
      </trkpt>
      <trkpt lat="45.85158" lon="4.80869">
        <ele>458</ele>
        <time>2014-02-09T10:50:36Z</time>
      </trkpt>
      <trkpt lat="45.85161" lon="4.80869">
        <ele>457</ele>
        <time>2014-02-09T10:50:43Z</time>
      </trkpt>
      <trkpt lat="45.85158" lon="4.80872">
        <ele>458</ele>
        <time>2014-02-09T10:50:56Z</time>
      </trkpt>
      <trkpt lat="45.85153" lon="4.80874">
        <ele>459</ele>
        <time>2014-02-09T10:51:00Z</time>
      </trkpt>
      <trkpt lat="45.85152" lon="4.80874">
        <ele>460</ele>
        <time>2014-02-09T10:51:01Z</time>
      </trkpt>
      <trkpt lat="45.85149" lon="4.80875">
        <ele>460</ele>
        <time>2014-02-09T10:51:05Z</time>
      </trkpt>
      <trkpt lat="45.85148" lon="4.80876">
        <ele>460</ele>
        <time>2014-02-09T10:51:07Z</time>
      </trkpt>
      <trkpt lat="45.85145" lon="4.80875">
        <ele>461</ele>
        <time>2014-02-09T10:51:09Z</time>
      </trkpt>
      <trkpt lat="45.85141" lon="4.80877">
        <ele>462</ele>
        <time>2014-02-09T10:51:15Z</time>
      </trkpt>
      <trkpt lat="45.85139" lon="4.80877">
        <ele>462</ele>
        <time>2014-02-09T10:51:18Z</time>
      </trkpt>
      <trkpt lat="45.85138" lon="4.80874">
        <ele>462</ele>
        <time>2014-02-09T10:51:23Z</time>
      </trkpt>
      <trkpt lat="45.85134" lon="4.80873">
        <ele>463</ele>
        <time>2014-02-09T10:51:29Z</time>
      </trkpt>
      <trkpt lat="45.85134" lon="4.80873">
        <ele>463</ele>
        <time>2014-02-09T10:51:30Z</time>
      </trkpt>
      <trkpt lat="45.85131" lon="4.80871">
        <ele>463</ele>
        <time>2014-02-09T10:51:34Z</time>
      </trkpt>
      <trkpt lat="45.85128" lon="4.80869">
        <ele>463</ele>
        <time>2014-02-09T10:51:40Z</time>
      </trkpt>
      <trkpt lat="45.85125" lon="4.80866">
        <ele>464</ele>
        <time>2014-02-09T10:51:44Z</time>
      </trkpt>
      <trkpt lat="45.85122" lon="4.80861">
        <ele>464</ele>
        <time>2014-02-09T10:51:49Z</time>
      </trkpt>
      <trkpt lat="45.85121" lon="4.80861">
        <ele>464</ele>
        <time>2014-02-09T10:51:50Z</time>
      </trkpt>
      <trkpt lat="45.85118" lon="4.80859">
        <ele>465</ele>
        <time>2014-02-09T10:51:53Z</time>
      </trkpt>
      <trkpt lat="45.85117" lon="4.80858">
        <ele>465</ele>
        <time>2014-02-09T10:51:54Z</time>
      </trkpt>
      <trkpt lat="45.85116" lon="4.80857">
        <ele>465</ele>
        <time>2014-02-09T10:51:55Z</time>
      </trkpt>
      <trkpt lat="45.85113" lon="4.80853">
        <ele>466</ele>
        <time>2014-02-09T10:52:00Z</time>
      </trkpt>
      <trkpt lat="45.85107" lon="4.8085">
        <ele>468</ele>
        <time>2014-02-09T10:52:05Z</time>
      </trkpt>
      <trkpt lat="45.85107" lon="4.80849">
        <ele>467</ele>
        <time>2014-02-09T10:52:12Z</time>
      </trkpt>
      <trkpt lat="45.85106" lon="4.80845">
        <ele>468</ele>
        <time>2014-02-09T10:52:23Z</time>
      </trkpt>
      <trkpt lat="45.85105" lon="4.80844">
        <ele>468</ele>
        <time>2014-02-09T10:52:24Z</time>
      </trkpt>
      <trkpt lat="45.85104" lon="4.80843">
        <ele>468</ele>
        <time>2014-02-09T10:52:25Z</time>
      </trkpt>
      <trkpt lat="45.85099" lon="4.8084">
        <ele>470</ele>
        <time>2014-02-09T10:52:29Z</time>
      </trkpt>
      <trkpt lat="45.85097" lon="4.80838">
        <ele>471</ele>
        <time>2014-02-09T10:52:31Z</time>
      </trkpt>
      <trkpt lat="45.85094" lon="4.80836">
        <ele>472</ele>
        <time>2014-02-09T10:52:34Z</time>
      </trkpt>
      <trkpt lat="45.8509" lon="4.80831">
        <ele>470</ele>
        <time>2014-02-09T10:52:38Z</time>
      </trkpt>
      <trkpt lat="45.85088" lon="4.80828">
        <ele>469</ele>
        <time>2014-02-09T10:52:40Z</time>
      </trkpt>
      <trkpt lat="45.85085" lon="4.80823">
        <ele>467</ele>
        <time>2014-02-09T10:52:44Z</time>
      </trkpt>
      <trkpt lat="45.85084" lon="4.80822">
        <ele>466</ele>
        <time>2014-02-09T10:52:45Z</time>
      </trkpt>
      <trkpt lat="45.85081" lon="4.8082">
        <ele>477</ele>
        <time>2014-02-09T10:52:47Z</time>
      </trkpt>
      <trkpt lat="45.85078" lon="4.80816">
        <ele>477</ele>
        <time>2014-02-09T10:52:50Z</time>
      </trkpt>
      <trkpt lat="45.85076" lon="4.80814">
        <ele>477</ele>
        <time>2014-02-09T10:52:52Z</time>
      </trkpt>
      <trkpt lat="45.85073" lon="4.80811">
        <ele>477</ele>
        <time>2014-02-09T10:52:56Z</time>
      </trkpt>
      <trkpt lat="45.85069" lon="4.80805">
        <ele>477</ele>
        <time>2014-02-09T10:53:02Z</time>
      </trkpt>
      <trkpt lat="45.85068" lon="4.80804">
        <ele>477</ele>
        <time>2014-02-09T10:53:03Z</time>
      </trkpt>
      <trkpt lat="45.85064" lon="4.80801">
        <ele>477</ele>
        <time>2014-02-09T10:53:06Z</time>
      </trkpt>
      <trkpt lat="45.85063" lon="4.80799">
        <ele>477</ele>
        <time>2014-02-09T10:53:08Z</time>
      </trkpt>
      <trkpt lat="45.85061" lon="4.80798">
        <ele>477</ele>
        <time>2014-02-09T10:53:10Z</time>
      </trkpt>
      <trkpt lat="45.85059" lon="4.80796">
        <ele>477</ele>
        <time>2014-02-09T10:53:11Z</time>
      </trkpt>
      <trkpt lat="45.85052" lon="4.8079">
        <ele>477</ele>
        <time>2014-02-09T10:53:17Z</time>
      </trkpt>
      <trkpt lat="45.85047" lon="4.80784">
        <ele>478</ele>
        <time>2014-02-09T10:53:23Z</time>
      </trkpt>
      <trkpt lat="45.85046" lon="4.80782">
        <ele>478</ele>
        <time>2014-02-09T10:53:25Z</time>
      </trkpt>
      <trkpt lat="45.85044" lon="4.8078">
        <ele>478</ele>
        <time>2014-02-09T10:53:27Z</time>
      </trkpt>
      <trkpt lat="45.85041" lon="4.80778">
        <ele>478</ele>
        <time>2014-02-09T10:53:30Z</time>
      </trkpt>
      <trkpt lat="45.85039" lon="4.80775">
        <ele>478</ele>
        <time>2014-02-09T10:53:33Z</time>
      </trkpt>
      <trkpt lat="45.85037" lon="4.80774">
        <ele>479</ele>
        <time>2014-02-09T10:53:36Z</time>
      </trkpt>
      <trkpt lat="45.85036" lon="4.80772">
        <ele>479</ele>
        <time>2014-02-09T10:53:37Z</time>
      </trkpt>
      <trkpt lat="45.8503" lon="4.80767">
        <ele>480</ele>
        <time>2014-02-09T10:53:43Z</time>
      </trkpt>
      <trkpt lat="45.85028" lon="4.80764">
        <ele>480</ele>
        <time>2014-02-09T10:53:45Z</time>
      </trkpt>
      <trkpt lat="45.85026" lon="4.80762">
        <ele>481</ele>
        <time>2014-02-09T10:53:47Z</time>
      </trkpt>
      <trkpt lat="45.85024" lon="4.80759">
        <ele>481</ele>
        <time>2014-02-09T10:53:50Z</time>
      </trkpt>
      <trkpt lat="45.85022" lon="4.80757">
        <ele>482</ele>
        <time>2014-02-09T10:53:52Z</time>
      </trkpt>
      <trkpt lat="45.85018" lon="4.80755">
        <ele>483</ele>
        <time>2014-02-09T10:53:55Z</time>
      </trkpt>
      <trkpt lat="45.85016" lon="4.80753">
        <ele>483</ele>
        <time>2014-02-09T10:53:57Z</time>
      </trkpt>
      <trkpt lat="45.85015" lon="4.80752">
        <ele>484</ele>
        <time>2014-02-09T10:53:58Z</time>
      </trkpt>
      <trkpt lat="45.8501" lon="4.80747">
        <ele>480</ele>
        <time>2014-02-09T10:54:02Z</time>
      </trkpt>
      <trkpt lat="45.85006" lon="4.80743">
        <ele>481</ele>
        <time>2014-02-09T10:54:06Z</time>
      </trkpt>
      <trkpt lat="45.85002" lon="4.8074">
        <ele>481</ele>
        <time>2014-02-09T10:54:09Z</time>
      </trkpt>
      <trkpt lat="45.85001" lon="4.80739">
        <ele>481</ele>
        <time>2014-02-09T10:54:10Z</time>
      </trkpt>
      <trkpt lat="45.84998" lon="4.80738">
        <ele>488</ele>
        <time>2014-02-09T10:54:12Z</time>
      </trkpt>
      <trkpt lat="45.84995" lon="4.80737">
        <ele>488</ele>
        <time>2014-02-09T10:54:15Z</time>
      </trkpt>
      <trkpt lat="45.84986" lon="4.80729">
        <ele>488</ele>
        <time>2014-02-09T10:54:22Z</time>
      </trkpt>
      <trkpt lat="45.84983" lon="4.80726">
        <ele>488</ele>
        <time>2014-02-09T10:54:24Z</time>
      </trkpt>
      <trkpt lat="45.84982" lon="4.80726">
        <ele>488</ele>
        <time>2014-02-09T10:54:25Z</time>
      </trkpt>
      <trkpt lat="45.8498" lon="4.80728">
        <ele>488</ele>
        <time>2014-02-09T10:54:27Z</time>
      </trkpt>
      <trkpt lat="45.84979" lon="4.80729">
        <ele>488</ele>
        <time>2014-02-09T10:54:29Z</time>
      </trkpt>
      <trkpt lat="45.84978" lon="4.80729">
        <ele>488</ele>
        <time>2014-02-09T10:54:32Z</time>
      </trkpt>
      <trkpt lat="45.84976" lon="4.80727">
        <ele>488</ele>
        <time>2014-02-09T10:54:39Z</time>
      </trkpt>
      <trkpt lat="45.84975" lon="4.80726">
        <ele>488</ele>
        <time>2014-02-09T10:54:41Z</time>
      </trkpt>
      <trkpt lat="45.84971" lon="4.80718">
        <ele>488</ele>
        <time>2014-02-09T10:54:46Z</time>
      </trkpt>
      <trkpt lat="45.84971" lon="4.80715">
        <ele>488</ele>
        <time>2014-02-09T10:54:49Z</time>
      </trkpt>
      <trkpt lat="45.8497" lon="4.80715">
        <ele>488</ele>
        <time>2014-02-09T10:54:51Z</time>
      </trkpt>
      <trkpt lat="45.84968" lon="4.80716">
        <ele>488</ele>
        <time>2014-02-09T10:55:17Z</time>
      </trkpt>
      <trkpt lat="45.84968" lon="4.80718">
        <ele>488</ele>
        <time>2014-02-09T10:55:20Z</time>
      </trkpt>
      <trkpt lat="45.84965" lon="4.8071">
        <ele>488</ele>
        <time>2014-02-09T10:55:39Z</time>
      </trkpt>
      <trkpt lat="45.84964" lon="4.80701">
        <ele>487</ele>
        <time>2014-02-09T10:55:44Z</time>
      </trkpt>
      <trkpt lat="45.84961" lon="4.80695">
        <ele>487</ele>
        <time>2014-02-09T10:55:48Z</time>
      </trkpt>
      <trkpt lat="45.84959" lon="4.8069">
        <ele>488</ele>
        <time>2014-02-09T10:55:52Z</time>
      </trkpt>
      <trkpt lat="45.84954" lon="4.80679">
        <ele>488</ele>
        <time>2014-02-09T10:55:59Z</time>
      </trkpt>
      <trkpt lat="45.84951" lon="4.80673">
        <ele>489</ele>
        <time>2014-02-09T10:56:04Z</time>
      </trkpt>
      <trkpt lat="45.84948" lon="4.80672">
        <ele>489</ele>
        <time>2014-02-09T10:56:06Z</time>
      </trkpt>
      <trkpt lat="45.84946" lon="4.80671">
        <ele>489</ele>
        <time>2014-02-09T10:56:09Z</time>
      </trkpt>
      <trkpt lat="45.84944" lon="4.80671">
        <ele>490</ele>
        <time>2014-02-09T10:56:11Z</time>
      </trkpt>
      <trkpt lat="45.84935" lon="4.80671">
        <ele>491</ele>
        <time>2014-02-09T10:56:19Z</time>
      </trkpt>
      <trkpt lat="45.84932" lon="4.80671">
        <ele>492</ele>
        <time>2014-02-09T10:56:22Z</time>
      </trkpt>
      <trkpt lat="45.84929" lon="4.80669">
        <ele>493</ele>
        <time>2014-02-09T10:56:25Z</time>
      </trkpt>
      <trkpt lat="45.84925" lon="4.80668">
        <ele>493</ele>
        <time>2014-02-09T10:56:28Z</time>
      </trkpt>
      <trkpt lat="45.8492" lon="4.80666">
        <ele>494</ele>
        <time>2014-02-09T10:56:33Z</time>
      </trkpt>
      <trkpt lat="45.84914" lon="4.80665">
        <ele>496</ele>
        <time>2014-02-09T10:56:38Z</time>
      </trkpt>
      <trkpt lat="45.8491" lon="4.80664">
        <ele>496</ele>
        <time>2014-02-09T10:56:41Z</time>
      </trkpt>
      <trkpt lat="45.84902" lon="4.80659">
        <ele>496</ele>
        <time>2014-02-09T10:56:48Z</time>
      </trkpt>
      <trkpt lat="45.84897" lon="4.80656">
        <ele>497</ele>
        <time>2014-02-09T10:56:52Z</time>
      </trkpt>
      <trkpt lat="45.84891" lon="4.80652">
        <ele>497</ele>
        <time>2014-02-09T10:56:57Z</time>
      </trkpt>
      <trkpt lat="45.84882" lon="4.80649">
        <ele>497</ele>
        <time>2014-02-09T10:57:03Z</time>
      </trkpt>
      <trkpt lat="45.84879" lon="4.80648">
        <ele>497</ele>
        <time>2014-02-09T10:57:05Z</time>
      </trkpt>
      <trkpt lat="45.8487" lon="4.80645">
        <ele>497</ele>
        <time>2014-02-09T10:57:11Z</time>
      </trkpt>
      <trkpt lat="45.84861" lon="4.80643">
        <ele>497</ele>
        <time>2014-02-09T10:57:16Z</time>
      </trkpt>
      <trkpt lat="45.84857" lon="4.80642">
        <ele>497</ele>
        <time>2014-02-09T10:57:18Z</time>
      </trkpt>
      <trkpt lat="45.84843" lon="4.80639">
        <ele>497</ele>
        <time>2014-02-09T10:57:25Z</time>
      </trkpt>
      <trkpt lat="45.84839" lon="4.80639">
        <ele>497</ele>
        <time>2014-02-09T10:57:27Z</time>
      </trkpt>
      <trkpt lat="45.84824" lon="4.80636">
        <ele>497</ele>
        <time>2014-02-09T10:57:35Z</time>
      </trkpt>
      <trkpt lat="45.84805" lon="4.80632">
        <ele>497</ele>
        <time>2014-02-09T10:57:44Z</time>
      </trkpt>
      <trkpt lat="45.84785" lon="4.80629">
        <ele>497</ele>
        <time>2014-02-09T10:57:52Z</time>
      </trkpt>
      <trkpt lat="45.84775" lon="4.8063">
        <ele>497</ele>
        <time>2014-02-09T10:57:57Z</time>
      </trkpt>
      <trkpt lat="45.84766" lon="4.80632">
        <ele>497</ele>
        <time>2014-02-09T10:58:01Z</time>
      </trkpt>
      <trkpt lat="45.84761" lon="4.80633">
        <ele>496</ele>
        <time>2014-02-09T10:58:03Z</time>
      </trkpt>
      <trkpt lat="45.8475" lon="4.80638">
        <ele>496</ele>
        <time>2014-02-09T10:58:09Z</time>
      </trkpt>
      <trkpt lat="45.84747" lon="4.80639">
        <ele>495</ele>
        <time>2014-02-09T10:58:11Z</time>
      </trkpt>
      <trkpt lat="45.84739" lon="4.80642">
        <ele>494</ele>
        <time>2014-02-09T10:58:15Z</time>
      </trkpt>
      <trkpt lat="45.84728" lon="4.80642">
        <ele>495</ele>
        <time>2014-02-09T10:58:20Z</time>
      </trkpt>
      <trkpt lat="45.84716" lon="4.80643">
        <ele>495</ele>
        <time>2014-02-09T10:58:26Z</time>
      </trkpt>
      <trkpt lat="45.84708" lon="4.80644">
        <ele>495</ele>
        <time>2014-02-09T10:58:29Z</time>
      </trkpt>
      <trkpt lat="45.84698" lon="4.80645">
        <ele>495</ele>
        <time>2014-02-09T10:58:33Z</time>
      </trkpt>
      <trkpt lat="45.84688" lon="4.80647">
        <ele>494</ele>
        <time>2014-02-09T10:58:37Z</time>
      </trkpt>
      <trkpt lat="45.84683" lon="4.80646">
        <ele>494</ele>
        <time>2014-02-09T10:58:39Z</time>
      </trkpt>
      <trkpt lat="45.8467" lon="4.80642">
        <ele>494</ele>
        <time>2014-02-09T10:58:44Z</time>
      </trkpt>
      <trkpt lat="45.84658" lon="4.8064">
        <ele>492</ele>
        <time>2014-02-09T10:58:49Z</time>
      </trkpt>
      <trkpt lat="45.84652" lon="4.80638">
        <ele>493</ele>
        <time>2014-02-09T10:58:52Z</time>
      </trkpt>
      <trkpt lat="45.84646" lon="4.80636">
        <ele>493</ele>
        <time>2014-02-09T10:58:55Z</time>
      </trkpt>
      <trkpt lat="45.84634" lon="4.80636">
        <ele>492</ele>
        <time>2014-02-09T10:59:00Z</time>
      </trkpt>
      <trkpt lat="45.84623" lon="4.80634">
        <ele>492</ele>
        <time>2014-02-09T10:59:05Z</time>
      </trkpt>
      <trkpt lat="45.8462" lon="4.80634">
        <ele>492</ele>
        <time>2014-02-09T10:59:06Z</time>
      </trkpt>
      <trkpt lat="45.84615" lon="4.80634">
        <ele>492</ele>
        <time>2014-02-09T10:59:09Z</time>
      </trkpt>
      <trkpt lat="45.84614" lon="4.80634">
        <ele>492</ele>
        <time>2014-02-09T10:59:11Z</time>
      </trkpt>
      <trkpt lat="45.84613" lon="4.80634">
        <ele>492</ele>
        <time>2014-02-09T10:59:12Z</time>
      </trkpt>
      <trkpt lat="45.84609" lon="4.80634">
        <ele>491</ele>
        <time>2014-02-09T10:59:14Z</time>
      </trkpt>
      <trkpt lat="45.84598" lon="4.80628">
        <ele>491</ele>
        <time>2014-02-09T10:59:20Z</time>
      </trkpt>
      <trkpt lat="45.84587" lon="4.80614">
        <ele>492</ele>
        <time>2014-02-09T10:59:26Z</time>
      </trkpt>
      <trkpt lat="45.84585" lon="4.80608">
        <ele>493</ele>
        <time>2014-02-09T10:59:28Z</time>
      </trkpt>
      <trkpt lat="45.8458" lon="4.80597">
        <ele>491</ele>
        <time>2014-02-09T10:59:32Z</time>
      </trkpt>
      <trkpt lat="45.84577" lon="4.80584">
        <ele>493</ele>
        <time>2014-02-09T10:59:36Z</time>
      </trkpt>
      <trkpt lat="45.84575" lon="4.80578">
        <ele>496</ele>
        <time>2014-02-09T10:59:38Z</time>
      </trkpt>
      <trkpt lat="45.8457" lon="4.80571">
        <ele>497</ele>
        <time>2014-02-09T10:59:41Z</time>
      </trkpt>
      <trkpt lat="45.84568" lon="4.80569">
        <ele>497</ele>
        <time>2014-02-09T10:59:42Z</time>
      </trkpt>
      <trkpt lat="45.84564" lon="4.80564">
        <ele>498</ele>
        <time>2014-02-09T10:59:44Z</time>
      </trkpt>
      <trkpt lat="45.84561" lon="4.80562">
        <ele>498</ele>
        <time>2014-02-09T10:59:46Z</time>
      </trkpt>
      <trkpt lat="45.84552" lon="4.8056">
        <ele>499</ele>
        <time>2014-02-09T10:59:51Z</time>
      </trkpt>
      <trkpt lat="45.84546" lon="4.80561">
        <ele>499</ele>
        <time>2014-02-09T10:59:54Z</time>
      </trkpt>
      <trkpt lat="45.84543" lon="4.80563">
        <ele>499</ele>
        <time>2014-02-09T10:59:56Z</time>
      </trkpt>
      <trkpt lat="45.84535" lon="4.80567">
        <ele>498</ele>
        <time>2014-02-09T11:00:01Z</time>
      </trkpt>
      <trkpt lat="45.84529" lon="4.80573">
        <ele>498</ele>
        <time>2014-02-09T11:00:05Z</time>
      </trkpt>
      <trkpt lat="45.84526" lon="4.80576">
        <ele>497</ele>
        <time>2014-02-09T11:00:07Z</time>
      </trkpt>
      <trkpt lat="45.84516" lon="4.80584">
        <ele>491</ele>
        <time>2014-02-09T11:00:13Z</time>
      </trkpt>
      <trkpt lat="45.84512" lon="4.80586">
        <ele>491</ele>
        <time>2014-02-09T11:00:15Z</time>
      </trkpt>
      <trkpt lat="45.84505" lon="4.8059">
        <ele>491</ele>
        <time>2014-02-09T11:00:19Z</time>
      </trkpt>
      <trkpt lat="45.84494" lon="4.80594">
        <ele>491</ele>
        <time>2014-02-09T11:00:25Z</time>
      </trkpt>
      <trkpt lat="45.84488" lon="4.80595">
        <ele>491</ele>
        <time>2014-02-09T11:00:28Z</time>
      </trkpt>
      <trkpt lat="45.84482" lon="4.80596">
        <ele>491</ele>
        <time>2014-02-09T11:00:31Z</time>
      </trkpt>
      <trkpt lat="45.84476" lon="4.80596">
        <ele>490</ele>
        <time>2014-02-09T11:00:35Z</time>
      </trkpt>
      <trkpt lat="45.84475" lon="4.80596">
        <ele>490</ele>
        <time>2014-02-09T11:00:36Z</time>
      </trkpt>
      <trkpt lat="45.84473" lon="4.80596">
        <ele>490</ele>
        <time>2014-02-09T11:00:37Z</time>
      </trkpt>
      <trkpt lat="45.84465" lon="4.80595">
        <ele>491</ele>
        <time>2014-02-09T11:00:42Z</time>
      </trkpt>
      <trkpt lat="45.84463" lon="4.80594">
        <ele>491</ele>
        <time>2014-02-09T11:00:43Z</time>
      </trkpt>
      <trkpt lat="45.84456" lon="4.80593">
        <ele>491</ele>
        <time>2014-02-09T11:00:48Z</time>
      </trkpt>
      <trkpt lat="45.84454" lon="4.80594">
        <ele>491</ele>
        <time>2014-02-09T11:00:49Z</time>
      </trkpt>
      <trkpt lat="45.84447" lon="4.80593">
        <ele>491</ele>
        <time>2014-02-09T11:00:54Z</time>
      </trkpt>
      <trkpt lat="45.84437" lon="4.80591">
        <ele>492</ele>
        <time>2014-02-09T11:01:01Z</time>
      </trkpt>
      <trkpt lat="45.84434" lon="4.80589">
        <ele>493</ele>
        <time>2014-02-09T11:01:03Z</time>
      </trkpt>
      <trkpt lat="45.84431" lon="4.80586">
        <ele>493</ele>
        <time>2014-02-09T11:01:06Z</time>
      </trkpt>
      <trkpt lat="45.84429" lon="4.80585">
        <ele>494</ele>
        <time>2014-02-09T11:01:08Z</time>
      </trkpt>
      <trkpt lat="45.84421" lon="4.80583">
        <ele>496</ele>
        <time>2014-02-09T11:01:14Z</time>
      </trkpt>
      <trkpt lat="45.84419" lon="4.80582">
        <ele>497</ele>
        <time>2014-02-09T11:01:16Z</time>
      </trkpt>
      <trkpt lat="45.84416" lon="4.80581">
        <ele>497</ele>
        <time>2014-02-09T11:01:18Z</time>
      </trkpt>
      <trkpt lat="45.84415" lon="4.80581">
        <ele>497</ele>
        <time>2014-02-09T11:01:19Z</time>
      </trkpt>
      <trkpt lat="45.84414" lon="4.8058">
        <ele>498</ele>
        <time>2014-02-09T11:01:20Z</time>
      </trkpt>
      <trkpt lat="45.84407" lon="4.80575">
        <ele>498</ele>
        <time>2014-02-09T11:01:26Z</time>
      </trkpt>
      <trkpt lat="45.84406" lon="4.80574">
        <ele>498</ele>
        <time>2014-02-09T11:01:27Z</time>
      </trkpt>
      <trkpt lat="45.84402" lon="4.80571">
        <ele>499</ele>
        <time>2014-02-09T11:01:30Z</time>
      </trkpt>
      <trkpt lat="45.84397" lon="4.8057">
        <ele>499</ele>
        <time>2014-02-09T11:01:33Z</time>
      </trkpt>
      <trkpt lat="45.84391" lon="4.80568">
        <ele>499</ele>
        <time>2014-02-09T11:01:38Z</time>
      </trkpt>
      <trkpt lat="45.84389" lon="4.80567">
        <ele>499</ele>
        <time>2014-02-09T11:01:39Z</time>
      </trkpt>
      <trkpt lat="45.84384" lon="4.80567">
        <ele>499</ele>
        <time>2014-02-09T11:01:42Z</time>
      </trkpt>
      <trkpt lat="45.84379" lon="4.80565">
        <ele>499</ele>
        <time>2014-02-09T11:01:46Z</time>
      </trkpt>
      <trkpt lat="45.84373" lon="4.80564">
        <ele>499</ele>
        <time>2014-02-09T11:01:51Z</time>
      </trkpt>
      <trkpt lat="45.84366" lon="4.8056">
        <ele>499</ele>
        <time>2014-02-09T11:01:57Z</time>
      </trkpt>
      <trkpt lat="45.84363" lon="4.8056">
        <ele>499</ele>
        <time>2014-02-09T11:01:59Z</time>
      </trkpt>
      <trkpt lat="45.84361" lon="4.8056">
        <ele>499</ele>
        <time>2014-02-09T11:02:01Z</time>
      </trkpt>
      <trkpt lat="45.84354" lon="4.80561">
        <ele>499</ele>
        <time>2014-02-09T11:02:06Z</time>
      </trkpt>
      <trkpt lat="45.84347" lon="4.80563">
        <ele>499</ele>
        <time>2014-02-09T11:02:10Z</time>
      </trkpt>
      <trkpt lat="45.84337" lon="4.80566">
        <ele>498</ele>
        <time>2014-02-09T11:02:15Z</time>
      </trkpt>
      <trkpt lat="45.84335" lon="4.80567">
        <ele>498</ele>
        <time>2014-02-09T11:02:16Z</time>
      </trkpt>
      <trkpt lat="45.8433" lon="4.80572">
        <ele>496</ele>
        <time>2014-02-09T11:02:19Z</time>
      </trkpt>
      <trkpt lat="45.84328" lon="4.80573">
        <ele>496</ele>
        <time>2014-02-09T11:02:20Z</time>
      </trkpt>
      <trkpt lat="45.84314" lon="4.80577">
        <ele>496</ele>
        <time>2014-02-09T11:02:26Z</time>
      </trkpt>
      <trkpt lat="45.84312" lon="4.80578">
        <ele>496</ele>
        <time>2014-02-09T11:02:27Z</time>
      </trkpt>
      <trkpt lat="45.843" lon="4.80582">
        <ele>496</ele>
        <time>2014-02-09T11:02:32Z</time>
      </trkpt>
      <trkpt lat="45.84293" lon="4.80586">
        <ele>491</ele>
        <time>2014-02-09T11:02:35Z</time>
      </trkpt>
      <trkpt lat="45.8429" lon="4.80587">
        <ele>491</ele>
        <time>2014-02-09T11:02:37Z</time>
      </trkpt>
      <trkpt lat="45.84282" lon="4.80593">
        <ele>490</ele>
        <time>2014-02-09T11:02:42Z</time>
      </trkpt>
      <trkpt lat="45.84275" lon="4.80596">
        <ele>490</ele>
        <time>2014-02-09T11:02:47Z</time>
      </trkpt>
      <trkpt lat="45.84271" lon="4.80599">
        <ele>490</ele>
        <time>2014-02-09T11:02:51Z</time>
      </trkpt>
      <trkpt lat="45.84271" lon="4.806">
        <ele>490</ele>
        <time>2014-02-09T11:02:52Z</time>
      </trkpt>
      <trkpt lat="45.84269" lon="4.80602">
        <ele>490</ele>
        <time>2014-02-09T11:02:57Z</time>
      </trkpt>
      <trkpt lat="45.84266" lon="4.80606">
        <ele>490</ele>
        <time>2014-02-09T11:03:02Z</time>
      </trkpt>
      <trkpt lat="45.84266" lon="4.80612">
        <ele>490</ele>
        <time>2014-02-09T11:03:07Z</time>
      </trkpt>
      <trkpt lat="45.84266" lon="4.80615">
        <ele>489</ele>
        <time>2014-02-09T11:03:08Z</time>
      </trkpt>
      <trkpt lat="45.84267" lon="4.80618">
        <ele>489</ele>
        <time>2014-02-09T11:03:09Z</time>
      </trkpt>
      <trkpt lat="45.84267" lon="4.80621">
        <ele>489</ele>
        <time>2014-02-09T11:03:10Z</time>
      </trkpt>
      <trkpt lat="45.84266" lon="4.80625">
        <ele>489</ele>
        <time>2014-02-09T11:03:11Z</time>
      </trkpt>
      <trkpt lat="45.84258" lon="4.80636">
        <ele>488</ele>
        <time>2014-02-09T11:03:15Z</time>
      </trkpt>
      <trkpt lat="45.84256" lon="4.80638">
        <ele>488</ele>
        <time>2014-02-09T11:03:16Z</time>
      </trkpt>
      <trkpt lat="45.8425" lon="4.80649">
        <ele>484</ele>
        <time>2014-02-09T11:03:20Z</time>
      </trkpt>
      <trkpt lat="45.84246" lon="4.80661">
        <ele>484</ele>
        <time>2014-02-09T11:03:24Z</time>
      </trkpt>
      <trkpt lat="45.84245" lon="4.80669">
        <ele>483</ele>
        <time>2014-02-09T11:03:26Z</time>
      </trkpt>
      <trkpt lat="45.84244" lon="4.80685">
        <ele>481</ele>
        <time>2014-02-09T11:03:31Z</time>
      </trkpt>
      <trkpt lat="45.84244" lon="4.80689">
        <ele>481</ele>
        <time>2014-02-09T11:03:32Z</time>
      </trkpt>
      <trkpt lat="45.84242" lon="4.80699">
        <ele>480</ele>
        <time>2014-02-09T11:03:35Z</time>
      </trkpt>
      <trkpt lat="45.84241" lon="4.80702">
        <ele>480</ele>
        <time>2014-02-09T11:03:36Z</time>
      </trkpt>
      <trkpt lat="45.84237" lon="4.80712">
        <ele>479</ele>
        <time>2014-02-09T11:03:40Z</time>
      </trkpt>
      <trkpt lat="45.84235" lon="4.80718">
        <ele>479</ele>
        <time>2014-02-09T11:03:42Z</time>
      </trkpt>
      <trkpt lat="45.84231" lon="4.80738">
        <ele>478</ele>
        <time>2014-02-09T11:03:48Z</time>
      </trkpt>
      <trkpt lat="45.84231" lon="4.80741">
        <ele>477</ele>
        <time>2014-02-09T11:03:49Z</time>
      </trkpt>
      <trkpt lat="45.84231" lon="4.8076">
        <ele>474</ele>
        <time>2014-02-09T11:03:55Z</time>
      </trkpt>
      <trkpt lat="45.84232" lon="4.80766">
        <ele>474</ele>
        <time>2014-02-09T11:03:57Z</time>
      </trkpt>
      <trkpt lat="45.84232" lon="4.80777">
        <ele>474</ele>
        <time>2014-02-09T11:04:00Z</time>
      </trkpt>
      <trkpt lat="45.84232" lon="4.80781">
        <ele>474</ele>
        <time>2014-02-09T11:04:01Z</time>
      </trkpt>
      <trkpt lat="45.84229" lon="4.80787">
        <ele>473</ele>
        <time>2014-02-09T11:04:03Z</time>
      </trkpt>
      <trkpt lat="45.84224" lon="4.8079">
        <ele>473</ele>
        <time>2014-02-09T11:04:05Z</time>
      </trkpt>
      <trkpt lat="45.84216" lon="4.80796">
        <ele>473</ele>
        <time>2014-02-09T11:04:09Z</time>
      </trkpt>
      <trkpt lat="45.84208" lon="4.80802">
        <ele>473</ele>
        <time>2014-02-09T11:04:13Z</time>
      </trkpt>
      <trkpt lat="45.84206" lon="4.80806">
        <ele>473</ele>
        <time>2014-02-09T11:04:15Z</time>
      </trkpt>
      <trkpt lat="45.84198" lon="4.80823">
        <ele>472</ele>
        <time>2014-02-09T11:04:21Z</time>
      </trkpt>
      <trkpt lat="45.84196" lon="4.80825">
        <ele>472</ele>
        <time>2014-02-09T11:04:22Z</time>
      </trkpt>
      <trkpt lat="45.84186" lon="4.8084">
        <ele>468</ele>
        <time>2014-02-09T11:04:28Z</time>
      </trkpt>
      <trkpt lat="45.84183" lon="4.80844">
        <ele>468</ele>
        <time>2014-02-09T11:04:30Z</time>
      </trkpt>
      <trkpt lat="45.84175" lon="4.80857">
        <ele>467</ele>
        <time>2014-02-09T11:04:35Z</time>
      </trkpt>
      <trkpt lat="45.84172" lon="4.80866">
        <ele>467</ele>
        <time>2014-02-09T11:04:38Z</time>
      </trkpt>
      <trkpt lat="45.8417" lon="4.80875">
        <ele>466</ele>
        <time>2014-02-09T11:04:41Z</time>
      </trkpt>
      <trkpt lat="45.84166" lon="4.80888">
        <ele>464</ele>
        <time>2014-02-09T11:04:45Z</time>
      </trkpt>
      <trkpt lat="45.84164" lon="4.80891">
        <ele>464</ele>
        <time>2014-02-09T11:04:46Z</time>
      </trkpt>
      <trkpt lat="45.84159" lon="4.80898">
        <ele>463</ele>
        <time>2014-02-09T11:04:49Z</time>
      </trkpt>
      <trkpt lat="45.84149" lon="4.80907">
        <ele>463</ele>
        <time>2014-02-09T11:04:54Z</time>
      </trkpt>
      <trkpt lat="45.84145" lon="4.80914">
        <ele>463</ele>
        <time>2014-02-09T11:04:57Z</time>
      </trkpt>
      <trkpt lat="45.84144" lon="4.80917">
        <ele>463</ele>
        <time>2014-02-09T11:04:58Z</time>
      </trkpt>
      <trkpt lat="45.8414" lon="4.8093">
        <ele>460</ele>
        <time>2014-02-09T11:05:02Z</time>
      </trkpt>
      <trkpt lat="45.84137" lon="4.80936">
        <ele>459</ele>
        <time>2014-02-09T11:05:04Z</time>
      </trkpt>
      <trkpt lat="45.84131" lon="4.80953">
        <ele>458</ele>
        <time>2014-02-09T11:05:09Z</time>
      </trkpt>
      <trkpt lat="45.84129" lon="4.80959">
        <ele>458</ele>
        <time>2014-02-09T11:05:11Z</time>
      </trkpt>
      <trkpt lat="45.84122" lon="4.80975">
        <ele>457</ele>
        <time>2014-02-09T11:05:16Z</time>
      </trkpt>
      <trkpt lat="45.84119" lon="4.80981">
        <ele>457</ele>
        <time>2014-02-09T11:05:18Z</time>
      </trkpt>
      <trkpt lat="45.8411" lon="4.80995">
        <ele>456</ele>
        <time>2014-02-09T11:05:23Z</time>
      </trkpt>
      <trkpt lat="45.84106" lon="4.81">
        <ele>454</ele>
        <time>2014-02-09T11:05:25Z</time>
      </trkpt>
      <trkpt lat="45.84093" lon="4.81007">
        <ele>454</ele>
        <time>2014-02-09T11:05:30Z</time>
      </trkpt>
      <trkpt lat="45.84091" lon="4.81007">
        <ele>454</ele>
        <time>2014-02-09T11:05:31Z</time>
      </trkpt>
      <trkpt lat="45.84079" lon="4.81007">
        <ele>452</ele>
        <time>2014-02-09T11:05:36Z</time>
      </trkpt>
      <trkpt lat="45.84076" lon="4.81008">
        <ele>451</ele>
        <time>2014-02-09T11:05:40Z</time>
      </trkpt>
      <trkpt lat="45.84075" lon="4.81008">
        <ele>451</ele>
        <time>2014-02-09T11:05:42Z</time>
      </trkpt>
      <trkpt lat="45.84072" lon="4.81007">
        <ele>451</ele>
        <time>2014-02-09T11:05:44Z</time>
      </trkpt>
      <trkpt lat="45.84071" lon="4.81007">
        <ele>451</ele>
        <time>2014-02-09T11:05:45Z</time>
      </trkpt>
      <trkpt lat="45.84061" lon="4.81005">
        <ele>449</ele>
        <time>2014-02-09T11:05:52Z</time>
      </trkpt>
      <trkpt lat="45.84056" lon="4.81006">
        <ele>449</ele>
        <time>2014-02-09T11:05:54Z</time>
      </trkpt>
      <trkpt lat="45.84052" lon="4.81007">
        <ele>448</ele>
        <time>2014-02-09T11:05:56Z</time>
      </trkpt>
      <trkpt lat="45.84048" lon="4.81007">
        <ele>448</ele>
        <time>2014-02-09T11:06:00Z</time>
      </trkpt>
      <trkpt lat="45.84046" lon="4.81007">
        <ele>448</ele>
        <time>2014-02-09T11:06:01Z</time>
      </trkpt>
      <trkpt lat="45.84039" lon="4.81005">
        <ele>447</ele>
        <time>2014-02-09T11:06:05Z</time>
      </trkpt>
      <trkpt lat="45.84036" lon="4.81005">
        <ele>447</ele>
        <time>2014-02-09T11:06:06Z</time>
      </trkpt>
      <trkpt lat="45.84025" lon="4.81003">
        <ele>446</ele>
        <time>2014-02-09T11:06:13Z</time>
      </trkpt>
      <trkpt lat="45.84024" lon="4.81003">
        <ele>446</ele>
        <time>2014-02-09T11:06:14Z</time>
      </trkpt>
      <trkpt lat="45.84017" lon="4.81002">
        <ele>445</ele>
        <time>2014-02-09T11:06:18Z</time>
      </trkpt>
      <trkpt lat="45.84006" lon="4.81001">
        <ele>444</ele>
        <time>2014-02-09T11:06:23Z</time>
      </trkpt>
      <trkpt lat="45.84003" lon="4.81001">
        <ele>443</ele>
        <time>2014-02-09T11:06:29Z</time>
      </trkpt>
      <trkpt lat="45.83997" lon="4.80999">
        <ele>442</ele>
        <time>2014-02-09T11:06:35Z</time>
      </trkpt>
      <trkpt lat="45.8399" lon="4.80998">
        <ele>439</ele>
        <time>2014-02-09T11:06:41Z</time>
      </trkpt>
      <trkpt lat="45.83979" lon="4.80995">
        <ele>436</ele>
        <time>2014-02-09T11:06:47Z</time>
      </trkpt>
      <trkpt lat="45.83969" lon="4.80996">
        <ele>433</ele>
        <time>2014-02-09T11:06:53Z</time>
      </trkpt>
      <trkpt lat="45.8396" lon="4.80995">
        <ele>432</ele>
        <time>2014-02-09T11:06:58Z</time>
      </trkpt>
      <trkpt lat="45.83959" lon="4.80994">
        <ele>431</ele>
        <time>2014-02-09T11:06:59Z</time>
      </trkpt>
      <trkpt lat="45.83953" lon="4.80984">
        <ele>430</ele>
        <time>2014-02-09T11:07:04Z</time>
      </trkpt>
      <trkpt lat="45.8395" lon="4.80973">
        <ele>430</ele>
        <time>2014-02-09T11:07:07Z</time>
      </trkpt>
      <trkpt lat="45.83949" lon="4.80966">
        <ele>430</ele>
        <time>2014-02-09T11:07:09Z</time>
      </trkpt>
      <trkpt lat="45.83946" lon="4.80958">
        <ele>429</ele>
        <time>2014-02-09T11:07:12Z</time>
      </trkpt>
      <trkpt lat="45.83944" lon="4.80957">
        <ele>429</ele>
        <time>2014-02-09T11:07:14Z</time>
      </trkpt>
      <trkpt lat="45.83943" lon="4.80958">
        <ele>429</ele>
        <time>2014-02-09T11:07:16Z</time>
      </trkpt>
      <trkpt lat="45.83942" lon="4.80957">
        <ele>429</ele>
        <time>2014-02-09T11:07:17Z</time>
      </trkpt>
      <trkpt lat="45.8394" lon="4.80957">
        <ele>429</ele>
        <time>2014-02-09T11:07:20Z</time>
      </trkpt>
      <trkpt lat="45.83933" lon="4.80961">
        <ele>428</ele>
        <time>2014-02-09T11:07:25Z</time>
      </trkpt>
      <trkpt lat="45.83928" lon="4.80965">
        <ele>427</ele>
        <time>2014-02-09T11:07:30Z</time>
      </trkpt>
      <trkpt lat="45.83922" lon="4.80967">
        <ele>427</ele>
        <time>2014-02-09T11:07:34Z</time>
      </trkpt>
      <trkpt lat="45.83921" lon="4.80967">
        <ele>427</ele>
        <time>2014-02-09T11:07:35Z</time>
      </trkpt>
      <trkpt lat="45.8392" lon="4.80968">
        <ele>427</ele>
        <time>2014-02-09T11:07:36Z</time>
      </trkpt>
      <trkpt lat="45.83913" lon="4.80975">
        <ele>413</ele>
        <time>2014-02-09T11:07:41Z</time>
      </trkpt>
      <trkpt lat="45.83907" lon="4.80975">
        <ele>413</ele>
        <time>2014-02-09T11:07:46Z</time>
      </trkpt>
      <trkpt lat="45.83906" lon="4.80974">
        <ele>412</ele>
        <time>2014-02-09T11:07:47Z</time>
      </trkpt>
      <trkpt lat="45.83904" lon="4.80974">
        <ele>412</ele>
        <time>2014-02-09T11:07:50Z</time>
      </trkpt>
      <trkpt lat="45.83902" lon="4.80975">
        <ele>412</ele>
        <time>2014-02-09T11:07:52Z</time>
      </trkpt>
      <trkpt lat="45.83896" lon="4.80978">
        <ele>411</ele>
        <time>2014-02-09T11:07:56Z</time>
      </trkpt>
      <trkpt lat="45.83894" lon="4.80979">
        <ele>411</ele>
        <time>2014-02-09T11:07:58Z</time>
      </trkpt>
      <trkpt lat="45.83888" lon="4.80983">
        <ele>410</ele>
        <time>2014-02-09T11:08:03Z</time>
      </trkpt>
      <trkpt lat="45.83884" lon="4.80986">
        <ele>409</ele>
        <time>2014-02-09T11:08:06Z</time>
      </trkpt>
      <trkpt lat="45.8388" lon="4.80988">
        <ele>408</ele>
        <time>2014-02-09T11:08:11Z</time>
      </trkpt>
      <trkpt lat="45.8388" lon="4.80989">
        <ele>408</ele>
        <time>2014-02-09T11:08:12Z</time>
      </trkpt>
      <trkpt lat="45.83873" lon="4.8099">
        <ele>407</ele>
        <time>2014-02-09T11:08:17Z</time>
      </trkpt>
      <trkpt lat="45.83871" lon="4.80991">
        <ele>406</ele>
        <time>2014-02-09T11:08:20Z</time>
      </trkpt>
      <trkpt lat="45.83869" lon="4.80993">
        <ele>406</ele>
        <time>2014-02-09T11:08:22Z</time>
      </trkpt>
      <trkpt lat="45.83864" lon="4.80995">
        <ele>404</ele>
        <time>2014-02-09T11:08:27Z</time>
      </trkpt>
      <trkpt lat="45.83863" lon="4.80995">
        <ele>404</ele>
        <time>2014-02-09T11:08:28Z</time>
      </trkpt>
      <trkpt lat="45.83861" lon="4.80995">
        <ele>403</ele>
        <time>2014-02-09T11:08:34Z</time>
      </trkpt>
      <trkpt lat="45.8386" lon="4.80994">
        <ele>403</ele>
        <time>2014-02-09T11:08:37Z</time>
      </trkpt>
      <trkpt lat="45.83858" lon="4.80991">
        <ele>403</ele>
        <time>2014-02-09T11:08:39Z</time>
      </trkpt>
      <trkpt lat="45.83856" lon="4.80988">
        <ele>402</ele>
        <time>2014-02-09T11:08:41Z</time>
      </trkpt>
      <trkpt lat="45.83855" lon="4.80986">
        <ele>402</ele>
        <time>2014-02-09T11:08:42Z</time>
      </trkpt>
      <trkpt lat="45.83855" lon="4.80981">
        <ele>403</ele>
        <time>2014-02-09T11:08:44Z</time>
      </trkpt>
      <trkpt lat="45.83855" lon="4.80979">
        <ele>403</ele>
        <time>2014-02-09T11:08:45Z</time>
      </trkpt>
      <trkpt lat="45.83857" lon="4.80972">
        <ele>405</ele>
        <time>2014-02-09T11:08:48Z</time>
      </trkpt>
      <trkpt lat="45.83858" lon="4.80969">
        <ele>405</ele>
        <time>2014-02-09T11:08:50Z</time>
      </trkpt>
      <trkpt lat="45.8386" lon="4.8096">
        <ele>406</ele>
        <time>2014-02-09T11:08:54Z</time>
      </trkpt>
      <trkpt lat="45.8386" lon="4.80957">
        <ele>406</ele>
        <time>2014-02-09T11:08:55Z</time>
      </trkpt>
      <trkpt lat="45.83861" lon="4.80953">
        <ele>407</ele>
        <time>2014-02-09T11:08:57Z</time>
      </trkpt>
      <trkpt lat="45.83862" lon="4.80945">
        <ele>407</ele>
        <time>2014-02-09T11:09:00Z</time>
      </trkpt>
      <trkpt lat="45.83862" lon="4.80936">
        <ele>407</ele>
        <time>2014-02-09T11:09:03Z</time>
      </trkpt>
      <trkpt lat="45.83862" lon="4.80932">
        <ele>408</ele>
        <time>2014-02-09T11:09:05Z</time>
      </trkpt>
      <trkpt lat="45.83862" lon="4.80932">
        <ele>407</ele>
        <time>2014-02-09T11:09:06Z</time>
      </trkpt>
      <trkpt lat="45.83859" lon="4.80931">
        <ele>407</ele>
        <time>2014-02-09T11:09:09Z</time>
      </trkpt>
      <trkpt lat="45.83854" lon="4.80933">
        <ele>407</ele>
        <time>2014-02-09T11:09:12Z</time>
      </trkpt>
      <trkpt lat="45.83852" lon="4.80934">
        <ele>406</ele>
        <time>2014-02-09T11:09:14Z</time>
      </trkpt>
      <trkpt lat="45.83844" lon="4.8094">
        <ele>406</ele>
        <time>2014-02-09T11:09:18Z</time>
      </trkpt>
      <trkpt lat="45.83841" lon="4.80942">
        <ele>406</ele>
        <time>2014-02-09T11:09:20Z</time>
      </trkpt>
      <trkpt lat="45.83835" lon="4.80946">
        <ele>405</ele>
        <time>2014-02-09T11:09:26Z</time>
      </trkpt>
      <trkpt lat="45.83828" lon="4.80951">
        <ele>397</ele>
        <time>2014-02-09T11:09:31Z</time>
      </trkpt>
      <trkpt lat="45.83826" lon="4.80952">
        <ele>397</ele>
        <time>2014-02-09T11:09:32Z</time>
      </trkpt>
      <trkpt lat="45.83819" lon="4.80958">
        <ele>396</ele>
        <time>2014-02-09T11:09:38Z</time>
      </trkpt>
      <trkpt lat="45.83814" lon="4.80963">
        <ele>395</ele>
        <time>2014-02-09T11:09:43Z</time>
      </trkpt>
      <trkpt lat="45.83813" lon="4.80966">
        <ele>395</ele>
        <time>2014-02-09T11:09:45Z</time>
      </trkpt>
      <trkpt lat="45.83808" lon="4.80972">
        <ele>395</ele>
        <time>2014-02-09T11:09:48Z</time>
      </trkpt>
      <trkpt lat="45.83806" lon="4.80975">
        <ele>394</ele>
        <time>2014-02-09T11:09:50Z</time>
      </trkpt>
      <trkpt lat="45.83799" lon="4.80978">
        <ele>394</ele>
        <time>2014-02-09T11:09:54Z</time>
      </trkpt>
      <trkpt lat="45.83798" lon="4.80977">
        <ele>394</ele>
        <time>2014-02-09T11:09:55Z</time>
      </trkpt>
      <trkpt lat="45.83794" lon="4.8098">
        <ele>394</ele>
        <time>2014-02-09T11:09:58Z</time>
      </trkpt>
      <trkpt lat="45.83793" lon="4.80982">
        <ele>394</ele>
        <time>2014-02-09T11:10:00Z</time>
      </trkpt>
      <trkpt lat="45.83787" lon="4.80991">
        <ele>393</ele>
        <time>2014-02-09T11:10:04Z</time>
      </trkpt>
      <trkpt lat="45.83786" lon="4.80997">
        <ele>393</ele>
        <time>2014-02-09T11:10:06Z</time>
      </trkpt>
      <trkpt lat="45.83784" lon="4.81005">
        <ele>384</ele>
        <time>2014-02-09T11:10:10Z</time>
      </trkpt>
      <trkpt lat="45.83782" lon="4.81016">
        <ele>383</ele>
        <time>2014-02-09T11:10:16Z</time>
      </trkpt>
      <trkpt lat="45.83781" lon="4.81021">
        <ele>383</ele>
        <time>2014-02-09T11:10:18Z</time>
      </trkpt>
      <trkpt lat="45.8378" lon="4.81022">
        <ele>383</ele>
        <time>2014-02-09T11:10:19Z</time>
      </trkpt>
      <trkpt lat="45.8378" lon="4.81027">
        <ele>382</ele>
        <time>2014-02-09T11:10:22Z</time>
      </trkpt>
      <trkpt lat="45.8378" lon="4.81036">
        <ele>381</ele>
        <time>2014-02-09T11:10:27Z</time>
      </trkpt>
      <trkpt lat="45.83777" lon="4.81043">
        <ele>381</ele>
        <time>2014-02-09T11:10:30Z</time>
      </trkpt>
      <trkpt lat="45.83776" lon="4.81045">
        <ele>380</ele>
        <time>2014-02-09T11:10:31Z</time>
      </trkpt>
      <trkpt lat="45.83775" lon="4.81046">
        <ele>380</ele>
        <time>2014-02-09T11:10:32Z</time>
      </trkpt>
      <trkpt lat="45.83774" lon="4.81048">
        <ele>380</ele>
        <time>2014-02-09T11:10:33Z</time>
      </trkpt>
      <trkpt lat="45.83773" lon="4.81053">
        <ele>379</ele>
        <time>2014-02-09T11:10:36Z</time>
      </trkpt>
      <trkpt lat="45.83775" lon="4.81061">
        <ele>378</ele>
        <time>2014-02-09T11:10:41Z</time>
      </trkpt>
      <trkpt lat="45.83775" lon="4.81063">
        <ele>378</ele>
        <time>2014-02-09T11:10:42Z</time>
      </trkpt>
      <trkpt lat="45.83775" lon="4.81066">
        <ele>378</ele>
        <time>2014-02-09T11:10:43Z</time>
      </trkpt>
      <trkpt lat="45.83776" lon="4.81074">
        <ele>377</ele>
        <time>2014-02-09T11:10:46Z</time>
      </trkpt>
      <trkpt lat="45.83777" lon="4.81076">
        <ele>377</ele>
        <time>2014-02-09T11:10:47Z</time>
      </trkpt>
      <trkpt lat="45.83778" lon="4.81087">
        <ele>369</ele>
        <time>2014-02-09T11:10:51Z</time>
      </trkpt>
      <trkpt lat="45.83777" lon="4.81098">
        <ele>368</ele>
        <time>2014-02-09T11:10:55Z</time>
      </trkpt>
      <trkpt lat="45.83774" lon="4.81104">
        <ele>368</ele>
        <time>2014-02-09T11:10:57Z</time>
      </trkpt>
      <trkpt lat="45.83773" lon="4.8111">
        <ele>367</ele>
        <time>2014-02-09T11:10:59Z</time>
      </trkpt>
      <trkpt lat="45.83774" lon="4.81115">
        <ele>367</ele>
        <time>2014-02-09T11:11:01Z</time>
      </trkpt>
      <trkpt lat="45.83774" lon="4.81125">
        <ele>366</ele>
        <time>2014-02-09T11:11:04Z</time>
      </trkpt>
      <trkpt lat="45.83774" lon="4.81133">
        <ele>366</ele>
        <time>2014-02-09T11:11:07Z</time>
      </trkpt>
      <trkpt lat="45.83774" lon="4.81136">
        <ele>365</ele>
        <time>2014-02-09T11:11:08Z</time>
      </trkpt>
      <trkpt lat="45.83775" lon="4.81142">
        <ele>365</ele>
        <time>2014-02-09T11:11:10Z</time>
      </trkpt>
      <trkpt lat="45.83779" lon="4.81152">
        <ele>364</ele>
        <time>2014-02-09T11:11:14Z</time>
      </trkpt>
      <trkpt lat="45.83783" lon="4.81158">
        <ele>364</ele>
        <time>2014-02-09T11:11:19Z</time>
      </trkpt>
      <trkpt lat="45.83783" lon="4.81159">
        <ele>364</ele>
        <time>2014-02-09T11:11:20Z</time>
      </trkpt>
      <trkpt lat="45.83783" lon="4.81169">
        <ele>356</ele>
        <time>2014-02-09T11:11:25Z</time>
      </trkpt>
      <trkpt lat="45.83784" lon="4.81181">
        <ele>355</ele>
        <time>2014-02-09T11:11:30Z</time>
      </trkpt>
      <trkpt lat="45.83784" lon="4.81183">
        <ele>355</ele>
        <time>2014-02-09T11:11:33Z</time>
      </trkpt>
      <trkpt lat="45.83783" lon="4.81182">
        <ele>355</ele>
        <time>2014-02-09T11:11:35Z</time>
      </trkpt>
      <trkpt lat="45.83783" lon="4.81182">
        <ele>355</ele>
        <time>2014-02-09T11:11:38Z</time>
      </trkpt>
      <trkpt lat="45.83785" lon="4.81181">
        <ele>355</ele>
        <time>2014-02-09T11:11:42Z</time>
      </trkpt>
      <trkpt lat="45.83789" lon="4.81179">
        <ele>356</ele>
        <time>2014-02-09T11:11:55Z</time>
      </trkpt>
      <trkpt lat="45.83794" lon="4.81183">
        <ele>356</ele>
        <time>2014-02-09T11:12:02Z</time>
      </trkpt>
      <trkpt lat="45.83794" lon="4.81183">
        <ele>356</ele>
        <time>2014-02-09T11:12:08Z</time>
      </trkpt>
      <trkpt lat="45.8378" lon="4.81181">
        <ele>355</ele>
        <time>2014-02-09T11:12:26Z</time>
      </trkpt>
      <trkpt lat="45.83785" lon="4.81183">
        <ele>355</ele>
        <time>2014-02-09T11:12:33Z</time>
      </trkpt>
      <trkpt lat="45.83786" lon="4.81189">
        <ele>355</ele>
        <time>2014-02-09T11:12:40Z</time>
      </trkpt>
      <trkpt lat="45.83789" lon="4.81188">
        <ele>355</ele>
        <time>2014-02-09T11:12:44Z</time>
      </trkpt>
      <trkpt lat="45.83787" lon="4.81189">
        <ele>355</ele>
        <time>2014-02-09T11:12:47Z</time>
      </trkpt>
      <trkpt lat="45.83784" lon="4.81188">
        <ele>355</ele>
        <time>2014-02-09T11:12:51Z</time>
      </trkpt>
      <trkpt lat="45.83787" lon="4.81177">
        <ele>356</ele>
        <time>2014-02-09T11:13:11Z</time>
      </trkpt>
      <trkpt lat="45.83783" lon="4.81174">
        <ele>356</ele>
        <time>2014-02-09T11:13:16Z</time>
      </trkpt>
      <trkpt lat="45.83784" lon="4.81177">
        <ele>356</ele>
        <time>2014-02-09T11:13:22Z</time>
      </trkpt>
      <trkpt lat="45.83787" lon="4.81176">
        <ele>356</ele>
        <time>2014-02-09T11:13:28Z</time>
      </trkpt>
      <trkpt lat="45.83794" lon="4.81179">
        <ele>356</ele>
        <time>2014-02-09T11:13:36Z</time>
      </trkpt>
      <trkpt lat="45.83797" lon="4.81182">
        <ele>356</ele>
        <time>2014-02-09T11:13:39Z</time>
      </trkpt>
      <trkpt lat="45.83793" lon="4.81184">
        <ele>356</ele>
        <time>2014-02-09T11:13:56Z</time>
      </trkpt>
      <trkpt lat="45.83795" lon="4.81184">
        <ele>356</ele>
        <time>2014-02-09T11:13:59Z</time>
      </trkpt>
      <trkpt lat="45.83795" lon="4.81186">
        <ele>356</ele>
        <time>2014-02-09T11:14:01Z</time>
      </trkpt>
      <trkpt lat="45.83793" lon="4.8119">
        <ele>355</ele>
        <time>2014-02-09T11:14:07Z</time>
      </trkpt>
      <trkpt lat="45.83792" lon="4.81192">
        <ele>355</ele>
        <time>2014-02-09T11:14:08Z</time>
      </trkpt>
      <trkpt lat="45.83788" lon="4.81203">
        <ele>354</ele>
        <time>2014-02-09T11:14:14Z</time>
      </trkpt>
      <trkpt lat="45.83787" lon="4.81205">
        <ele>354</ele>
        <time>2014-02-09T11:14:15Z</time>
      </trkpt>
      <trkpt lat="45.83786" lon="4.81207">
        <ele>353</ele>
        <time>2014-02-09T11:14:16Z</time>
      </trkpt>
      <trkpt lat="45.83786" lon="4.81216">
        <ele>353</ele>
        <time>2014-02-09T11:14:20Z</time>
      </trkpt>
      <trkpt lat="45.83783" lon="4.81223">
        <ele>352</ele>
        <time>2014-02-09T11:14:23Z</time>
      </trkpt>
      <trkpt lat="45.83782" lon="4.81225">
        <ele>351</ele>
        <time>2014-02-09T11:14:24Z</time>
      </trkpt>
      <trkpt lat="45.83782" lon="4.8123">
        <ele>351</ele>
        <time>2014-02-09T11:14:26Z</time>
      </trkpt>
      <trkpt lat="45.83779" lon="4.81237">
        <ele>350</ele>
        <time>2014-02-09T11:14:29Z</time>
      </trkpt>
      <trkpt lat="45.83776" lon="4.81245">
        <ele>349</ele>
        <time>2014-02-09T11:14:32Z</time>
      </trkpt>
      <trkpt lat="45.83774" lon="4.81254">
        <ele>341</ele>
        <time>2014-02-09T11:14:36Z</time>
      </trkpt>
      <trkpt lat="45.83773" lon="4.81262">
        <ele>340</ele>
        <time>2014-02-09T11:14:38Z</time>
      </trkpt>
      <trkpt lat="45.83767" lon="4.81282">
        <ele>339</ele>
        <time>2014-02-09T11:14:43Z</time>
      </trkpt>
      <trkpt lat="45.83768" lon="4.81292">
        <ele>338</ele>
        <time>2014-02-09T11:14:47Z</time>
      </trkpt>
      <trkpt lat="45.83769" lon="4.81306">
        <ele>337</ele>
        <time>2014-02-09T11:14:52Z</time>
      </trkpt>
      <trkpt lat="45.83769" lon="4.81311">
        <ele>336</ele>
        <time>2014-02-09T11:14:54Z</time>
      </trkpt>
      <trkpt lat="45.83768" lon="4.81321">
        <ele>335</ele>
        <time>2014-02-09T11:14:58Z</time>
      </trkpt>
      <trkpt lat="45.83769" lon="4.81336">
        <ele>328</ele>
        <time>2014-02-09T11:15:04Z</time>
      </trkpt>
      <trkpt lat="45.83769" lon="4.81339">
        <ele>327</ele>
        <time>2014-02-09T11:15:05Z</time>
      </trkpt>
      <trkpt lat="45.83772" lon="4.81359">
        <ele>326</ele>
        <time>2014-02-09T11:15:11Z</time>
      </trkpt>
      <trkpt lat="45.83773" lon="4.81367">
        <ele>325</ele>
        <time>2014-02-09T11:15:13Z</time>
      </trkpt>
      <trkpt lat="45.83774" lon="4.81376">
        <ele>324</ele>
        <time>2014-02-09T11:15:16Z</time>
      </trkpt>
      <trkpt lat="45.83777" lon="4.81394">
        <ele>322</ele>
        <time>2014-02-09T11:15:22Z</time>
      </trkpt>
      <trkpt lat="45.83781" lon="4.81408">
        <ele>321</ele>
        <time>2014-02-09T11:15:27Z</time>
      </trkpt>
      <trkpt lat="45.83781" lon="4.8142">
        <ele>312</ele>
        <time>2014-02-09T11:15:31Z</time>
      </trkpt>
      <trkpt lat="45.83781" lon="4.81424">
        <ele>311</ele>
        <time>2014-02-09T11:15:32Z</time>
      </trkpt>
      <trkpt lat="45.8378" lon="4.8144">
        <ele>310</ele>
        <time>2014-02-09T11:15:36Z</time>
      </trkpt>
      <trkpt lat="45.83781" lon="4.81444">
        <ele>310</ele>
        <time>2014-02-09T11:15:37Z</time>
      </trkpt>
      <trkpt lat="45.83781" lon="4.81447">
        <ele>309</ele>
        <time>2014-02-09T11:15:38Z</time>
      </trkpt>
      <trkpt lat="45.8378" lon="4.81464">
        <ele>308</ele>
        <time>2014-02-09T11:15:43Z</time>
      </trkpt>
      <trkpt lat="45.83779" lon="4.81475">
        <ele>307</ele>
        <time>2014-02-09T11:15:46Z</time>
      </trkpt>
      <trkpt lat="45.83777" lon="4.81482">
        <ele>306</ele>
        <time>2014-02-09T11:15:48Z</time>
      </trkpt>
      <trkpt lat="45.83777" lon="4.81492">
        <ele>306</ele>
        <time>2014-02-09T11:15:52Z</time>
      </trkpt>
      <trkpt lat="45.83777" lon="4.81495">
        <ele>306</ele>
        <time>2014-02-09T11:15:53Z</time>
      </trkpt>
      <trkpt lat="45.83776" lon="4.81501">
        <ele>298</ele>
        <time>2014-02-09T11:15:55Z</time>
      </trkpt>
      <trkpt lat="45.83777" lon="4.81512">
        <ele>297</ele>
        <time>2014-02-09T11:15:59Z</time>
      </trkpt>
      <trkpt lat="45.83783" lon="4.81524">
        <ele>296</ele>
        <time>2014-02-09T11:16:03Z</time>
      </trkpt>
      <trkpt lat="45.83783" lon="4.81535">
        <ele>295</ele>
        <time>2014-02-09T11:16:07Z</time>
      </trkpt>
      <trkpt lat="45.83783" lon="4.81538">
        <ele>295</ele>
        <time>2014-02-09T11:16:08Z</time>
      </trkpt>
      <trkpt lat="45.83786" lon="4.8155">
        <ele>294</ele>
        <time>2014-02-09T11:16:12Z</time>
      </trkpt>
      <trkpt lat="45.83788" lon="4.81564">
        <ele>293</ele>
        <time>2014-02-09T11:16:17Z</time>
      </trkpt>
      <trkpt lat="45.83788" lon="4.81576">
        <ele>293</ele>
        <time>2014-02-09T11:16:21Z</time>
      </trkpt>
      <trkpt lat="45.83787" lon="4.81579">
        <ele>293</ele>
        <time>2014-02-09T11:16:22Z</time>
      </trkpt>
      <trkpt lat="45.83785" lon="4.81588">
        <ele>285</ele>
        <time>2014-02-09T11:16:25Z</time>
      </trkpt>
      <trkpt lat="45.83785" lon="4.81591">
        <ele>284</ele>
        <time>2014-02-09T11:16:26Z</time>
      </trkpt>
      <trkpt lat="45.83784" lon="4.81602">
        <ele>284</ele>
        <time>2014-02-09T11:16:29Z</time>
      </trkpt>
      <trkpt lat="45.83788" lon="4.81617">
        <ele>282</ele>
        <time>2014-02-09T11:16:33Z</time>
      </trkpt>
      <trkpt lat="45.83791" lon="4.8163">
        <ele>280</ele>
        <time>2014-02-09T11:16:36Z</time>
      </trkpt>
      <trkpt lat="45.83792" lon="4.81642">
        <ele>279</ele>
        <time>2014-02-09T11:16:39Z</time>
      </trkpt>
      <trkpt lat="45.83795" lon="4.81654">
        <ele>278</ele>
        <time>2014-02-09T11:16:42Z</time>
      </trkpt>
      <trkpt lat="45.83797" lon="4.81657">
        <ele>277</ele>
        <time>2014-02-09T11:16:43Z</time>
      </trkpt>
      <trkpt lat="45.83799" lon="4.8166">
        <ele>277</ele>
        <time>2014-02-09T11:16:44Z</time>
      </trkpt>
      <trkpt lat="45.83806" lon="4.81673">
        <ele>266</ele>
        <time>2014-02-09T11:16:48Z</time>
      </trkpt>
      <trkpt lat="45.83811" lon="4.81679">
        <ele>265</ele>
        <time>2014-02-09T11:16:50Z</time>
      </trkpt>
      <trkpt lat="45.83813" lon="4.81681">
        <ele>265</ele>
        <time>2014-02-09T11:16:51Z</time>
      </trkpt>
      <trkpt lat="45.83816" lon="4.81687">
        <ele>265</ele>
        <time>2014-02-09T11:16:53Z</time>
      </trkpt>
      <trkpt lat="45.8382" lon="4.81701">
        <ele>263</ele>
        <time>2014-02-09T11:16:57Z</time>
      </trkpt>
      <trkpt lat="45.83821" lon="4.81705">
        <ele>263</ele>
        <time>2014-02-09T11:16:58Z</time>
      </trkpt>
      <trkpt lat="45.83824" lon="4.81725">
        <ele>260</ele>
        <time>2014-02-09T11:17:03Z</time>
      </trkpt>
      <trkpt lat="45.83825" lon="4.81728">
        <ele>259</ele>
        <time>2014-02-09T11:17:04Z</time>
      </trkpt>
      <trkpt lat="45.83825" lon="4.81743">
        <ele>255</ele>
        <time>2014-02-09T11:17:08Z</time>
      </trkpt>
      <trkpt lat="45.83827" lon="4.81746">
        <ele>253</ele>
        <time>2014-02-09T11:17:09Z</time>
      </trkpt>
      <trkpt lat="45.8383" lon="4.81753">
        <ele>250</ele>
        <time>2014-02-09T11:17:11Z</time>
      </trkpt>
      <trkpt lat="45.83832" lon="4.81762">
        <ele>250</ele>
        <time>2014-02-09T11:17:13Z</time>
      </trkpt>
      <trkpt lat="45.83833" lon="4.81779">
        <ele>250</ele>
        <time>2014-02-09T11:17:17Z</time>
      </trkpt>
      <trkpt lat="45.83834" lon="4.81783">
        <ele>246</ele>
        <time>2014-02-09T11:17:18Z</time>
      </trkpt>
      <trkpt lat="45.83836" lon="4.81794">
        <ele>245</ele>
        <time>2014-02-09T11:17:21Z</time>
      </trkpt>
      <trkpt lat="45.83838" lon="4.81802">
        <ele>245</ele>
        <time>2014-02-09T11:17:23Z</time>
      </trkpt>
      <trkpt lat="45.83839" lon="4.81806">
        <ele>244</ele>
        <time>2014-02-09T11:17:24Z</time>
      </trkpt>
      <trkpt lat="45.83843" lon="4.81818">
        <ele>243</ele>
        <time>2014-02-09T11:17:28Z</time>
      </trkpt>
      <trkpt lat="45.83849" lon="4.8183">
        <ele>243</ele>
        <time>2014-02-09T11:17:32Z</time>
      </trkpt>
      <trkpt lat="45.83852" lon="4.81836">
        <ele>240</ele>
        <time>2014-02-09T11:17:34Z</time>
      </trkpt>
      <trkpt lat="45.83857" lon="4.81845">
        <ele>240</ele>
        <time>2014-02-09T11:17:39Z</time>
      </trkpt>
      <trkpt lat="45.83858" lon="4.81847">
        <ele>240</ele>
        <time>2014-02-09T11:17:40Z</time>
      </trkpt>
      <trkpt lat="45.83861" lon="4.8185">
        <ele>240</ele>
        <time>2014-02-09T11:17:42Z</time>
      </trkpt>
      <trkpt lat="45.83862" lon="4.81855">
        <ele>240</ele>
        <time>2014-02-09T11:17:44Z</time>
      </trkpt>
      <trkpt lat="45.83864" lon="4.81859">
        <ele>240</ele>
        <time>2014-02-09T11:17:49Z</time>
      </trkpt>
      <trkpt lat="45.83867" lon="4.81858">
        <ele>240</ele>
        <time>2014-02-09T11:18:09Z</time>
      </trkpt>
      <trkpt lat="45.83869" lon="4.81863">
        <ele>240</ele>
        <time>2014-02-09T11:18:12Z</time>
      </trkpt>
      <trkpt lat="45.83869" lon="4.8187">
        <ele>239</ele>
        <time>2014-02-09T11:18:16Z</time>
      </trkpt>
      <trkpt lat="45.83871" lon="4.8188">
        <ele>239</ele>
        <time>2014-02-09T11:18:21Z</time>
      </trkpt>
      <trkpt lat="45.83871" lon="4.81896">
        <ele>238</ele>
        <time>2014-02-09T11:18:28Z</time>
      </trkpt>
      <trkpt lat="45.83869" lon="4.81916">
        <ele>238</ele>
        <time>2014-02-09T11:18:35Z</time>
      </trkpt>
      <trkpt lat="45.83869" lon="4.81925">
        <ele>234</ele>
        <time>2014-02-09T11:18:38Z</time>
      </trkpt>
      <trkpt lat="45.83868" lon="4.81939">
        <ele>233</ele>
        <time>2014-02-09T11:18:42Z</time>
      </trkpt>
      <trkpt lat="45.83867" lon="4.81954">
        <ele>233</ele>
        <time>2014-02-09T11:18:46Z</time>
      </trkpt>
      <trkpt lat="45.83867" lon="4.81967">
        <ele>232</ele>
        <time>2014-02-09T11:18:50Z</time>
      </trkpt>
      <trkpt lat="45.8387" lon="4.81981">
        <ele>231</ele>
        <time>2014-02-09T11:18:54Z</time>
      </trkpt>
      <trkpt lat="45.83871" lon="4.81988">
        <ele>231</ele>
        <time>2014-02-09T11:18:56Z</time>
      </trkpt>
      <trkpt lat="45.83874" lon="4.82009">
        <ele>227</ele>
        <time>2014-02-09T11:19:02Z</time>
      </trkpt>
      <trkpt lat="45.83875" lon="4.82027">
        <ele>227</ele>
        <time>2014-02-09T11:19:07Z</time>
      </trkpt>
      <trkpt lat="45.83875" lon="4.82038">
        <ele>226</ele>
        <time>2014-02-09T11:19:10Z</time>
      </trkpt>
      <trkpt lat="45.83873" lon="4.82052">
        <ele>226</ele>
        <time>2014-02-09T11:19:14Z</time>
      </trkpt>
      <trkpt lat="45.83872" lon="4.82067">
        <ele>225</ele>
        <time>2014-02-09T11:19:18Z</time>
      </trkpt>
      <trkpt lat="45.83872" lon="4.82078">
        <ele>225</ele>
        <time>2014-02-09T11:19:21Z</time>
      </trkpt>
      <trkpt lat="45.83873" lon="4.82093">
        <ele>222</ele>
        <time>2014-02-09T11:19:25Z</time>
      </trkpt>
      <trkpt lat="45.83872" lon="4.82107">
        <ele>221</ele>
        <time>2014-02-09T11:19:29Z</time>
      </trkpt>
      <trkpt lat="45.83871" lon="4.82122">
        <ele>221</ele>
        <time>2014-02-09T11:19:33Z</time>
      </trkpt>
      <trkpt lat="45.8387" lon="4.82132">
        <ele>221</ele>
        <time>2014-02-09T11:19:36Z</time>
      </trkpt>
      <trkpt lat="45.83869" lon="4.8215">
        <ele>220</ele>
        <time>2014-02-09T11:19:41Z</time>
      </trkpt>
      <trkpt lat="45.83867" lon="4.82157">
        <ele>220</ele>
        <time>2014-02-09T11:19:43Z</time>
      </trkpt>
      <trkpt lat="45.83864" lon="4.82178">
        <ele>217</ele>
        <time>2014-02-09T11:19:49Z</time>
      </trkpt>
      <trkpt lat="45.83864" lon="4.82182">
        <ele>217</ele>
        <time>2014-02-09T11:19:50Z</time>
      </trkpt>
      <trkpt lat="45.8386" lon="4.82204">
        <ele>216</ele>
        <time>2014-02-09T11:19:56Z</time>
      </trkpt>
      <trkpt lat="45.8386" lon="4.82207">
        <ele>216</ele>
        <time>2014-02-09T11:19:57Z</time>
      </trkpt>
      <trkpt lat="45.83859" lon="4.8223">
        <ele>215</ele>
        <time>2014-02-09T11:20:03Z</time>
      </trkpt>
      <trkpt lat="45.83859" lon="4.82256">
        <ele>212</ele>
        <time>2014-02-09T11:20:10Z</time>
      </trkpt>
      <trkpt lat="45.83857" lon="4.82276">
        <ele>212</ele>
        <time>2014-02-09T11:20:16Z</time>
      </trkpt>
      <trkpt lat="45.83857" lon="4.82284">
        <ele>212</ele>
        <time>2014-02-09T11:20:18Z</time>
      </trkpt>
      <trkpt lat="45.83857" lon="4.82297">
        <ele>211</ele>
        <time>2014-02-09T11:20:21Z</time>
      </trkpt>
      <trkpt lat="45.83856" lon="4.82313">
        <ele>210</ele>
        <time>2014-02-09T11:20:25Z</time>
      </trkpt>
      <trkpt lat="45.83855" lon="4.82317">
        <ele>210</ele>
        <time>2014-02-09T11:20:26Z</time>
      </trkpt>
      <trkpt lat="45.83853" lon="4.82336">
        <ele>207</ele>
        <time>2014-02-09T11:20:31Z</time>
      </trkpt>
      <trkpt lat="45.83852" lon="4.8234">
        <ele>207</ele>
        <time>2014-02-09T11:20:32Z</time>
      </trkpt>
      <trkpt lat="45.83847" lon="4.82355">
        <ele>207</ele>
        <time>2014-02-09T11:20:36Z</time>
      </trkpt>
      <trkpt lat="45.83844" lon="4.82364">
        <ele>207</ele>
        <time>2014-02-09T11:20:39Z</time>
      </trkpt>
      <trkpt lat="45.83841" lon="4.82372">
        <ele>206</ele>
        <time>2014-02-09T11:20:42Z</time>
      </trkpt>
      <trkpt lat="45.83838" lon="4.82388">
        <ele>205</ele>
        <time>2014-02-09T11:20:47Z</time>
      </trkpt>
      <trkpt lat="45.83838" lon="4.82392">
        <ele>204</ele>
        <time>2014-02-09T11:20:48Z</time>
      </trkpt>
      <trkpt lat="45.83835" lon="4.82415">
        <ele>199</ele>
        <time>2014-02-09T11:20:54Z</time>
      </trkpt>
      <trkpt lat="45.83835" lon="4.82419">
        <ele>199</ele>
        <time>2014-02-09T11:20:55Z</time>
      </trkpt>
      <trkpt lat="45.83832" lon="4.82441">
        <ele>198</ele>
        <time>2014-02-09T11:21:01Z</time>
      </trkpt>
      <trkpt lat="45.83832" lon="4.82445">
        <ele>198</ele>
        <time>2014-02-09T11:21:02Z</time>
      </trkpt>
      <trkpt lat="45.83829" lon="4.82467">
        <ele>198</ele>
        <time>2014-02-09T11:21:08Z</time>
      </trkpt>
      <trkpt lat="45.83828" lon="4.82491">
        <ele>197</ele>
        <time>2014-02-09T11:21:14Z</time>
      </trkpt>
      <trkpt lat="45.83828" lon="4.82494">
        <ele>197</ele>
        <time>2014-02-09T11:21:15Z</time>
      </trkpt>
      <trkpt lat="45.83821" lon="4.82508">
        <ele>197</ele>
        <time>2014-02-09T11:21:20Z</time>
      </trkpt>
      <trkpt lat="45.83813" lon="4.82509">
        <ele>197</ele>
        <time>2014-02-09T11:21:23Z</time>
      </trkpt>
      <trkpt lat="45.83811" lon="4.82508">
        <ele>197</ele>
        <time>2014-02-09T11:21:24Z</time>
      </trkpt>
    </trkseg>
  </trk>
</gpx>